BCO-DMO ERDDAP
Accessing BCO-DMO data
log in    
Brought to you by BCO-DMO    
 
 
austral_year station cast latitude longitude depth time date_local time_local time_zone_offset temp potemp sal cond_S_m cond_mS_cm density sigma_theta sigma_t press O2_mL_L O2_mg_L O2_umol_kg O2_sat fluor pH sound_vel_CM sound_vel_DM sound_vel_WM avg_sound_vel_CM avg_sound_vel_DM avg_sound_vel_WM flag
unitless unitless unitless degrees_north degrees_east m UTC unitless unitless unitless degrees Celsius degrees Celsius practical salinity unit (PSU) Siemens per meter (S/m) millisiemens per centimeter (mS/cm) kilograms per meter cubed (kg/m^3) kilograms per meters cubed kilograms per meters cubed decibars (db) milliliters per liter (ml/l) milligrams per liter (mg/l) micromoles per kilogram (umol/kg) percent milligrams per meter cubed (mg/m^3) pH units meters per second meters per second meters per second meters per second meters per second meters per second unitless
2012/2013 006 14 -77.60145 165.84528 2.0 2012-11-21T22:36:28Z 2012-11-22 10:36:28 12 -1.7855 -1.7855 34.6487 2.726433 27.264333 1027.9049 27.8951 27.8951 2.021 19.81156 28.3127 860.772 235.31106 4.425 1440.32 1440.32 1440.54 1443.2 1443.16 1443.23 0
2012/2013 006 14 -77.60145 165.84528 3.0 2012-11-21T22:42:06Z 2012-11-22 10:42:06 12 -1.8497 -1.8498 34.6737 2.722894 27.228937 1027.9318 27.9172 27.9172 3.032 20.24711 28.93514 879.678 240.10599 4.237 1440.07 1440.06 1440.28 1443.2 1443.16 1443.23 0
2012/2013 006 14 -77.60145 165.84528 4.0 2012-11-21T22:42:25Z 2012-11-22 10:42:25 12 -1.8521 -1.8522 34.6742 2.722778 27.22778 1027.9372 27.9177 27.9177 4.042 20.26301 28.95787 880.368 240.2799 4.229 1440.07 1440.07 1440.29 1443.2 1443.16 1443.23 0
2012/2013 006 14 -77.60145 165.84528 5.0 2012-11-21T22:42:34Z 2012-11-22 10:42:34 12 -1.8517 -1.8518 34.6738 2.722831 27.228306 1027.9417 27.9173 27.9173 5.053 20.26463 28.96017 880.439 240.3013 4.227 1440.09 1440.09 1440.31 1443.2 1443.16 1443.23 0
2012/2013 006 14 -77.60145 165.84528 6.0 2012-11-21T22:42:44Z 2012-11-22 10:42:44 12 -1.8519 -1.852 34.6737 2.722854 27.228539 1027.9465 27.9172 27.9172 6.064 20.26713 28.96376 880.548 240.32961 4.224 1440.1 1440.1 1440.32 1443.2 1443.16 1443.23 0
2012/2013 006 14 -77.60145 165.84528 7.0 2012-11-21T22:42:53Z 2012-11-22 10:42:53 12 -1.8518 -1.8519 34.6736 2.722905 27.22905 1027.9513 27.9172 27.9172 7.074 20.26937 28.96695 880.645 240.35652 4.222 1440.12 1440.12 1440.34 1443.2 1443.16 1443.23 0
2012/2013 006 14 -77.60145 165.84528 8.0 2012-11-21T22:43:01Z 2012-11-22 10:43:01 12 -1.8521 -1.8522 34.6736 2.722926 27.229265 1027.9562 27.9172 27.9172 8.085 20.27205 28.97079 880.761 240.38649 4.219 1440.13 1440.13 1440.36 1443.2 1443.16 1443.23 0
2012/2013 006 14 -77.60145 165.84528 9.0 2012-11-21T22:43:09Z 2012-11-22 10:43:09 12 -1.8521 -1.8523 34.6737 2.722977 27.22977 1027.9611 27.9173 27.9173 9.095 20.27457 28.97439 880.871 240.41626 4.217 1440.15 1440.15 1440.37 1443.2 1443.16 1443.23 0
2012/2013 006 14 -77.60145 165.84528 10.0 2012-11-21T22:43:18Z 2012-11-22 10:43:18 12 -1.8514 -1.8516 34.6742 2.723119 27.231191 1027.9664 27.9176 27.9176 10.106 20.27629 28.97685 880.945 240.44229 4.214 1440.17 1440.17 1440.39 1443.2 1443.16 1443.23 0
2012/2013 006 14 -77.60145 165.84528 11.0 2012-11-21T22:43:26Z 2012-11-22 10:43:26 12 -1.8508 -1.851 34.674 2.723203 27.232033 1027.9711 27.9175 27.9175 11.117 20.27798 28.97927 881.019 240.46568 4.212 1440.19 1440.19 1440.41 1443.2 1443.16 1443.23 0
2012/2013 006 14 -77.60145 165.84528 12.0 2012-11-21T22:43:34Z 2012-11-22 10:43:34 12 -1.8508 -1.851 34.6746 2.723295 27.232949 1027.9765 27.918 27.918 12.127 20.28056 28.98295 881.13 240.49752 4.21 1440.21 1440.2 1440.43 1443.2 1443.16 1443.23 0
2012/2013 006 14 -77.60145 165.84528 13.0 2012-11-21T22:43:41Z 2012-11-22 10:43:41 12 -1.8505 -1.8508 34.6749 2.723384 27.233845 1027.9816 27.9182 27.9182 13.138 20.2828 28.98615 881.228 240.5263 4.208 1440.23 1440.22 1440.45 1443.2 1443.16 1443.23 0
2012/2013 006 14 -77.60145 165.84528 14.0 2012-11-21T22:43:48Z 2012-11-22 10:43:48 12 -1.8506 -1.8508 34.6749 2.723423 27.234229 1027.9864 27.9182 27.9182 14.149 20.28563 28.99019 881.351 240.55937 4.206 1440.24 1440.24 1440.46 1443.2 1443.16 1443.23 0
2012/2013 006 14 -77.60145 165.84528 15.0 2012-11-21T22:43:55Z 2012-11-22 10:43:55 12 -1.8508 -1.8511 34.6745 2.72343 27.234302 1027.991 27.9179 27.9179 15.159 20.2878 28.9933 881.445 240.58322 4.204 1440.26 1440.25 1440.48 1443.2 1443.16 1443.23 0
2012/2013 006 14 -77.60145 165.84528 16.0 2012-11-21T22:44:02Z 2012-11-22 10:44:02 12 -1.8508 -1.8511 34.6743 2.723464 27.234639 1027.9957 27.9178 27.9177 16.17 20.29043 28.99705 881.559 240.61417 4.202 1440.27 1440.27 1440.49 1443.2 1443.16 1443.23 0
2012/2013 006 14 -77.60145 165.84528 17.0 2012-11-21T22:44:10Z 2012-11-22 10:44:10 12 -1.8506 -1.851 34.6743 2.723517 27.235173 1028.0005 27.9177 27.9177 17.181 20.29323 29.00105 881.681 240.64806 4.2 1440.29 1440.28 1440.51 1443.2 1443.16 1443.23 0
2012/2013 006 14 -77.60145 165.84528 18.0 2012-11-21T22:44:18Z 2012-11-22 10:44:18 12 -1.8506 -1.851 34.6745 2.723579 27.235792 1028.0056 27.9179 27.9179 18.191 20.29516 29.00382 881.765 240.6714 4.198 1440.31 1440.3 1440.53 1443.2 1443.16 1443.23 0
2012/2013 006 14 -77.60145 165.84528 19.0 2012-11-21T22:44:26Z 2012-11-22 10:44:26 12 -1.8504 -1.8508 34.6747 2.723663 27.23663 1028.0107 27.9181 27.9181 19.202 20.29761 29.00731 881.871 240.7022 4.196 1440.32 1440.32 1440.55 1443.2 1443.16 1443.23 0
2012/2013 006 14 -77.60145 165.84528 20.0 2012-11-21T22:44:34Z 2012-11-22 10:44:34 12 -1.8502 -1.8506 34.6753 2.723762 27.237625 1028.016 27.9185 27.9185 20.213 20.30015 29.01095 881.981 240.73447 4.194 1440.34 1440.33 1440.57 1442.17 1442.14 1442.27 0
2012/2013 006 14 -77.60145 165.84528 21.0 2012-11-21T22:44:42Z 2012-11-22 10:44:41 12 -1.85 -1.8504 34.6756 2.723853 27.23853 1028.0211 27.9188 27.9187 21.223 20.30233 29.01407 882.076 240.76256 4.192 1440.36 1440.35 1440.58 1441.77 1441.74 1441.9 0
2012/2013 006 14 -77.60145 165.84528 22.0 2012-11-21T22:44:49Z 2012-11-22 10:44:49 12 -1.8502 -1.8507 34.6755 2.723875 27.238746 1028.0259 27.9187 27.9187 22.234 20.30512 29.01805 882.197 240.79381 4.19 1440.37 1440.37 1440.6 1441.77 1441.74 1441.9 0
2012/2013 006 14 -77.60145 165.84528 23.0 2012-11-21T22:44:55Z 2012-11-22 10:44:55 12 -1.8489 -1.8493 34.6759 2.724061 27.240614 1028.031 27.919 27.919 23.245 20.30621 29.01961 882.244 240.81624 4.189 1440.4 1440.39 1440.62 1441.77 1441.74 1441.9 0
2012/2013 006 14 -77.60145 165.84528 24.0 2012-11-21T22:45:02Z 2012-11-22 10:45:02 12 -1.8489 -1.8494 34.6759 2.724107 27.241069 1028.0359 27.919 27.919 24.256 20.30896 29.02353 882.363 240.84868 4.187 1440.41 1440.41 1440.64 1441.77 1441.74 1441.9 0
2012/2013 006 14 -77.60145 165.84528 25.0 2012-11-21T22:45:09Z 2012-11-22 10:45:09 12 -1.8488 -1.8493 34.6759 2.724165 27.241655 1028.0408 27.919 27.919 25.266 20.31136 29.02697 882.468 240.87796 4.185 1440.43 1440.42 1440.66 1441.77 1441.74 1441.9 0
2012/2013 006 14 -77.60145 165.84528 26.0 2012-11-21T22:45:16Z 2012-11-22 10:45:16 12 -1.8483 -1.8488 34.6761 2.724266 27.242658 1028.0458 27.9191 27.9191 26.277 20.31382 29.03048 882.574 240.91062 4.184 1440.45 1440.44 1440.68 1441.77 1441.74 1441.9 0
2012/2013 006 14 -77.60145 165.84528 27.0 2012-11-21T22:45:24Z 2012-11-22 10:45:24 12 -1.8481 -1.8486 34.6761 2.724327 27.243274 1028.0506 27.9191 27.9191 27.288 20.31616 29.03382 882.676 240.93954 4.182 1440.47 1440.46 1440.69 1441.77 1441.74 1441.9 0
2012/2013 006 14 -77.60145 165.84528 28.0 2012-11-21T22:45:31Z 2012-11-22 10:45:31 12 -1.8479 -1.8485 34.6759 2.724378 27.243784 1028.0554 27.919 27.9189 28.298 20.31845 29.0371 882.776 240.96774 4.18 1440.49 1440.48 1440.71 1441.77 1441.74 1441.9 0
2012/2013 006 14 -77.60145 165.84528 29.0 2012-11-21T22:45:40Z 2012-11-22 10:45:40 12 -1.848 -1.8486 34.676 2.724426 27.244256 1028.0603 27.9191 27.919 29.309 20.32104 29.0408 882.888 240.99804 4.178 1440.5 1440.49 1440.73 1441.77 1441.74 1441.9 0
2012/2013 006 14 -77.60145 165.84528 30.0 2012-11-21T22:45:49Z 2012-11-22 10:45:49 12 -1.8481 -1.8487 34.676 2.724468 27.244681 1028.0652 27.9191 27.9191 30.32 20.32379 29.04472 883.007 241.03015 4.176 1440.52 1440.51 1440.74 1441.77 1441.74 1441.9 0
2012/2013 006 14 -77.60145 165.84528 31.0 2012-11-21T22:45:57Z 2012-11-22 10:45:57 12 -1.8481 -1.8487 34.6761 2.724521 27.245211 1028.0702 27.9192 27.9191 31.33 20.32614 29.04809 883.11 241.05817 4.174 1440.53 1440.52 1440.76 1441.77 1441.74 1441.9 0
2012/2013 006 14 -77.60145 165.84528 32.0 2012-11-21T22:46:04Z 2012-11-22 10:46:04 12 -1.8481 -1.8488 34.6763 2.724574 27.24574 1028.0752 27.9193 27.9193 32.341 20.32918 29.05244 883.242 241.09416 4.173 1440.55 1440.54 1440.78 1441.77 1441.74 1441.9 0
2012/2013 006 14 -77.60145 165.84528 33.0 2012-11-21T22:46:12Z 2012-11-22 10:46:12 12 -1.8486 -1.8492 34.6764 2.724593 27.245931 1028.0801 27.9193 27.9193 33.352 20.33167 29.05599 883.35 241.12112 4.171 1440.56 1440.55 1440.79 1441.77 1441.74 1441.9 0
2012/2013 006 14 -77.60145 165.84528 34.0 2012-11-21T22:46:18Z 2012-11-22 10:46:18 12 -1.8484 -1.8491 34.6764 2.724651 27.246508 1028.085 27.9194 27.9193 34.363 20.33434 29.05981 883.466 241.15368 4.169 1440.58 1440.57 1440.81 1441.77 1441.74 1441.9 0
2012/2013 006 14 -77.60145 165.84528 35.0 2012-11-21T22:46:26Z 2012-11-22 10:46:26 12 -1.8482 -1.8489 34.6762 2.724706 27.24706 1028.0898 27.9193 27.9192 35.373 20.33677 29.06327 883.571 241.1835 4.168 1440.6 1440.59 1440.83 1441.77 1441.74 1441.9 0
2012/2013 006 14 -77.60145 165.84528 36.0 2012-11-21T22:46:33Z 2012-11-22 10:46:33 12 -1.8481 -1.8488 34.6763 2.724763 27.247632 1028.0946 27.9193 27.9192 36.384 20.33934 29.06696 883.683 241.21477 4.166 1440.62 1440.6 1440.84 1441.77 1441.74 1441.9 0
2012/2013 006 14 -77.60145 165.84528 37.0 2012-11-21T22:46:40Z 2012-11-22 10:46:40 12 -1.848 -1.8487 34.6761 2.724811 27.248115 1028.0994 27.9192 27.9192 37.395 20.34204 29.0708 883.8 241.24726 4.165 1440.63 1440.62 1440.86 1441.77 1441.74 1441.9 0
2012/2013 006 14 -77.60145 165.84528 38.0 2012-11-21T22:46:47Z 2012-11-22 10:46:47 12 -1.848 -1.8488 34.6761 2.724856 27.24856 1028.1043 27.9192 27.9191 38.406 20.34438 29.07416 883.902 241.27491 4.163 1440.65 1440.64 1440.88 1441.77 1441.74 1441.9 0
2012/2013 006 14 -77.60145 165.84528 39.0 2012-11-21T22:46:54Z 2012-11-22 10:46:54 12 -1.848 -1.8488 34.6761 2.724903 27.249035 1028.1091 27.9192 27.9191 39.417 20.34681 29.07762 884.008 241.30371 4.162 1440.66 1440.65 1440.89 1441.77 1441.74 1441.9 0
2012/2013 006 14 -77.60145 165.84528 40.0 2012-11-21T22:47:00Z 2012-11-22 10:47:00 12 -1.8481 -1.8489 34.6761 2.724945 27.249452 1028.114 27.9192 27.9191 40.427 14.35447 20.51397 623.658 170.23722 4.161 1440.68 1440.67 1440.91 1441.2 1441.17 1441.36 0
2012/2013 006 14 -77.60145 165.84528 41.0 2012-11-21T22:47:07Z 2012-11-22 10:47:07 12 -1.8482 -1.849 34.676 2.724973 27.24973 1028.1188 27.9191 27.9191 41.438 -10.97829 -15.68908 -476.974 -130.19707 4.159 1440.7 1440.68 1440.92 1441.14 1441.12 1441.31 0
2012/2013 006 14 -77.60145 165.84528 42.0 2012-11-21T22:47:12Z 2012-11-22 10:47:12 12 -1.8483 -1.8491 34.676 2.725012 27.250115 1028.1237 27.9191 27.919 42.449 -2.3934 -3.42041 -103.986 -28.38441 4.158 1440.71 1440.7 1440.94 1441.14 1441.12 1441.31 0
2012/2013 006 14 -77.60145 165.84528 43.0 2012-11-21T22:47:18Z 2012-11-22 10:47:18 12 -1.849 -1.8499 34.677 2.725069 27.250695 1028.1294 27.9199 27.9199 43.46 -2.39586 -3.42393 -104.093 -28.41323 4.157 1440.73 1440.71 1440.96 1441.14 1441.12 1441.31 0
2012/2013 006 14 -77.60145 165.84528 44.0 2012-11-21T22:47:22Z 2012-11-22 10:47:22 12 -1.8493 -1.8502 34.6775 2.72513 27.251299 1028.1347 27.9203 27.9203 44.47 -2.39618 -3.42438 -104.107 -28.41686 4.156 1440.74 1440.73 1440.97 1441.14 1441.12 1441.31 0
2012/2013 006 14 -77.60145 165.84528 45.0 2012-11-21T22:47:25Z 2012-11-22 10:47:25 12 -1.8501 -1.851 34.6782 2.725154 27.251543 1028.1401 27.9209 27.9209 45.481 -2.39694 -3.42547 -104.14 -28.42544 4.156 1440.76 1440.74 1440.99 1441.14 1441.12 1441.31 0
2012/2013 006 14 -77.60145 165.84528 46.0 2012-11-21T22:47:29Z 2012-11-22 10:47:29 12 -1.8506 -1.8515 34.6788 2.72521 27.252099 1028.1455 27.9214 27.9214 46.492 -2.39662 -3.42501 -104.126 -28.4214 4.155 1440.77 1440.75 1441.0 1441.14 1441.12 1441.31 0
2012/2013 006 14 -77.60145 165.84528 47.0 2012-11-21T22:47:32Z 2012-11-22 10:47:32 12 -1.8506 -1.8515 34.6791 2.725273 27.252728 1028.1506 27.9216 27.9216 47.503 -2.39806 -3.42707 -104.188 -28.43851 4.154 1440.79 1440.77 1441.02 1441.14 1441.12 1441.31 0
2012/2013 006 14 -77.60145 165.84528 48.0 2012-11-21T22:47:35Z 2012-11-22 10:47:35 12 -1.8507 -1.8516 34.6792 2.725318 27.253183 1028.1555 27.9217 27.9217 48.514 -2.39773 -3.4266 -104.174 -28.43455 4.153 1440.8 1440.79 1441.03 1441.14 1441.12 1441.31 0
2012/2013 006 14 -77.60145 165.84528 49.0 2012-11-21T22:47:37Z 2012-11-22 10:47:37 12 -1.8511 -1.8521 34.6795 2.725355 27.253552 1028.1607 27.922 27.922 49.524 -2.39774 -3.42662 -104.174 -28.43443 4.153 1440.82 1440.8 1441.05 1441.14 1441.12 1441.31 0
2012/2013 006 14 -77.60145 165.84528 50.0 2012-11-21T22:47:40Z 2012-11-22 10:47:40 12 -1.8515 -1.8525 34.6799 2.725399 27.253986 1028.1659 27.9223 27.9223 50.535 -2.39789 -3.42682 -104.181 -28.4359 4.153 1440.83 1440.82 1441.06 1441.14 1441.12 1441.31 0
2012/2013 006 14 -77.60145 165.84528 51.0 2012-11-21T22:47:43Z 2012-11-22 10:47:43 12 -1.8516 -1.8526 34.6801 2.72545 27.254496 1028.1709 27.9225 27.9225 51.546 -2.39866 -3.42792 -104.214 -28.44501 4.153 1440.85 1440.83 1441.08 1441.14 1441.12 1441.31 0
2012/2013 006 14 -77.60145 165.84528 52.0 2012-11-21T22:47:45Z 2012-11-22 10:47:45 12 -1.8516 -1.8526 34.6803 2.725511 27.255106 1028.1759 27.9227 27.9226 52.557 -2.39875 -3.42806 -104.218 -28.44616 4.152 1440.87 1440.85 1441.1 1441.14 1441.12 1441.31 0
2012/2013 006 14 -77.60145 165.84528 53.0 2012-11-21T22:47:49Z 2012-11-22 10:47:49 12 -1.8517 -1.8528 34.6803 2.725552 27.255525 1028.1808 27.9227 27.9227 53.568 -2.39857 -3.4278 -104.21 -28.44395 4.152 1440.88 1440.86 1441.11 1441.14 1441.12 1441.31 0
2012/2013 006 14 -77.60145 165.84528 54.0 2012-11-21T22:47:51Z 2012-11-22 10:47:51 12 -1.8518 -1.8529 34.6804 2.725597 27.255971 1028.1858 27.9228 27.9227 54.579 -2.39983 -3.42959 -104.265 -28.45881 4.151 1440.9 1440.88 1441.13 1441.14 1441.12 1441.31 0
2012/2013 006 14 -77.60145 165.84528 55.0 2012-11-21T22:47:53Z 2012-11-22 10:47:53 12 -1.8518 -1.8528 34.6803 2.725645 27.256446 1028.1906 27.9227 27.9226 55.59 -2.39929 -3.42882 -104.241 -28.45245 4.151 1440.91 1440.9 1441.15 1441.14 1441.12 1441.31 0
2012/2013 006 14 -77.60145 165.84528 56.0 2012-11-21T22:47:55Z 2012-11-22 10:47:55 12 -1.852 -1.8531 34.681 2.725716 27.257158 1028.196 27.9233 27.9232 56.6 -2.3999 -3.42969 -104.268 -28.45959 4.152 1440.93 1440.91 1441.16 1441.14 1441.12 1441.31 0
2012/2013 006 14 -77.60145 165.84528 57.0 2012-11-21T22:47:58Z 2012-11-22 10:47:58 12 -1.853 -1.8541 34.6824 2.725776 27.257759 1028.202 27.9244 27.9243 57.611 -2.40098 -3.43124 -104.315 -28.4719 4.151 1440.94 1440.92 1441.18 1441.14 1441.12 1441.31 0
2012/2013 006 14 -77.60145 165.84528 58.0 2012-11-21T22:48:00Z 2012-11-22 10:48:00 12 -1.8541 -1.8553 34.6839 2.725836 27.258361 1028.2081 27.9256 27.9256 58.622 -2.39991 -3.42971 -104.268 -28.45871 4.151 1440.96 1440.94 1441.19 1441.14 1441.12 1441.31 0
2012/2013 006 14 -77.60145 165.84528 59.0 2012-11-21T22:48:03Z 2012-11-22 10:48:03 12 -1.8569 -1.8581 34.6872 2.725885 27.258855 1028.2158 27.9284 27.9284 59.633 -2.40223 -3.43303 -104.368 -28.48471 4.151 1440.96 1440.95 1441.2 1441.13 1441.11 1441.3 0
2012/2013 006 14 -77.60145 165.84528 60.0 2012-11-21T22:48:06Z 2012-11-22 10:48:06 12 -1.8573 -1.8585 34.6877 2.725939 27.259387 1028.2211 27.9289 27.9288 60.644 -2.40234 -3.43318 -104.373 -28.4858 4.15 1440.98 1440.96 1441.21 1441.03 1441.01 1441.23 0
2012/2013 006 14 -77.60145 165.84528 61.0 2012-11-21T22:48:09Z 2012-11-22 10:48:09 12 -1.8579 -1.8591 34.688 2.725964 27.259637 1028.2262 27.9291 27.9291 61.655 -2.40224 -3.43304 -104.369 -28.48429 4.149 1440.99 1440.97 1441.23 1441.03 1441.01 1441.23 0
2012/2013 006 14 -77.60145 165.84528 62.0 2012-11-21T22:48:12Z 2012-11-22 10:48:12 12 -1.8582 -1.8595 34.6883 2.725994 27.259944 1028.2313 27.9293 27.9293 62.666 -2.40265 -3.43362 -104.387 -28.4889 4.149 1441.01 1440.99 1441.24 1441.03 1441.01 1441.23 0
2012/2013 006 14 -77.60145 165.84528 63.0 2012-11-21T22:48:16Z 2012-11-22 10:48:16 12 -1.8586 -1.8598 34.6885 2.726032 27.260314 1028.2364 27.9296 27.9295 63.677 -2.40243 -3.43331 -104.377 -28.48607 4.149 1441.03 1441.0 1441.26 1441.03 1441.01 1441.23 0
2012/2013 006 14 -77.60145 165.84528 64.0 2012-11-21T22:48:18Z 2012-11-22 10:48:18 12 -1.8588 -1.8601 34.6888 2.726083 27.260824 1028.2415 27.9298 27.9298 64.687 -2.40471 -3.43657 -104.477 -28.51306 4.148 1441.04 1441.02 1441.28 1441.03 1441.01 1441.23 0
2012/2013 006 14 -77.60145 165.84528 65.0 2012-11-21T22:48:21Z 2012-11-22 10:48:21 12 -1.8587 -1.86 34.6887 2.72613 27.261302 1028.2463 27.9297 27.9297 65.698 -2.40292 -3.43401 -104.399 -28.49186 4.148 1441.06 1441.03 1441.29 1441.03 1441.01 1441.23 0
2012/2013 006 14 -77.60145 165.84528 66.0 2012-11-21T22:48:24Z 2012-11-22 10:48:24 12 -1.8589 -1.8603 34.6887 2.726156 27.261557 1028.2512 27.9297 27.9297 66.709 -2.40416 -3.43578 -104.452 -28.50633 4.148 1441.07 1441.05 1441.31 1441.03 1441.01 1441.23 0
2012/2013 006 14 -77.60145 165.84528 67.0 2012-11-21T22:48:27Z 2012-11-22 10:48:27 12 -1.8604 -1.8617 34.6897 2.726152 27.26152 1028.2569 27.9306 27.9305 67.72 -2.40318 -3.43439 -104.41 -28.49383 4.147 1441.08 1441.06 1441.32 1441.03 1441.01 1441.23 0
2012/2013 006 14 -77.60145 165.84528 68.0 2012-11-21T22:48:30Z 2012-11-22 10:48:30 12 -1.861 -1.8624 34.6902 2.726177 27.261775 1028.2621 27.931 27.9309 68.731 -2.40491 -3.43686 -104.485 -28.51396 4.147 1441.1 1441.07 1441.33 1441.03 1441.01 1441.23 0
2012/2013 006 14 -77.60145 165.84528 69.0 2012-11-21T22:48:34Z 2012-11-22 10:48:34 12 -1.8614 -1.8628 34.6903 2.726203 27.262027 1028.2671 27.9311 27.931 69.742 -2.40482 -3.43673 -104.481 -28.51266 4.147 1441.11 1441.09 1441.35 1441.03 1441.01 1441.23 0
2012/2013 006 14 -77.60145 165.84528 70.0 2012-11-21T22:48:37Z 2012-11-22 10:48:37 12 -1.8632 -1.8646 34.6912 2.726167 27.261672 1028.2728 27.9319 27.9318 70.753 -2.40496 -3.43692 -104.487 -28.51305 4.146 1441.12 1441.1 1441.36 1441.03 1441.01 1441.23 0
2012/2013 006 14 -77.60145 165.84528 71.0 2012-11-21T22:48:41Z 2012-11-22 10:48:41 12 -1.865 -1.8664 34.6925 2.726148 27.261482 1028.2787 27.9329 27.9329 71.764 -2.40632 -3.43887 -104.546 -28.52802 4.146 1441.13 1441.1 1441.37 1441.03 1441.01 1441.23 0
2012/2013 006 14 -77.60145 165.84528 72.0 2012-11-21T22:48:44Z 2012-11-22 10:48:44 12 -1.8657 -1.8671 34.6923 2.726131 27.261305 1028.2835 27.9328 27.9328 72.775 -2.40642 -3.43901 -104.55 -28.52866 4.145 1441.14 1441.12 1441.38 1441.03 1441.01 1441.23 0
2012/2013 006 14 -77.60145 165.84528 73.0 2012-11-21T22:48:47Z 2012-11-22 10:48:47 12 -1.8659 -1.8673 34.6925 2.726176 27.261757 1028.2885 27.933 27.933 73.786 -2.40743 -3.44046 -104.594 -28.54057 4.145 1441.16 1441.13 1441.4 1441.03 1441.01 1441.23 0
2012/2013 006 14 -77.60145 165.84528 74.0 2012-11-21T22:48:50Z 2012-11-22 10:48:50 12 -1.8659 -1.8674 34.6927 2.726234 27.262337 1028.2935 27.9332 27.9331 74.797 -2.406 -3.43841 -104.532 -28.52359 4.144 1441.17 1441.15 1441.41 1441.03 1441.01 1441.23 0
2012/2013 006 14 -77.60145 165.84528 75.0 2012-11-21T22:48:53Z 2012-11-22 10:48:53 12 -1.8664 -1.8679 34.6927 2.726236 27.262356 1028.2984 27.9331 27.9331 75.808 -2.40782 -3.44101 -104.611 -28.5448 4.144 1441.19 1441.16 1441.43 1441.03 1441.01 1441.23 0
2012/2013 006 14 -77.60145 165.84528 76.0 2012-11-21T22:48:56Z 2012-11-22 10:48:56 12 -1.8665 -1.868 34.6925 2.726258 27.262577 1028.3031 27.933 27.9329 76.819 -2.40851 -3.44201 -104.641 -28.5529 4.143 1441.2 1441.18 1441.44 1441.03 1441.01 1441.23 0
2012/2013 006 14 -77.60145 165.84528 77.0 2012-11-21T22:48:59Z 2012-11-22 10:48:59 12 -1.8664 -1.8679 34.6925 2.726318 27.263183 1028.308 27.933 27.933 77.83 -2.40798 -3.44124 -104.618 -28.54665 4.143 1441.22 1441.2 1441.46 1441.03 1441.01 1441.23 0
2012/2013 006 14 -77.60145 165.84528 78.0 2012-11-21T22:49:02Z 2012-11-22 10:49:02 12 -1.8666 -1.8682 34.6928 2.726365 27.263653 1028.3131 27.9333 27.9332 78.841 -2.40696 -3.43979 -104.574 -28.53452 4.142 1441.24 1441.21 1441.48 1441.03 1441.01 1441.23 0
2012/2013 006 14 -77.60145 165.84528 79.0 2012-11-21T22:49:05Z 2012-11-22 10:49:05 12 -1.8665 -1.8681 34.6926 2.726411 27.264111 1028.3178 27.9331 27.9331 79.852 -2.40979 -3.44383 -104.697 -28.56805 4.142 1441.25 1441.23 1441.49 1441.04 1441.02 1441.24 0
2012/2013 006 14 -77.60145 165.84528 80.0 2012-11-21T22:49:07Z 2012-11-22 10:49:07 12 -1.8667 -1.8683 34.6927 2.726449 27.264496 1028.3228 27.9332 27.9332 80.863 -2.40836 -3.44179 -104.634 -28.55101 4.142 1441.27 1441.24 1441.51 1441.05 1441.03 1441.26 0
2012/2013 006 14 -77.60145 165.84528 81.0 2012-11-21T22:49:10Z 2012-11-22 10:49:10 12 -1.8669 -1.8685 34.6924 2.726463 27.26463 1028.3274 27.933 27.9329 81.874 -2.40934 -3.44318 -104.677 -28.56242 4.141 1441.28 1441.26 1441.52 1441.05 1441.03 1441.26 0
2012/2013 006 14 -77.60145 165.84528 82.0 2012-11-21T22:49:13Z 2012-11-22 10:49:13 12 -1.8673 -1.8689 34.6926 2.726488 27.26488 1028.3325 27.9331 27.9331 82.885 -2.40954 -3.44347 -104.686 -28.56452 4.141 1441.3 1441.27 1441.54 1441.05 1441.03 1441.26 0
2012/2013 006 14 -77.60145 165.84528 83.0 2012-11-21T22:49:15Z 2012-11-22 10:49:15 12 -1.8674 -1.8691 34.6928 2.726535 27.265345 1028.3375 27.9333 27.9332 83.896 -2.41019 -3.4444 -104.714 -28.57214 4.14 1441.31 1441.29 1441.56 1441.05 1441.03 1441.26 0
2012/2013 006 14 -77.60145 165.84528 84.0 2012-11-21T22:49:18Z 2012-11-22 10:49:18 12 -1.8674 -1.8691 34.6926 2.726566 27.26566 1028.3422 27.9331 27.9331 84.907 -2.40969 -3.44369 -104.692 -28.56617 4.14 1441.33 1441.3 1441.57 1441.05 1441.03 1441.26 0
2012/2013 006 14 -77.60145 165.84528 85.0 2012-11-21T22:49:20Z 2012-11-22 10:49:20 12 -1.8674 -1.8692 34.6928 2.726625 27.266248 1028.3472 27.9333 27.9332 85.917 -2.41056 -3.44493 -104.73 -28.5765 4.139 1441.35 1441.32 1441.59 1441.05 1441.03 1441.26 0
2012/2013 006 14 -77.60145 165.84528 86.0 2012-11-21T22:49:22Z 2012-11-22 10:49:22 12 -1.8674 -1.8691 34.6927 2.726673 27.266733 1028.352 27.9333 27.9332 86.928 -2.41198 -3.44696 -104.792 -28.59338 4.139 1441.37 1441.34 1441.61 1441.05 1441.03 1441.26 0
2012/2013 006 14 -77.60145 165.84528 87.0 2012-11-21T22:49:24Z 2012-11-22 10:49:24 12 -1.8673 -1.869 34.6928 2.726738 27.267379 1028.357 27.9333 27.9332 87.94 -2.41055 -3.44491 -104.73 -28.57651 4.138 1441.38 1441.35 1441.62 1441.05 1441.03 1441.26 0
2012/2013 006 14 -77.60145 165.84528 88.0 2012-11-21T22:49:26Z 2012-11-22 10:49:26 12 -1.8671 -1.8688 34.6926 2.726787 27.267868 1028.3617 27.9331 27.9331 88.951 -2.41197 -3.44695 -104.792 -28.59351 4.138 1441.4 1441.37 1441.64 1441.05 1441.03 1441.26 0
2012/2013 006 14 -77.60145 165.84528 89.0 2012-11-21T22:49:29Z 2012-11-22 10:49:29 12 -1.8672 -1.8689 34.6925 2.726819 27.268192 1028.3664 27.9331 27.933 89.962 -2.41119 -3.44583 -104.757 -28.58412 4.137 1441.41 1441.39 1441.66 1441.05 1441.03 1441.26 0
2012/2013 006 14 -77.60145 165.84528 90.0 2012-11-21T22:49:31Z 2012-11-22 10:49:31 12 -1.8674 -1.8692 34.6927 2.726859 27.268591 1028.3714 27.9332 27.9331 90.973 -2.41319 -3.44869 -104.844 -28.6077 4.137 1441.43 1441.4 1441.67 1441.05 1441.03 1441.26 0
2012/2013 006 14 -77.60145 165.84528 91.0 2012-11-21T22:49:33Z 2012-11-22 10:49:33 12 -1.8674 -1.8693 34.6928 2.726903 27.269032 1028.3764 27.9332 27.9332 91.984 -2.41165 -3.44648 -104.777 -28.58938 4.137 1441.45 1441.42 1441.69 1441.05 1441.03 1441.26 0
2012/2013 006 14 -77.60145 165.84528 92.0 2012-11-21T22:49:35Z 2012-11-22 10:49:35 12 -1.8675 -1.8694 34.6927 2.726938 27.269386 1028.3812 27.9332 27.9332 92.995 -2.41376 -3.4495 -104.869 -28.61433 4.136 1441.46 1441.43 1441.7 1441.05 1441.03 1441.26 0
2012/2013 006 14 -77.60145 165.84528 93.0 2012-11-21T22:49:37Z 2012-11-22 10:49:37 12 -1.8677 -1.8695 34.6926 2.726971 27.269705 1028.386 27.9331 27.9331 94.006 -2.41384 -3.44962 -104.873 -28.61521 4.136 1441.48 1441.45 1441.72 1441.05 1441.03 1441.26 0
2012/2013 006 14 -77.60145 165.84528 94.0 2012-11-21T22:49:39Z 2012-11-22 10:49:39 12 -1.8678 -1.8697 34.6927 2.727013 27.270126 1028.3909 27.9332 27.9331 95.017 -2.41251 -3.44772 -104.815 -28.59935 4.135 1441.49 1441.46 1441.74 1441.05 1441.03 1441.26 0
2012/2013 006 14 -77.60145 165.84528 95.0 2012-11-21T22:49:42Z 2012-11-22 10:49:42 12 -1.8681 -1.87 34.6929 2.727047 27.270466 1028.3959 27.9334 27.9333 96.028 -2.41431 -3.45029 -104.893 -28.62052 4.135 1441.51 1441.48 1441.75 1441.05 1441.03 1441.26 0
2012/2013 006 14 -77.60145 165.84528 96.0 2012-11-21T22:49:44Z 2012-11-22 10:49:44 12 -1.8681 -1.87 34.6928 2.727091 27.270907 1028.4008 27.9333 27.9333 97.039 -2.41436 -3.45036 -104.895 -28.62109 4.135 1441.53 1441.49 1441.77 1441.05 1441.03 1441.26 0
2012/2013 006 14 -77.60145 165.84528 97.0 2012-11-21T22:50:03Z 2012-11-22 10:50:03 12 -1.8674 -1.8694 34.6928 2.72719 27.271904 1028.4056 27.9333 27.9332 98.05 -2.41454 -3.45062 -104.903 -28.6237 4.131 1441.55 1441.51 1441.79 1441.05 1441.03 1441.26 0
2012/2013 007 16 -77.60927 165.86697 2.0 2012-11-22T01:57:18Z 2012-11-22 13:57:18 12 -1.8505 -1.8505 32.8078 2.589235 25.892348 1026.4094 26.3996 26.3996 2.021 16.11895 23.0356 701.338 188.66863 3.902 1437.5 1437.5 1437.62 1430.26 1430.23 1430.09 0
2012/2013 007 16 -77.60927 165.86697 3.0 2012-11-22T01:59:09Z 2012-11-22 13:59:09 12 -1.8514 -1.8514 34.7638 2.729203 27.292031 1028.0052 27.9906 27.9906 3.032 19.89085 28.42601 864.15 235.9909 3.9 1440.18 1440.18 1440.4 1430.26 1430.23 1430.09 0
2012/2013 007 16 -77.60927 165.86697 4.0 2012-11-22T01:59:06Z 2012-11-22 13:59:06 12 -1.8517 -1.8517 34.6747 2.722847 27.22847 1027.9375 27.918 27.918 4.042 19.65992 28.096 854.166 233.13216 3.9 1440.07 1440.07 1440.29 1430.26 1430.23 1430.09 0
2012/2013 007 16 -77.60927 165.86697 5.0 2012-11-22T01:59:08Z 2012-11-22 13:59:09 12 -1.8517 -1.8518 34.6751 2.722925 27.229244 1027.9428 27.9184 27.9184 5.053 19.73311 28.20059 857.345 234.00064 3.9 1440.09 1440.09 1440.31 1430.26 1430.23 1430.09 0
2012/2013 007 16 -77.60927 165.86697 6.0 2012-11-22T01:59:11Z 2012-11-22 13:59:11 12 -1.8512 -1.8514 34.6748 2.722986 27.229857 1027.9474 27.9182 27.9182 6.063 19.81616 28.31927 860.953 234.98763 3.9 1440.11 1440.11 1440.33 1430.26 1430.23 1430.09 0
2012/2013 007 16 -77.60927 165.86697 7.0 2012-11-22T01:59:14Z 2012-11-22 13:59:14 12 -1.8508 -1.851 34.6744 2.723037 27.230375 1027.9519 27.9178 27.9178 7.074 19.9624 28.52827 867.308 236.72382 3.9 1440.13 1440.12 1440.35 1430.26 1430.23 1430.09 0
2012/2013 007 16 -77.60927 165.86697 8.0 2012-11-22T01:59:18Z 2012-11-22 13:59:18 12 -1.8503 -1.8504 34.6735 2.723075 27.230753 1027.9561 27.9171 27.9171 8.085 19.80134 28.2981 860.311 234.81631 3.9 1440.14 1440.14 1440.36 1430.26 1430.23 1430.09 0
2012/2013 007 16 -77.60927 165.86697 9.0 2012-11-22T01:59:21Z 2012-11-22 13:59:21 12 -1.8501 -1.8502 34.6733 2.723123 27.23123 1027.9608 27.9169 27.9169 9.095 19.98641 28.56258 868.351 237.01182 3.9 1440.16 1440.16 1440.38 1430.26 1430.23 1430.09 0
2012/2013 007 16 -77.60927 165.86697 10.0 2012-11-22T01:59:24Z 2012-11-22 13:59:24 12 -1.85 -1.8502 34.6735 2.72319 27.231902 1027.9658 27.9171 27.9171 10.106 20.19356 28.85862 877.351 239.46913 3.9 1440.18 1440.17 1440.4 1430.26 1430.23 1430.09 0
2012/2013 007 16 -77.60927 165.86697 11.0 2012-11-22T01:59:27Z 2012-11-22 13:59:27 12 -1.8498 -1.85 34.6739 2.723283 27.232827 1027.971 27.9174 27.9174 11.117 20.16703 28.82071 876.199 239.15645 3.9 1440.2 1440.19 1440.42 1430.26 1430.23 1430.09 0
2012/2013 007 16 -77.60927 165.86697 12.0 2012-11-22T01:59:30Z 2012-11-22 13:59:30 12 -1.8496 -1.8499 34.6741 2.723356 27.233556 1027.976 27.9175 27.9175 12.127 20.34557 29.07586 883.955 241.27524 3.9 1440.21 1440.21 1440.43 1430.26 1430.23 1430.09 0
2012/2013 007 16 -77.60927 165.86697 13.0 2012-11-22T01:59:34Z 2012-11-22 13:59:34 12 -1.8503 -1.8505 34.6748 2.723399 27.233993 1027.9815 27.9181 27.9181 13.138 20.2499 28.93913 879.798 240.13764 3.899 1440.23 1440.22 1440.45 1430.26 1430.23 1430.09 0
2012/2013 007 16 -77.60927 165.86697 14.0 2012-11-22T01:59:37Z 2012-11-22 13:59:37 12 -1.8501 -1.8504 34.6755 2.723507 27.235067 1027.9869 27.9187 27.9187 14.149 20.28345 28.98708 881.256 240.5377 3.898 1440.25 1440.24 1440.47 1430.26 1430.23 1430.09 0
2012/2013 007 16 -77.60927 165.86697 15.0 2012-11-22T01:59:41Z 2012-11-22 13:59:41 12 -1.85 -1.8503 34.6755 2.723557 27.235566 1027.9917 27.9187 27.9186 15.159 20.27919 28.98099 881.07 240.48743 3.898 1440.26 1440.26 1440.48 1430.26 1430.23 1430.09 0
2012/2013 007 16 -77.60927 165.86697 16.0 2012-11-22T01:59:44Z 2012-11-22 13:59:44 12 -1.8501 -1.8504 34.6756 2.72361 27.236101 1027.9967 27.9188 27.9188 16.17 20.28429 28.98828 881.292 240.54793 3.898 1440.28 1440.27 1440.5 1430.26 1430.23 1430.09 0
2012/2013 007 16 -77.60927 165.86697 17.0 2012-11-22T01:59:48Z 2012-11-22 13:59:48 12 -1.85 -1.8504 34.6756 2.723661 27.23661 1028.0016 27.9187 27.9187 17.181 20.2851 28.98943 881.327 240.55785 3.899 1440.3 1440.29 1440.52 1430.26 1430.23 1430.09 0
2012/2013 007 16 -77.60927 165.86697 18.0 2012-11-22T01:59:51Z 2012-11-22 13:59:51 12 -1.8498 -1.8501 34.6762 2.723776 27.237758 1028.007 27.9193 27.9193 18.191 20.28607 28.99082 881.369 240.57214 3.899 1440.31 1440.31 1440.54 1430.26 1430.23 1430.09 0
2012/2013 007 16 -77.60927 165.86697 19.0 2012-11-22T01:59:55Z 2012-11-22 13:59:55 12 -1.8493 -1.8497 34.6772 2.72393 27.239301 1028.0126 27.9201 27.9201 19.202 20.28643 28.99133 881.384 240.58092 3.899 1440.33 1440.33 1440.56 1430.26 1430.23 1430.09 0
2012/2013 007 16 -77.60927 165.86697 20.0 2012-11-22T01:59:58Z 2012-11-22 13:59:58 12 -1.8488 -1.8492 34.678 2.724075 27.240749 1028.0181 27.9207 27.9207 20.213 20.28888 28.99484 881.49 240.61474 3.899 1440.35 1440.34 1440.58 1433.98 1433.96 1433.96 0
2012/2013 007 16 -77.60927 165.86697 21.0 2012-11-22T02:00:02Z 2012-11-22 14:00:02 12 -1.8485 -1.8489 34.6775 2.724118 27.24118 1028.0226 27.9203 27.9203 21.224 20.28912 28.99518 881.5 240.61908 3.898 1440.37 1440.36 1440.59 1435.31 1435.3 1435.34 0
2012/2013 007 16 -77.60927 165.86697 22.0 2012-11-22T02:00:06Z 2012-11-22 14:00:06 12 -1.8474 -1.8478 34.6784 2.724318 27.243185 1028.0282 27.921 27.921 22.234 20.29161 28.99874 881.608 240.65703 3.898 1440.39 1440.38 1440.62 1435.3 1435.29 1435.33 0
2012/2013 007 16 -77.60927 165.86697 23.0 2012-11-22T02:00:10Z 2012-11-22 14:00:10 12 -1.8469 -1.8474 34.6789 2.72444 27.244398 1028.0334 27.9213 27.9213 23.245 20.2941 29.00229 881.716 240.69059 3.898 1440.41 1440.41 1440.64 1435.3 1435.29 1435.33 0
2012/2013 007 16 -77.60927 165.86697 24.0 2012-11-22T02:00:14Z 2012-11-22 14:00:14 12 -1.8476 -1.848 34.6789 2.724435 27.244351 1028.0383 27.9214 27.9214 24.255 20.29672 29.00605 881.83 240.71756 3.898 1440.43 1440.42 1440.65 1435.3 1435.29 1435.33 0
2012/2013 007 16 -77.60927 165.86697 25.0 2012-11-22T02:00:18Z 2012-11-22 14:00:18 12 -1.8496 -1.8501 34.6796 2.724357 27.24357 1028.0438 27.922 27.922 25.266 20.30107 29.01225 882.018 240.75667 3.898 1440.43 1440.42 1440.66 1435.3 1435.29 1435.33 0
2012/2013 007 16 -77.60927 165.86697 26.0 2012-11-22T02:00:22Z 2012-11-22 14:00:22 12 -1.8497 -1.8502 34.6806 2.724465 27.244654 1028.0495 27.9228 27.9228 26.277 20.30336 29.01553 882.117 240.78501 3.898 1440.45 1440.44 1440.67 1435.3 1435.29 1435.33 0
2012/2013 007 16 -77.60927 165.86697 27.0 2012-11-22T02:00:26Z 2012-11-22 14:00:26 12 -1.849 -1.8496 34.6816 2.724646 27.246458 1028.0552 27.9237 27.9237 27.288 20.3067 29.0203 882.261 240.83084 3.897 1440.47 1440.46 1440.7 1435.3 1435.29 1435.33 0
2012/2013 007 16 -77.60927 165.86697 28.0 2012-11-22T02:00:29Z 2012-11-22 14:00:29 12 -1.8479 -1.8484 34.6811 2.724752 27.247515 1028.0596 27.9232 27.9232 28.298 20.30765 29.02166 882.303 240.84876 3.898 1440.49 1440.48 1440.72 1435.3 1435.29 1435.33 0
2012/2013 007 16 -77.60927 165.86697 29.0 2012-11-22T02:00:32Z 2012-11-22 14:00:32 12 -1.8465 -1.8471 34.681 2.724906 27.249066 1028.0643 27.9231 27.923 29.309 20.3096 29.02446 882.388 240.88075 3.898 1440.52 1440.51 1440.74 1435.3 1435.29 1435.33 0
2012/2013 007 16 -77.60927 165.86697 30.0 2012-11-22T02:00:35Z 2012-11-22 14:00:35 12 -1.8473 -1.8479 34.6814 2.72492 27.249199 1028.0696 27.9234 27.9234 30.32 20.31194 29.02779 882.489 240.90408 3.898 1440.53 1440.52 1440.75 1435.3 1435.29 1435.33 0
2012/2013 007 16 -77.60927 165.86697 31.0 2012-11-22T02:00:39Z 2012-11-22 14:00:39 12 -1.8471 -1.8477 34.6818 2.725007 27.250067 1028.0748 27.9238 27.9238 31.33 20.31567 29.03313 882.651 240.94992 3.897 1440.55 1440.54 1440.77 1435.3 1435.29 1435.33 0
2012/2013 007 16 -77.60927 165.86697 32.0 2012-11-22T02:00:42Z 2012-11-22 14:00:42 12 -1.847 -1.8477 34.6817 2.725053 27.250525 1028.0795 27.9237 27.9236 32.341 20.31704 29.03509 882.711 240.96665 3.898 1440.56 1440.55 1440.79 1435.3 1435.29 1435.33 0
2012/2013 007 16 -77.60927 165.86697 33.0 2012-11-22T02:00:46Z 2012-11-22 14:00:46 12 -1.8472 -1.8479 34.6817 2.725084 27.250843 1028.0844 27.9237 27.9237 33.352 20.32143 29.04136 882.901 241.01741 3.897 1440.58 1440.57 1440.81 1435.3 1435.29 1435.33 0
2012/2013 007 16 -77.60927 165.86697 34.0 2012-11-22T02:00:49Z 2012-11-22 14:00:49 12 -1.8474 -1.8481 34.6817 2.72512 27.251199 1028.0894 27.9237 27.9237 34.363 20.32345 29.04425 882.989 241.04033 3.897 1440.59 1440.58 1440.82 1435.3 1435.29 1435.33 0
2012/2013 007 16 -77.60927 165.86697 35.0 2012-11-22T02:00:52Z 2012-11-22 14:00:52 12 -1.8475 -1.8482 34.6821 2.725184 27.251836 1028.0945 27.924 27.9239 35.373 20.32581 29.04761 883.091 241.06834 3.897 1440.61 1440.6 1440.84 1435.3 1435.29 1435.33 0
2012/2013 007 16 -77.60927 165.86697 36.0 2012-11-22T02:00:55Z 2012-11-22 14:00:55 12 -1.8476 -1.8483 34.6821 2.725227 27.252268 1028.0994 27.924 27.924 36.384 20.32874 29.0518 883.219 241.10258 3.897 1440.63 1440.61 1440.85 1435.3 1435.29 1435.33 0
2012/2013 007 16 -77.60927 165.86697 37.0 2012-11-22T02:00:59Z 2012-11-22 14:00:59 12 -1.8473 -1.8481 34.6817 2.725261 27.252614 1028.1039 27.9237 27.9236 37.395 20.33134 29.05552 883.332 241.13427 3.897 1440.64 1440.63 1440.87 1435.3 1435.29 1435.33 0
2012/2013 007 16 -77.60927 165.86697 38.0 2012-11-22T02:01:02Z 2012-11-22 14:01:02 12 -1.8473 -1.8481 34.6818 2.725317 27.253169 1028.1088 27.9237 27.9237 38.405 20.33469 29.06031 883.477 241.17428 3.897 1440.66 1440.65 1440.89 1435.3 1435.29 1435.33 0
2012/2013 007 16 -77.60927 165.86697 39.0 2012-11-22T02:01:05Z 2012-11-22 14:01:05 12 -1.8477 -1.8485 34.6819 2.725341 27.253404 1028.1138 27.9238 27.9238 39.417 20.33742 29.06421 883.596 241.20432 3.897 1440.67 1440.66 1440.9 1435.3 1435.29 1435.33 0
2012/2013 007 16 -77.60927 165.86697 40.0 2012-11-22T02:01:08Z 2012-11-22 14:01:08 12 -1.8475 -1.8483 34.6819 2.725403 27.254029 1028.1187 27.9238 27.9238 40.427 20.3386 29.0659 883.647 241.21963 3.897 1440.69 1440.68 1440.92 1437.68 1437.66 1437.8 0
2012/2013 007 16 -77.60927 165.86697 41.0 2012-11-22T02:01:12Z 2012-11-22 14:01:12 12 -1.8472 -1.848 34.6821 2.72549 27.254897 1028.1237 27.924 27.9239 41.438 20.34262 29.07164 883.821 241.26964 3.897 1440.71 1440.69 1440.94 1437.95 1437.93 1438.08 0
2012/2013 007 16 -77.60927 165.86697 42.0 2012-11-22T02:01:14Z 2012-11-22 14:01:14 12 -1.8474 -1.8483 34.6821 2.725516 27.255157 1028.1286 27.924 27.9239 42.449 20.34514 29.07524 883.931 241.29795 3.897 1440.72 1440.71 1440.95 1437.91 1437.89 1438.03 0
2012/2013 007 16 -77.60927 165.86697 43.0 2012-11-22T02:01:17Z 2012-11-22 14:01:17 12 -1.8473 -1.8481 34.6825 2.725605 27.256053 1028.1337 27.9243 27.9243 43.46 20.34765 29.07883 884.04 241.3295 3.897 1440.74 1440.73 1440.97 1437.91 1437.89 1438.03 0
2012/2013 007 16 -77.60927 165.86697 44.0 2012-11-22T02:01:19Z 2012-11-22 14:01:19 12 -1.8474 -1.8482 34.6824 2.72564 27.256397 1028.1386 27.9242 27.9242 44.471 20.35044 29.08281 884.161 241.36187 3.896 1440.76 1440.74 1440.99 1437.91 1437.89 1438.03 0
2012/2013 007 16 -77.60927 165.86697 45.0 2012-11-22T02:01:21Z 2012-11-22 14:01:21 12 -1.8478 -1.8487 34.6826 2.725662 27.256622 1028.1436 27.9244 27.9244 45.481 20.35358 29.0873 884.297 241.3964 3.896 1440.77 1440.76 1441.0 1437.91 1437.89 1438.03 0
2012/2013 007 16 -77.60927 165.86697 46.0 2012-11-22T02:01:23Z 2012-11-22 14:01:23 12 -1.8478 -1.8487 34.6832 2.725754 27.257545 1028.1489 27.9249 27.9249 46.492 20.35572 29.09036 884.39 241.42315 3.896 1440.79 1440.77 1441.02 1437.91 1437.89 1438.03 0
2012/2013 007 16 -77.60927 165.86697 47.0 2012-11-22T02:01:26Z 2012-11-22 14:01:26 12 -1.8465 -1.8474 34.683 2.725896 27.258957 1028.1536 27.9247 27.9247 47.503 20.35756 29.09298 884.47 241.45301 3.897 1440.81 1440.8 1441.04 1437.91 1437.89 1438.03 0
2012/2013 007 16 -77.60927 165.86697 48.0 2012-11-22T02:01:29Z 2012-11-22 14:01:29 12 -1.847 -1.8479 34.6831 2.725908 27.259083 1028.1586 27.9248 27.9248 48.514 20.36077 29.09758 884.61 241.488 3.896 1440.83 1440.81 1441.06 1437.91 1437.89 1438.03 0
2012/2013 007 16 -77.60927 165.86697 49.0 2012-11-22T02:01:32Z 2012-11-22 14:01:32 12 -1.8476 -1.8486 34.6831 2.725902 27.259018 1028.1635 27.9248 27.9248 49.525 20.36436 29.10271 884.765 241.5265 3.896 1440.84 1440.82 1441.07 1437.91 1437.89 1438.03 0
2012/2013 007 16 -77.60927 165.86697 50.0 2012-11-22T02:01:34Z 2012-11-22 14:01:34 12 -1.8478 -1.8488 34.6831 2.725938 27.259375 1028.1683 27.9248 27.9248 50.535 20.36669 29.10604 884.867 241.55319 3.896 1440.86 1440.84 1441.09 1437.91 1437.89 1438.03 0
2012/2013 007 16 -77.60927 165.86697 51.0 2012-11-22T02:01:38Z 2012-11-22 14:01:38 12 -1.8489 -1.8499 34.684 2.725953 27.259527 1028.174 27.9256 27.9255 51.546 20.36988 29.1106 885.005 241.58512 3.896 1440.87 1440.85 1441.1 1437.91 1437.89 1438.03 0
2012/2013 007 16 -77.60927 165.86697 52.0 2012-11-22T02:01:40Z 2012-11-22 14:01:40 12 -1.849 -1.85 34.6837 2.725977 27.259774 1028.1787 27.9254 27.9254 52.557 20.37237 29.11416 885.113 241.61383 3.895 1440.88 1440.87 1441.12 1437.91 1437.89 1438.03 0
2012/2013 007 16 -77.60927 165.86697 53.0 2012-11-22T02:01:43Z 2012-11-22 14:01:43 12 -1.8503 -1.8513 34.6843 2.725959 27.259595 1028.1841 27.9259 27.9259 53.568 20.37656 29.12014 885.295 241.65609 3.896 1440.89 1440.88 1441.13 1437.91 1437.89 1438.03 0
2012/2013 007 16 -77.60927 165.86697 54.0 2012-11-22T02:01:45Z 2012-11-22 14:01:45 12 -1.8512 -1.8522 34.6852 2.725995 27.259956 1028.1897 27.9267 27.9267 54.579 20.37973 29.12467 885.431 241.68937 3.895 1440.91 1440.89 1441.14 1437.91 1437.89 1438.03 0
2012/2013 007 16 -77.60927 165.86697 55.0 2012-11-22T02:01:47Z 2012-11-22 14:01:47 12 -1.8518 -1.8529 34.6858 2.726027 27.26027 1028.195 27.9271 27.9271 55.59 20.38272 29.12895 885.561 241.72154 3.896 1440.92 1440.9 1441.15 1437.91 1437.89 1438.03 0
2012/2013 007 16 -77.60927 165.86697 56.0 2012-11-22T02:01:49Z 2012-11-22 14:01:49 12 -1.8524 -1.8535 34.6863 2.726061 27.260613 1028.2003 27.9276 27.9275 56.601 20.38568 29.13318 885.69 241.75381 3.896 1440.94 1440.92 1441.17 1437.91 1437.89 1438.03 0
2012/2013 007 16 -77.60927 165.86697 57.0 2012-11-22T02:01:51Z 2012-11-22 14:01:51 12 -1.8525 -1.8536 34.6864 2.726108 27.261077 1028.2053 27.9276 27.9276 57.611 20.38923 29.13825 885.844 241.79549 3.896 1440.95 1440.93 1441.19 1437.91 1437.89 1438.03 0
2012/2013 007 16 -77.60927 165.86697 58.0 2012-11-22T02:01:54Z 2012-11-22 14:01:54 12 -1.8516 -1.8527 34.4288 2.707842 27.078424 1028.0007 27.7181 27.7181 58.622 20.42869 29.19464 887.739 241.82434 3.896 1440.62 1440.6 1440.84 1437.91 1437.89 1438.03 0
2012/2013 007 16 -77.60927 165.86697 59.0 2012-11-22T02:01:56Z 2012-11-22 14:01:56 12 -1.8496 -1.8507 34.2862 2.697874 26.978737 1027.8896 27.602 27.602 59.633 20.44971 29.22469 888.753 241.84043 3.896 1440.45 1440.43 1440.66 1437.91 1437.89 1438.03 0
2012/2013 007 16 -77.60927 165.86697 60.0 2012-11-22T02:01:58Z 2012-11-22 14:01:58 12 -1.8496 -1.8508 34.2694 2.696714 26.967144 1027.8808 27.5883 27.5883 60.644 20.4553 29.23267 889.007 241.87704 3.895 1440.45 1440.43 1440.66 1437.91 1437.89 1438.03 0
2012/2013 007 16 -77.60927 165.86697 61.0 2012-11-22T02:02:01Z 2012-11-22 14:02:01 12 -1.8501 -1.8513 34.2593 2.695998 26.959983 1027.8775 27.5801 27.5801 61.655 20.45965 29.23889 889.204 241.90785 3.896 1440.45 1440.43 1440.66 1437.91 1437.89 1438.03 0
2012/2013 007 16 -77.60927 165.86697 62.0 2012-11-22T02:02:04Z 2012-11-22 14:02:04 12 -1.8507 -1.8519 34.2296 2.693872 26.938724 1027.8582 27.556 27.556 62.666 20.46932 29.25271 889.645 241.96695 3.895 1440.42 1440.4 1440.63 1437.91 1437.89 1438.03 0
2012/2013 007 16 -77.60927 165.86697 63.0 2012-11-22T02:02:06Z 2012-11-22 14:02:06 12 -1.8508 -1.852 34.2179 2.693071 26.930711 1027.8535 27.5464 27.5464 63.677 20.47198 29.25651 889.769 241.97744 3.895 1440.42 1440.4 1440.63 1438.27 1438.26 1438.41 0
2012/2013 007 16 -77.60927 165.86697 64.0 2012-11-22T02:02:09Z 2012-11-22 14:02:09 12 -1.8527 -1.8539 34.1866 2.690733 26.907329 1027.8331 27.5211 27.5211 64.688 20.47981 29.26769 890.131 242.00391 3.895 1440.38 1440.36 1440.59 1438.94 1438.94 1439.11 0
2012/2013 007 16 -77.60927 165.86697 65.0 2012-11-22T02:02:12Z 2012-11-22 14:02:12 12 -1.8573 -1.8585 34.1851 2.690291 26.902907 1027.8368 27.52 27.5199 65.698 20.48739 29.27852 890.461 242.06071 3.895 1440.38 1440.36 1440.59 1438.89 1438.88 1439.05 0
2012/2013 007 16 -77.60927 165.86697 66.0 2012-11-22T02:02:14Z 2012-11-22 14:02:14 12 -1.8582 -1.8595 34.1766 2.689645 26.896451 1027.8348 27.513 27.513 66.709 20.49145 29.28432 890.643 242.08754 3.895 1440.38 1440.36 1440.59 1438.89 1438.88 1439.05 0
2012/2013 007 16 -77.60927 165.86697 67.0 2012-11-22T02:02:17Z 2012-11-22 14:02:17 12 -1.8587 -1.8599 34.1423 2.687211 26.872115 1027.8119 27.4852 27.4852 67.72 20.50107 29.29808 891.086 242.13942 3.896 1440.34 1440.32 1440.55 1438.89 1438.88 1439.05 0
2012/2013 007 16 -77.60927 165.86697 68.0 2012-11-22T02:02:19Z 2012-11-22 14:02:19 12 -1.8585 -1.8597 34.0195 2.678491 26.78491 1027.7169 27.3853 27.3852 68.731 20.52052 29.32587 892.018 242.15803 3.895 1440.19 1440.17 1440.39 1438.89 1438.88 1439.05 0
2012/2013 007 16 -77.60927 165.86697 69.0 2012-11-22T02:02:21Z 2012-11-22 14:02:21 12 -1.8575 -1.8588 34.0059 2.677645 26.776452 1027.7107 27.3742 27.3742 69.742 20.52411 29.331 892.184 242.18335 3.895 1440.2 1440.17 1440.4 1438.89 1438.88 1439.05 0
2012/2013 007 16 -77.60927 165.86697 70.0 2012-11-22T02:02:23Z 2012-11-22 14:02:23 12 -1.8582 -1.8595 33.9735 2.67532 26.753204 1027.6892 27.3479 27.3479 70.753 20.53262 29.34316 892.577 242.22334 3.895 1440.16 1440.14 1440.36 1438.89 1438.88 1439.05 0
2012/2013 007 16 -77.60927 165.86697 71.0 2012-11-22T02:02:25Z 2012-11-22 14:02:25 12 -1.8585 -1.8598 33.9534 2.673896 26.73896 1027.6777 27.3315 27.3315 71.764 20.53768 29.35039 892.811 242.24591 3.895 1440.15 1440.13 1440.35 1438.89 1438.88 1439.05 0
2012/2013 007 16 -77.60927 165.86697 72.0 2012-11-22T02:02:27Z 2012-11-22 14:02:27 12 -1.859 -1.8603 33.9358 2.672648 26.726483 1027.6684 27.3172 27.3172 72.775 20.54567 29.36182 893.171 242.30687 3.895 1440.14 1440.12 1440.34 1438.89 1438.88 1439.05 0
2012/2013 007 16 -77.60927 165.86697 73.0 2012-11-22T02:02:29Z 2012-11-22 14:02:29 12 -1.8589 -1.8602 33.9127 2.671048 26.710482 1027.6544 27.2984 27.2983 73.786 20.55063 29.36891 893.403 242.32611 3.895 1440.13 1440.1 1440.32 1438.89 1438.88 1439.05 0
2012/2013 007 16 -77.60927 165.86697 74.0 2012-11-22T02:02:32Z 2012-11-22 14:02:32 12 -1.8589 -1.8602 33.8772 2.668556 26.68556 1027.6305 27.2695 27.2695 74.797 20.55861 29.38031 893.775 242.3589 3.895 1440.1 1440.07 1440.29 1438.89 1438.88 1439.05 0
2012/2013 007 16 -77.60927 165.86697 75.0 2012-11-22T02:02:34Z 2012-11-22 14:02:34 12 -1.8589 -1.8603 33.878 2.668657 26.686573 1027.636 27.2702 27.2701 75.808 20.55972 29.3819 893.823 242.37325 3.895 1440.11 1440.09 1440.31 1438.89 1438.88 1439.05 0
2012/2013 007 16 -77.60927 165.86697 76.0 2012-11-22T02:02:36Z 2012-11-22 14:02:36 12 -1.8597 -1.8611 33.88 2.668782 26.687822 1027.6425 27.2718 27.2718 76.819 20.56442 29.38862 894.026 242.42682 3.895 1440.13 1440.1 1440.32 1438.89 1438.88 1439.05 0
2012/2013 007 16 -77.60927 165.86697 77.0 2012-11-22T02:02:38Z 2012-11-22 14:02:38 12 -1.8603 -1.8618 33.8873 2.669296 26.692963 1027.6533 27.2778 27.2777 77.829 20.56586 29.39068 894.083 242.45215 3.895 1440.15 1440.13 1440.35 1438.89 1438.88 1439.05 0
2012/2013 007 16 -77.60927 165.86697 78.0 2012-11-22T02:02:41Z 2012-11-22 14:02:41 12 -1.86 -1.8614 33.8946 2.669897 26.698966 1027.6642 27.2838 27.2837 78.841 20.56765 29.39323 894.155 242.48821 3.896 1440.18 1440.15 1440.38 1438.89 1438.88 1439.05 0
2012/2013 007 16 -77.60927 165.86697 79.0 2012-11-22T02:02:43Z 2012-11-22 14:02:43 12 -1.8604 -1.8619 33.9022 2.670451 26.704505 1027.6752 27.2899 27.2899 79.852 20.57056 29.39739 894.277 242.53282 3.895 1440.2 1440.18 1440.4 1438.89 1438.88 1439.05 0
2012/2013 007 16 -77.60927 165.86697 80.0 2012-11-22T02:02:46Z 2012-11-22 14:02:46 12 -1.861 -1.8624 33.9035 2.670542 26.70542 1027.6811 27.291 27.2909 80.863 20.57225 29.39981 894.349 242.55148 3.896 1440.22 1440.2 1440.42 1438.89 1438.88 1439.05 0
2012/2013 007 16 -77.60927 165.86697 81.0 2012-11-22T02:02:48Z 2012-11-22 14:02:48 12 -1.8617 -1.8632 33.9043 2.670584 26.705839 1027.6867 27.2917 27.2916 81.873 20.57605 29.40524 894.514 242.59249 3.895 1440.23 1440.21 1440.43 1438.89 1438.88 1439.05 0
2012/2013 007 16 -77.60927 165.86697 82.0 2012-11-22T02:02:50Z 2012-11-22 14:02:50 12 -1.8626 -1.8641 33.8672 2.667904 26.679035 1027.6614 27.2615 27.2614 82.885 20.58543 29.41864 894.948 242.63324 3.895 1440.2 1440.17 1440.39 1438.89 1438.88 1439.05 0
2012/2013 007 16 -77.60927 165.86697 83.0 2012-11-22T02:02:52Z 2012-11-22 14:02:52 12 -1.8637 -1.8653 33.8649 2.667691 26.676912 1027.6645 27.2596 27.2596 83.896 20.5877 29.42188 895.048 242.64844 3.896 1440.2 1440.18 1440.4 1438.89 1438.88 1439.05 0
2012/2013 007 16 -77.60927 165.86697 84.0 2012-11-22T02:02:54Z 2012-11-22 14:02:54 12 -1.8644 -1.866 33.9033 2.670429 26.704291 1027.7006 27.2909 27.2909 84.906 20.58681 29.42061 894.982 242.69984 3.895 1440.27 1440.24 1440.47 1438.89 1438.88 1439.05 0
2012/2013 007 16 -77.60927 165.86697 85.0 2012-11-22T02:02:56Z 2012-11-22 14:02:56 12 -1.865 -1.8667 34.6551 2.724145 27.241452 1028.3165 27.9026 27.9025 85.918 20.47636 29.26277 889.651 242.69254 3.895 1441.31 1441.28 1441.55 1438.89 1438.88 1439.05 0
2012/2013 007 16 -77.60927 165.86697 86.0 2012-11-22T02:02:58Z 2012-11-22 14:02:58 12 -1.8655 -1.8672 34.6938 2.726914 27.269134 1028.3529 27.9341 27.934 86.929 20.4781 29.26525 889.699 242.77693 3.895 1441.38 1441.35 1441.62 1438.89 1438.88 1439.05 0
2012/2013 007 16 -77.60927 165.86697 87.0 2012-11-22T02:03:00Z 2012-11-22 14:03:00 12 -1.8664 -1.8681 34.6941 2.726903 27.269034 1028.358 27.9343 27.9343 87.94 20.47982 29.26771 889.774 242.79184 3.895 1441.39 1441.36 1441.63 1438.89 1438.88 1439.05 0
2012/2013 007 16 -77.60927 165.86697 88.0 2012-11-22T02:03:02Z 2012-11-22 14:03:02 12 -1.8673 -1.8691 34.6948 2.726924 27.269239 1028.3634 27.9349 27.9349 88.951 20.48206 29.27091 889.87 242.81357 3.895 1441.4 1441.37 1441.64 1438.89 1438.88 1439.05 0
2012/2013 007 16 -77.60927 165.86697 89.0 2012-11-22T02:03:05Z 2012-11-22 14:03:05 12 -1.8678 -1.8696 34.695 2.72694 27.269396 1028.3684 27.9351 27.935 89.961 20.4862 29.27683 890.05 242.85975 3.895 1441.41 1441.39 1441.66 1438.89 1438.88 1439.05 0
2012/2013 007 16 -77.60927 165.86697 90.0 2012-11-22T02:03:07Z 2012-11-22 14:03:07 12 -1.8686 -1.8705 34.6951 2.726925 27.26925 1028.3734 27.9352 27.9351 90.973 20.4904 29.28284 890.233 242.90423 3.895 1441.43 1441.4 1441.67 1439.32 1439.3 1439.49 0
2012/2013 007 16 -77.60927 165.86697 91.0 2012-11-22T02:03:10Z 2012-11-22 14:03:10 12 -1.8693 -1.8712 34.6955 2.726942 27.26942 1028.3786 27.9355 27.9355 91.984 20.49257 29.28593 890.326 242.92599 3.895 1441.44 1441.41 1441.68 1439.49 1439.47 1439.67 0
2012/2013 007 16 -77.60927 165.86697 92.0 2012-11-22T02:03:13Z 2012-11-22 14:03:13 12 -1.8696 -1.8714 34.6954 2.726961 27.269606 1028.3835 27.9355 27.9354 92.995 20.4954 29.28997 890.449 242.95766 3.895 1441.46 1441.43 1441.7 1439.49 1439.47 1439.67 0
2012/2013 007 16 -77.60927 165.86697 93.0 2012-11-22T02:03:15Z 2012-11-22 14:03:15 12 -1.8701 -1.872 34.6961 2.727019 27.270194 1028.3889 27.9361 27.936 94.006 20.49928 29.29552 890.617 243.00177 3.895 1441.47 1441.44 1441.71 1439.49 1439.47 1439.67 0
2012/2013 007 16 -77.60927 165.86697 94.0 2012-11-22T02:03:18Z 2012-11-22 14:03:18 12 -1.8677 -1.8696 34.6966 2.727296 27.272956 1028.3941 27.9363 27.9363 95.017 20.4997 29.29612 890.636 243.02321 3.894 1441.5 1441.47 1441.74 1439.49 1439.47 1439.67 0
2012/2013 007 16 -77.60927 165.86697 95.0 2012-11-22T02:03:20Z 2012-11-22 14:03:20 12 -1.8679 -1.8698 34.6959 2.727281 27.272808 1028.3985 27.9359 27.9358 96.028 20.5022 29.2997 890.744 243.05033 3.895 1441.51 1441.48 1441.76 1439.49 1439.47 1439.67 0
2012/2013 007 16 -77.60927 165.86697 96.0 2012-11-22T02:03:22Z 2012-11-22 14:03:22 12 -1.8689 -1.8708 34.6963 2.727272 27.272721 1028.4036 27.9362 27.9361 97.039 20.50708 29.30667 890.956 243.10258 3.895 1441.53 1441.49 1441.77 1439.49 1439.47 1439.67 0
2012/2013 007 16 -77.60927 165.86697 97.0 2012-11-22T02:03:24Z 2012-11-22 14:03:24 12 -1.8689 -1.8709 34.6965 2.727331 27.273307 1028.4087 27.9364 27.9363 98.05 20.50876 29.30907 891.029 243.12242 3.895 1441.54 1441.51 1441.79 1439.49 1439.47 1439.67 0
2012/2013 007 16 -77.60927 165.86697 98.0 2012-11-22T02:03:26Z 2012-11-22 14:03:26 12 -1.8685 -1.8704 34.696 2.727377 27.273774 1028.4131 27.9359 27.9359 99.061 20.5109 29.31213 891.123 243.14984 3.895 1441.56 1441.53 1441.81 1439.49 1439.47 1439.67 0
2012/2013 007 16 -77.60927 165.86697 99.0 2012-11-22T02:03:28Z 2012-11-22 14:03:28 12 -1.8698 -1.8718 34.6969 2.727381 27.273805 1028.4187 27.9367 27.9366 100.072 20.51407 29.31666 891.26 243.1805 3.895 1441.57 1441.54 1441.82 1439.49 1439.47 1439.67 0
2012/2013 007 16 -77.60927 165.86697 100.0 2012-11-22T02:03:45Z 2012-11-22 14:03:45 12 -1.869 -1.871 34.6967 2.727478 27.274779 1028.4234 27.9365 27.9365 101.083 20.51679 29.32055 891.378 243.21748 3.895 1441.59 1441.56 1441.84 1439.49 1439.47 1439.67 0
2012/2013 008 17 -77.60692 165.88513 2.0 2012-11-22T22:27:17Z 2012-11-23 10:27:17 12 -1.813 -1.813 34.6824 2.726544 27.265436 1027.9331 27.9233 27.9233 2.021 6.5593 9.3739 284.981 77.8674 3.872 1440.24 1440.23 1440.45 1453.02 1452.87 1452.65 0
2012/2013 008 17 -77.60692 165.88513 3.0 2012-11-22T22:28:29Z 2012-11-23 10:28:29 12 -1.8242 -1.8242 34.6846 2.725806 27.258056 1027.94 27.9254 27.9254 3.032 6.92159 9.89164 300.721 82.14466 3.879 1440.2 1440.2 1440.42 1453.02 1452.87 1452.65 0
2012/2013 008 17 -77.60692 165.88513 4.0 2012-11-22T22:28:34Z 2012-11-23 10:28:34 12 -1.8307 -1.8308 34.6849 2.725331 27.253308 1027.9453 27.9258 27.9258 4.042 6.98466 9.98178 303.461 82.87877 3.88 1440.19 1440.18 1440.4 1453.02 1452.87 1452.65 0
2012/2013 008 17 -77.60692 165.88513 5.0 2012-11-22T22:28:36Z 2012-11-23 10:28:36 12 -1.8313 -1.8314 34.6853 2.725354 27.253542 1027.9505 27.9262 27.9262 5.053 6.99326 9.99406 303.834 82.97956 3.881 1440.2 1440.2 1440.42 1453.02 1452.87 1452.65 0
2012/2013 008 17 -77.60692 165.88513 6.0 2012-11-22T22:28:39Z 2012-11-23 10:28:39 12 -1.831 -1.8311 34.6847 2.725389 27.253889 1027.9549 27.9257 27.9257 6.064 7.02428 10.0384 305.182 83.34816 3.881 1440.22 1440.21 1440.44 1453.02 1452.87 1452.65 0
2012/2013 008 17 -77.60692 165.88513 7.0 2012-11-22T22:28:42Z 2012-11-23 10:28:42 12 -1.8319 -1.832 34.6845 2.725347 27.253473 1027.9596 27.9255 27.9255 7.074 7.05242 10.07861 306.404 83.67988 3.882 1440.23 1440.23 1440.45 1453.02 1452.87 1452.65 0
2012/2013 008 17 -77.60692 165.88513 8.0 2012-11-22T22:28:44Z 2012-11-23 10:28:44 12 -1.8321 -1.8323 34.684 2.725337 27.25337 1027.9641 27.9251 27.9251 8.085 7.12901 10.18807 309.732 84.58791 3.883 1440.25 1440.24 1440.46 1453.02 1452.87 1452.65 0
2012/2013 008 17 -77.60692 165.88513 9.0 2012-11-22T22:28:47Z 2012-11-23 10:28:47 12 -1.8322 -1.8324 34.6831 2.725317 27.253166 1027.9683 27.9244 27.9244 9.095 7.16377 10.23775 311.243 84.99965 3.884 1440.26 1440.26 1440.48 1453.02 1452.87 1452.65 0
2012/2013 008 17 -77.60692 165.88513 10.0 2012-11-22T22:28:50Z 2012-11-23 10:28:50 12 -1.8326 -1.8328 34.6828 2.725304 27.253044 1027.9729 27.9241 27.9241 10.106 7.17744 10.25728 311.837 85.16061 3.885 1440.27 1440.27 1440.49 1453.02 1452.87 1452.65 0
2012/2013 008 17 -77.60692 165.88513 11.0 2012-11-22T22:28:53Z 2012-11-23 10:28:53 12 -1.833 -1.8332 34.6824 2.725294 27.252944 1027.9775 27.9239 27.9239 11.117 7.21929 10.31709 313.655 85.65607 3.887 1440.29 1440.28 1440.51 1453.02 1452.87 1452.65 0
2012/2013 008 17 -77.60692 165.88513 12.0 2012-11-22T22:28:55Z 2012-11-23 10:28:55 12 -1.833 -1.8332 34.6821 2.725318 27.253179 1027.9821 27.9236 27.9236 12.127 7.23986 10.34648 314.549 85.89992 3.887 1440.3 1440.3 1440.52 1453.02 1452.87 1452.65 0
2012/2013 008 17 -77.60692 165.88513 13.0 2012-11-22T22:28:57Z 2012-11-23 10:28:57 12 -1.8333 -1.8335 34.6816 2.725303 27.253024 1027.9865 27.9232 27.9232 13.138 7.27791 10.40086 316.202 86.35038 3.888 1440.32 1440.31 1440.54 1453.02 1452.87 1452.65 0
2012/2013 008 17 -77.60692 165.88513 14.0 2012-11-22T22:29:00Z 2012-11-23 10:29:00 12 -1.8335 -1.8337 34.6811 2.725302 27.253026 1027.991 27.9228 27.9228 14.149 7.3216 10.4633 318.101 86.86809 3.888 1440.33 1440.33 1440.55 1453.02 1452.87 1452.65 0
2012/2013 008 17 -77.60692 165.88513 15.0 2012-11-22T22:29:02Z 2012-11-23 10:29:02 12 -1.8335 -1.8338 34.6811 2.725347 27.253468 1027.9959 27.9228 27.9228 15.159 7.34609 10.4983 319.164 87.15853 3.89 1440.35 1440.34 1440.57 1453.02 1452.87 1452.65 0
2012/2013 008 17 -77.60692 165.88513 16.0 2012-11-22T22:29:04Z 2012-11-23 10:29:04 12 -1.8334 -1.8337 34.681 2.725396 27.253963 1028.0007 27.9228 27.9227 16.17 7.34076 10.49068 318.933 87.09546 3.89 1440.37 1440.36 1440.59 1453.02 1452.87 1452.65 0
2012/2013 008 17 -77.60692 165.88513 17.0 2012-11-22T22:29:06Z 2012-11-23 10:29:06 12 -1.8335 -1.8338 34.6808 2.725417 27.254168 1028.0054 27.9225 27.9225 17.181 7.41894 10.6024 322.329 88.02263 3.89 1440.38 1440.37 1440.6 1453.02 1452.87 1452.65 0
2012/2013 008 17 -77.60692 165.88513 18.0 2012-11-22T22:29:08Z 2012-11-23 10:29:08 12 -1.8336 -1.834 34.6807 2.725448 27.254478 1028.0102 27.9225 27.9225 18.191 7.41614 10.5984 322.208 87.9891 3.891 1440.4 1440.39 1440.62 1453.02 1452.87 1452.65 0
2012/2013 008 17 -77.60692 165.88513 19.0 2012-11-22T22:29:10Z 2012-11-23 10:29:10 12 -1.8339 -1.8343 34.6809 2.725488 27.25488 1028.0152 27.9227 27.9226 19.202 7.40232 10.57865 321.607 87.8246 3.892 1440.41 1440.4 1440.63 1453.02 1452.87 1452.65 0
2012/2013 008 17 -77.60692 165.88513 20.0 2012-11-22T22:29:12Z 2012-11-23 10:29:12 12 -1.8339 -1.8342 34.6806 2.725517 27.255174 1028.0199 27.9225 27.9224 20.213 7.48967 10.70349 325.403 88.86089 3.893 1440.43 1440.42 1440.65 1448.33 1448.23 1448.18 0
2012/2013 008 17 -77.60692 165.88513 21.0 2012-11-22T22:29:14Z 2012-11-23 10:29:14 12 -1.8339 -1.8343 34.6805 2.725553 27.255527 1028.0246 27.9223 27.9223 21.223 7.53223 10.76431 327.252 89.36572 3.893 1440.44 1440.44 1440.67 1446.72 1446.64 1446.65 0
2012/2013 008 17 -77.60692 165.88513 22.0 2012-11-22T22:29:16Z 2012-11-23 10:29:16 12 -1.8339 -1.8343 34.6803 2.725584 27.255839 1028.0293 27.9222 27.9221 22.234 7.50883 10.73087 326.235 89.08794 3.894 1440.46 1440.45 1440.68 1446.72 1446.64 1446.65 0
2012/2013 008 17 -77.60692 165.88513 23.0 2012-11-22T22:29:18Z 2012-11-23 10:29:18 12 -1.8346 -1.8351 34.6801 2.725557 27.255574 1028.0341 27.922 27.922 23.245 7.53648 10.77038 327.436 89.41402 3.895 1440.47 1440.46 1440.7 1446.72 1446.64 1446.65 0
2012/2013 008 17 -77.60692 165.88513 24.0 2012-11-22T22:29:20Z 2012-11-23 10:29:20 12 -1.8353 -1.8358 34.6808 2.725594 27.255943 1028.0395 27.9226 27.9226 24.255 7.53683 10.77088 327.452 89.41699 3.894 1440.49 1440.48 1440.71 1446.72 1446.64 1446.65 0
2012/2013 008 17 -77.60692 165.88513 25.0 2012-11-22T22:29:22Z 2012-11-23 10:29:22 12 -1.8352 -1.8357 34.6807 2.72564 27.256399 1028.0443 27.9225 27.9225 25.266 7.61452 10.88191 330.827 90.33874 3.895 1440.5 1440.49 1440.73 1446.72 1446.64 1446.65 0
2012/2013 008 17 -77.60692 165.88513 26.0 2012-11-22T22:29:24Z 2012-11-23 10:29:24 12 -1.835 -1.8355 34.6805 2.725692 27.256924 1028.049 27.9224 27.9223 26.277 7.59648 10.85614 330.044 90.12529 3.896 1440.52 1440.51 1440.75 1446.72 1446.64 1446.65 0
2012/2013 008 17 -77.60692 165.88513 27.0 2012-11-22T22:29:26Z 2012-11-23 10:29:26 12 -1.8351 -1.8357 34.6805 2.72573 27.257296 1028.0539 27.9224 27.9223 27.288 7.67169 10.96361 333.311 91.0172 3.896 1440.54 1440.53 1440.76 1446.72 1446.64 1446.65 0
2012/2013 008 17 -77.60692 165.88513 28.0 2012-11-22T22:29:28Z 2012-11-23 10:29:28 12 -1.835 -1.8356 34.6801 2.725764 27.257635 1028.0585 27.9221 27.9221 28.298 7.67621 10.97008 333.508 91.071 3.896 1440.55 1440.54 1440.78 1446.72 1446.64 1446.65 0
2012/2013 008 17 -77.60692 165.88513 29.0 2012-11-22T22:29:30Z 2012-11-23 10:29:30 12 -1.8353 -1.8359 34.6804 2.725802 27.258018 1028.0636 27.9223 27.9223 29.309 7.67951 10.97479 333.651 91.10951 3.897 1440.57 1440.56 1440.79 1446.72 1446.64 1446.65 0
2012/2013 008 17 -77.60692 165.88513 30.0 2012-11-22T22:29:32Z 2012-11-23 10:29:32 12 -1.8354 -1.836 34.6802 2.725829 27.258287 1028.0683 27.9221 27.9221 30.32 7.68551 10.98336 333.911 91.18029 3.898 1440.58 1440.57 1440.81 1446.72 1446.64 1446.65 0
2012/2013 008 17 -77.60692 165.88513 31.0 2012-11-22T22:29:34Z 2012-11-23 10:29:34 12 -1.8358 -1.8364 34.6803 2.725844 27.258439 1028.0732 27.9222 27.9222 31.33 7.73815 11.05859 336.198 91.80387 3.898 1440.6 1440.59 1440.82 1446.72 1446.64 1446.65 0
2012/2013 008 17 -77.60692 165.88513 32.0 2012-11-22T22:29:36Z 2012-11-23 10:29:36 12 -1.8358 -1.8365 34.6804 2.725899 27.258993 1028.0782 27.9223 27.9223 32.341 7.74882 11.07384 336.662 91.93054 3.898 1440.62 1440.6 1440.84 1446.72 1446.64 1446.65 0
2012/2013 008 17 -77.60692 165.88513 33.0 2012-11-22T22:29:38Z 2012-11-23 10:29:38 12 -1.8359 -1.8366 34.6804 2.725937 27.25937 1028.0831 27.9223 27.9223 33.352 7.79483 11.13959 338.661 92.4761 3.898 1440.63 1440.62 1440.86 1446.72 1446.64 1446.65 0
2012/2013 008 17 -77.60692 165.88513 34.0 2012-11-22T22:29:40Z 2012-11-23 10:29:40 12 -1.8362 -1.8368 34.6803 2.725954 27.259535 1028.0878 27.9222 27.9222 34.363 7.80591 11.15543 339.142 92.60685 3.899 1440.64 1440.63 1440.87 1446.72 1446.64 1446.65 0
2012/2013 008 17 -77.60692 165.88513 35.0 2012-11-22T22:29:42Z 2012-11-23 10:29:42 12 -1.8367 -1.8374 34.6805 2.725969 27.259686 1028.0929 27.9224 27.9224 35.374 7.83017 11.1901 340.196 92.89336 3.899 1440.66 1440.65 1440.89 1446.72 1446.64 1446.65 0
2012/2013 008 17 -77.60692 165.88513 36.0 2012-11-22T22:29:44Z 2012-11-23 10:29:44 12 -1.8371 -1.8378 34.6803 2.72597 27.259704 1028.0976 27.9222 27.9222 36.384 7.86583 11.24106 341.746 93.3154 3.9 1440.67 1440.66 1440.9 1446.72 1446.64 1446.65 0
2012/2013 008 17 -77.60692 165.88513 37.0 2012-11-22T22:29:46Z 2012-11-23 10:29:46 12 -1.8377 -1.8385 34.6809 2.726007 27.260072 1028.103 27.9228 27.9227 37.395 7.84197 11.20695 340.709 93.03101 3.9 1440.69 1440.67 1440.92 1446.72 1446.64 1446.65 0
2012/2013 008 17 -77.60692 165.88513 38.0 2012-11-22T22:29:48Z 2012-11-23 10:29:48 12 -1.8374 -1.8381 34.6807 2.726079 27.260788 1028.1077 27.9226 27.9226 38.406 7.91209 11.30716 343.755 93.86382 3.9 1440.71 1440.69 1440.93 1446.72 1446.64 1446.65 0
2012/2013 008 17 -77.60692 165.88513 39.0 2012-11-22T22:29:50Z 2012-11-23 10:29:50 12 -1.8369 -1.8377 34.6806 2.726152 27.261515 1028.1125 27.9225 27.9225 39.416 7.94383 11.35252 345.134 94.24142 3.9 1440.73 1440.71 1440.95 1446.72 1446.64 1446.65 0
2012/2013 008 17 -77.60692 165.88513 40.0 2012-11-22T22:29:52Z 2012-11-23 10:29:52 12 -1.8367 -1.8375 34.6806 2.726213 27.262131 1028.1173 27.9225 27.9224 40.427 7.95777 11.37245 345.74 94.40732 3.901 1440.74 1440.73 1440.97 1446.72 1446.64 1446.65 0
2012/2013 008 17 -77.60692 165.88513 41.0 2012-11-22T22:29:54Z 2012-11-23 10:29:54 12 -1.8369 -1.8377 34.6805 2.726243 27.262427 1028.1222 27.9224 27.9224 41.438 7.98593 11.41269 346.963 94.74086 3.902 1440.76 1440.74 1440.99 1446.72 1446.64 1446.65 0
2012/2013 008 17 -77.60692 165.88513 42.0 2012-11-22T22:29:56Z 2012-11-23 10:29:56 12 -1.8369 -1.8377 34.6806 2.726297 27.262967 1028.1271 27.9225 27.9225 42.449 8.04158 11.49221 349.381 95.40112 3.902 1440.77 1440.76 1441.0 1446.72 1446.64 1446.65 0
2012/2013 008 17 -77.60692 165.88513 43.0 2012-11-22T22:29:58Z 2012-11-23 10:29:58 12 -1.8373 -1.8381 34.6803 2.726285 27.26285 1028.1317 27.9222 27.9222 43.46 8.03449 11.48209 349.073 95.31574 3.902 1440.79 1440.77 1441.02 1446.72 1446.64 1446.65 0
2012/2013 008 17 -77.60692 165.88513 44.0 2012-11-22T22:30:00Z 2012-11-23 10:30:00 12 -1.8382 -1.8391 34.6805 2.726271 27.26271 1028.1368 27.9224 27.9224 44.471 8.06915 11.53162 350.579 95.72473 3.902 1440.8 1440.78 1441.03 1446.72 1446.64 1446.65 0
2012/2013 008 17 -77.60692 165.88513 45.0 2012-11-22T22:30:02Z 2012-11-23 10:30:02 12 -1.8381 -1.839 34.6804 2.726315 27.263148 1028.1415 27.9223 27.9223 45.481 8.12204 11.60721 352.877 96.35231 3.902 1440.82 1440.8 1441.05 1446.72 1446.64 1446.65 0
2012/2013 008 17 -77.60692 165.88513 46.0 2012-11-22T22:30:04Z 2012-11-23 10:30:04 12 -1.8384 -1.8394 34.6805 2.726349 27.263486 1028.1465 27.9225 27.9225 46.492 8.1491 11.64587 354.053 96.67254 3.903 1440.83 1440.82 1441.06 1446.72 1446.64 1446.65 0
2012/2013 008 17 -77.60692 165.88513 47.0 2012-11-22T22:30:06Z 2012-11-23 10:30:06 12 -1.8385 -1.8395 34.6805 2.726383 27.263825 1028.1514 27.9224 27.9224 47.503 8.14172 11.63533 353.732 96.58472 3.904 1440.85 1440.83 1441.08 1446.72 1446.64 1446.65 0
2012/2013 008 17 -77.60692 165.88513 48.0 2012-11-22T22:30:07Z 2012-11-23 10:30:07 12 -1.8385 -1.8394 34.6807 2.726449 27.264486 1028.1564 27.9226 27.9226 48.514 8.19513 11.71166 356.052 97.21863 3.904 1440.86 1440.85 1441.09 1446.72 1446.64 1446.65 0
2012/2013 008 17 -77.60692 165.88513 49.0 2012-11-22T22:30:09Z 2012-11-23 10:30:09 12 -1.8386 -1.8395 34.6804 2.72647 27.264696 1028.161 27.9224 27.9223 49.525 8.22834 11.75912 357.496 97.6123 3.905 1440.88 1440.86 1441.11 1446.72 1446.64 1446.65 0
2012/2013 008 17 -77.60692 165.88513 50.0 2012-11-22T22:30:11Z 2012-11-23 10:30:11 12 -1.8386 -1.8396 34.6804 2.726512 27.26512 1028.1659 27.9224 27.9224 50.535 8.2947 11.85396 360.379 98.39936 3.906 1440.9 1440.88 1441.13 1446.72 1446.64 1446.65 0
2012/2013 008 17 -77.60692 165.88513 51.0 2012-11-22T22:30:13Z 2012-11-23 10:30:13 12 -1.8391 -1.8401 34.6803 2.726513 27.265134 1028.1707 27.9223 27.9223 51.546 8.23186 11.76415 357.648 97.65247 3.906 1440.91 1440.89 1441.14 1442.92 1442.88 1443.04 0
2012/2013 008 17 -77.60692 165.88513 52.0 2012-11-22T22:30:15Z 2012-11-23 10:30:15 12 -1.8402 -1.8412 34.681 2.726519 27.265193 1028.1762 27.9229 27.9229 52.557 8.29623 11.85614 360.445 98.41376 3.908 1440.92 1440.9 1441.15 1443.03 1442.99 1443.14 0
2012/2013 008 17 -77.60692 165.88513 53.0 2012-11-22T22:30:17Z 2012-11-23 10:30:17 12 -1.8403 -1.8413 34.681 2.726559 27.265596 1028.1811 27.9229 27.9229 53.568 8.29591 11.85568 360.431 98.40975 3.909 1440.94 1440.92 1441.17 1443.03 1442.99 1443.14 0
2012/2013 008 17 -77.60692 165.88513 54.0 2012-11-22T22:30:19Z 2012-11-23 10:30:19 12 -1.841 -1.8421 34.6807 2.726521 27.265213 1028.1857 27.9227 27.9227 54.579 8.34893 11.93145 362.735 99.03641 3.909 1440.95 1440.93 1441.18 1443.03 1442.99 1443.14 0
2012/2013 008 17 -77.60692 165.88513 55.0 2012-11-22T22:30:21Z 2012-11-23 10:30:21 12 -1.8415 -1.8426 34.6814 2.726576 27.265756 1028.1912 27.9233 27.9233 55.59 8.38854 11.98806 364.456 99.50542 3.91 1440.97 1440.95 1441.2 1443.03 1442.99 1443.14 0
2012/2013 008 17 -77.60692 165.88513 56.0 2012-11-22T22:30:23Z 2012-11-23 10:30:23 12 -1.8464 -1.8475 34.6806 2.726154 27.261542 1028.1955 27.9228 27.9227 56.6 8.37044 11.9622 363.669 99.27707 3.91 1440.96 1440.94 1441.19 1443.03 1442.99 1443.14 0
2012/2013 008 17 -77.60692 165.88513 57.0 2012-11-22T22:30:25Z 2012-11-23 10:30:25 12 -1.8514 -1.8525 34.6832 2.725971 27.259705 1028.2026 27.925 27.925 57.611 8.41107 12.02026 365.433 99.74729 3.911 1440.95 1440.93 1441.19 1443.03 1442.99 1443.14 0
2012/2013 008 17 -77.60692 165.88513 58.0 2012-11-22T22:30:27Z 2012-11-23 10:30:27 12 -1.8548 -1.8559 34.6845 2.725825 27.258247 1028.2086 27.9261 27.9261 58.622 8.42114 12.03466 365.871 99.85854 3.911 1440.95 1440.94 1441.19 1443.03 1442.99 1443.14 0
2012/2013 008 17 -77.60692 165.88513 59.0 2012-11-22T22:30:29Z 2012-11-23 10:30:29 12 -1.8578 -1.859 34.6866 2.725765 27.257651 1028.2153 27.9279 27.9279 59.633 8.42085 12.03424 365.857 99.84833 3.912 1440.96 1440.94 1441.19 1443.03 1442.99 1443.14 0
2012/2013 008 17 -77.60692 165.88513 60.0 2012-11-22T22:30:31Z 2012-11-23 10:30:31 12 -1.8593 -1.8605 34.687 2.725728 27.257285 1028.2206 27.9284 27.9283 60.644 8.46604 12.09881 367.821 100.38059 3.913 1440.97 1440.95 1441.2 1443.03 1442.99 1443.14 0
2012/2013 008 17 -77.60692 165.88513 61.0 2012-11-22T22:30:33Z 2012-11-23 10:30:33 12 -1.8596 -1.8608 34.6871 2.725754 27.257542 1028.2255 27.9284 27.9284 61.655 8.50432 12.15352 369.484 100.8338 3.912 1440.99 1440.97 1441.22 1443.03 1442.99 1443.14 0
2012/2013 008 17 -77.60692 165.88513 62.0 2012-11-22T22:30:35Z 2012-11-23 10:30:35 12 -1.8607 -1.8619 34.6877 2.725748 27.257483 1028.2309 27.9289 27.9289 62.666 8.49719 12.14333 369.174 100.74654 3.913 1441.0 1440.98 1441.23 1443.03 1442.99 1443.14 0
2012/2013 008 17 -77.60692 165.88513 63.0 2012-11-22T22:30:37Z 2012-11-23 10:30:37 12 -1.8608 -1.8621 34.6878 2.725796 27.25796 1028.2359 27.929 27.929 63.677 8.50144 12.1494 369.358 100.79672 3.914 1441.01 1440.99 1441.25 1443.03 1442.99 1443.14 0
2012/2013 008 17 -77.60692 165.88513 64.0 2012-11-22T22:30:39Z 2012-11-23 10:30:39 12 -1.8614 -1.8627 34.6879 2.725798 27.257985 1028.2409 27.9291 27.9291 64.688 8.57756 12.25819 372.665 101.69763 3.914 1441.03 1441.0 1441.26 1443.03 1442.99 1443.14 0
2012/2013 008 17 -77.60692 165.88513 65.0 2012-11-22T22:30:42Z 2012-11-23 10:30:42 12 -1.8616 -1.8629 34.688 2.725832 27.258324 1028.2458 27.9292 27.9292 65.698 8.54649 12.21378 371.315 101.32865 3.914 1441.04 1441.02 1441.28 1443.03 1442.99 1443.14 0
2012/2013 008 17 -77.60692 165.88513 66.0 2012-11-22T22:30:44Z 2012-11-23 10:30:44 12 -1.8627 -1.864 34.688 2.725786 27.257863 1028.2506 27.9292 27.9292 66.709 8.66292 12.38018 376.374 102.70613 3.915 1441.05 1441.03 1441.29 1443.03 1442.99 1443.14 0
2012/2013 008 17 -77.60692 165.88513 67.0 2012-11-22T22:30:46Z 2012-11-23 10:30:46 12 -1.8644 -1.8657 34.6887 2.72574 27.257399 1028.2561 27.9298 27.9298 67.72 8.59482 12.28286 373.415 101.89462 3.915 1441.06 1441.04 1441.3 1443.03 1442.99 1443.14 0
2012/2013 008 17 -77.60692 165.88513 68.0 2012-11-22T22:30:48Z 2012-11-23 10:30:48 12 -1.8667 -1.868 34.69 2.725694 27.256937 1028.2621 27.9309 27.9309 68.731 8.63169 12.33555 375.017 102.32649 3.915 1441.07 1441.05 1441.31 1443.03 1442.99 1443.14 0
2012/2013 008 17 -77.60692 165.88513 69.0 2012-11-22T22:30:50Z 2012-11-23 10:30:50 12 -1.8678 -1.8691 34.6905 2.725686 27.256859 1028.2675 27.9314 27.9314 69.742 8.61417 12.31051 374.255 102.11611 3.915 1441.08 1441.06 1441.32 1443.03 1442.99 1443.14 0
2012/2013 008 17 -77.60692 165.88513 70.0 2012-11-22T22:30:52Z 2012-11-23 10:30:52 12 -1.8687 -1.8701 34.691 2.725694 27.256941 1028.2728 27.9319 27.9318 70.753 8.6826 12.4083 377.228 102.92509 3.915 1441.09 1441.07 1441.33 1443.03 1442.99 1443.14 0
2012/2013 008 17 -77.60692 165.88513 71.0 2012-11-22T22:30:55Z 2012-11-23 10:30:55 12 -1.8689 -1.8704 34.6912 2.72573 27.257296 1028.2778 27.932 27.932 71.764 8.6449 12.35443 375.59 102.47758 3.916 1441.11 1441.08 1441.35 1443.03 1442.99 1443.14 0
2012/2013 008 17 -77.60692 165.88513 72.0 2012-11-22T22:30:57Z 2012-11-23 10:30:57 12 -1.869 -1.8704 34.6911 2.725768 27.257682 1028.2826 27.9319 27.9319 72.775 8.71878 12.46001 378.8 103.35318 3.916 1441.13 1441.1 1441.36 1443.03 1442.99 1443.14 0
2012/2013 008 17 -77.60692 165.88513 73.0 2012-11-22T22:30:59Z 2012-11-23 10:30:59 12 -1.8693 -1.8708 34.6913 2.725799 27.25799 1028.2876 27.9321 27.932 73.786 8.75008 12.50474 380.16 103.72345 3.916 1441.14 1441.12 1441.38 1443.03 1442.99 1443.14 0
2012/2013 008 17 -77.60692 165.88513 74.0 2012-11-22T22:31:01Z 2012-11-23 10:31:01 12 -1.8693 -1.8708 34.6913 2.725848 27.258481 1028.2925 27.9321 27.9321 74.797 8.71162 12.44978 378.489 103.2675 3.916 1441.16 1441.13 1441.39 1443.03 1442.99 1443.14 0
2012/2013 008 17 -77.60692 165.88513 75.0 2012-11-22T22:31:03Z 2012-11-23 10:31:03 12 -1.8702 -1.8717 34.6908 2.725785 27.257854 1028.297 27.9318 27.9317 75.808 8.78586 12.55587 381.714 104.1446 3.915 1441.17 1441.14 1441.41 1443.03 1442.99 1443.14 0
2012/2013 008 17 -77.60692 165.88513 76.0 2012-11-22T22:31:04Z 2012-11-23 10:31:04 12 -1.8711 -1.8726 34.6918 2.725835 27.258351 1028.3028 27.9326 27.9326 76.819 8.81894 12.60315 383.151 104.53516 3.916 1441.18 1441.16 1441.42 1443.03 1442.99 1443.14 0
2012/2013 008 17 -77.60692 165.88513 77.0 2012-11-22T22:31:06Z 2012-11-23 10:31:06 12 -1.8709 -1.8724 34.6911 2.725848 27.258478 1028.307 27.932 27.932 77.83 8.82447 12.61106 383.392 104.6008 3.916 1441.2 1441.17 1441.44 1443.03 1442.99 1443.14 0
2012/2013 008 17 -77.60692 165.88513 78.0 2012-11-22T22:31:08Z 2012-11-23 10:31:08 12 -1.8718 -1.8734 34.6917 2.725854 27.258541 1028.3124 27.9325 27.9324 78.841 8.81979 12.60437 383.189 104.54309 3.916 1441.21 1441.19 1441.45 1443.03 1442.99 1443.14 0
2012/2013 008 17 -77.60692 165.88513 79.0 2012-11-22T22:31:10Z 2012-11-23 10:31:10 12 -1.872 -1.8736 34.6918 2.725898 27.258979 1028.3174 27.9326 27.9326 79.852 8.85674 12.65717 384.794 104.98063 3.916 1441.23 1441.2 1441.47 1443.03 1442.99 1443.14 0
2012/2013 008 17 -77.60692 165.88513 80.0 2012-11-22T22:31:12Z 2012-11-23 10:31:12 12 -1.8723 -1.8739 34.6917 2.725906 27.259062 1028.3221 27.9325 27.9325 80.863 8.87365 12.68133 385.528 105.17992 3.916 1441.24 1441.21 1441.48 1442.57 1442.54 1442.71 0
2012/2013 008 17 -77.60692 165.88513 81.0 2012-11-22T22:31:15Z 2012-11-23 10:31:15 12 -1.8728 -1.8744 34.6919 2.725927 27.259268 1028.3271 27.9326 27.9326 81.874 8.90241 12.72243 386.778 105.51968 3.916 1441.25 1441.23 1441.5 1442.31 1442.28 1442.47 0
2012/2013 008 17 -77.60692 165.88513 82.0 2012-11-22T22:31:17Z 2012-11-23 10:31:17 12 -1.874 -1.8756 34.6921 2.725895 27.258944 1028.3323 27.9329 27.9329 82.885 8.90688 12.72882 386.972 105.56951 3.916 1441.27 1441.24 1441.51 1442.31 1442.28 1442.47 0
2012/2013 008 17 -77.60692 165.88513 83.0 2012-11-22T22:31:19Z 2012-11-23 10:31:19 12 -1.8779 -1.8796 34.6911 2.725529 27.255294 1028.3364 27.9321 27.9321 83.896 8.90668 12.72854 386.964 105.55496 3.916 1441.26 1441.24 1441.5 1442.31 1442.28 1442.47 0
2012/2013 008 17 -77.60692 165.88513 84.0 2012-11-22T22:31:22Z 2012-11-23 10:31:22 12 -1.882 -1.8837 34.6933 2.725402 27.254018 1028.3432 27.9341 27.9341 84.906 8.8204 12.60523 383.214 104.52265 3.916 1441.26 1441.24 1441.5 1442.31 1442.28 1442.47 0
2012/2013 008 17 -77.60692 165.88513 85.0 2012-11-22T22:31:23Z 2012-11-23 10:31:23 12 -1.8826 -1.8843 34.6936 2.725414 27.254142 1028.3483 27.9343 27.9342 85.918 8.83792 12.63027 383.976 104.72885 3.916 1441.28 1441.25 1441.52 1442.31 1442.28 1442.47 0
2012/2013 008 17 -77.60692 165.88513 86.0 2012-11-22T22:31:25Z 2012-11-23 10:31:25 12 -1.883 -1.8847 34.6939 2.725459 27.254589 1028.3535 27.9346 27.9346 86.928 8.84663 12.64272 384.354 104.83128 3.916 1441.29 1441.26 1441.53 1442.31 1442.28 1442.47 0
2012/2013 008 17 -77.60692 165.88513 87.0 2012-11-22T22:31:27Z 2012-11-23 10:31:27 12 -1.8831 -1.8849 34.6942 2.72551 27.255101 1028.3585 27.9348 27.9348 87.94 8.9313 12.76373 388.033 105.8344 3.916 1441.31 1441.28 1441.55 1442.31 1442.28 1442.47 0
2012/2013 008 17 -77.60692 165.88513 88.0 2012-11-22T22:31:29Z 2012-11-23 10:31:29 12 -1.8831 -1.8849 34.6942 2.725554 27.255537 1028.3634 27.9348 27.9348 88.95 8.92857 12.75981 387.913 105.80185 3.916 1441.32 1441.29 1441.57 1442.31 1442.28 1442.47 0
2012/2013 008 17 -77.60692 165.88513 89.0 2012-11-22T22:31:31Z 2012-11-23 10:31:31 12 -1.8829 -1.8847 34.6939 2.725606 27.256059 1028.3681 27.9346 27.9346 89.962 8.99396 12.85327 390.755 106.57735 3.916 1441.34 1441.31 1441.58 1442.31 1442.28 1442.47 0
2012/2013 008 17 -77.60692 165.88513 90.0 2012-11-22T22:31:32Z 2012-11-23 10:31:32 12 -1.8828 -1.8846 34.6938 2.725649 27.25649 1028.3729 27.9346 27.9345 90.973 8.94587 12.78454 388.665 106.00746 3.916 1441.36 1441.33 1441.6 1442.31 1442.28 1442.47 0
2012/2013 008 17 -77.60692 165.88513 91.0 2012-11-22T22:31:34Z 2012-11-23 10:31:34 12 -1.8827 -1.8846 34.6937 2.725694 27.256945 1028.3776 27.9345 27.9344 91.984 9.03981 12.9188 392.747 107.12088 3.916 1441.37 1441.34 1441.62 1442.31 1442.28 1442.47 0
2012/2013 008 17 -77.60692 165.88513 92.0 2012-11-22T22:31:36Z 2012-11-23 10:31:36 12 -1.8827 -1.8846 34.6937 2.725741 27.257406 1028.3825 27.9344 27.9344 92.995 9.07239 12.96536 394.162 107.50697 3.916 1441.39 1441.36 1441.64 1442.31 1442.28 1442.47 0
2012/2013 008 17 -77.60692 165.88513 93.0 2012-11-22T22:31:37Z 2012-11-23 10:31:38 12 -1.8828 -1.8847 34.694 2.725806 27.258059 1028.3876 27.9347 27.9346 94.006 9.06648 12.95691 393.905 107.43699 3.915 1441.41 1441.38 1441.65 1442.31 1442.28 1442.47 0
2012/2013 008 17 -77.60692 165.88513 94.0 2012-11-22T22:31:39Z 2012-11-23 10:31:39 12 -1.8827 -1.8846 34.6942 2.725872 27.258721 1028.3926 27.9348 27.9348 95.017 9.03576 12.91301 392.571 107.07335 3.916 1441.42 1441.39 1441.67 1442.31 1442.28 1442.47 0
2012/2013 008 17 -77.60692 165.88513 95.0 2012-11-22T22:31:41Z 2012-11-23 10:31:41 12 -1.882 -1.8839 34.6944 2.725998 27.259979 1028.3977 27.935 27.935 96.028 9.16249 13.09412 398.077 108.57748 3.916 1441.44 1441.41 1441.69 1442.31 1442.28 1442.47 0
2012/2013 008 17 -77.60692 165.88513 96.0 2012-11-22T22:31:43Z 2012-11-23 10:31:43 12 -1.8818 -1.8838 34.6943 2.726048 27.26048 1028.4024 27.9349 27.9349 97.039 9.12704 13.04346 396.536 108.15772 3.916 1441.46 1441.43 1441.71 1442.31 1442.28 1442.47 0
2012/2013 008 17 -77.60692 165.88513 97.0 2012-11-22T22:31:45Z 2012-11-23 10:31:45 12 -1.8819 -1.8839 34.6947 2.726106 27.261065 1028.4075 27.9352 27.9351 98.05 9.08203 12.97912 394.581 107.6241 3.915 1441.48 1441.44 1441.72 1442.31 1442.28 1442.47 0
2012/2013 008 17 -77.60692 165.88513 98.0 2012-11-22T22:31:46Z 2012-11-23 10:31:46 12 -1.8813 -1.8833 34.6948 2.726217 27.262172 1028.4125 27.9353 27.9352 99.061 9.18263 13.12289 398.951 108.81824 3.915 1441.5 1441.46 1441.74 1442.31 1442.28 1442.47 0
2012/2013 008 17 -77.60692 165.88513 99.0 2012-11-22T22:31:59Z 2012-11-23 10:31:59 12 -1.881 -1.883 34.6946 2.726277 27.262772 1028.4172 27.9352 27.9351 100.072 9.21795 13.17337 400.486 109.23752 3.915 1441.51 1441.48 1441.76 1442.31 1442.28 1442.47 0
2012/2013 009 18 -77.61482 165.90668 3.0 2012-11-22T23:56:12Z 2012-11-23 11:56:12 12 -1.814 -1.814 34.6733 2.725853 27.258528 1027.9305 27.9159 27.9159 3.032 10.1298 14.4765 440.111 120.24096 3.878 1440.24 1440.23 1440.45 1427.08 1426.97 1426.64 0
2012/2013 009 18 -77.61482 165.90668 4.0 2012-11-22T23:56:44Z 2012-11-23 11:56:44 12 -1.8377 -1.8378 34.6797 2.724368 27.243675 1027.9412 27.9217 27.9217 4.043 10.64991 15.21979 462.705 126.34096 3.88 1440.15 1440.14 1440.37 1427.08 1426.97 1426.64 0
2012/2013 009 18 -77.61482 165.90668 5.0 2012-11-22T23:56:49Z 2012-11-23 11:56:49 12 -1.8401 -1.8402 34.6791 2.724179 27.241792 1027.9457 27.9213 27.9213 5.053 10.46127 14.9502 454.51 124.09506 3.881 1440.15 1440.15 1440.37 1427.08 1426.97 1426.64 0
2012/2013 009 18 -77.61482 165.90668 6.0 2012-11-22T23:56:51Z 2012-11-23 11:56:51 12 -1.8414 -1.8415 34.6799 2.724173 27.241736 1027.9512 27.922 27.922 6.064 10.5835 15.12488 459.82 125.54124 3.882 1440.16 1440.16 1440.38 1427.08 1426.97 1426.64 0
2012/2013 009 18 -77.61482 165.90668 7.0 2012-11-22T23:56:53Z 2012-11-23 11:56:53 12 -1.8409 -1.841 34.6797 2.724252 27.242517 1027.956 27.9219 27.9219 7.074 10.54751 15.07344 458.256 125.11589 3.881 1440.18 1440.18 1440.4 1427.08 1426.97 1426.64 0
2012/2013 009 18 -77.61482 165.90668 8.0 2012-11-22T23:56:55Z 2012-11-23 11:56:55 12 -1.8411 -1.8413 34.6796 2.724272 27.242724 1027.9608 27.9218 27.9218 8.085 10.47312 14.96714 455.025 124.23256 3.882 1440.2 1440.19 1440.42 1427.08 1426.97 1426.64 0
2012/2013 009 18 -77.61482 165.90668 9.0 2012-11-22T23:56:57Z 2012-11-23 11:56:57 12 -1.8427 -1.8429 34.6793 2.72416 27.241604 1027.9654 27.9216 27.9216 9.095 10.74974 15.36245 467.042 127.50805 3.882 1440.2 1440.2 1440.42 1427.08 1426.97 1426.64 0
2012/2013 009 18 -77.61482 165.90668 10.0 2012-11-22T23:56:59Z 2012-11-23 11:56:59 12 -1.8433 -1.8435 34.6795 2.72418 27.241805 1027.9705 27.9218 27.9218 10.106 10.66426 15.24028 463.329 126.49247 3.882 1440.22 1440.21 1440.44 1427.08 1426.97 1426.64 0
2012/2013 009 18 -77.61482 165.90668 11.0 2012-11-22T23:57:01Z 2012-11-23 11:57:01 12 -1.8437 -1.8439 34.6796 2.724198 27.241986 1027.9755 27.9219 27.9219 11.117 10.66351 15.23922 463.296 126.48224 3.882 1440.23 1440.23 1440.45 1427.08 1426.97 1426.64 0
2012/2013 009 18 -77.61482 165.90668 12.0 2012-11-22T23:57:03Z 2012-11-23 11:57:03 12 -1.8437 -1.844 34.6797 2.724245 27.242452 1027.9804 27.9219 27.9219 12.127 10.73927 15.3475 466.588 127.38079 3.882 1440.25 1440.24 1440.47 1427.08 1426.97 1426.64 0
2012/2013 009 18 -77.61482 165.90668 13.0 2012-11-22T23:57:06Z 2012-11-23 11:57:06 12 -1.8443 -1.8445 34.6795 2.724236 27.242361 1027.9851 27.9218 27.9218 13.138 10.72412 15.32584 465.93 127.19906 3.882 1440.26 1440.26 1440.48 1427.08 1426.97 1426.64 0
2012/2013 009 18 -77.61482 165.90668 14.0 2012-11-22T23:57:08Z 2012-11-23 11:57:08 12 -1.8442 -1.8444 34.6799 2.724321 27.243215 1027.9904 27.9221 27.9221 14.149 10.73087 15.33548 466.223 127.2798 3.883 1440.28 1440.27 1440.5 1427.08 1426.97 1426.64 0
2012/2013 009 18 -77.61482 165.90668 15.0 2012-11-22T23:57:10Z 2012-11-23 11:57:10 12 -1.8441 -1.8444 34.6794 2.724337 27.243374 1027.9948 27.9217 27.9217 15.159 10.79542 15.42773 469.027 128.04524 3.883 1440.3 1440.29 1440.52 1427.08 1426.97 1426.64 0
2012/2013 009 18 -77.61482 165.90668 16.0 2012-11-22T23:57:12Z 2012-11-23 11:57:12 12 -1.8443 -1.8446 34.6801 2.724419 27.244192 1028.0002 27.9223 27.9223 16.17 10.80648 15.44353 469.507 128.17646 3.883 1440.31 1440.31 1440.54 1427.08 1426.97 1426.64 0
2012/2013 009 18 -77.61482 165.90668 17.0 2012-11-22T23:57:14Z 2012-11-23 11:57:14 12 -1.8435 -1.8438 34.679 2.724454 27.244538 1028.0042 27.9214 27.9213 17.181 10.85314 15.51023 471.536 128.7317 3.883 1440.33 1440.32 1440.55 1427.08 1426.97 1426.64 0
2012/2013 009 18 -77.61482 165.90668 18.0 2012-11-22T23:57:16Z 2012-11-23 11:57:16 12 -1.8438 -1.8441 34.6798 2.724536 27.245361 1028.0098 27.922 27.922 18.191 10.85561 15.51375 471.642 128.7607 3.883 1440.35 1440.34 1440.57 1427.08 1426.97 1426.64 0
2012/2013 009 18 -77.61482 165.90668 19.0 2012-11-22T23:57:18Z 2012-11-23 11:57:18 12 -1.8431 -1.8435 34.68 2.724649 27.246487 1028.0147 27.9222 27.9222 19.202 10.84149 15.49358 471.029 128.59562 3.883 1440.37 1440.36 1440.59 1427.08 1426.97 1426.64 0
2012/2013 009 18 -77.61482 165.90668 20.0 2012-11-22T23:57:20Z 2012-11-23 11:57:20 12 -1.8406 -1.841 34.6805 2.724937 27.249367 1028.0199 27.9225 27.9225 20.213 10.93787 15.63131 475.216 129.74794 3.883 1440.4 1440.39 1440.62 1431.58 1431.5 1431.36 0
2012/2013 009 18 -77.61482 165.90668 21.0 2012-11-22T23:57:23Z 2012-11-23 11:57:23 12 -1.8394 -1.8398 34.679 2.724988 27.249879 1028.0236 27.9212 27.9212 21.223 10.98535 15.69917 477.28 130.31441 3.883 1440.42 1440.41 1440.64 1433.73 1433.67 1433.62 0
2012/2013 009 18 -77.61482 165.90668 22.0 2012-11-22T23:57:25Z 2012-11-23 11:57:25 12 -1.8422 -1.8426 34.6794 2.724828 27.248283 1028.0288 27.9217 27.9216 22.234 10.962 15.66579 476.265 130.02784 3.884 1440.42 1440.41 1440.64 1433.74 1433.68 1433.63 0
2012/2013 009 18 -77.61482 165.90668 23.0 2012-11-22T23:57:27Z 2012-11-23 11:57:27 12 -1.843 -1.8434 34.6792 2.72479 27.247905 1028.0335 27.9215 27.9215 23.245 11.02169 15.7511 478.859 130.73287 3.884 1440.43 1440.42 1440.65 1433.74 1433.68 1433.63 0
2012/2013 009 18 -77.61482 165.90668 24.0 2012-11-22T23:57:29Z 2012-11-23 11:57:29 12 -1.8433 -1.8438 34.6793 2.724819 27.248188 1028.0385 27.9216 27.9216 24.255 11.00434 15.72631 478.105 130.52604 3.884 1440.45 1440.44 1440.67 1433.74 1433.68 1433.63 0
2012/2013 009 18 -77.61482 165.90668 25.0 2012-11-22T23:57:31Z 2012-11-23 11:57:31 12 -1.8429 -1.8434 34.6797 2.724928 27.249285 1028.0438 27.922 27.922 25.266 11.06644 15.81505 480.802 131.26431 3.884 1440.46 1440.45 1440.69 1433.74 1433.68 1433.63 0
2012/2013 009 18 -77.61482 165.90668 26.0 2012-11-22T23:57:33Z 2012-11-23 11:57:34 12 -1.8433 -1.8439 34.6798 2.724948 27.249477 1028.0487 27.922 27.922 26.277 11.05272 15.79544 480.206 131.10018 3.884 1440.48 1440.47 1440.7 1433.74 1433.68 1433.63 0
2012/2013 009 18 -77.61482 165.90668 27.0 2012-11-22T23:57:36Z 2012-11-23 11:57:36 12 -1.8422 -1.8427 34.6794 2.725068 27.250685 1028.0532 27.9217 27.9217 27.287 11.15259 15.93816 484.545 132.28866 3.884 1440.5 1440.49 1440.73 1433.74 1433.68 1433.63 0
2012/2013 009 18 -77.61482 165.90668 28.0 2012-11-22T23:57:38Z 2012-11-23 11:57:38 12 -1.8424 -1.8429 34.6795 2.725103 27.251031 1028.0582 27.9218 27.9218 28.298 11.10428 15.86913 482.446 131.71494 3.885 1440.52 1440.51 1440.74 1433.74 1433.68 1433.63 0
2012/2013 009 18 -77.61482 165.90668 29.0 2012-11-22T23:57:40Z 2012-11-23 11:57:40 12 -1.8415 -1.8421 34.6793 2.7252 27.251998 1028.0628 27.9216 27.9215 29.309 11.13941 15.91933 483.973 132.13428 3.884 1440.54 1440.53 1440.76 1433.74 1433.68 1433.63 0
2012/2013 009 18 -77.61482 165.90668 30.0 2012-11-22T23:57:42Z 2012-11-23 11:57:42 12 -1.8421 -1.8427 34.6794 2.72521 27.2521 1028.0678 27.9217 27.9217 30.32 11.17083 15.96424 485.338 132.50522 3.885 1440.55 1440.54 1440.78 1433.74 1433.68 1433.63 0
2012/2013 009 18 -77.61482 165.90668 31.0 2012-11-22T23:57:44Z 2012-11-23 11:57:44 12 -1.8402 -1.8408 34.6802 2.725472 27.254718 1028.0733 27.9223 27.9223 31.331 11.17782 15.97423 485.641 132.59563 3.886 1440.58 1440.57 1440.8 1433.74 1433.68 1433.63 0
2012/2013 009 18 -77.61482 165.90668 32.0 2012-11-22T23:57:47Z 2012-11-23 11:57:47 12 -1.84 -1.8406 34.6792 2.72547 27.254704 1028.0774 27.9215 27.9215 32.341 11.25291 16.08153 488.904 133.48632 3.886 1440.59 1440.58 1440.82 1433.74 1433.68 1433.63 0
2012/2013 009 18 -77.61482 165.90668 33.0 2012-11-22T23:57:49Z 2012-11-23 11:57:49 12 -1.8398 -1.8404 34.6794 2.725544 27.255438 1028.0823 27.9216 27.9216 33.352 11.24797 16.07447 488.69 133.42854 3.885 1440.61 1440.6 1440.84 1433.74 1433.68 1433.63 0
2012/2013 009 18 -77.61482 165.90668 34.0 2012-11-22T23:57:51Z 2012-11-23 11:57:51 12 -1.8397 -1.8404 34.6794 2.725592 27.255917 1028.0872 27.9216 27.9216 34.363 11.34444 16.21234 492.881 134.57296 3.886 1440.63 1440.61 1440.85 1433.74 1433.68 1433.63 0
2012/2013 009 18 -77.61482 165.90668 35.0 2012-11-22T23:57:53Z 2012-11-23 11:57:53 12 -1.8398 -1.8405 34.6794 2.725635 27.256355 1028.092 27.9215 27.9215 35.373 11.31966 16.17693 491.804 134.27898 3.885 1440.64 1440.63 1440.87 1433.74 1433.68 1433.63 0
2012/2013 009 18 -77.61482 165.90668 36.0 2012-11-22T23:57:56Z 2012-11-23 11:57:56 12 -1.84 -1.8407 34.6795 2.725669 27.256696 1028.097 27.9216 27.9216 36.384 11.34589 16.21441 492.944 134.5893 3.886 1440.66 1440.65 1440.89 1433.74 1433.68 1433.63 0
2012/2013 009 18 -77.61482 165.90668 37.0 2012-11-22T23:57:58Z 2012-11-23 11:57:58 12 -1.8398 -1.8406 34.6797 2.725749 27.257486 1028.1021 27.9218 27.9218 37.395 11.38664 16.27264 494.714 135.07355 3.886 1440.68 1440.66 1440.91 1433.74 1433.68 1433.63 0
2012/2013 009 18 -77.61482 165.90668 38.0 2012-11-22T23:58:00Z 2012-11-23 11:58:00 12 -1.84 -1.8408 34.6793 2.725752 27.257517 1028.1066 27.9215 27.9215 38.406 11.42715 16.33054 496.474 135.55311 3.886 1440.69 1440.68 1440.92 1433.74 1433.68 1433.63 0
2012/2013 009 18 -77.61482 165.90668 39.0 2012-11-22T23:58:02Z 2012-11-23 11:58:02 12 -1.8403 -1.8411 34.6797 2.7258 27.258006 1028.1118 27.9218 27.9218 39.417 11.45638 16.37231 497.744 135.89905 3.886 1440.71 1440.69 1440.93 1433.74 1433.68 1433.63 0
2012/2013 009 18 -77.61482 165.90668 40.0 2012-11-22T23:58:04Z 2012-11-23 11:58:04 12 -1.8401 -1.8409 34.6798 2.725878 27.258781 1028.1168 27.9219 27.9219 40.427 11.44123 16.35066 497.086 135.72044 3.886 1440.72 1440.71 1440.95 1433.74 1433.68 1433.63 0
2012/2013 009 18 -77.61482 165.90668 41.0 2012-11-22T23:58:06Z 2012-11-23 11:58:06 12 -1.8399 -1.8407 34.6795 2.725917 27.259174 1028.1214 27.9217 27.9217 41.438 11.51901 16.46181 500.465 136.6433 3.886 1440.74 1440.73 1440.97 1433.74 1433.68 1433.63 0
2012/2013 009 18 -77.61482 165.90668 42.0 2012-11-22T23:58:09Z 2012-11-23 11:58:09 12 -1.8408 -1.8417 34.68 2.725923 27.259224 1028.1267 27.9221 27.9221 42.449 11.49697 16.43032 499.507 136.37898 3.886 1440.75 1440.74 1440.98 1433.74 1433.68 1433.63 0
2012/2013 009 18 -77.61482 165.90668 43.0 2012-11-22T23:58:11Z 2012-11-23 11:58:11 12 -1.8403 -1.8412 34.6802 2.726026 27.260255 1028.1317 27.9223 27.9223 43.46 11.52114 16.46487 500.558 136.6678 3.887 1440.77 1440.76 1441.0 1433.74 1433.68 1433.63 0
2012/2013 009 18 -77.61482 165.90668 44.0 2012-11-22T23:58:14Z 2012-11-23 11:58:14 12 -1.8399 -1.8407 34.68 2.726097 27.260974 1028.1364 27.9221 27.9221 44.47 11.55405 16.51189 501.987 137.05966 3.887 1440.79 1440.77 1441.02 1433.74 1433.68 1433.63 0
2012/2013 009 18 -77.61482 165.90668 45.0 2012-11-22T23:58:16Z 2012-11-23 11:58:16 12 -1.8406 -1.8415 34.6798 2.72607 27.260704 1028.1411 27.922 27.9219 45.482 11.63184 16.62307 505.368 137.97968 3.887 1440.8 1440.79 1441.03 1433.74 1433.68 1433.63 0
2012/2013 009 18 -77.61482 165.90668 46.0 2012-11-22T23:58:19Z 2012-11-23 11:58:19 12 -1.84 -1.8409 34.6805 2.726216 27.262157 1028.1465 27.9225 27.9225 46.492 11.48939 16.41949 499.178 136.29274 3.887 1440.82 1440.81 1441.05 1433.74 1433.68 1433.63 0
2012/2013 009 18 -77.61482 165.90668 47.0 2012-11-22T23:58:21Z 2012-11-23 11:58:21 12 -1.84 -1.8409 34.679 2.726156 27.261564 1028.1502 27.9213 27.9212 47.503 11.69978 16.72016 508.319 138.78698 3.888 1440.84 1440.82 1441.07 1437.29 1437.26 1437.35 0
2012/2013 009 18 -77.61482 165.90668 48.0 2012-11-22T23:58:23Z 2012-11-23 11:58:23 12 -1.8427 -1.8437 34.6807 2.726093 27.26093 1028.1565 27.9227 27.9227 48.514 11.59695 16.5732 503.851 137.55862 3.888 1440.84 1440.83 1441.07 1437.67 1437.64 1437.75 0
2012/2013 009 18 -77.61482 165.90668 49.0 2012-11-22T23:58:26Z 2012-11-23 11:58:26 12 -1.8456 -1.8466 34.6795 2.725817 27.258176 1028.1605 27.9219 27.9218 49.525 11.678 16.68903 507.373 138.50807 3.888 1440.84 1440.83 1441.07 1437.68 1437.65 1437.76 0
2012/2013 009 18 -77.61482 165.90668 50.0 2012-11-22T23:58:28Z 2012-11-23 11:58:28 12 -1.8509 -1.8518 34.6818 2.725591 27.255912 1028.1674 27.9239 27.9239 50.535 11.60963 16.59132 504.401 137.67989 3.887 1440.84 1440.82 1441.07 1437.68 1437.65 1437.76 0
2012/2013 009 18 -77.61482 165.90668 51.0 2012-11-22T23:58:31Z 2012-11-23 11:58:31 12 -1.8511 -1.8521 34.682 2.725631 27.25631 1028.1725 27.924 27.924 51.546 11.68786 16.70313 507.8 138.60705 3.888 1440.86 1440.84 1441.09 1437.68 1437.65 1437.76 0
2012/2013 009 18 -77.61482 165.90668 52.0 2012-11-22T23:58:33Z 2012-11-23 11:58:33 12 -1.8513 -1.8524 34.682 2.725656 27.256558 1028.1773 27.924 27.924 52.557 11.68224 16.69509 507.556 138.53937 3.888 1440.87 1440.85 1441.1 1437.68 1437.65 1437.76 0
2012/2013 009 18 -77.61482 165.90668 53.0 2012-11-22T23:58:35Z 2012-11-23 11:58:35 12 -1.8517 -1.8527 34.6818 2.725662 27.256623 1028.182 27.9239 27.9239 53.568 11.70002 16.7205 508.329 138.74885 3.888 1440.88 1440.87 1441.12 1437.68 1437.65 1437.76 0
2012/2013 009 18 -77.61482 165.90668 54.0 2012-11-22T23:58:37Z 2012-11-23 11:58:37 12 -1.8524 -1.8535 34.6818 2.725647 27.256473 1028.1869 27.9239 27.9239 54.579 11.71103 16.73623 508.807 138.87662 3.888 1440.9 1440.88 1441.13 1437.68 1437.65 1437.76 0
2012/2013 009 18 -77.61482 165.90668 55.0 2012-11-22T23:58:40Z 2012-11-23 11:58:40 12 -1.8542 -1.8553 34.6825 2.725589 27.255886 1028.1924 27.9245 27.9245 55.59 11.69064 16.7071 507.921 138.62863 3.888 1440.91 1440.89 1441.14 1437.68 1437.65 1437.76 0
2012/2013 009 18 -77.61482 165.90668 56.0 2012-11-22T23:58:42Z 2012-11-23 11:58:42 12 -1.8546 -1.8557 34.6822 2.725585 27.25585 1028.1971 27.9243 27.9243 56.601 11.75667 16.80145 510.789 139.4098 3.888 1440.92 1440.9 1441.15 1437.68 1437.65 1437.76 0
2012/2013 009 18 -77.61482 165.90668 57.0 2012-11-22T23:58:44Z 2012-11-23 11:58:44 12 -1.8549 -1.8561 34.6828 2.725642 27.256426 1028.2024 27.9247 27.9247 57.611 11.74918 16.79075 510.464 139.32037 3.889 1440.94 1440.92 1441.17 1437.68 1437.65 1437.76 0
2012/2013 009 18 -77.61482 165.90668 58.0 2012-11-22T23:58:46Z 2012-11-23 11:58:46 12 -1.8559 -1.857 34.6825 2.725596 27.25596 1028.2071 27.9246 27.9245 58.622 11.8015 16.86552 512.737 139.93701 3.889 1440.95 1440.93 1441.18 1437.68 1437.65 1437.76 0
2012/2013 009 18 -77.61482 165.90668 59.0 2012-11-22T23:58:48Z 2012-11-23 11:58:48 12 -1.8571 -1.8583 34.6828 2.725565 27.255649 1028.2122 27.9249 27.9248 59.633 11.79172 16.85154 512.312 139.81687 3.889 1440.96 1440.94 1441.19 1437.68 1437.65 1437.76 0
2012/2013 009 18 -77.61482 165.90668 60.0 2012-11-22T23:58:50Z 2012-11-23 11:58:50 12 -1.8579 -1.8591 34.683 2.725559 27.25559 1028.2173 27.9251 27.925 60.644 11.81336 16.88247 513.252 140.07055 3.889 1440.97 1440.95 1441.2 1437.68 1437.65 1437.76 0
2012/2013 009 18 -77.61482 165.90668 61.0 2012-11-22T23:58:52Z 2012-11-23 11:58:52 12 -1.8579 -1.8591 34.6835 2.725636 27.256359 1028.2225 27.9254 27.9254 61.655 11.77719 16.83079 511.68 139.6421 3.889 1440.99 1440.97 1441.22 1437.68 1437.65 1437.76 0
2012/2013 009 18 -77.61482 165.90668 62.0 2012-11-22T23:58:55Z 2012-11-23 11:58:55 12 -1.8576 -1.8588 34.6829 2.725671 27.256707 1028.227 27.925 27.9249 62.666 11.85834 16.94676 515.207 140.60502 3.89 1441.01 1440.99 1441.24 1437.68 1437.65 1437.76 0
2012/2013 009 18 -77.61482 165.90668 63.0 2012-11-22T23:58:57Z 2012-11-23 11:58:57 12 -1.8586 -1.8599 34.6831 2.725641 27.256408 1028.232 27.9251 27.9251 63.677 11.79871 16.86154 512.616 139.89413 3.889 1441.02 1441.0 1441.25 1437.68 1437.65 1437.76 0
2012/2013 009 18 -77.61482 165.90668 64.0 2012-11-22T23:59:00Z 2012-11-23 11:59:00 12 -1.8593 -1.8606 34.6833 2.725643 27.256435 1028.237 27.9253 27.9253 64.688 11.88109 16.97927 516.195 140.8685 3.89 1441.03 1441.01 1441.26 1437.68 1437.65 1437.76 0
2012/2013 009 18 -77.61482 165.90668 65.0 2012-11-22T23:59:02Z 2012-11-23 11:59:02 12 -1.8592 -1.8605 34.6834 2.725708 27.257075 1028.242 27.9254 27.9254 65.699 11.87347 16.96838 515.864 140.77856 3.889 1441.05 1441.03 1441.28 1437.68 1437.65 1437.76 0
2012/2013 009 18 -77.61482 165.90668 66.0 2012-11-22T23:59:05Z 2012-11-23 11:59:05 12 -1.8592 -1.8606 34.6834 2.725749 27.257486 1028.2468 27.9253 27.9253 66.709 11.92543 17.04263 518.121 141.3945 3.89 1441.06 1441.04 1441.3 1437.68 1437.65 1437.76 0
2012/2013 009 18 -77.61482 165.90668 67.0 2012-11-22T23:59:07Z 2012-11-23 11:59:07 12 -1.8612 -1.8625 34.684 2.725675 27.256752 1028.2522 27.9259 27.9259 67.72 11.91673 17.0302 517.743 141.28453 3.89 1441.07 1441.05 1441.31 1437.68 1437.65 1437.76 0
2012/2013 009 18 -77.61482 165.90668 68.0 2012-11-22T23:59:09Z 2012-11-23 11:59:09 12 -1.8615 -1.8629 34.6845 2.72573 27.257298 1028.2575 27.9263 27.9263 68.731 11.9112 17.0223 517.502 141.21815 3.89 1441.09 1441.06 1441.32 1437.68 1437.65 1437.76 0
2012/2013 009 18 -77.61482 165.90668 69.0 2012-11-22T23:59:12Z 2012-11-23 11:59:12 12 -1.8616 -1.863 34.6845 2.725767 27.257663 1028.2624 27.9263 27.9263 69.742 11.96678 17.10172 519.917 141.87661 3.889 1441.1 1441.08 1441.34 1437.68 1437.65 1437.76 0
2012/2013 009 18 -77.61482 165.90668 70.0 2012-11-22T23:59:14Z 2012-11-23 11:59:14 12 -1.8622 -1.8636 34.6846 2.725772 27.257722 1028.2674 27.9264 27.9264 70.753 11.99464 17.14154 521.127 142.20481 3.89 1441.11 1441.09 1441.35 1437.68 1437.65 1437.76 0
2012/2013 009 18 -77.61482 165.90668 71.0 2012-11-22T23:59:17Z 2012-11-23 11:59:17 12 -1.8623 -1.8637 34.6844 2.725805 27.258052 1028.2721 27.9263 27.9263 71.764 11.95567 17.08584 519.434 141.74246 3.89 1441.13 1441.11 1441.37 1437.68 1437.65 1437.76 0
2012/2013 009 18 -77.61482 165.90668 72.0 2012-11-22T23:59:19Z 2012-11-23 11:59:19 12 -1.8643 -1.8657 34.6846 2.725698 27.256977 1028.2772 27.9265 27.9265 72.775 12.0524 17.22409 523.637 142.88175 3.89 1441.14 1441.11 1441.38 1437.95 1437.92 1438.04 0
2012/2013 009 18 -77.61482 165.90668 73.0 2012-11-22T23:59:21Z 2012-11-23 11:59:21 12 -1.8649 -1.8663 34.6852 2.725741 27.25741 1028.2826 27.927 27.927 73.786 11.93789 17.06044 518.661 141.52264 3.89 1441.15 1441.13 1441.39 1438.84 1438.82 1438.98 0
2012/2013 009 18 -77.61482 165.90668 74.0 2012-11-22T23:59:23Z 2012-11-23 11:59:23 12 -1.8647 -1.8662 34.6855 2.725814 27.258139 1028.2876 27.9272 27.9272 74.797 12.02714 17.18798 522.539 142.58134 3.89 1441.17 1441.15 1441.41 1438.85 1438.83 1438.99 0
2012/2013 009 18 -77.61482 165.90668 75.0 2012-11-22T23:59:25Z 2012-11-23 11:59:25 12 -1.8644 -1.8659 34.6853 2.72588 27.258795 1028.2923 27.9271 27.927 75.808 12.08152 17.2657 524.902 143.22731 3.891 1441.19 1441.16 1441.43 1438.85 1438.83 1438.99 0
2012/2013 009 18 -77.61482 165.90668 76.0 2012-11-22T23:59:27Z 2012-11-23 11:59:27 12 -1.8645 -1.866 34.6854 2.725926 27.259254 1028.2973 27.9271 27.9271 76.819 12.08745 17.27417 525.159 143.29735 3.891 1441.21 1441.18 1441.44 1438.85 1438.83 1438.99 0
2012/2013 009 18 -77.61482 165.90668 77.0 2012-11-22T23:59:29Z 2012-11-23 11:59:29 12 -1.8648 -1.8663 34.6852 2.725931 27.259311 1028.302 27.927 27.927 77.83 12.11061 17.30726 526.165 143.57039 3.89 1441.22 1441.19 1441.46 1438.85 1438.83 1438.99 0
2012/2013 009 18 -77.61482 165.90668 78.0 2012-11-22T23:59:30Z 2012-11-23 11:59:30 12 -1.865 -1.8666 34.6856 2.725986 27.25986 1028.3072 27.9273 27.9273 78.841 12.15434 17.36977 528.066 144.08846 3.89 1441.23 1441.21 1441.47 1438.85 1438.83 1438.99 0
2012/2013 009 18 -77.61482 165.90668 79.0 2012-11-22T23:59:33Z 2012-11-23 11:59:32 12 -1.8653 -1.8669 34.6856 2.726008 27.260076 1028.3121 27.9274 27.9273 79.851 12.12154 17.32289 526.64 143.69827 3.89 1441.25 1441.22 1441.49 1438.85 1438.83 1438.99 0
2012/2013 009 18 -77.61482 165.90668 80.0 2012-11-22T23:59:35Z 2012-11-23 11:59:35 12 -1.8661 -1.8677 34.6857 2.726 27.260001 1028.3171 27.9275 27.9274 80.863 12.14407 17.35509 527.619 143.96262 3.891 1441.26 1441.23 1441.5 1438.85 1438.83 1438.99 0
2012/2013 009 18 -77.61482 165.90668 81.0 2012-11-22T23:59:38Z 2012-11-23 11:59:38 12 -1.8663 -1.868 34.686 2.726048 27.26048 1028.3222 27.9277 27.9277 81.874 12.10326 17.29676 525.846 143.47811 3.891 1441.28 1441.25 1441.52 1438.85 1438.83 1438.99 0
2012/2013 009 18 -77.61482 165.90668 82.0 2012-11-22T23:59:40Z 2012-11-23 11:59:40 12 -1.8663 -1.868 34.6855 2.726056 27.260564 1028.3266 27.9273 27.9272 82.885 12.22508 17.47086 531.139 144.92176 3.891 1441.29 1441.27 1441.53 1438.85 1438.83 1438.99 0
2012/2013 009 18 -77.61482 165.90668 83.0 2012-11-22T23:59:42Z 2012-11-23 11:59:42 12 -1.8686 -1.8703 34.6862 2.725968 27.259683 1028.3322 27.928 27.9279 83.896 12.17176 17.39466 528.822 144.28149 3.891 1441.3 1441.27 1441.54 1438.85 1438.83 1438.99 0
2012/2013 009 18 -77.61482 165.90668 84.0 2012-11-22T23:59:44Z 2012-11-23 11:59:44 12 -1.87 -1.8717 34.6867 2.725931 27.259312 1028.3374 27.9283 27.9283 84.907 12.21096 17.45068 530.525 144.74128 3.891 1441.31 1441.28 1441.55 1438.85 1438.83 1438.99 0
2012/2013 009 18 -77.61482 165.90668 85.0 2012-11-22T23:59:46Z 2012-11-23 11:59:46 12 -1.8711 -1.8728 34.6874 2.725934 27.259342 1028.3429 27.929 27.9289 85.918 12.16462 17.38446 528.511 144.18839 3.891 1441.32 1441.29 1441.56 1438.85 1438.83 1438.99 0
2012/2013 009 18 -77.61482 165.90668 86.0 2012-11-22T23:59:48Z 2012-11-23 11:59:48 12 -1.8713 -1.873 34.6873 2.725953 27.259537 1028.3477 27.9289 27.9288 86.929 12.22959 17.4773 531.334 144.95743 3.891 1441.34 1441.31 1441.58 1438.85 1438.83 1438.99 0
2012/2013 009 18 -77.61482 165.90668 87.0 2012-11-22T23:59:51Z 2012-11-23 11:59:51 12 -1.8713 -1.873 34.6876 2.72603 27.260299 1028.3529 27.9292 27.9292 87.94 12.18761 17.41731 529.51 144.46035 3.891 1441.36 1441.33 1441.6 1438.85 1438.83 1438.99 0
2012/2013 009 18 -77.61482 165.90668 88.0 2012-11-22T23:59:53Z 2012-11-23 11:59:53 12 -1.8711 -1.8729 34.6873 2.726068 27.260676 1028.3575 27.9289 27.9289 88.95 12.33747 17.63148 536.021 146.23696 3.891 1441.37 1441.34 1441.61 1438.85 1438.83 1438.99 0
2012/2013 009 18 -77.61482 165.90668 89.0 2012-11-22T23:59:55Z 2012-11-23 11:59:55 12 -1.8722 -1.874 34.6876 2.726046 27.260462 1028.3626 27.9292 27.9292 89.961 12.23444 17.48424 531.545 145.01189 3.891 1441.38 1441.35 1441.62 1438.85 1438.83 1438.99 0
2012/2013 009 18 -77.61482 165.90668 90.0 2012-11-22T23:59:57Z 2012-11-23 11:59:57 12 -1.872 -1.8738 34.6877 2.726115 27.261153 1028.3675 27.9292 27.9292 90.973 12.26909 17.53376 533.05 145.42343 3.891 1441.4 1441.37 1441.64 1438.85 1438.83 1438.99 0
2012/2013 009 18 -77.61482 165.90668 91.0 2012-11-22T23:59:59Z 2012-11-23 11:59:59 12 -1.8725 -1.8744 34.6879 2.726133 27.261334 1028.3726 27.9294 27.9294 91.984 12.33853 17.633 536.067 146.24469 3.892 1441.42 1441.39 1441.66 1438.85 1438.83 1438.99 0
2012/2013 009 18 -77.61482 165.90668 92.0 2012-11-23T00:00:01Z 2012-11-23 12:00:02 12 -1.8726 -1.8744 34.6878 2.726166 27.261665 1028.3774 27.9293 27.9293 92.995 12.2902 17.56392 533.967 145.67148 3.891 1441.43 1441.4 1441.67 1438.85 1438.83 1438.99 0
2012/2013 009 18 -77.61482 165.90668 93.0 2012-11-23T00:00:03Z 2012-11-23 12:00:03 12 -1.8729 -1.8748 34.6881 2.726205 27.262054 1028.3825 27.9296 27.9296 94.006 12.41023 17.73546 539.182 147.09301 3.891 1441.45 1441.42 1441.69 1438.85 1438.83 1438.99 0
2012/2013 009 18 -77.61482 165.90668 94.0 2012-11-23T00:00:05Z 2012-11-23 12:00:05 12 -1.8734 -1.8753 34.6881 2.726213 27.262132 1028.3874 27.9296 27.9296 95.017 12.30181 17.58052 534.471 145.80614 3.891 1441.46 1441.43 1441.7 1438.85 1438.83 1438.99 0
2012/2013 009 18 -77.61482 165.90668 95.0 2012-11-23T00:00:07Z 2012-11-23 12:00:07 12 -1.8733 -1.8752 34.6883 2.726287 27.262872 1028.3924 27.9298 27.9297 96.028 12.28533 17.55696 533.755 145.61164 3.891 1441.48 1441.45 1441.72 1438.85 1438.83 1438.99 0
2012/2013 009 18 -77.61482 165.90668 96.0 2012-11-23T00:00:11Z 2012-11-23 12:00:11 12 -1.8734 -1.8754 34.6882 2.726314 27.263145 1028.3972 27.9297 27.9297 97.039 12.33984 17.63486 536.123 146.25686 3.891 1441.49 1441.46 1441.74 1438.85 1438.83 1438.99 0
2012/2013 009 18 -77.61482 165.90668 97.0 2012-11-23T00:00:34Z 2012-11-23 12:00:34 12 -1.8711 -1.8731 34.6885 2.726576 27.265759 1028.4022 27.9299 27.9298 98.05 12.44827 17.78982 540.834 147.55166 3.892 1441.52 1441.49 1441.76 1439.06 1439.04 1439.21 0
2012/2013 010 19 -77.61715 165.88887 3.0 2012-11-25T22:32:38Z 2012-11-26 10:32:38 12 -1.9068 -1.9068 33.6798 2.647267 26.472671 1027.1247 27.11 27.11 3.032 2.45815 3.51294 106.884 28.89775 3.853 1438.44 1438.44 1438.6 1450.62 1450.54 1450.58 0
2012/2013 010 19 -77.61715 165.88887 4.0 2012-11-25T22:34:29Z 2012-11-26 10:34:29 12 -1.911 -1.911 34.4523 2.702046 27.020464 1027.7582 27.7387 27.7387 4.042 2.63123 3.76028 114.34 31.10088 3.86 1439.48 1439.49 1439.7 1450.62 1450.54 1450.58 0
2012/2013 010 19 -77.61715 165.88887 5.0 2012-11-25T22:34:28Z 2012-11-26 10:34:28 12 -1.9166 -1.9167 34.3418 2.693741 26.937413 1027.6734 27.649 27.649 5.053 2.49902 3.57135 108.604 29.51143 3.86 1439.32 1439.32 1439.53 1450.62 1450.54 1450.58 0
2012/2013 010 19 -77.61715 165.88887 6.0 2012-11-25T22:34:31Z 2012-11-26 10:34:31 12 -1.9189 -1.919 34.4217 2.699293 26.99293 1027.7433 27.714 27.714 6.063 2.47536 3.53754 107.569 29.24715 3.861 1439.44 1439.44 1439.65 1450.62 1450.54 1450.58 0
2012/2013 010 19 -77.61715 165.88887 7.0 2012-11-25T22:34:33Z 2012-11-26 10:34:33 12 -1.92 -1.9201 34.6247 2.713723 27.137229 1027.9133 27.8792 27.8792 7.074 2.47639 3.539 107.596 29.30093 3.861 1439.73 1439.72 1439.95 1450.62 1450.54 1450.58 0
2012/2013 010 19 -77.61715 165.88887 8.0 2012-11-25T22:34:36Z 2012-11-26 10:34:36 12 -1.9205 -1.9207 34.6223 2.713553 27.135531 1027.9163 27.8773 27.8773 8.085 2.47405 3.53566 107.494 29.27232 3.862 1439.74 1439.74 1439.96 1450.62 1450.54 1450.58 0
2012/2013 010 19 -77.61715 165.88887 9.0 2012-11-25T22:34:38Z 2012-11-26 10:34:39 12 -1.9205 -1.9207 34.621 2.713506 27.135064 1027.9201 27.8762 27.8762 9.096 2.4535 3.5063 106.602 29.02897 3.861 1439.75 1439.75 1439.97 1450.62 1450.54 1450.58 0
2012/2013 010 19 -77.61715 165.88887 10.0 2012-11-25T22:34:41Z 2012-11-26 10:34:41 12 -1.9209 -1.9211 34.6211 2.713523 27.135229 1027.925 27.8763 27.8763 10.106 2.45805 3.51279 106.799 29.08242 3.862 1439.76 1439.76 1439.99 1450.62 1450.54 1450.58 0
2012/2013 010 19 -77.61715 165.88887 11.0 2012-11-25T22:34:44Z 2012-11-26 10:34:44 12 -1.9213 -1.9215 34.5684 2.709792 27.097917 1027.8871 27.8334 27.8334 11.116 2.45824 3.51307 106.812 29.07349 3.862 1439.71 1439.71 1439.93 1450.62 1450.54 1450.58 0
2012/2013 010 19 -77.61715 165.88887 12.0 2012-11-25T22:34:46Z 2012-11-26 10:34:46 12 -1.9213 -1.9216 34.1182 2.677732 26.777317 1027.5257 27.4671 27.4671 12.128 2.46085 3.51679 106.963 29.01082 3.863 1439.11 1439.11 1439.31 1450.62 1450.54 1450.58 0
2012/2013 010 19 -77.61715 165.88887 13.0 2012-11-25T22:34:48Z 2012-11-26 10:34:48 12 -1.9214 -1.9216 33.7523 2.651677 26.516766 1027.2328 27.1694 27.1694 13.138 2.46848 3.5277 107.326 29.02487 3.863 1438.63 1438.63 1438.8 1450.62 1450.54 1450.58 0
2012/2013 010 19 -77.61715 165.88887 14.0 2012-11-25T22:34:51Z 2012-11-26 10:34:51 12 -1.9217 -1.922 34.647 2.715494 27.154937 1027.9656 27.8974 27.8973 14.149 2.44199 3.48984 106.099 28.89717 3.862 1439.86 1439.86 1440.09 1450.62 1450.54 1450.58 0
2012/2013 010 19 -77.61715 165.88887 15.0 2012-11-25T22:34:53Z 2012-11-26 10:34:53 12 -1.9219 -1.9222 34.463 2.702411 27.024107 1027.8208 27.7477 27.7477 15.159 2.44763 3.49791 106.36 28.92572 3.865 1439.63 1439.62 1439.84 1450.62 1450.54 1450.58 0
2012/2013 010 19 -77.61715 165.88887 16.0 2012-11-25T22:34:56Z 2012-11-26 10:34:56 12 -1.9219 -1.9221 33.7137 2.649048 26.490478 1027.2162 27.138 27.138 16.17 2.44966 3.50082 106.512 28.79544 3.864 1438.62 1438.62 1438.8 1450.62 1450.54 1450.58 0
2012/2013 010 19 -77.61715 165.88887 17.0 2012-11-25T22:34:59Z 2012-11-26 10:34:59 12 -1.9219 -1.9222 33.7142 2.649127 26.491268 1027.2214 27.1384 27.1384 17.18 2.46128 3.51742 107.017 28.93208 3.865 1438.64 1438.64 1438.82 1450.62 1450.54 1450.58 0
2012/2013 010 19 -77.61715 165.88887 18.0 2012-11-25T22:35:01Z 2012-11-26 10:35:01 12 -1.9217 -1.922 33.7119 2.649019 26.490187 1027.2244 27.1365 27.1365 18.191 2.45246 3.50482 106.633 28.82809 3.865 1438.65 1438.65 1438.83 1450.62 1450.54 1450.58 0
2012/2013 010 19 -77.61715 165.88887 19.0 2012-11-25T22:35:04Z 2012-11-26 10:35:04 12 -1.9217 -1.9221 33.7157 2.649339 26.49339 1027.2324 27.1396 27.1396 19.202 2.44808 3.49855 106.442 28.77729 3.865 1438.67 1438.67 1438.85 1450.62 1450.54 1450.58 0
2012/2013 010 19 -77.61715 165.88887 20.0 2012-11-25T22:35:06Z 2012-11-26 10:35:06 12 -1.9221 -1.9224 33.7171 2.649452 26.494522 1027.2384 27.1408 27.1408 20.213 2.44834 3.49893 106.454 28.78041 3.865 1438.69 1438.69 1438.87 1446.37 1446.32 1446.41 0
2012/2013 010 19 -77.61715 165.88887 21.0 2012-11-25T22:35:09Z 2012-11-26 10:35:09 12 -1.9221 -1.9224 33.8091 2.656064 26.560643 1027.3181 27.2156 27.2156 21.223 2.42695 3.46835 105.516 28.54762 3.865 1438.83 1438.83 1439.01 1444.68 1444.63 1444.74 0
2012/2013 010 19 -77.61715 165.88887 22.0 2012-11-25T22:35:12Z 2012-11-26 10:35:12 12 -1.9224 -1.9228 34.3268 2.692996 26.929956 1027.7442 27.6369 27.6369 22.234 2.42396 3.46407 105.342 28.61772 3.866 1439.55 1439.55 1439.76 1444.66 1444.61 1444.72 0
2012/2013 010 19 -77.61715 165.88887 23.0 2012-11-25T22:35:15Z 2012-11-26 10:35:15 12 -1.923 -1.9235 34.6177 2.713719 27.137186 1027.9857 27.8736 27.8736 23.245 2.42007 3.45852 105.149 28.63076 3.867 1439.96 1439.96 1440.19 1444.66 1444.61 1444.72 0
2012/2013 010 19 -77.61715 165.88887 24.0 2012-11-25T22:35:18Z 2012-11-26 10:35:18 12 -1.9231 -1.9235 34.62 2.713931 27.139308 1027.9925 27.8754 27.8754 24.255 2.41755 3.45492 105.04 28.60144 3.867 1439.98 1439.98 1440.21 1444.66 1444.61 1444.72 0
2012/2013 010 19 -77.61715 165.88887 25.0 2012-11-25T22:35:21Z 2012-11-26 10:35:21 12 -1.9231 -1.9236 34.6203 2.713993 27.139924 1027.9976 27.8757 27.8757 25.266 2.41564 3.45219 104.957 28.57885 3.867 1440.0 1439.99 1440.22 1444.66 1444.61 1444.72 0
2012/2013 010 19 -77.61715 165.88887 26.0 2012-11-25T22:35:24Z 2012-11-26 10:35:24 12 -1.923 -1.9235 34.6185 2.713923 27.139228 1028.001 27.8743 27.8743 26.277 2.41884 3.45677 105.096 28.61647 3.868 1440.01 1440.01 1440.24 1444.66 1444.61 1444.72 0
2012/2013 010 19 -77.61715 165.88887 27.0 2012-11-25T22:35:26Z 2012-11-26 10:35:26 12 -1.9236 -1.9241 34.6188 2.713943 27.139433 1028.0061 27.8745 27.8745 27.288 2.42675 3.46806 105.44 28.70959 3.867 1440.03 1440.02 1440.25 1444.66 1444.61 1444.72 0
2012/2013 010 19 -77.61715 165.88887 28.0 2012-11-25T22:35:28Z 2012-11-26 10:35:28 12 -1.9242 -1.9247 34.6185 2.713926 27.139255 1028.0108 27.8743 27.8743 28.298 2.43596 3.48122 105.84 28.81805 3.868 1440.04 1440.03 1440.27 1444.66 1444.61 1444.72 0
2012/2013 010 19 -77.61715 165.88887 29.0 2012-11-25T22:35:31Z 2012-11-26 10:35:31 12 -1.9241 -1.9247 34.6188 2.713993 27.139928 1028.0159 27.8746 27.8745 29.309 2.42872 3.47088 105.525 28.7325 3.869 1440.06 1440.05 1440.28 1444.66 1444.61 1444.72 0
2012/2013 010 19 -77.61715 165.88887 30.0 2012-11-25T22:35:33Z 2012-11-26 10:35:33 12 -1.924 -1.9246 34.6183 2.714019 27.140189 1028.0204 27.8742 27.8741 30.32 2.43367 3.47796 105.74 28.7911 3.869 1440.07 1440.07 1440.3 1444.66 1444.61 1444.72 0
2012/2013 010 19 -77.61715 165.88887 31.0 2012-11-25T22:35:35Z 2012-11-26 10:35:36 12 -1.9242 -1.9248 33.7731 2.653746 26.537459 1027.3377 27.1864 27.1864 31.33 2.46375 3.52094 107.119 28.97105 3.869 1438.94 1438.93 1439.12 1444.66 1444.61 1444.72 0
2012/2013 010 19 -77.61715 165.88887 32.0 2012-11-25T22:35:37Z 2012-11-26 10:35:37 12 -1.9242 -1.9247 33.5793 2.639978 26.399787 1027.185 27.0287 27.0287 32.341 2.46908 3.52856 107.367 28.9938 3.869 1438.69 1438.68 1438.86 1444.66 1444.61 1444.72 0
2012/2013 010 19 -77.61715 165.88887 33.0 2012-11-25T22:35:39Z 2012-11-26 10:35:39 12 -1.9244 -1.9249 33.6525 2.645254 26.452539 1027.2494 27.0882 27.0882 33.352 2.44381 3.49245 106.262 28.71214 3.869 1438.8 1438.79 1438.98 1444.66 1444.61 1444.72 0
2012/2013 010 19 -77.61715 165.88887 34.0 2012-11-25T22:35:41Z 2012-11-26 10:35:41 12 -1.9242 -1.9248 33.6393 2.644367 26.443668 1027.2435 27.0775 27.0775 34.363 2.44843 3.49906 106.464 28.76384 3.869 1438.8 1438.79 1438.98 1444.66 1444.61 1444.72 0
2012/2013 010 19 -77.61715 165.88887 35.0 2012-11-25T22:35:44Z 2012-11-26 10:35:44 12 -1.924 -1.9246 33.6328 2.643969 26.43969 1027.2432 27.0723 27.0723 35.374 2.44451 3.49345 106.294 28.71659 3.87 1438.81 1438.8 1438.99 1444.66 1444.61 1444.72 0
2012/2013 010 19 -77.61715 165.88887 36.0 2012-11-25T22:35:46Z 2012-11-26 10:35:45 12 -1.9243 -1.9249 33.6206 2.643119 26.431187 1027.2381 27.0623 27.0623 36.384 2.44696 3.49695 106.402 28.74259 3.87 1438.81 1438.8 1438.98 1444.66 1444.61 1444.72 0
2012/2013 010 19 -77.61715 165.88887 37.0 2012-11-25T22:35:48Z 2012-11-26 10:35:48 12 -1.9246 -1.9252 33.7326 2.651136 26.511364 1027.3341 27.1535 27.1534 37.395 2.43806 3.48423 106.005 28.66069 3.87 1438.98 1438.97 1439.16 1444.66 1444.61 1444.72 0
2012/2013 010 19 -77.61715 165.88887 38.0 2012-11-25T22:35:50Z 2012-11-26 10:35:50 12 -1.9247 -1.9254 34.2307 2.686705 26.867049 1027.7442 27.5588 27.5588 38.406 2.43622 3.4816 105.884 28.74072 3.87 1439.67 1439.66 1439.88 1444.66 1444.61 1444.72 0
2012/2013 010 19 -77.61715 165.88887 39.0 2012-11-25T22:35:52Z 2012-11-26 10:35:52 12 -1.9248 -1.9255 34.1011 2.677502 26.775018 1027.6436 27.4533 27.4533 39.417 2.44673 3.49662 106.351 28.8381 3.87 1439.51 1439.5 1439.71 1444.66 1444.61 1444.72 0
2012/2013 010 19 -77.61715 165.88887 40.0 2012-11-25T22:35:54Z 2012-11-26 10:35:54 12 -1.9246 -1.9253 34.0609 2.6747 26.747001 1027.6158 27.4206 27.4206 40.428 2.43585 3.48107 105.882 28.70192 3.87 1439.48 1439.47 1439.67 1444.66 1444.61 1444.72 0
2012/2013 010 19 -77.61715 165.88887 41.0 2012-11-25T22:35:57Z 2012-11-26 10:35:57 12 -1.9232 -1.924 34.2313 2.686993 26.86993 1027.7592 27.5592 27.5592 41.438 2.40111 3.43143 104.358 28.32843 3.871 1439.73 1439.72 1439.94 1444.66 1444.61 1444.72 0
2012/2013 010 19 -77.61715 165.88887 42.0 2012-11-25T22:36:00Z 2012-11-26 10:36:00 12 -1.9229 -1.9236 33.8742 2.661603 26.616026 1027.4736 27.2686 27.2686 42.449 2.42628 3.4674 105.481 28.55226 3.872 1439.26 1439.25 1439.45 1444.66 1444.61 1444.72 0
2012/2013 010 19 -77.61715 165.88887 43.0 2012-11-25T22:36:02Z 2012-11-26 10:36:02 12 -1.9228 -1.9236 34.0355 2.673171 26.731713 1027.6097 27.3999 27.3999 43.46 2.42865 3.47078 105.571 28.61315 3.872 1439.5 1439.49 1439.7 1444.66 1444.61 1444.72 0
2012/2013 010 19 -77.61715 165.88887 44.0 2012-11-25T22:36:05Z 2012-11-26 10:36:05 12 -1.9208 -1.9215 33.8545 2.660459 26.604591 1027.4673 27.2526 27.2525 44.47 2.42714 3.46862 105.521 28.55992 3.872 1439.27 1439.26 1439.47 1444.66 1444.61 1444.72 0
2012/2013 010 19 -77.61715 165.88887 45.0 2012-11-25T22:36:07Z 2012-11-26 10:36:07 12 -1.9199 -1.9208 34.6264 2.715633 27.156335 1028.1 27.8806 27.8806 45.481 2.40688 3.43967 104.575 28.4789 3.872 1440.35 1440.34 1440.58 1441.83 1441.8 1441.97 0
2012/2013 010 19 -77.61715 165.88887 46.0 2012-11-25T22:36:09Z 2012-11-26 10:36:09 12 -1.9199 -1.9208 34.6379 2.716502 27.165014 1028.1141 27.8899 27.8899 46.492 2.41371 3.44944 104.871 28.56215 3.872 1440.38 1440.37 1440.61 1441.8 1441.77 1441.94 0
2012/2013 010 19 -77.61715 165.88887 47.0 2012-11-25T22:36:12Z 2012-11-26 10:36:12 12 -1.92 -1.9209 34.6395 2.716654 27.166541 1028.1203 27.8913 27.8912 47.503 2.42264 3.4622 105.259 28.66807 3.872 1440.4 1440.39 1440.63 1441.8 1441.77 1441.94 0
2012/2013 010 19 -77.61715 165.88887 48.0 2012-11-25T22:36:14Z 2012-11-26 10:36:14 12 -1.92 -1.9209 34.3888 2.698823 26.988229 1027.9213 27.6873 27.6873 48.514 2.43178 3.47526 105.677 28.72452 3.873 1440.07 1440.06 1440.29 1441.8 1441.77 1441.94 0
2012/2013 010 19 -77.61715 165.88887 49.0 2012-11-25T22:36:17Z 2012-11-26 10:36:17 12 -1.9198 -1.9207 34.1741 2.683581 26.835812 1027.7516 27.5126 27.5125 49.525 2.40478 3.43667 104.522 28.36262 3.874 1439.8 1439.78 1440.01 1441.8 1441.77 1441.94 0
2012/2013 010 19 -77.61715 165.88887 50.0 2012-11-25T22:36:20Z 2012-11-26 10:36:20 12 -1.9197 -1.9206 34.1261 2.680212 26.802118 1027.7174 27.4735 27.4735 50.535 2.40844 3.4419 104.685 28.39588 3.874 1439.75 1439.73 1439.96 1441.8 1441.77 1441.94 0
2012/2013 010 19 -77.61715 165.88887 51.0 2012-11-25T22:36:22Z 2012-11-26 10:36:22 12 -1.9197 -1.9206 34.3847 2.698699 26.986993 1027.9326 27.6839 27.6839 51.546 2.39538 3.42325 104.096 28.29408 3.875 1440.12 1440.11 1440.34 1441.8 1441.77 1441.94 0
2012/2013 010 19 -77.61715 165.88887 52.0 2012-11-25T22:36:25Z 2012-11-26 10:36:25 12 -1.9195 -1.9204 33.7966 2.65682 26.568203 1027.4592 27.2054 27.2054 52.557 2.41747 3.4548 105.104 28.43562 3.876 1439.33 1439.32 1439.52 1441.8 1441.77 1441.94 0
2012/2013 010 19 -77.61715 165.88887 53.0 2012-11-25T22:36:27Z 2012-11-26 10:36:27 12 -1.9195 -1.9205 33.9767 2.669714 26.697146 1027.6106 27.352 27.3519 53.568 2.42295 3.46263 105.328 28.5366 3.877 1439.6 1439.58 1439.8 1441.8 1441.77 1441.94 0
2012/2013 010 19 -77.61715 165.88887 54.0 2012-11-25T22:36:29Z 2012-11-26 10:36:29 12 -1.9193 -1.9203 33.7657 2.654717 26.547165 1027.4438 27.1803 27.1802 54.579 2.75762 3.94092 119.897 32.42878 3.878 1439.33 1439.31 1439.51 1441.8 1441.77 1441.94 0
2012/2013 010 19 -77.61715 165.88887 55.0 2012-11-25T22:36:32Z 2012-11-26 10:36:32 12 -1.9191 -1.92 33.7304 2.652261 26.522611 1027.42 27.1515 27.1515 55.59 3.06534 4.38067 133.279 36.03949 3.879 1439.29 1439.28 1439.48 1441.8 1441.77 1441.94 0
2012/2013 010 19 -77.61715 165.88887 56.0 2012-11-25T22:36:35Z 2012-11-26 10:36:35 12 -1.9183 -1.9193 33.74 2.65305 26.530499 1027.4326 27.1593 27.1593 56.601 2.74875 3.92824 119.513 32.32028 3.88 1439.33 1439.31 1439.51 1441.8 1441.77 1441.94 0
2012/2013 010 19 -77.61715 165.88887 57.0 2012-11-25T22:36:38Z 2012-11-26 10:36:37 12 -1.9178 -1.9188 33.7508 2.653918 26.539184 1027.4464 27.1681 27.1681 57.612 2.76046 3.94498 120.021 32.46096 3.88 1439.36 1439.35 1439.55 1441.8 1441.77 1441.94 0
2012/2013 010 19 -77.61715 165.88887 58.0 2012-11-25T22:36:40Z 2012-11-26 10:36:40 12 -1.9168 -1.9178 33.7622 2.65486 26.548602 1027.4604 27.1774 27.1773 58.622 2.78296 3.97713 120.999 32.7291 3.881 1439.4 1439.38 1439.59 1441.8 1441.77 1441.94 0
2012/2013 010 19 -77.61715 165.88887 59.0 2012-11-25T22:36:43Z 2012-11-26 10:36:43 12 -1.9157 -1.9168 33.7726 2.655739 26.557387 1027.4738 27.1858 27.1858 59.633 2.79797 3.99857 121.65 32.90901 3.882 1439.43 1439.42 1439.62 1441.8 1441.77 1441.94 0
2012/2013 010 19 -77.61715 165.88887 60.0 2012-11-25T22:36:45Z 2012-11-26 10:36:45 12 -1.9143 -1.9154 33.7776 2.656253 26.562533 1027.4827 27.1898 27.1898 60.644 2.80735 4.01199 122.058 33.02182 3.882 1439.46 1439.45 1439.65 1441.8 1441.77 1441.94 0
2012/2013 010 19 -77.61715 165.88887 61.0 2012-11-25T22:36:47Z 2012-11-26 10:36:47 12 -1.9137 -1.9148 33.7798 2.656508 26.565078 1027.4893 27.1916 27.1916 61.655 2.81002 4.0158 122.173 33.05423 3.883 1439.49 1439.47 1439.68 1441.8 1441.77 1441.94 0
2012/2013 010 19 -77.61715 165.88887 62.0 2012-11-25T22:36:50Z 2012-11-26 10:36:50 12 -1.9132 -1.9143 33.7744 2.65621 26.562097 1027.4898 27.1872 27.1872 62.666 2.815 4.02292 122.39 33.11201 3.883 1439.5 1439.48 1439.69 1441.8 1441.77 1441.94 0
2012/2013 010 19 -77.61715 165.88887 63.0 2012-11-25T22:36:53Z 2012-11-26 10:36:53 12 -1.9124 -1.9135 33.7587 2.655204 26.552038 1027.4819 27.1744 27.1744 63.677 2.81639 4.02491 122.453 33.12546 3.884 1439.5 1439.48 1439.69 1441.8 1441.77 1441.94 0
2012/2013 010 19 -77.61715 165.88887 64.0 2012-11-25T22:36:55Z 2012-11-26 10:36:55 12 -1.9121 -1.9132 33.7408 2.653989 26.53989 1027.4722 27.1598 27.1598 64.687 2.81681 4.02551 122.473 33.12641 3.884 1439.49 1439.47 1439.68 1441.8 1441.77 1441.94 0
2012/2013 010 19 -77.61715 165.88887 65.0 2012-11-25T22:36:58Z 2012-11-26 10:36:58 12 -1.9117 -1.9128 33.7234 2.652823 26.528229 1027.4629 27.1457 27.1456 65.698 2.82702 4.04009 122.918 33.24264 3.885 1439.48 1439.47 1439.67 1441.8 1441.77 1441.94 0
2012/2013 010 19 -77.61715 165.88887 66.0 2012-11-25T22:37:00Z 2012-11-26 10:37:00 12 -1.9103 -1.9115 33.7205 2.652778 26.527782 1027.4655 27.1433 27.1433 66.709 2.82138 4.03203 122.673 33.1769 3.886 1439.5 1439.48 1439.69 1441.8 1441.77 1441.94 0
2012/2013 010 19 -77.61715 165.88887 67.0 2012-11-25T22:37:02Z 2012-11-26 10:37:02 12 -1.9091 -1.9102 33.7996 2.658576 26.585761 1027.5345 27.2076 27.2076 67.72 2.87349 4.1065 124.931 33.80985 3.886 1439.63 1439.61 1439.83 1441.8 1441.77 1441.94 0
2012/2013 010 19 -77.61715 165.88887 68.0 2012-11-25T22:37:05Z 2012-11-26 10:37:05 12 -1.9084 -1.9096 33.6952 2.651214 26.512136 1027.4546 27.1227 27.1226 68.731 2.83056 4.04516 123.075 33.28059 3.886 1439.51 1439.49 1439.7 1441.68 1441.65 1441.82 0
2012/2013 010 19 -77.61715 165.88887 69.0 2012-11-25T22:37:08Z 2012-11-26 10:37:08 12 -1.9071 -1.9084 34.283 2.693323 26.933228 1027.9373 27.6009 27.6009 69.742 2.91074 4.15974 126.502 34.3707 3.886 1440.34 1440.32 1440.55 1441.13 1441.11 1441.3 0
2012/2013 010 19 -77.61715 165.88887 70.0 2012-11-25T22:37:11Z 2012-11-26 10:37:11 12 -1.9073 -1.9087 34.6859 2.722098 27.220974 1028.2697 27.9287 27.9286 70.753 2.91388 4.16422 126.598 34.50415 3.886 1440.9 1440.88 1441.14 1441.14 1441.12 1441.31 0
2012/2013 010 19 -77.61715 165.88887 71.0 2012-11-25T22:37:13Z 2012-11-26 10:37:13 12 -1.9074 -1.9088 34.664 2.720575 27.205745 1028.2568 27.9109 27.9108 71.764 2.89542 4.13785 125.799 34.2803 3.887 1440.89 1440.87 1441.13 1441.14 1441.12 1441.31 0
2012/2013 010 19 -77.61715 165.88887 72.0 2012-11-25T22:37:16Z 2012-11-26 10:37:16 12 -1.9074 -1.9088 34.6641 2.72063 27.206297 1028.2617 27.9109 27.9109 72.775 2.90594 4.15287 126.255 34.40482 3.887 1440.9 1440.88 1441.14 1441.14 1441.12 1441.31 0
2012/2013 010 19 -77.61715 165.88887 73.0 2012-11-25T22:37:18Z 2012-11-26 10:37:18 12 -1.9071 -1.9085 34.6643 2.720718 27.207184 1028.2668 27.9111 27.9111 73.786 2.91856 4.17091 126.804 34.55461 3.887 1440.92 1440.9 1441.16 1441.14 1441.12 1441.31 0
2012/2013 010 19 -77.61715 165.88887 74.0 2012-11-25T22:37:21Z 2012-11-26 10:37:21 12 -1.9069 -1.9083 34.6645 2.720796 27.207964 1028.2718 27.9113 27.9113 74.797 2.91316 4.1632 126.569 34.49092 3.888 1440.94 1440.92 1441.18 1441.14 1441.12 1441.31 0
2012/2013 010 19 -77.61715 165.88887 75.0 2012-11-25T22:37:23Z 2012-11-26 10:37:23 12 -1.9056 -1.9071 34.6658 2.721044 27.210443 1028.2777 27.9123 27.9123 75.808 2.93604 4.1959 127.563 34.76341 3.888 1440.96 1440.94 1441.2 1441.14 1441.12 1441.31 0
2012/2013 010 19 -77.61715 165.88887 76.0 2012-11-25T22:37:26Z 2012-11-26 10:37:26 12 -1.9042 -1.9057 34.6664 2.721252 27.212523 1028.283 27.9128 27.9128 76.819 2.93756 4.19807 127.629 34.78283 3.888 1440.99 1440.96 1441.23 1441.14 1441.12 1441.31 0
2012/2013 010 19 -77.61715 165.88887 77.0 2012-11-25T22:37:29Z 2012-11-26 10:37:29 12 -1.9031 -1.9046 34.6671 2.721438 27.214378 1028.2884 27.9133 27.9132 77.83 2.96153 4.23232 128.67 35.06783 3.888 1441.01 1440.99 1441.25 1441.14 1441.12 1441.31 0
2012/2013 010 19 -77.61715 165.88887 78.0 2012-11-25T22:37:31Z 2012-11-26 10:37:31 12 -1.9026 -1.9041 34.6675 2.721552 27.215524 1028.2936 27.9136 27.9135 78.841 2.9638 4.23556 128.769 35.09526 3.888 1441.03 1441.0 1441.27 1441.14 1441.12 1441.31 0
2012/2013 010 19 -77.61715 165.88887 79.0 2012-11-25T22:37:33Z 2012-11-26 10:37:33 12 -1.9021 -1.9036 34.6677 2.721659 27.216588 1028.2986 27.9138 27.9137 79.851 2.96652 4.23945 128.887 35.12806 3.888 1441.05 1441.02 1441.29 1441.14 1441.12 1441.31 0
2012/2013 010 19 -77.61715 165.88887 80.0 2012-11-25T22:37:36Z 2012-11-26 10:37:36 12 -1.9017 -1.9033 34.6679 2.72175 27.217506 1028.3036 27.9139 27.9139 80.863 2.9749 4.25143 129.251 35.22772 3.888 1441.07 1441.04 1441.31 1441.14 1441.12 1441.31 0
2012/2013 010 19 -77.61715 165.88887 81.0 2012-11-25T22:37:39Z 2012-11-26 10:37:39 12 -1.9005 -1.9021 34.6686 2.721954 27.219544 1028.309 27.9145 27.9144 81.874 2.98393 4.26433 129.643 35.33598 3.888 1441.09 1441.07 1441.33 1441.14 1441.12 1441.31 0
2012/2013 010 19 -77.61715 165.88887 82.0 2012-11-25T22:37:42Z 2012-11-26 10:37:42 12 -1.8994 -1.901 34.669 2.722118 27.221181 1028.3142 27.9148 27.9147 82.885 2.99716 4.28324 130.218 35.49379 3.888 1441.11 1441.09 1441.35 1441.14 1441.12 1441.31 0
2012/2013 010 19 -77.61715 165.88887 83.0 2012-11-25T22:37:45Z 2012-11-26 10:37:45 12 -1.8985 -1.9001 34.6697 2.72229 27.222896 1028.3196 27.9153 27.9153 83.896 3.00621 4.29617 130.611 35.602 3.888 1441.13 1441.11 1441.38 1441.14 1441.12 1441.31 0
2012/2013 010 19 -77.61715 165.88887 84.0 2012-11-25T22:37:49Z 2012-11-26 10:37:49 12 -1.8981 -1.8997 34.6696 2.72237 27.223695 1028.3244 27.9152 27.9152 84.907 3.01199 4.30444 130.863 35.67089 3.888 1441.15 1441.13 1441.39 1441.14 1441.12 1441.31 0
2012/2013 010 19 -77.61715 165.88887 85.0 2012-11-25T22:37:52Z 2012-11-26 10:37:52 12 -1.8978 -1.8995 34.6698 2.722449 27.224488 1028.3294 27.9154 27.9154 85.918 3.02969 4.32973 131.631 35.8808 3.888 1441.17 1441.14 1441.41 1441.14 1441.12 1441.31 0
2012/2013 010 19 -77.61715 165.88887 86.0 2012-11-25T22:37:54Z 2012-11-26 10:37:54 12 -1.8978 -1.8995 34.6697 2.722494 27.224937 1028.3342 27.9153 27.9153 86.928 3.03003 4.33021 131.646 35.88479 3.888 1441.19 1441.16 1441.43 1441.14 1441.12 1441.31 0
2012/2013 010 19 -77.61715 165.88887 87.0 2012-11-25T22:37:57Z 2012-11-26 10:37:57 12 -1.8978 -1.8995 34.6698 2.722549 27.225489 1028.3392 27.9154 27.9153 87.94 3.03653 4.3395 131.929 35.96185 3.888 1441.2 1441.18 1441.45 1441.14 1441.12 1441.31 0
2012/2013 010 19 -77.61715 165.88887 88.0 2012-11-25T22:38:00Z 2012-11-26 10:38:00 12 -1.8977 -1.8995 34.67 2.722612 27.226116 1028.3442 27.9155 27.9155 88.951 3.04292 4.34863 132.206 36.03759 3.888 1441.22 1441.19 1441.46 1441.14 1441.12 1441.31 0
2012/2013 010 19 -77.61715 165.88887 89.0 2012-11-25T22:38:02Z 2012-11-26 10:38:02 12 -1.897 -1.8988 34.6708 2.722771 27.227713 1028.3496 27.9161 27.9161 89.962 3.0568 4.36847 132.809 36.20284 3.888 1441.24 1441.21 1441.49 1441.14 1441.12 1441.31 0
2012/2013 010 19 -77.61715 165.88887 90.0 2012-11-25T22:38:05Z 2012-11-26 10:38:05 12 -1.8965 -1.8983 34.6709 2.722872 27.228715 1028.3546 27.9162 27.9162 90.973 3.06039 4.37361 132.965 36.24594 3.888 1441.26 1441.23 1441.5 1441.11 1441.09 1441.28 0
2012/2013 010 19 -77.61715 165.88887 91.0 2012-11-25T22:38:08Z 2012-11-26 10:38:08 12 -1.8962 -1.898 34.6713 2.722972 27.229727 1028.3598 27.9165 27.9165 91.984 3.06845 4.38513 133.315 36.34185 3.887 1441.28 1441.25 1441.52 1440.96 1440.94 1441.14 0
2012/2013 010 19 -77.61715 165.88887 92.0 2012-11-25T22:38:10Z 2012-11-26 10:38:10 12 -1.8961 -1.8979 34.671 2.723008 27.230079 1028.3644 27.9163 27.9162 92.995 3.08452 4.40808 134.013 36.53213 3.887 1441.3 1441.27 1441.54 1440.96 1440.94 1441.14 0
2012/2013 010 19 -77.61715 165.88887 93.0 2012-11-25T22:38:12Z 2012-11-26 10:38:12 12 -1.896 -1.8978 34.6716 2.723098 27.230978 1028.3697 27.9168 27.9167 94.006 3.07938 4.40074 133.79 36.4715 3.887 1441.31 1441.28 1441.56 1440.96 1440.94 1441.14 0
2012/2013 010 19 -77.61715 165.88887 94.0 2012-11-25T22:38:16Z 2012-11-26 10:38:16 12 -1.8949 -1.8967 34.6723 2.723292 27.23292 1028.3751 27.9173 27.9173 95.017 3.09102 4.41738 134.296 36.61068 3.887 1441.34 1441.31 1441.58 1440.96 1440.94 1441.14 0
2012/2013 010 19 -77.61715 165.88887 95.0 2012-11-25T22:38:20Z 2012-11-26 10:38:20 12 -1.893 -1.8949 34.673 2.72355 27.235503 1028.3806 27.9179 27.9178 96.028 3.11031 4.44495 135.134 36.84126 3.887 1441.36 1441.33 1441.61 1440.96 1440.94 1441.14 0
2012/2013 010 19 -77.61715 165.88887 96.0 2012-11-25T22:38:23Z 2012-11-26 10:38:23 12 -1.8922 -1.8941 34.6743 2.723755 27.237546 1028.3865 27.9189 27.9189 97.039 3.12121 4.46052 135.607 36.97141 3.887 1441.38 1441.35 1441.63 1440.96 1440.94 1441.14 0
2012/2013 010 19 -77.61715 165.88887 97.0 2012-11-25T22:38:25Z 2012-11-26 10:38:25 12 -1.8919 -1.8938 34.6742 2.72382 27.238199 1028.3912 27.9188 27.9187 98.05 3.13198 4.47591 136.075 37.09929 3.887 1441.4 1441.37 1441.65 1440.96 1440.94 1441.14 0
2012/2013 010 19 -77.61715 165.88887 98.0 2012-11-25T22:39:00Z 2012-11-26 10:39:00 12 -1.8919 -1.8939 34.6741 2.723855 27.238552 1028.396 27.9187 27.9187 99.061 3.13187 4.47575 136.07 37.09791 3.887 1441.41 1441.38 1441.66 1440.96 1440.94 1441.14 0
2012/2013 019 20 -77.65618 165.99882 2.0 2012-11-27T22:25:59Z 2012-11-28 10:25:59 12 -1.7963 -1.7963 34.6298 2.724183 27.241834 1027.8898 27.8801 27.8801 2.021 4.39853 6.28593 191.11 52.22293 3.911 1440.25 1440.24 1440.46 1442.42 1442.39 1442.48 0
2012/2013 019 20 -77.65618 165.99882 3.0 2012-11-27T22:27:30Z 2012-11-28 10:27:30 12 -1.9162 -1.9163 34.6356 2.714627 27.146267 1027.9026 27.888 27.888 3.032 4.67565 6.68197 203.149 55.3331 3.906 1439.69 1439.69 1439.91 1442.42 1442.39 1442.48 0
2012/2013 019 20 -77.65618 165.99882 4.0 2012-11-27T22:27:29Z 2012-11-28 10:27:29 12 -1.9177 -1.9178 34.6393 2.714812 27.148122 1027.9105 27.891 27.891 4.042 4.67001 6.67392 202.904 55.26544 3.905 1439.71 1439.71 1439.93 1442.42 1442.39 1442.48 0
2012/2013 019 20 -77.65618 165.99882 5.0 2012-11-27T22:27:31Z 2012-11-28 10:27:31 12 -1.9182 -1.9183 34.6392 2.714814 27.148138 1027.9154 27.891 27.891 5.053 4.67562 6.68192 203.147 55.331 3.905 1439.72 1439.72 1439.94 1442.42 1442.39 1442.48 0
2012/2013 019 20 -77.65618 165.99882 6.0 2012-11-27T22:27:33Z 2012-11-28 10:27:33 12 -1.9185 -1.9186 34.639 2.714815 27.148147 1027.9201 27.8908 27.8908 6.063 4.68398 6.69387 203.51 55.42927 3.906 1439.73 1439.73 1439.96 1442.42 1442.39 1442.48 0
2012/2013 019 20 -77.65618 165.99882 7.0 2012-11-27T22:27:35Z 2012-11-28 10:27:35 12 -1.9189 -1.9191 34.639 2.714828 27.148281 1027.925 27.8908 27.8908 7.074 4.67346 6.67884 203.053 55.30422 3.905 1439.75 1439.75 1439.97 1442.42 1442.39 1442.48 0
2012/2013 019 20 -77.65618 165.99882 8.0 2012-11-27T22:27:38Z 2012-11-28 10:27:38 12 -1.9188 -1.9189 34.639 2.714885 27.148854 1027.9298 27.8908 27.8908 8.085 4.68576 6.69642 203.588 55.45004 3.905 1439.77 1439.77 1439.99 1442.42 1442.39 1442.48 0
2012/2013 019 20 -77.65618 165.99882 9.0 2012-11-27T22:27:41Z 2012-11-28 10:27:41 12 -1.9188 -1.919 34.6381 2.714868 27.148682 1027.934 27.8901 27.8901 9.095 4.68868 6.70059 203.715 55.48415 3.906 1439.78 1439.78 1440.01 1442.42 1442.39 1442.48 0
2012/2013 019 20 -77.65618 165.99882 10.0 2012-11-27T22:27:43Z 2012-11-28 10:27:43 12 -1.9192 -1.9194 34.6385 2.714909 27.149092 1027.9391 27.8904 27.8904 10.105 4.69463 6.70909 203.973 55.55414 3.906 1439.8 1439.8 1440.02 1442.42 1442.39 1442.48 0
2012/2013 019 20 -77.65618 165.99882 11.0 2012-11-27T22:27:46Z 2012-11-28 10:27:46 12 -1.9189 -1.9191 34.6387 2.715002 27.150024 1027.9442 27.8906 27.8906 11.117 4.70658 6.72618 204.493 55.69622 3.906 1439.82 1439.81 1440.04 1442.42 1442.39 1442.48 0
2012/2013 019 20 -77.65618 165.99882 12.0 2012-11-27T22:27:48Z 2012-11-28 10:27:48 12 -1.9187 -1.9189 34.6388 2.715069 27.150695 1027.9491 27.8906 27.8906 12.128 4.71421 6.73708 204.824 55.78678 3.906 1439.83 1439.83 1440.06 1442.42 1442.39 1442.48 0
2012/2013 019 20 -77.65618 165.99882 13.0 2012-11-27T22:27:51Z 2012-11-28 10:27:51 12 -1.919 -1.9193 34.6384 2.715057 27.150569 1027.9537 27.8903 27.8903 13.138 4.72188 6.74804 205.157 55.87683 3.906 1439.85 1439.84 1440.07 1442.42 1442.39 1442.48 0
2012/2013 019 20 -77.65618 165.99882 14.0 2012-11-27T22:27:54Z 2012-11-28 10:27:54 12 -1.9189 -1.9192 34.6386 2.715124 27.151247 1027.9587 27.8905 27.8905 14.149 4.73677 6.76932 205.804 56.05323 3.906 1439.86 1439.86 1440.09 1442.42 1442.39 1442.48 0
2012/2013 019 20 -77.65618 165.99882 15.0 2012-11-27T22:27:56Z 2012-11-28 10:27:56 12 -1.9188 -1.9191 34.6384 2.715175 27.151747 1027.9635 27.8903 27.8903 15.159 4.7315 6.76179 205.575 55.99106 3.906 1439.88 1439.88 1440.11 1442.42 1442.39 1442.48 0
2012/2013 019 20 -77.65618 165.99882 16.0 2012-11-27T22:27:59Z 2012-11-28 10:27:59 12 -1.9189 -1.9192 34.6384 2.715215 27.152148 1027.9684 27.8904 27.8904 16.17 4.74738 6.78448 206.265 56.17884 3.907 1439.9 1439.89 1440.12 1442.42 1442.39 1442.48 0
2012/2013 019 20 -77.65618 165.99882 17.0 2012-11-27T22:28:01Z 2012-11-28 10:28:01 12 -1.9193 -1.9196 34.638 2.715194 27.151935 1027.9729 27.89 27.89 17.181 4.74965 6.78773 206.364 56.20484 3.907 1439.91 1439.91 1440.13 1442.42 1442.39 1442.48 0
2012/2013 019 20 -77.65618 165.99882 18.0 2012-11-27T22:28:03Z 2012-11-28 10:28:03 12 -1.9195 -1.9198 34.638 2.715226 27.152259 1027.9777 27.89 27.89 18.192 4.76873 6.81499 207.193 56.4304 3.907 1439.93 1439.92 1440.15 1442.42 1442.39 1442.48 0
2012/2013 019 20 -77.65618 165.99882 19.0 2012-11-27T22:28:06Z 2012-11-28 10:28:06 12 -1.9197 -1.92 34.6379 2.715257 27.152573 1027.9826 27.89 27.89 19.202 4.76207 6.80547 206.904 56.35131 3.907 1439.94 1439.94 1440.17 1442.42 1442.39 1442.48 0
2012/2013 019 20 -77.65618 165.99882 20.0 2012-11-27T22:28:09Z 2012-11-28 10:28:09 12 -1.9198 -1.9201 34.638 2.715298 27.152976 1027.9875 27.89 27.89 20.212 4.78539 6.83879 207.916 56.62703 3.907 1439.96 1439.95 1440.18 1441.63 1441.61 1441.74 0
2012/2013 019 20 -77.65618 165.99882 21.0 2012-11-27T22:28:11Z 2012-11-28 10:28:11 12 -1.9198 -1.9202 34.6377 2.715322 27.153217 1027.9921 27.8898 27.8897 21.224 4.78792 6.84241 208.027 56.65689 3.908 1439.97 1439.97 1440.2 1441.19 1441.17 1441.33 0
2012/2013 019 20 -77.65618 165.99882 22.0 2012-11-27T22:28:14Z 2012-11-28 10:28:14 12 -1.9199 -1.9203 34.6378 2.715369 27.153693 1027.9971 27.8899 27.8899 22.234 4.79978 6.85937 208.542 56.79717 3.908 1439.99 1439.98 1440.22 1441.19 1441.17 1441.33 0
2012/2013 019 20 -77.65618 165.99882 23.0 2012-11-27T22:28:16Z 2012-11-28 10:28:16 12 -1.9201 -1.9206 34.6379 2.7154 27.153996 1028.0021 27.8899 27.8899 23.245 4.80361 6.86483 208.708 56.84204 3.908 1440.0 1440.0 1440.23 1441.19 1441.17 1441.33 0
2012/2013 019 20 -77.65618 165.99882 24.0 2012-11-27T22:28:19Z 2012-11-28 10:28:19 12 -1.9197 -1.9202 34.6379 2.715484 27.154841 1028.007 27.8899 27.8899 24.255 4.82342 6.89315 209.569 57.07712 3.908 1440.02 1440.02 1440.25 1441.19 1441.17 1441.33 0
2012/2013 019 20 -77.65618 165.99882 25.0 2012-11-27T22:28:21Z 2012-11-28 10:28:21 12 -1.9202 -1.9206 34.6377 2.715478 27.154775 1028.0116 27.8898 27.8898 25.266 4.83334 6.90733 210.0 57.19382 3.909 1440.04 1440.03 1440.26 1441.19 1441.17 1441.33 0
2012/2013 019 20 -77.65618 165.99882 26.0 2012-11-27T22:28:24Z 2012-11-28 10:28:24 12 -1.9214 -1.9219 34.6385 2.715481 27.154806 1028.0172 27.8904 27.8904 26.277 4.83167 6.90494 209.927 57.17247 3.909 1440.05 1440.04 1440.28 1441.19 1441.17 1441.33 0
2012/2013 019 20 -77.65618 165.99882 27.0 2012-11-27T22:28:26Z 2012-11-28 10:28:26 12 -1.9214 -1.9219 34.6383 2.715521 27.155207 1028.022 27.8904 27.8903 27.288 4.84519 6.92426 210.515 57.33243 3.909 1440.07 1440.06 1440.29 1441.19 1441.17 1441.33 0
2012/2013 019 20 -77.65618 165.99882 28.0 2012-11-27T22:28:29Z 2012-11-28 10:28:28 12 -1.9217 -1.9222 34.6386 2.71556 27.155604 1028.0271 27.8906 27.8906 28.299 4.85056 6.93193 210.748 57.39555 3.909 1440.08 1440.07 1440.31 1441.19 1441.17 1441.33 0
2012/2013 019 20 -77.65618 165.99882 29.0 2012-11-27T22:28:31Z 2012-11-28 10:28:31 12 -1.922 -1.9225 34.6389 2.715598 27.155979 1028.0321 27.8908 27.8908 29.309 4.86056 6.94623 211.183 57.51353 3.91 1440.09 1440.09 1440.32 1441.19 1441.17 1441.33 0
2012/2013 019 20 -77.65618 165.99882 30.0 2012-11-27T22:28:34Z 2012-11-28 10:28:34 12 -1.9222 -1.9228 34.6389 2.715628 27.156285 1028.0371 27.8908 27.8908 30.32 4.86453 6.9519 211.355 57.56015 3.909 1440.11 1440.1 1440.34 1441.19 1441.17 1441.33 0
2012/2013 019 20 -77.65618 165.99882 31.0 2012-11-27T22:28:36Z 2012-11-28 10:28:36 12 -1.9225 -1.9231 34.6392 2.715676 27.156758 1028.0422 27.8911 27.8911 31.33 4.87639 6.96886 211.871 57.70027 3.91 1440.13 1440.12 1440.36 1441.19 1441.17 1441.33 0
2012/2013 019 20 -77.65618 165.99882 32.0 2012-11-27T22:28:39Z 2012-11-28 10:28:39 12 -1.9222 -1.9229 34.6389 2.715719 27.157192 1028.0468 27.8908 27.8908 32.341 4.8642 6.95143 211.341 57.55617 3.91 1440.14 1440.13 1440.37 1441.19 1441.17 1441.33 0
2012/2013 019 20 -77.65618 165.99882 33.0 2012-11-27T22:28:41Z 2012-11-28 10:28:41 12 -1.9226 -1.9232 34.6394 2.715777 27.157767 1028.0521 27.8913 27.8913 33.352 4.88937 6.9874 212.434 57.85377 3.91 1440.16 1440.15 1440.39 1441.19 1441.17 1441.33 0
2012/2013 019 20 -77.65618 165.99882 34.0 2012-11-27T22:28:44Z 2012-11-28 10:28:44 12 -1.9232 -1.9238 34.6402 2.715828 27.158279 1028.0576 27.8919 27.8919 34.363 4.89292 6.99248 212.588 57.89514 3.91 1440.17 1440.16 1440.4 1441.19 1441.17 1441.33 0
2012/2013 019 20 -77.65618 165.99882 35.0 2012-11-27T22:28:46Z 2012-11-28 10:28:46 12 -1.9233 -1.9239 34.6405 2.715888 27.158885 1028.0627 27.8922 27.8921 35.374 4.88168 6.97642 212.1 57.76214 3.91 1440.19 1440.18 1440.42 1441.19 1441.17 1441.33 0
2012/2013 019 20 -77.65618 165.99882 36.0 2012-11-27T22:28:48Z 2012-11-28 10:28:48 12 -1.924 -1.9246 34.6419 2.715975 27.159751 1028.0688 27.8933 27.8933 36.384 4.9197 7.03075 213.752 58.21149 3.911 1440.2 1440.19 1440.43 1441.19 1441.17 1441.33 0
2012/2013 019 20 -77.65618 165.99882 37.0 2012-11-27T22:28:50Z 2012-11-28 10:28:50 12 -1.924 -1.9247 34.6416 2.716003 27.160026 1028.0734 27.8931 27.8931 37.395 4.90571 7.01075 213.144 58.04571 3.911 1440.22 1440.21 1440.45 1441.19 1441.17 1441.33 0
2012/2013 019 20 -77.65618 165.99882 38.0 2012-11-27T22:28:53Z 2012-11-28 10:28:53 12 -1.9243 -1.925 34.6425 2.716091 27.160912 1028.079 27.8939 27.8938 38.406 4.9318 7.04803 214.277 58.35438 3.911 1440.24 1440.23 1440.47 1441.19 1441.17 1441.33 0
2012/2013 019 20 -77.65618 165.99882 39.0 2012-11-27T22:28:55Z 2012-11-28 10:28:55 12 -1.9243 -1.925 34.6424 2.716128 27.161284 1028.0838 27.8937 27.8937 39.416 4.96814 7.09997 215.856 58.78433 3.911 1440.25 1440.24 1440.48 1441.19 1441.17 1441.33 0
2012/2013 019 20 -77.65618 165.99882 40.0 2012-11-27T22:28:57Z 2012-11-28 10:28:57 12 -1.9244 -1.9252 34.6432 2.716224 27.162241 1028.0894 27.8944 27.8944 40.428 4.91049 7.01758 213.351 58.10236 3.911 1440.27 1440.26 1440.5 1441.19 1441.17 1441.33 0
2012/2013 019 20 -77.65618 165.99882 41.0 2012-11-27T22:29:00Z 2012-11-28 10:29:00 12 -1.924 -1.9248 34.6437 2.716332 27.163323 1028.0946 27.8948 27.8948 41.438 4.9479 7.07104 214.976 58.5457 3.911 1440.29 1440.28 1440.52 1441.19 1441.17 1441.33 0
2012/2013 019 20 -77.65618 165.99882 42.0 2012-11-27T22:29:02Z 2012-11-28 10:29:02 12 -1.9245 -1.9253 34.6436 2.716335 27.163355 1028.0994 27.8947 27.8947 42.449 4.95828 7.08588 215.428 58.66782 3.911 1440.3 1440.29 1440.53 1441.19 1441.17 1441.33 0
2012/2013 019 20 -77.65618 165.99882 43.0 2012-11-27T22:29:04Z 2012-11-28 10:29:04 12 -1.9245 -1.9253 34.6439 2.716403 27.164026 1028.1045 27.895 27.8949 43.46 4.93548 7.0533 214.437 58.39815 3.911 1440.32 1440.31 1440.55 1441.19 1441.17 1441.33 0
2012/2013 019 20 -77.65618 165.99882 44.0 2012-11-27T22:29:06Z 2012-11-28 10:29:06 12 -1.9245 -1.9254 34.6441 2.716464 27.164638 1028.1096 27.8951 27.8951 44.47 5.10227 7.29165 221.683 60.3717 3.912 1440.33 1440.32 1440.57 1441.19 1441.17 1441.33 0
2012/2013 019 20 -77.65618 165.99882 45.0 2012-11-27T22:29:09Z 2012-11-28 10:29:09 12 -1.9234 -1.9243 34.6459 2.716727 27.167265 1028.1159 27.8965 27.8965 45.481 4.94465 7.06639 214.835 58.50911 3.912 1440.36 1440.35 1440.59 1440.95 1440.94 1441.11 0
2012/2013 019 20 -77.65618 165.99882 46.0 2012-11-27T22:29:11Z 2012-11-28 10:29:11 12 -1.9239 -1.9248 34.6459 2.716738 27.16738 1028.1207 27.8966 27.8965 46.492 5.17517 7.39584 224.851 61.23621 3.913 1440.37 1440.36 1440.61 1440.59 1440.58 1440.78 0
2012/2013 019 20 -77.65618 165.99882 47.0 2012-11-27T22:29:12Z 2012-11-28 10:29:12 12 -1.9237 -1.9246 34.6467 2.716862 27.16862 1028.1263 27.8972 27.8972 47.503 4.85793 6.94246 211.067 57.48298 3.913 1440.39 1440.38 1440.63 1440.61 1440.6 1440.8 0
2012/2013 019 20 -77.65618 165.99882 48.0 2012-11-27T22:29:14Z 2012-11-28 10:29:14 12 -1.9231 -1.9241 34.6481 2.717057 27.170566 1028.1323 27.8984 27.8984 48.514 4.84464 6.92348 210.49 57.32719 3.913 1440.41 1440.4 1440.65 1440.61 1440.6 1440.8 0
2012/2013 019 20 -77.65618 165.99882 49.0 2012-11-27T22:29:16Z 2012-11-28 10:29:16 12 -1.9223 -1.9232 34.6497 2.717288 27.17288 1028.1385 27.8996 27.8996 49.525 4.73737 6.77017 205.828 56.05977 3.913 1440.43 1440.42 1440.67 1440.61 1440.6 1440.8 0
2012/2013 019 20 -77.65618 165.99882 50.0 2012-11-27T22:29:18Z 2012-11-28 10:29:18 12 -1.9216 -1.9226 34.6505 2.717443 27.174431 1028.1439 27.9003 27.9003 50.535 5.20772 7.44235 226.264 61.62705 3.915 1440.46 1440.44 1440.69 1440.61 1440.6 1440.8 0
2012/2013 019 20 -77.65618 165.99882 51.0 2012-11-27T22:29:20Z 2012-11-28 10:29:20 12 -1.9214 -1.9223 34.6504 2.717504 27.175039 1028.1487 27.9002 27.9001 51.546 5.14718 7.35583 223.634 60.91104 3.915 1440.47 1440.46 1440.71 1440.61 1440.6 1440.8 0
2012/2013 019 20 -77.65618 165.99882 52.0 2012-11-27T22:29:22Z 2012-11-28 10:29:22 12 -1.9213 -1.9223 34.6504 2.717554 27.175543 1028.1535 27.9001 27.9001 52.557 4.96263 7.09209 215.615 58.7272 3.916 1440.49 1440.47 1440.72 1440.61 1440.6 1440.8 0
2012/2013 019 20 -77.65618 165.99882 53.0 2012-11-27T22:29:24Z 2012-11-28 10:29:24 12 -1.9212 -1.9222 34.6504 2.717613 27.176126 1028.1584 27.9002 27.9001 53.568 4.95163 7.07637 215.137 58.59722 3.918 1440.51 1440.49 1440.74 1440.61 1440.6 1440.8 0
2012/2013 019 20 -77.65618 165.99882 54.0 2012-11-27T22:29:26Z 2012-11-28 10:29:26 12 -1.921 -1.922 34.6501 2.71766 27.176602 1028.1631 27.9 27.8999 54.579 4.99283 7.13525 216.927 59.08501 3.919 1440.52 1440.51 1440.76 1440.61 1440.6 1440.8 0
2012/2013 019 20 -77.65618 165.99882 55.0 2012-11-27T22:29:29Z 2012-11-28 10:29:29 12 -1.9206 -1.9217 34.6501 2.717734 27.177343 1028.1679 27.8999 27.8999 55.59 5.07794 7.25688 220.625 60.09279 3.92 1440.54 1440.53 1440.78 1440.61 1440.6 1440.8 0
2012/2013 019 20 -77.65618 165.99882 56.0 2012-11-27T22:29:32Z 2012-11-28 10:29:32 12 -1.9209 -1.922 34.6506 2.717792 27.177919 1028.1732 27.9003 27.9003 56.6 5.06782 7.24242 220.186 59.97272 3.921 1440.56 1440.54 1440.79 1440.61 1440.6 1440.8 0
2012/2013 019 20 -77.65618 165.99882 57.0 2012-11-27T22:29:34Z 2012-11-28 10:29:34 12 -1.9207 -1.9218 34.6507 2.717862 27.178625 1028.1781 27.9004 27.9003 57.611 4.99343 7.13612 216.954 59.09284 3.921 1440.57 1440.56 1440.81 1440.61 1440.6 1440.8 0
2012/2013 019 20 -77.65618 165.99882 58.0 2012-11-27T22:29:36Z 2012-11-28 10:29:36 12 -1.9205 -1.9216 34.6513 2.717967 27.179673 1028.1835 27.9009 27.9008 58.622 5.08561 7.26784 220.958 60.18418 3.922 1440.59 1440.58 1440.83 1440.61 1440.6 1440.8 0
2012/2013 019 20 -77.65618 165.99882 59.0 2012-11-27T22:29:38Z 2012-11-28 10:29:38 12 -1.9203 -1.9215 34.6511 2.718016 27.180159 1028.1882 27.9007 27.9007 59.633 5.03817 7.20004 218.897 59.62295 3.923 1440.61 1440.59 1440.85 1440.61 1440.6 1440.8 0
2012/2013 019 20 -77.65618 165.99882 60.0 2012-11-27T22:29:41Z 2012-11-28 10:29:41 12 -1.9202 -1.9214 34.6512 2.718081 27.180815 1028.1932 27.9009 27.9008 60.644 5.09982 7.28815 221.576 60.35279 3.923 1440.63 1440.61 1440.86 1440.61 1440.6 1440.8 0
2012/2013 019 20 -77.65618 165.99882 61.0 2012-11-27T22:29:43Z 2012-11-28 10:29:43 12 -1.9202 -1.9214 34.6511 2.718116 27.181161 1028.1979 27.9007 27.9007 61.655 5.13879 7.34385 223.269 60.81394 3.924 1440.64 1440.63 1440.88 1440.61 1440.6 1440.8 0
2012/2013 019 20 -77.65618 165.99882 62.0 2012-11-27T22:29:46Z 2012-11-28 10:29:46 12 -1.9203 -1.9215 34.6513 2.718178 27.181783 1028.203 27.9009 27.9009 62.666 5.05721 7.22725 219.724 59.84851 3.924 1440.66 1440.64 1440.9 1440.61 1440.6 1440.8 0
2012/2013 019 20 -77.65618 165.99882 63.0 2012-11-27T22:29:48Z 2012-11-28 10:29:48 12 -1.92 -1.9212 34.6512 2.71824 27.182398 1028.2078 27.9008 27.9008 63.677 5.11881 7.3153 222.401 60.57794 3.924 1440.68 1440.66 1440.91 1440.61 1440.6 1440.8 0
2012/2013 019 20 -77.65618 165.99882 64.0 2012-11-27T22:29:50Z 2012-11-28 10:29:50 12 -1.92 -1.9212 34.6514 2.718301 27.183009 1028.2128 27.901 27.9009 64.688 4.93691 7.05533 214.498 58.42534 3.925 1440.69 1440.68 1440.93 1440.61 1440.6 1440.8 0
2012/2013 019 20 -77.65618 165.99882 65.0 2012-11-27T22:29:53Z 2012-11-28 10:29:53 12 -1.9198 -1.9211 34.6515 2.718369 27.183694 1028.2178 27.9011 27.901 65.699 5.19144 7.41909 225.556 61.43785 3.925 1440.71 1440.69 1440.95 1440.61 1440.6 1440.8 0
2012/2013 019 20 -77.65618 165.99882 66.0 2012-11-27T22:29:55Z 2012-11-28 10:29:55 12 -1.9198 -1.9211 34.6515 2.718417 27.18417 1028.2226 27.901 27.901 66.709 5.07963 7.2593 220.699 60.1147 3.925 1440.73 1440.71 1440.97 1440.61 1440.6 1440.8 0
2012/2013 019 20 -77.65618 165.99882 67.0 2012-11-27T22:29:57Z 2012-11-28 10:29:57 12 -1.9197 -1.921 34.6516 2.718478 27.184776 1028.2276 27.9011 27.9011 67.72 5.16717 7.3844 224.502 61.15087 3.925 1440.74 1440.72 1440.98 1440.61 1440.6 1440.8 0
2012/2013 019 20 -77.65618 165.99882 68.0 2012-11-27T22:30:00Z 2012-11-28 10:30:00 12 -1.9196 -1.9209 34.6518 2.718544 27.185442 1028.2326 27.9013 27.9012 68.731 5.11625 7.31164 222.29 60.54851 3.925 1440.76 1440.74 1441.0 1440.61 1440.6 1440.8 0
2012/2013 019 20 -77.65618 165.99882 69.0 2012-11-27T22:30:03Z 2012-11-28 10:30:03 12 -1.9195 -1.9208 34.6521 2.718632 27.186318 1028.2378 27.9016 27.9015 69.742 5.13772 7.34232 223.222 60.803 3.925 1440.78 1440.76 1441.02 1440.61 1440.6 1440.8 0
2012/2013 019 20 -77.65618 165.99882 70.0 2012-11-27T22:30:05Z 2012-11-28 10:30:05 12 -1.9192 -1.9206 34.6465 2.718298 27.182976 1028.238 27.897 27.8969 70.753 5.15598 7.36841 224.017 61.0171 3.925 1440.79 1440.77 1441.03 1440.61 1440.6 1440.8 0
2012/2013 019 20 -77.65618 165.99882 71.0 2012-11-27T22:30:08Z 2012-11-28 10:30:08 12 -1.919 -1.9204 34.653 2.718821 27.188212 1028.2482 27.9022 27.9022 71.764 5.1667 7.38374 224.482 61.14712 3.926 1440.82 1440.8 1441.06 1440.61 1440.6 1440.8 0
2012/2013 019 20 -77.65618 165.99882 72.0 2012-11-27T22:30:10Z 2012-11-28 10:30:10 12 -1.9186 -1.92 34.6532 2.718918 27.189183 1028.2532 27.9024 27.9024 72.775 5.19878 7.42957 225.875 61.52749 3.926 1440.83 1440.81 1441.07 1440.61 1440.59 1440.81 0
2012/2013 019 20 -77.65618 165.99882 73.0 2012-11-27T22:30:12Z 2012-11-28 10:30:12 12 -1.9182 -1.9196 34.6524 2.718944 27.189441 1028.2574 27.9018 27.9017 73.786 4.81057 6.87479 209.008 56.93336 3.926 1440.85 1440.83 1441.09 1440.61 1440.59 1440.81 0
2012/2013 019 20 -77.65618 165.99882 74.0 2012-11-27T22:30:15Z 2012-11-28 10:30:15 12 -1.9183 -1.9197 34.6535 2.719059 27.190593 1028.2631 27.9026 27.9026 74.797 5.42524 7.75321 235.714 64.20837 3.926 1440.87 1440.85 1441.11 1440.61 1440.59 1440.81 0
2012/2013 019 20 -77.65618 165.99882 75.0 2012-11-27T22:30:17Z 2012-11-28 10:30:17 12 -1.9175 -1.9189 34.6544 2.719242 27.192416 1028.2688 27.9034 27.9033 75.808 5.20944 7.44481 226.338 61.65611 3.926 1440.89 1440.87 1441.13 1440.61 1440.59 1440.81 0
2012/2013 019 20 -77.65618 165.99882 76.0 2012-11-27T22:30:19Z 2012-11-28 10:30:19 12 -1.9165 -1.918 34.6547 2.71939 27.193901 1028.2739 27.9036 27.9035 76.819 5.11225 7.30591 222.115 60.50744 3.926 1440.91 1440.89 1441.15 1440.61 1440.59 1440.81 0
2012/2013 019 20 -77.65618 165.99882 77.0 2012-11-27T22:30:22Z 2012-11-28 10:30:22 12 -1.9163 -1.9178 34.6554 2.719497 27.194973 1028.2793 27.9041 27.9041 77.83 5.26092 7.51837 228.574 62.26766 3.925 1440.93 1440.91 1441.17 1440.61 1440.59 1440.81 0
2012/2013 019 20 -77.65618 165.99882 78.0 2012-11-27T22:30:24Z 2012-11-28 10:30:24 12 -1.9144 -1.916 34.6562 2.719763 27.197633 1028.2848 27.9048 27.9047 78.841 5.2817 7.54808 229.477 62.51725 3.925 1440.96 1440.93 1441.2 1440.61 1440.59 1440.81 0
2012/2013 019 20 -77.65618 165.99882 79.0 2012-11-27T22:30:26Z 2012-11-28 10:30:26 12 -1.9125 -1.9141 34.6564 2.719985 27.199851 1028.2898 27.9049 27.9048 79.852 5.21686 7.45541 226.66 61.75304 3.925 1440.98 1440.96 1441.22 1440.61 1440.59 1440.81 0
2012/2013 019 20 -77.65618 165.99882 80.0 2012-11-27T22:30:29Z 2012-11-28 10:30:29 12 -1.9108 -1.9123 34.6566 2.720189 27.20189 1028.2947 27.9049 27.9049 80.862 5.27206 7.5343 229.058 62.40952 3.925 1441.01 1440.98 1441.25 1440.61 1440.59 1440.81 0
2012/2013 019 20 -77.65618 165.99882 81.0 2012-11-27T22:30:31Z 2012-11-28 10:30:31 12 -1.9102 -1.9118 34.6566 2.720286 27.202863 1028.2996 27.905 27.9049 81.873 5.2562 7.51163 228.369 62.22273 3.925 1441.03 1441.0 1441.27 1440.61 1440.59 1440.81 0
2012/2013 019 20 -77.65618 165.99882 82.0 2012-11-27T22:30:34Z 2012-11-28 10:30:34 12 -1.9088 -1.9104 34.6577 2.720529 27.205286 1028.3053 27.9058 27.9058 82.884 5.37614 7.68304 233.58 63.64553 3.925 1441.05 1441.03 1441.29 1440.61 1440.59 1440.81 0
2012/2013 019 20 -77.65618 165.99882 83.0 2012-11-27T22:30:36Z 2012-11-28 10:30:36 12 -1.9064 -1.908 34.6582 2.720815 27.208148 1028.3105 27.9062 27.9061 83.896 5.28699 7.55564 229.707 62.59442 3.925 1441.08 1441.05 1441.32 1440.61 1440.59 1440.81 0
2012/2013 019 20 -77.65618 165.99882 84.0 2012-11-27T22:30:38Z 2012-11-28 10:30:38 12 -1.9051 -1.9068 34.6588 2.721009 27.210087 1028.3158 27.9066 27.9066 84.907 5.30763 7.58514 230.604 62.84128 3.925 1441.1 1441.08 1441.35 1440.61 1440.59 1440.81 0
2012/2013 019 20 -77.65618 165.99882 85.0 2012-11-27T22:30:40Z 2012-11-28 10:30:40 12 -1.9043 -1.906 34.6585 2.7211 27.211002 1028.3205 27.9064 27.9064 85.917 5.32367 7.60806 231.3 63.03227 3.925 1441.12 1441.1 1441.37 1440.61 1440.59 1440.81 0
2012/2013 019 20 -77.65618 165.99882 86.0 2012-11-27T22:30:43Z 2012-11-28 10:30:43 12 -1.9043 -1.906 34.6587 2.721162 27.211624 1028.3254 27.9065 27.9065 86.929 5.32503 7.61001 231.36 63.04862 3.925 1441.14 1441.11 1441.38 1440.61 1440.59 1440.81 0
2012/2013 019 20 -77.65618 165.99882 87.0 2012-11-27T22:30:45Z 2012-11-28 10:30:45 12 -1.904 -1.9057 34.6588 2.72124 27.212397 1028.3304 27.9066 27.9065 87.939 5.3357 7.62526 231.823 63.17546 3.925 1441.16 1441.13 1441.4 1440.61 1440.59 1440.81 0
2012/2013 019 20 -77.65618 165.99882 88.0 2012-11-27T22:30:48Z 2012-11-28 10:30:47 12 -1.9036 -1.9054 34.6589 2.721325 27.213249 1028.3353 27.9067 27.9066 88.95 5.34282 7.63543 232.132 63.2604 3.924 1441.18 1441.15 1441.42 1440.61 1440.59 1440.81 0
2012/2013 019 20 -77.65618 165.99882 89.0 2012-11-27T22:30:50Z 2012-11-28 10:30:50 12 -1.9034 -1.9052 34.6589 2.72139 27.213902 1028.3402 27.9067 27.9066 89.962 5.36136 7.66191 232.938 63.48021 3.924 1441.19 1441.17 1441.44 1440.61 1440.59 1440.81 0
2012/2013 019 20 -77.65618 165.99882 90.0 2012-11-27T22:30:52Z 2012-11-28 10:30:52 12 -1.9032 -1.905 34.6591 2.721471 27.214708 1028.3452 27.9068 27.9068 90.973 5.34635 7.64047 232.286 63.30308 3.924 1441.21 1441.18 1441.45 1440.61 1440.59 1440.81 0
2012/2013 019 20 -77.65618 165.99882 91.0 2012-11-27T22:30:55Z 2012-11-28 10:30:55 12 -1.9028 -1.9046 34.6593 2.721562 27.21562 1028.3502 27.907 27.9069 91.984 5.37432 7.68044 233.501 63.63489 3.924 1441.23 1441.2 1441.47 1440.61 1440.59 1440.81 0
2012/2013 019 20 -77.65618 165.99882 92.0 2012-11-27T22:30:57Z 2012-11-28 10:30:57 12 -1.9021 -1.9039 34.66 2.721726 27.217259 1028.3557 27.9076 27.9075 92.995 5.3941 7.70871 234.36 63.87083 3.923 1441.25 1441.22 1441.49 1440.61 1440.59 1440.81 0
2012/2013 019 20 -77.65618 165.99882 93.0 2012-11-27T22:30:59Z 2012-11-28 10:30:59 12 -1.9005 -1.9023 34.661 2.721974 27.219737 1028.3613 27.9083 27.9083 94.006 5.40065 7.71806 234.644 63.95151 3.923 1441.28 1441.25 1441.52 1440.61 1440.59 1440.81 0
2012/2013 019 20 -77.65618 165.99882 94.0 2012-11-27T22:31:02Z 2012-11-28 10:31:02 12 -1.8996 -1.9015 34.6618 2.722152 27.221517 1028.3668 27.9089 27.9089 95.017 5.41146 7.73351 235.114 64.08142 3.923 1441.3 1441.27 1441.54 1440.61 1440.59 1440.81 0
2012/2013 019 20 -77.65618 165.99882 95.0 2012-11-27T22:31:04Z 2012-11-28 10:31:04 12 -1.8993 -1.9012 34.6622 2.722251 27.22251 1028.372 27.9093 27.9092 96.028 5.41391 7.73702 235.22 64.11115 3.922 1441.32 1441.29 1441.56 1440.61 1440.59 1440.81 0
2012/2013 019 20 -77.65618 165.99882 96.0 2012-11-27T22:31:06Z 2012-11-28 10:31:06 12 -1.8991 -1.901 34.6619 2.722296 27.222964 1028.3766 27.909 27.909 97.039 5.41189 7.73413 235.133 64.08751 3.923 1441.33 1441.3 1441.58 1440.61 1440.59 1440.81 0
2012/2013 019 20 -77.65618 165.99882 97.0 2012-11-27T22:31:09Z 2012-11-28 10:31:09 12 -1.8988 -1.9007 34.6627 2.722422 27.224219 1028.3821 27.9096 27.9096 98.05 5.43742 7.77061 236.242 64.39058 3.923 1441.35 1441.32 1441.6 1440.69 1440.67 1440.9 0
2012/2013 019 20 -77.65618 165.99882 98.0 2012-11-27T22:31:11Z 2012-11-28 10:31:11 12 -1.8984 -1.9003 34.6636 2.722569 27.225688 1028.3877 27.9104 27.9103 99.061 5.44689 7.78415 236.653 64.50395 3.923 1441.37 1441.34 1441.62 1440.73 1440.71 1440.95 0
2012/2013 019 20 -77.65618 165.99882 99.0 2012-11-27T22:31:13Z 2012-11-28 10:31:13 12 -1.8976 -1.8996 34.6642 2.722717 27.227171 1028.393 27.9108 27.9108 100.072 5.438 7.77145 236.267 64.40023 3.923 1441.39 1441.36 1441.64 1440.73 1440.71 1440.95 0
2012/2013 019 20 -77.65618 165.99882 100.0 2012-11-27T22:31:33Z 2012-11-28 10:31:33 12 -1.8944 -1.8963 34.6643 2.723047 27.230465 1028.3978 27.9108 27.9108 101.083 5.50886 7.87271 239.345 65.24525 3.922 1441.43 1441.39 1441.67 1440.73 1440.71 1440.95 0
2012/2013 020 21 -77.65397 166.01675 2.0 2012-11-28T02:36:47Z 2012-11-28 14:36:47 12 -1.8967 -1.8968 34.624 2.715377 27.153775 1027.8878 27.878 27.878 2.021 4.20298 6.00647 182.614 49.76151 3.856 1439.75 1439.76 1439.97 1441.71 1441.7 1441.91 0
2012/2013 020 21 -77.65397 166.01675 3.0 2012-11-28T02:39:55Z 2012-11-28 14:39:55 12 -1.9244 -1.9244 34.6284 2.713431 27.13431 1027.897 27.8823 27.8823 3.032 4.90815 7.01424 213.252 58.06966 3.862 1439.64 1439.65 1439.87 1441.71 1441.7 1441.91 0
2012/2013 020 21 -77.65397 166.01675 4.0 2012-11-28T02:39:18Z 2012-11-28 14:39:18 12 -1.9192 -1.9193 34.6273 2.713835 27.13835 1027.9008 27.8813 27.8813 4.042 4.69535 6.71012 204.006 55.55827 3.861 1439.68 1439.68 1439.9 1441.71 1441.7 1441.91 0
2012/2013 020 21 -77.65397 166.01675 5.0 2012-11-28T02:39:19Z 2012-11-28 14:39:19 12 -1.9195 -1.9196 34.6271 2.713835 27.138347 1027.9055 27.8811 27.8811 5.053 4.71498 6.73818 204.859 55.78997 3.861 1439.7 1439.7 1439.92 1441.71 1441.7 1441.91 0
2012/2013 020 21 -77.65397 166.01675 6.0 2012-11-28T02:39:21Z 2012-11-28 14:39:21 12 -1.9196 -1.9197 34.6272 2.713884 27.138836 1027.9105 27.8812 27.8812 6.064 4.71334 6.73582 204.788 55.77036 3.862 1439.71 1439.71 1439.94 1441.71 1441.7 1441.91 0
2012/2013 020 21 -77.65397 166.01675 7.0 2012-11-28T02:39:22Z 2012-11-28 14:39:22 12 -1.9204 -1.9205 34.6253 2.713729 27.137288 1027.9138 27.8797 27.8797 7.074 4.7465 6.78322 206.229 56.16086 3.861 1439.72 1439.72 1439.95 1441.71 1441.7 1441.91 0
2012/2013 020 21 -77.65397 166.01675 8.0 2012-11-28T02:39:24Z 2012-11-28 14:39:24 12 -1.9211 -1.9213 34.6259 2.713762 27.137622 1027.9192 27.8802 27.8802 8.085 4.7287 6.75779 205.456 55.94944 3.862 1439.74 1439.74 1439.96 1441.71 1441.7 1441.91 0
2012/2013 020 21 -77.65397 166.01675 9.0 2012-11-28T02:39:25Z 2012-11-28 14:39:25 12 -1.9212 -1.9214 34.626 2.71381 27.138101 1027.9242 27.8803 27.8803 9.095 4.71956 6.74473 205.059 55.84123 3.862 1439.75 1439.75 1439.98 1441.71 1441.7 1441.91 0
2012/2013 020 21 -77.65397 166.01675 10.0 2012-11-28T02:39:26Z 2012-11-28 14:39:26 12 -1.9212 -1.9214 34.6262 2.713866 27.138665 1027.9292 27.8805 27.8805 10.106 4.73814 6.77128 205.866 56.06105 3.862 1439.77 1439.77 1439.99 1441.71 1441.7 1441.91 0
2012/2013 020 21 -77.65397 166.01675 11.0 2012-11-28T02:39:28Z 2012-11-28 14:39:28 12 -1.9211 -1.9213 34.6259 2.713904 27.139041 1027.9338 27.8802 27.8802 11.117 4.74363 6.77913 206.105 56.12614 3.863 1439.79 1439.78 1440.01 1441.71 1441.7 1441.91 0
2012/2013 020 21 -77.65397 166.01675 12.0 2012-11-28T02:39:29Z 2012-11-28 14:39:29 12 -1.9208 -1.9211 34.6264 2.71401 27.140097 1027.9391 27.8806 27.8806 12.128 4.75551 6.79609 206.62 56.26719 3.862 1439.81 1439.8 1440.03 1441.71 1441.7 1441.91 0
2012/2013 020 21 -77.65397 166.01675 13.0 2012-11-28T02:39:31Z 2012-11-28 14:39:31 12 -1.9204 -1.9207 34.6266 2.714107 27.141074 1027.9442 27.8808 27.8808 13.138 4.76044 6.80315 206.834 56.32634 3.861 1439.82 1439.82 1440.05 1441.71 1441.7 1441.91 0
2012/2013 020 21 -77.65397 166.01675 14.0 2012-11-28T02:39:33Z 2012-11-28 14:39:33 12 -1.9204 -1.9206 34.6264 2.714142 27.141427 1027.9489 27.8806 27.8806 14.149 4.73644 6.76885 205.792 56.04238 3.86 1439.84 1439.84 1440.06 1441.71 1441.7 1441.91 0
2012/2013 020 21 -77.65397 166.01675 15.0 2012-11-28T02:39:35Z 2012-11-28 14:39:35 12 -1.9206 -1.9208 34.6265 2.714179 27.141793 1027.9538 27.8807 27.8807 15.159 4.79682 6.85514 208.415 56.75651 3.861 1439.86 1439.85 1440.08 1441.71 1441.7 1441.91 0
2012/2013 020 21 -77.65397 166.01675 16.0 2012-11-28T02:39:37Z 2012-11-28 14:39:37 12 -1.9202 -1.9205 34.627 2.714288 27.142877 1027.9591 27.8811 27.8811 16.17 4.77263 6.82057 207.364 56.47099 3.862 1439.87 1439.87 1440.1 1441.71 1441.7 1441.91 0
2012/2013 020 21 -77.65397 166.01675 17.0 2012-11-28T02:39:39Z 2012-11-28 14:39:39 12 -1.92 -1.9204 34.6266 2.714325 27.143254 1027.9636 27.8808 27.8808 17.181 4.80234 6.86302 208.655 56.82268 3.862 1439.89 1439.89 1440.12 1441.71 1441.7 1441.91 0
2012/2013 020 21 -77.65397 166.01675 18.0 2012-11-28T02:39:41Z 2012-11-28 14:39:41 12 -1.92 -1.9204 34.6269 2.714391 27.143913 1027.9687 27.881 27.881 18.191 4.80328 6.86437 208.696 56.83392 3.862 1439.91 1439.9 1440.13 1441.71 1441.7 1441.91 0
2012/2013 020 21 -77.65397 166.01675 19.0 2012-11-28T02:39:43Z 2012-11-28 14:39:43 12 -1.9202 -1.9205 34.627 2.71444 27.144401 1027.9738 27.8811 27.8811 19.202 4.80545 6.86747 208.79 56.85946 3.861 1439.92 1439.92 1440.15 1441.71 1441.7 1441.91 0
2012/2013 020 21 -77.65397 166.01675 20.0 2012-11-28T02:39:46Z 2012-11-28 14:39:46 12 -1.9203 -1.9207 34.6272 2.714485 27.144854 1027.9788 27.8813 27.8813 20.213 4.82411 6.89414 209.601 57.08005 3.862 1439.94 1439.93 1440.16 1441.05 1441.04 1441.27 0
2012/2013 020 21 -77.65397 166.01675 21.0 2012-11-28T02:39:47Z 2012-11-28 14:39:47 12 -1.9204 -1.9208 34.6271 2.714518 27.145183 1027.9835 27.8812 27.8812 21.223 4.80991 6.87384 208.984 56.91191 3.862 1439.95 1439.95 1440.18 1440.84 1440.83 1441.06 0
2012/2013 020 21 -77.65397 166.01675 22.0 2012-11-28T02:39:51Z 2012-11-28 14:39:51 12 -1.9203 -1.9208 34.627 2.714566 27.145664 1027.9884 27.8811 27.8811 22.234 4.83307 6.90693 209.99 57.18593 3.862 1439.97 1439.97 1440.2 1440.82 1440.81 1441.04 0
2012/2013 020 21 -77.65397 166.01675 23.0 2012-11-28T02:39:53Z 2012-11-28 14:39:53 12 -1.9202 -1.9206 34.6271 2.714626 27.146254 1027.9932 27.8811 27.8811 23.245 4.8437 6.92213 210.452 57.312 3.862 1439.99 1439.98 1440.22 1440.82 1440.81 1441.04 0
2012/2013 020 21 -77.65397 166.01675 24.0 2012-11-28T02:39:55Z 2012-11-28 14:39:55 12 -1.9203 -1.9207 34.6269 2.714658 27.146582 1027.998 27.881 27.881 24.256 4.85389 6.9367 210.895 57.43242 3.862 1440.01 1440.0 1440.23 1440.82 1440.81 1441.04 0
2012/2013 020 21 -77.65397 166.01675 25.0 2012-11-28T02:39:57Z 2012-11-28 14:39:57 12 -1.92 -1.9205 34.6268 2.714718 27.147175 1028.0028 27.8809 27.8809 25.266 4.88271 6.97788 212.147 57.77371 3.862 1440.02 1440.02 1440.25 1440.82 1440.81 1441.04 0
2012/2013 020 21 -77.65397 166.01675 26.0 2012-11-28T02:39:59Z 2012-11-28 14:39:59 12 -1.9198 -1.9203 34.6268 2.714776 27.147759 1028.0076 27.8809 27.8809 26.277 4.88558 6.98199 212.272 57.80798 3.862 1440.04 1440.03 1440.27 1440.82 1440.81 1441.04 0
2012/2013 020 21 -77.65397 166.01675 27.0 2012-11-28T02:40:01Z 2012-11-28 14:40:00 12 -1.9199 -1.9204 34.6268 2.714821 27.148214 1028.0126 27.881 27.881 27.288 4.86273 6.94933 211.279 57.53755 3.862 1440.06 1440.05 1440.28 1440.82 1440.81 1441.04 0
2012/2013 020 21 -77.65397 166.01675 28.0 2012-11-28T02:40:02Z 2012-11-28 14:40:02 12 -1.92 -1.9205 34.6271 2.71488 27.148796 1028.0176 27.8811 27.8811 28.299 4.87744 6.97035 211.918 57.71154 3.862 1440.07 1440.07 1440.3 1440.82 1440.81 1441.04 0
2012/2013 020 21 -77.65397 166.01675 29.0 2012-11-28T02:40:04Z 2012-11-28 14:40:04 12 -1.9199 -1.9205 34.6269 2.714921 27.14921 1028.0224 27.8811 27.881 29.309 4.8957 6.99644 212.711 57.92755 3.862 1440.09 1440.08 1440.32 1440.82 1440.81 1441.04 0
2012/2013 020 21 -77.65397 166.01675 30.0 2012-11-28T02:40:05Z 2012-11-28 14:40:05 12 -1.92 -1.9206 34.6272 2.714976 27.14976 1028.0274 27.8812 27.8812 30.32 4.89102 6.98975 212.508 57.87218 3.862 1440.1 1440.1 1440.33 1440.82 1440.81 1441.04 0
2012/2013 020 21 -77.65397 166.01675 31.0 2012-11-28T02:40:07Z 2012-11-28 14:40:07 12 -1.9201 -1.9207 34.6273 2.715026 27.150262 1028.0325 27.8814 27.8814 31.33 4.8914 6.99031 212.525 57.87664 3.862 1440.12 1440.11 1440.35 1440.82 1440.81 1441.04 0
2012/2013 020 21 -77.65397 166.01675 32.0 2012-11-28T02:40:08Z 2012-11-28 14:40:08 12 -1.9202 -1.9208 34.6275 2.71508 27.150798 1028.0375 27.8815 27.8815 32.341 4.89485 6.99523 212.674 57.91741 3.862 1440.14 1440.13 1440.36 1440.82 1440.81 1441.04 0
2012/2013 020 21 -77.65397 166.01675 33.0 2012-11-28T02:40:10Z 2012-11-28 14:40:10 12 -1.9201 -1.9208 34.6274 2.715128 27.151279 1028.0423 27.8814 27.8814 33.352 4.91701 7.02689 213.637 58.17963 3.862 1440.15 1440.14 1440.38 1440.82 1440.81 1441.04 0
2012/2013 020 21 -77.65397 166.01675 34.0 2012-11-28T02:40:12Z 2012-11-28 14:40:12 12 -1.9201 -1.9208 34.6277 2.715192 27.15192 1028.0474 27.8816 27.8816 34.363 4.9135 7.02188 213.485 58.13824 3.863 1440.17 1440.16 1440.4 1440.82 1440.81 1441.04 0
2012/2013 020 21 -77.65397 166.01675 35.0 2012-11-28T02:40:14Z 2012-11-28 14:40:14 12 -1.9201 -1.9208 34.6277 2.71524 27.152401 1028.0523 27.8817 27.8816 35.373 4.92293 7.03535 213.894 58.24978 3.862 1440.19 1440.18 1440.41 1440.82 1440.81 1441.04 0
2012/2013 020 21 -77.65397 166.01675 36.0 2012-11-28T02:40:15Z 2012-11-28 14:40:15 12 -1.9202 -1.9209 34.6275 2.715262 27.15262 1028.057 27.8815 27.8815 36.384 4.92341 7.03605 213.915 58.25525 3.862 1440.2 1440.19 1440.43 1440.82 1440.81 1441.04 0
2012/2013 020 21 -77.65397 166.01675 37.0 2012-11-28T02:40:17Z 2012-11-28 14:40:17 12 -1.9215 -1.9222 34.6284 2.715274 27.152739 1028.0627 27.8823 27.8823 37.395 4.91955 7.03053 213.747 58.20803 3.863 1440.21 1440.2 1440.44 1440.82 1440.81 1441.04 0
2012/2013 020 21 -77.65397 166.01675 38.0 2012-11-28T02:40:19Z 2012-11-28 14:40:19 12 -1.9241 -1.9248 34.6322 2.715371 27.153707 1028.0707 27.8855 27.8854 38.405 4.96328 7.09301 215.647 58.72276 3.862 1440.22 1440.21 1440.45 1440.82 1440.81 1441.04 0
2012/2013 020 21 -77.65397 166.01675 39.0 2012-11-28T02:40:21Z 2012-11-28 14:40:21 12 -1.9249 -1.9256 34.634 2.715478 27.154782 1028.077 27.8869 27.8869 39.417 4.93105 7.04697 214.246 58.34107 3.863 1440.24 1440.23 1440.47 1440.82 1440.81 1441.04 0
2012/2013 020 21 -77.65397 166.01675 40.0 2012-11-28T02:40:22Z 2012-11-28 14:40:22 12 -1.9255 -1.9263 34.6351 2.715553 27.155535 1028.0828 27.8878 27.8878 40.427 4.95644 7.08324 215.349 58.64083 3.862 1440.25 1440.24 1440.48 1440.82 1440.81 1441.04 0
2012/2013 020 21 -77.65397 166.01675 41.0 2012-11-28T02:40:24Z 2012-11-28 14:40:24 12 -1.9261 -1.9269 34.637 2.715685 27.15685 1028.0892 27.8894 27.8894 41.438 4.95544 7.08182 215.305 58.62895 3.862 1440.27 1440.26 1440.5 1440.82 1440.81 1441.04 0
2012/2013 020 21 -77.65397 166.01675 42.0 2012-11-28T02:40:25Z 2012-11-28 14:40:25 12 -1.9257 -1.9265 34.6396 2.715956 27.159563 1028.0962 27.8915 27.8915 42.449 5.02027 7.17446 218.121 59.39769 3.862 1440.29 1440.28 1440.52 1440.82 1440.81 1441.04 0
2012/2013 020 21 -77.65397 166.01675 43.0 2012-11-28T02:40:27Z 2012-11-28 14:40:27 12 -1.9245 -1.9253 34.6407 2.716176 27.161764 1028.1019 27.8924 27.8923 43.46 4.92429 7.0373 213.951 58.26438 3.863 1440.32 1440.3 1440.55 1440.82 1440.81 1441.04 0
2012/2013 020 21 -77.65397 166.01675 44.0 2012-11-28T02:40:28Z 2012-11-28 14:40:28 12 -1.9241 -1.925 34.6413 2.716297 27.162964 1028.1073 27.8928 27.8928 44.471 4.99396 7.13688 216.978 59.08964 3.862 1440.33 1440.32 1440.57 1440.82 1440.81 1441.04 0
2012/2013 020 21 -77.65397 166.01675 45.0 2012-11-28T02:40:29Z 2012-11-28 14:40:29 12 -1.9238 -1.9247 34.6445 2.716601 27.166009 1028.1148 27.8954 27.8954 45.482 4.95586 7.08242 215.322 58.64068 3.863 1440.35 1440.34 1440.59 1440.82 1440.81 1441.04 0
2012/2013 020 21 -77.65397 166.01675 46.0 2012-11-28T02:40:30Z 2012-11-28 14:40:30 12 -1.9236 -1.9245 34.6452 2.716717 27.167165 1028.1202 27.896 27.896 46.492 4.96033 7.0888 215.516 58.69419 3.863 1440.37 1440.36 1440.61 1440.82 1440.81 1441.04 0
2012/2013 020 21 -77.65397 166.01675 47.0 2012-11-28T02:40:32Z 2012-11-28 14:40:32 12 -1.9234 -1.9243 34.6454 2.716788 27.167876 1028.1252 27.8962 27.8961 47.503 4.96463 7.09496 215.703 58.74543 3.863 1440.39 1440.38 1440.63 1440.82 1440.81 1441.04 0
2012/2013 020 21 -77.65397 166.01675 48.0 2012-11-28T02:40:34Z 2012-11-28 14:40:34 12 -1.9232 -1.9241 34.6454 2.716857 27.168567 1028.1301 27.8962 27.8961 48.514 5.01259 7.1635 217.787 59.31335 3.863 1440.41 1440.4 1440.64 1440.82 1440.81 1441.04 0
2012/2013 020 21 -77.65397 166.01675 49.0 2012-11-28T02:40:35Z 2012-11-28 14:40:35 12 -1.9231 -1.9241 34.6459 2.716944 27.16944 1028.1354 27.8966 27.8966 49.524 4.9798 7.11662 216.362 58.92554 3.863 1440.43 1440.41 1440.66 1440.82 1440.81 1441.04 0
2012/2013 020 21 -77.65397 166.01675 50.0 2012-11-28T02:40:36Z 2012-11-28 14:40:36 12 -1.9227 -1.9237 34.6459 2.717028 27.170279 1028.1403 27.8966 27.8966 50.535 5.02242 7.17754 218.214 59.43059 3.862 1440.44 1440.43 1440.68 1440.82 1440.81 1441.04 0
2012/2013 020 21 -77.65397 166.01675 51.0 2012-11-28T02:40:38Z 2012-11-28 14:40:38 12 -1.923 -1.9239 34.6454 2.717018 27.170186 1028.1447 27.8962 27.8962 51.546 5.00993 7.15969 217.671 59.28223 3.864 1440.46 1440.45 1440.69 1440.82 1440.81 1441.04 0
2012/2013 020 21 -77.65397 166.01675 52.0 2012-11-28T02:40:39Z 2012-11-28 14:40:39 12 -1.9228 -1.9238 34.6464 2.717142 27.171418 1028.1503 27.8969 27.8969 52.557 5.01724 7.17014 217.989 59.36929 3.864 1440.48 1440.46 1440.71 1440.82 1440.81 1441.04 0
2012/2013 020 21 -77.65397 166.01675 53.0 2012-11-28T02:40:41Z 2012-11-28 14:40:41 12 -1.9222 -1.9232 34.6468 2.717272 27.172718 1028.1556 27.8973 27.8972 53.568 5.01788 7.17105 218.016 59.37806 3.864 1440.5 1440.48 1440.73 1440.82 1440.81 1441.04 0
2012/2013 020 21 -77.65397 166.01675 54.0 2012-11-28T02:40:42Z 2012-11-28 14:40:42 12 -1.9218 -1.9229 34.6487 2.717486 27.174859 1028.162 27.8988 27.8988 54.579 5.02167 7.17647 218.181 59.42431 3.864 1440.52 1440.5 1440.75 1440.82 1440.81 1441.04 0
2012/2013 020 21 -77.65397 166.01675 55.0 2012-11-28T02:40:43Z 2012-11-28 14:40:43 12 -1.918 -1.9191 34.6524 2.718116 27.181167 1028.1698 27.9018 27.9017 55.59 5.03072 7.1894 218.573 59.53915 3.864 1440.56 1440.54 1440.79 1440.82 1440.81 1441.04 0
2012/2013 020 21 -77.65397 166.01675 56.0 2012-11-28T02:40:45Z 2012-11-28 14:40:45 12 -1.9163 -1.9174 34.6513 2.718228 27.182284 1028.1737 27.9008 27.9008 56.601 5.05957 7.23064 219.827 59.88297 3.864 1440.58 1440.56 1440.82 1440.66 1440.65 1440.88 0
2012/2013 020 21 -77.65397 166.01675 57.0 2012-11-28T02:40:47Z 2012-11-28 14:40:47 12 -1.9159 -1.917 34.6517 2.71833 27.183305 1028.1788 27.9011 27.9011 57.611 5.07613 7.2543 220.547 60.07968 3.865 1440.6 1440.58 1440.84 1440.45 1440.44 1440.67 0
2012/2013 020 21 -77.65397 166.01675 58.0 2012-11-28T02:40:48Z 2012-11-28 14:40:48 12 -1.9151 -1.9162 34.6528 2.71853 27.185305 1028.1846 27.902 27.902 58.622 5.06305 7.2356 219.978 59.92665 3.864 1440.62 1440.61 1440.86 1440.46 1440.45 1440.68 0
2012/2013 020 21 -77.65397 166.01675 59.0 2012-11-28T02:40:50Z 2012-11-28 14:40:50 12 -1.9147 -1.9158 34.6528 2.71861 27.186097 1028.1895 27.9019 27.9019 59.633 5.08024 7.26018 220.725 60.13087 3.865 1440.64 1440.62 1440.88 1440.46 1440.45 1440.68 0
2012/2013 020 21 -77.65397 166.01675 60.0 2012-11-28T02:40:51Z 2012-11-28 14:40:52 12 -1.9145 -1.9157 34.6528 2.718669 27.186691 1028.1944 27.902 27.902 60.644 5.08775 7.2709 221.051 60.2199 3.865 1440.66 1440.64 1440.89 1440.46 1440.45 1440.68 0
2012/2013 020 21 -77.65397 166.01675 61.0 2012-11-28T02:40:53Z 2012-11-28 14:40:53 12 -1.9139 -1.9151 34.6543 2.718877 27.188774 1028.2004 27.9032 27.9032 61.655 5.08831 7.2717 221.075 60.22826 3.865 1440.68 1440.66 1440.92 1440.46 1440.45 1440.68 0
2012/2013 020 21 -77.65397 166.01675 62.0 2012-11-28T02:40:54Z 2012-11-28 14:40:54 12 -1.9112 -1.9125 34.6559 2.719254 27.192538 1028.2065 27.9044 27.9043 62.665 5.10457 7.29494 221.781 60.42568 3.865 1440.71 1440.69 1440.95 1440.46 1440.45 1440.68 0
2012/2013 020 21 -77.65397 166.01675 63.0 2012-11-28T02:40:56Z 2012-11-28 14:40:56 12 -1.9032 -1.9044 34.6595 2.720233 27.202328 1028.214 27.9071 27.907 63.676 5.1208 7.31813 222.486 60.63255 3.866 1440.77 1440.75 1441.01 1440.46 1440.45 1440.68 0
2012/2013 020 21 -77.65397 166.01675 64.0 2012-11-28T02:40:58Z 2012-11-28 14:40:58 12 -1.8969 -1.8982 34.6583 2.720716 27.207161 1028.2177 27.906 27.9059 64.688 5.21106 7.44713 226.408 61.71127 3.866 1440.81 1440.79 1441.05 1440.46 1440.45 1440.68 0
2012/2013 020 21 -77.65397 166.01675 65.0 2012-11-28T02:41:01Z 2012-11-28 14:41:01 12 -1.8931 -1.8944 34.6604 2.721233 27.212328 1028.2242 27.9075 27.9075 65.699 5.21633 7.45465 226.636 61.78094 3.866 1440.85 1440.83 1441.09 1440.46 1440.45 1440.68 0
2012/2013 020 21 -77.65397 166.01675 66.0 2012-11-28T02:41:02Z 2012-11-28 14:41:02 12 -1.8884 -1.8897 34.6616 2.721761 27.217612 1028.23 27.9084 27.9084 66.709 5.22125 7.46169 226.85 61.84775 3.866 1440.9 1440.87 1441.13 1440.46 1440.45 1440.68 0
2012/2013 020 21 -77.65397 166.01675 67.0 2012-11-28T02:41:03Z 2012-11-28 14:41:03 12 -1.885 -1.8863 34.6623 2.722138 27.221376 1028.2353 27.9089 27.9089 67.72 5.31063 7.58941 230.733 62.91239 3.867 1440.93 1440.91 1441.16 1440.46 1440.45 1440.68 0
2012/2013 020 21 -77.65397 166.01675 68.0 2012-11-28T02:41:05Z 2012-11-28 14:41:05 12 -1.8818 -1.8832 34.6621 2.72244 27.224396 1028.24 27.9087 27.9086 68.731 5.25283 7.50682 228.222 62.23301 3.866 1440.96 1440.94 1441.2 1440.46 1440.45 1440.68 0
2012/2013 020 21 -77.65397 166.01675 69.0 2012-11-28T02:41:06Z 2012-11-28 14:41:06 12 -1.8809 -1.8823 34.6617 2.722528 27.225276 1028.2444 27.9083 27.9083 69.742 5.25426 7.50886 228.284 62.25123 3.867 1440.98 1440.96 1441.21 1440.46 1440.45 1440.68 0
2012/2013 020 21 -77.65397 166.01675 70.0 2012-11-28T02:41:07Z 2012-11-28 14:41:08 12 -1.8804 -1.8817 34.6626 2.722689 27.226894 1028.25 27.9091 27.909 70.753 5.27994 7.54556 229.4 62.55685 3.867 1441.0 1440.98 1441.24 1440.46 1440.45 1440.68 0
2012/2013 020 21 -77.65397 166.01675 71.0 2012-11-28T02:41:09Z 2012-11-28 14:41:09 12 -1.8796 -1.881 34.6628 2.722813 27.22813 1028.255 27.9092 27.9092 71.764 5.28837 7.5576 229.766 62.65808 3.867 1441.02 1441.0 1441.26 1440.46 1440.45 1440.68 0
2012/2013 020 21 -77.65397 166.01675 72.0 2012-11-28T02:41:11Z 2012-11-28 14:41:11 12 -1.8809 -1.8823 34.6636 2.722812 27.228118 1028.2606 27.9099 27.9099 72.775 5.18184 7.40536 225.137 61.3941 3.867 1441.03 1441.01 1441.27 1440.46 1440.45 1440.68 0
2012/2013 020 21 -77.65397 166.01675 73.0 2012-11-28T02:41:12Z 2012-11-28 14:41:12 12 -1.8816 -1.883 34.6666 2.72301 27.230104 1028.2679 27.9123 27.9123 73.786 5.35267 7.64951 232.559 63.41835 3.868 1441.05 1441.02 1441.28 1440.46 1440.45 1440.68 0
2012/2013 020 21 -77.65397 166.01675 74.0 2012-11-28T02:41:14Z 2012-11-28 14:41:14 12 -1.8813 -1.8828 34.6673 2.723134 27.231343 1028.2734 27.9129 27.9129 74.797 5.29336 7.56475 229.982 62.71644 3.867 1441.07 1441.04 1441.31 1440.46 1440.45 1440.68 0
2012/2013 020 21 -77.65397 166.01675 75.0 2012-11-28T02:41:15Z 2012-11-28 14:41:15 12 -1.8813 -1.8828 34.6677 2.72321 27.232095 1028.2785 27.9132 27.9132 75.808 5.28071 7.54666 229.432 62.56667 3.867 1441.08 1441.06 1441.32 1440.46 1440.45 1440.68 0
2012/2013 020 21 -77.65397 166.01675 76.0 2012-11-28T02:41:17Z 2012-11-28 14:41:17 12 -1.881 -1.8825 34.6681 2.723314 27.233136 1028.2837 27.9135 27.9135 76.819 5.29059 7.56078 229.861 62.68452 3.868 1441.1 1441.08 1441.34 1440.46 1440.45 1440.68 0
2012/2013 020 21 -77.65397 166.01675 77.0 2012-11-28T02:41:19Z 2012-11-28 14:41:19 12 -1.8809 -1.8824 34.6685 2.723395 27.233951 1028.2889 27.9139 27.9138 77.83 5.29961 7.57367 230.253 62.79171 3.868 1441.12 1441.09 1441.36 1440.46 1440.45 1440.68 0
2012/2013 020 21 -77.65397 166.01675 78.0 2012-11-28T02:41:20Z 2012-11-28 14:41:20 12 -1.8807 -1.8822 34.6692 2.723509 27.235088 1028.2943 27.9144 27.9144 78.841 5.31802 7.59999 231.053 63.01055 3.868 1441.14 1441.11 1441.38 1440.46 1440.45 1440.68 0
2012/2013 020 21 -77.65397 166.01675 79.0 2012-11-28T02:41:22Z 2012-11-28 14:41:22 12 -1.8802 -1.8817 34.6694 2.723609 27.236093 1028.2993 27.9145 27.9145 79.852 5.3158 7.59681 230.957 62.98509 3.868 1441.16 1441.13 1441.4 1440.46 1440.45 1440.68 0
2012/2013 020 21 -77.65397 166.01675 80.0 2012-11-28T02:41:24Z 2012-11-28 14:41:24 12 -1.8802 -1.8817 34.6699 2.723697 27.236967 1028.3046 27.915 27.9149 80.863 5.32952 7.61641 231.552 63.14792 3.868 1441.17 1441.15 1441.41 1440.46 1440.45 1440.68 0
2012/2013 020 21 -77.65397 166.01675 81.0 2012-11-28T02:41:26Z 2012-11-28 14:41:26 12 -1.879 -1.8806 34.6714 2.723949 27.239492 1028.3107 27.9161 27.9161 81.874 5.32888 7.61551 231.525 63.14316 3.869 1441.2 1441.17 1441.44 1440.46 1440.45 1440.68 0
2012/2013 020 21 -77.65397 166.01675 82.0 2012-11-28T02:41:27Z 2012-11-28 14:41:27 12 -1.8775 -1.8792 34.6706 2.724057 27.24057 1028.3148 27.9154 27.9154 82.885 5.33152 7.61928 231.64 63.17646 3.868 1441.22 1441.19 1441.46 1440.46 1440.45 1440.68 0
2012/2013 020 21 -77.65397 166.01675 83.0 2012-11-28T02:41:29Z 2012-11-28 14:41:29 12 -1.8776 -1.8792 34.6709 2.724123 27.24123 1028.32 27.9157 27.9157 83.896 5.36302 7.6643 233.008 63.54982 3.867 1441.24 1441.21 1441.48 1440.46 1440.45 1440.68 0
2012/2013 020 21 -77.65397 166.01675 84.0 2012-11-28T02:41:30Z 2012-11-28 14:41:30 12 -1.8774 -1.879 34.6721 2.724273 27.242726 1028.3258 27.9167 27.9166 84.907 5.34518 7.63881 232.233 63.33934 3.868 1441.26 1441.23 1441.5 1440.46 1440.45 1440.68 0
2012/2013 020 21 -77.65397 166.01675 85.0 2012-11-28T02:41:32Z 2012-11-28 14:41:32 12 -1.8761 -1.8778 34.675 2.724634 27.246336 1028.333 27.9191 27.919 85.917 5.35954 7.65931 232.856 63.51288 3.869 1441.28 1441.25 1441.52 1440.46 1440.45 1440.68 0
2012/2013 020 21 -77.65397 166.01675 86.0 2012-11-28T02:41:34Z 2012-11-28 14:41:34 12 -1.8744 -1.8761 34.6769 2.724956 27.249557 1028.3393 27.9205 27.9204 86.929 5.38314 7.69304 233.881 63.79639 3.868 1441.31 1441.28 1441.55 1440.46 1440.45 1440.68 0
2012/2013 020 21 -77.65397 166.01675 87.0 2012-11-28T02:41:35Z 2012-11-28 14:41:35 12 -1.8744 -1.8762 34.6783 2.725101 27.25101 1028.3454 27.9217 27.9216 87.94 5.39417 7.70881 234.36 63.92769 3.868 1441.33 1441.3 1441.57 1440.46 1440.45 1440.68 0
2012/2013 020 21 -77.65397 166.01675 88.0 2012-11-28T02:41:38Z 2012-11-28 14:41:38 12 -1.8744 -1.8762 34.6784 2.72516 27.251597 1028.3504 27.9218 27.9217 88.951 5.41143 7.73348 235.11 64.13234 3.868 1441.34 1441.31 1441.58 1440.46 1440.45 1440.68 0
2012/2013 020 21 -77.65397 166.01675 89.0 2012-11-28T02:41:39Z 2012-11-28 14:41:39 12 -1.8765 -1.8782 34.6795 2.725108 27.251082 1028.3561 27.9227 27.9226 89.962 5.41525 7.73894 235.276 64.17456 3.869 1441.35 1441.32 1441.59 1440.46 1440.45 1440.68 0
2012/2013 020 21 -77.65397 166.01675 90.0 2012-11-28T02:41:41Z 2012-11-28 14:41:41 12 -1.8775 -1.8793 34.6807 2.725156 27.25156 1028.362 27.9237 27.9237 90.973 5.42329 7.75043 235.625 64.26858 3.868 1441.37 1441.34 1441.61 1440.46 1440.45 1440.68 0
2012/2013 020 21 -77.65397 166.01675 91.0 2012-11-28T02:41:43Z 2012-11-28 14:41:43 12 -1.878 -1.8798 34.6815 2.725214 27.25214 1028.3675 27.9243 27.9243 91.984 5.42511 7.75303 235.704 64.28958 3.868 1441.38 1441.35 1441.62 1440.46 1440.45 1440.68 0
2012/2013 020 21 -77.65397 166.01675 92.0 2012-11-28T02:41:45Z 2012-11-28 14:41:45 12 -1.8783 -1.8802 34.6817 2.725253 27.252533 1028.3726 27.9246 27.9245 92.995 5.46595 7.81139 237.478 64.77313 3.868 1441.39 1441.36 1441.64 1440.56 1440.54 1440.78 0
2012/2013 020 21 -77.65397 166.01675 93.0 2012-11-28T02:41:47Z 2012-11-28 14:41:46 12 -1.8784 -1.8803 34.6819 2.725305 27.253057 1028.3776 27.9247 27.9247 94.006 5.44086 7.77554 236.388 64.47579 3.868 1441.41 1441.38 1441.65 1440.66 1440.64 1440.89 0
2012/2013 020 21 -77.65397 166.01675 94.0 2012-11-28T02:41:48Z 2012-11-28 14:41:48 12 -1.8784 -1.8803 34.6818 2.725347 27.253469 1028.3824 27.9246 27.9246 95.017 5.44574 7.78251 236.6 64.53361 3.868 1441.43 1441.4 1441.67 1440.67 1440.65 1440.9 0
2012/2013 020 21 -77.65397 166.01675 95.0 2012-11-28T02:41:50Z 2012-11-28 14:41:50 12 -1.8774 -1.8793 34.6832 2.725582 27.255818 1028.3884 27.9257 27.9257 96.028 5.46449 7.80931 237.414 64.75827 3.868 1441.45 1441.42 1441.69 1440.67 1440.65 1440.9 0
2012/2013 020 21 -77.65397 166.01675 96.0 2012-11-28T02:41:53Z 2012-11-28 14:41:53 12 -1.8753 -1.8772 34.6826 2.725756 27.257559 1028.3926 27.9252 27.9251 97.039 5.47497 7.82428 237.87 64.88578 3.868 1441.47 1441.44 1441.72 1440.67 1440.65 1440.9 0
2012/2013 020 21 -77.65397 166.01675 97.0 2012-11-28T02:41:55Z 2012-11-28 14:41:55 12 -1.8753 -1.8773 34.6832 2.725843 27.258426 1028.398 27.9257 27.9256 98.05 5.47363 7.82237 237.811 64.87008 3.868 1441.49 1441.46 1441.74 1440.67 1440.65 1440.9 0
2012/2013 020 21 -77.65397 166.01675 98.0 2012-11-28T02:42:04Z 2012-11-28 14:42:04 12 -1.8742 -1.8762 34.6847 2.726091 27.260912 1028.4041 27.9269 27.9268 99.061 5.50616 7.86885 239.224 65.25827 3.868 1441.52 1441.48 1441.76 1440.67 1440.65 1440.9 0
2012/2013 021 23 -77.66177 166.03875 3.0 2012-11-28T22:19:53Z 2012-11-29 10:19:53 12 -1.8945 -1.8946 34.6287 2.715945 27.15945 1027.8964 27.8818 27.8818 3.032 2.37873 3.39944 103.352 28.16547 3.889 1439.79 1439.79 1440.01 1441.77 1441.76 1442.0 0
2012/2013 021 23 -77.66177 166.03875 4.0 2012-11-28T22:20:11Z 2012-11-29 10:20:11 12 -1.9051 -1.9052 34.6294 2.715156 27.151566 1027.9021 27.8826 27.8826 4.042 2.47327 3.53456 107.46 29.27689 3.891 1439.75 1439.75 1439.97 1441.77 1441.76 1442.0 0
2012/2013 021 23 -77.66177 166.03875 5.0 2012-11-28T22:20:14Z 2012-11-29 10:20:14 12 -1.9052 -1.9053 34.6292 2.715184 27.151838 1027.9068 27.8825 27.8825 5.053 2.4901 3.5586 108.191 29.47593 3.892 1439.77 1439.77 1439.99 1441.77 1441.76 1442.0 0
2012/2013 021 23 -77.66177 166.03875 6.0 2012-11-28T22:20:16Z 2012-11-29 10:20:16 12 -1.9052 -1.9053 34.6292 2.715228 27.15228 1027.9117 27.8825 27.8825 6.063 2.49798 3.56986 108.533 29.56916 3.892 1439.79 1439.79 1440.01 1441.77 1441.76 1442.0 0
2012/2013 021 23 -77.66177 166.03875 7.0 2012-11-28T22:20:17Z 2012-11-29 10:20:17 12 -1.9052 -1.9054 34.6292 2.715274 27.152743 1027.9166 27.8825 27.8825 7.074 2.47806 3.54139 107.668 29.33335 3.892 1439.8 1439.8 1440.02 1441.77 1441.76 1442.0 0
2012/2013 021 23 -77.66177 166.03875 8.0 2012-11-28T22:20:19Z 2012-11-29 10:20:19 12 -1.9053 -1.9055 34.629 2.715298 27.152977 1027.9213 27.8823 27.8823 8.085 2.48841 3.5562 108.118 29.45587 3.892 1439.82 1439.82 1440.04 1441.77 1441.76 1442.0 0
2012/2013 021 23 -77.66177 166.03875 9.0 2012-11-28T22:20:23Z 2012-11-29 10:20:23 12 -1.9045 -1.9047 34.6287 2.71539 27.153899 1027.9259 27.882 27.882 9.096 2.50221 3.5759 108.717 29.61968 3.892 1439.84 1439.84 1440.06 1441.77 1441.76 1442.0 0
2012/2013 021 23 -77.66177 166.03875 10.0 2012-11-28T22:20:25Z 2012-11-29 10:20:25 12 -1.9054 -1.9056 34.6291 2.715393 27.153929 1027.9311 27.8824 27.8824 10.106 2.50571 3.58091 108.869 29.66054 3.893 1439.85 1439.85 1440.07 1441.77 1441.76 1442.0 0
2012/2013 021 23 -77.66177 166.03875 11.0 2012-11-28T22:20:27Z 2012-11-29 10:20:27 12 -1.9053 -1.9055 34.6289 2.715437 27.154369 1027.9359 27.8823 27.8823 11.117 2.52109 3.60288 109.537 29.84259 3.893 1439.87 1439.87 1440.09 1441.77 1441.76 1442.0 0
2012/2013 021 23 -77.66177 166.03875 12.0 2012-11-28T22:20:30Z 2012-11-29 10:20:30 12 -1.9053 -1.9055 34.6289 2.715487 27.154866 1027.9408 27.8823 27.8823 12.127 2.52546 3.60913 109.727 29.89433 3.893 1439.88 1439.88 1440.11 1441.77 1441.76 1442.0 0
2012/2013 021 23 -77.66177 166.03875 13.0 2012-11-28T22:20:32Z 2012-11-29 10:20:32 12 -1.9054 -1.9056 34.6287 2.715513 27.155128 1027.9455 27.8821 27.8821 13.138 2.54011 3.63007 110.364 30.06771 3.893 1439.9 1439.9 1440.12 1441.77 1441.76 1442.0 0
2012/2013 021 23 -77.66177 166.03875 14.0 2012-11-28T22:20:34Z 2012-11-29 10:20:34 12 -1.9057 -1.906 34.6288 2.715534 27.155339 1027.9504 27.8822 27.8822 14.149 2.52561 3.60935 109.734 29.89582 3.892 1439.91 1439.91 1440.14 1441.77 1441.76 1442.0 0
2012/2013 021 23 -77.66177 166.03875 15.0 2012-11-28T22:20:36Z 2012-11-29 10:20:36 12 -1.9057 -1.906 34.6289 2.715592 27.155921 1027.9554 27.8823 27.8823 15.16 2.54073 3.63095 110.391 30.07478 3.894 1439.93 1439.93 1440.15 1441.77 1441.76 1442.0 0
2012/2013 021 23 -77.66177 166.03875 16.0 2012-11-28T22:20:38Z 2012-11-29 10:20:38 12 -1.9057 -1.906 34.6289 2.715636 27.156357 1027.9603 27.8822 27.8822 16.17 2.54307 3.6343 110.493 30.10251 3.895 1439.95 1439.94 1440.17 1441.77 1441.76 1442.0 0
2012/2013 021 23 -77.66177 166.03875 17.0 2012-11-28T22:20:40Z 2012-11-29 10:20:40 12 -1.9057 -1.906 34.6287 2.715671 27.156711 1027.9649 27.8821 27.8821 17.181 2.54682 3.63967 110.656 30.1469 3.893 1439.96 1439.96 1440.19 1441.77 1441.76 1442.0 0
2012/2013 021 23 -77.66177 166.03875 18.0 2012-11-28T22:20:42Z 2012-11-29 10:20:42 12 -1.9056 -1.906 34.6287 2.715723 27.157227 1027.9698 27.8821 27.8821 18.191 2.56324 3.66313 111.369 30.34127 3.892 1439.98 1439.98 1440.2 1441.77 1441.76 1442.0 0
2012/2013 021 23 -77.66177 166.03875 19.0 2012-11-28T22:20:44Z 2012-11-29 10:20:44 12 -1.9052 -1.9056 34.6293 2.715844 27.158442 1027.9752 27.8826 27.8825 19.202 2.56458 3.66504 111.427 30.3576 3.893 1440.0 1439.99 1440.22 1441.77 1441.76 1442.0 0
2012/2013 021 23 -77.66177 166.03875 20.0 2012-11-28T22:20:46Z 2012-11-29 10:20:46 12 -1.9043 -1.9046 34.6294 2.715986 27.159856 1027.9802 27.8827 27.8827 20.213 2.62163 3.74657 113.906 31.03377 3.894 1440.02 1440.01 1440.24 1441.13 1441.12 1441.35 0
2012/2013 021 23 -77.66177 166.03875 21.0 2012-11-28T22:20:47Z 2012-11-29 10:20:47 12 -1.9039 -1.9043 34.6297 2.716076 27.160763 1027.9852 27.8828 27.8828 21.223 2.53599 3.62418 110.185 30.02026 3.894 1440.04 1440.03 1440.26 1440.9 1440.89 1441.12 0
2012/2013 021 23 -77.66177 166.03875 22.0 2012-11-28T22:20:50Z 2012-11-29 10:20:50 12 -1.903 -1.9034 34.6296 2.716194 27.161941 1027.99 27.8828 27.8828 22.234 2.57363 3.67797 111.82 30.46654 3.894 1440.06 1440.05 1440.28 1440.9 1440.89 1441.12 0
2012/2013 021 23 -77.66177 166.03875 23.0 2012-11-28T22:20:52Z 2012-11-29 10:20:52 12 -1.9027 -1.9031 34.6302 2.716313 27.16313 1027.9954 27.8832 27.8832 23.245 2.589 3.69993 112.488 30.64894 3.894 1440.08 1440.07 1440.3 1440.9 1440.89 1441.12 0
2012/2013 021 23 -77.66177 166.03875 24.0 2012-11-28T22:20:54Z 2012-11-29 10:20:54 12 -1.9016 -1.902 34.6292 2.716379 27.163787 1027.9994 27.8824 27.8824 24.256 2.5976 3.71223 112.862 30.75148 3.894 1440.1 1440.09 1440.32 1440.9 1440.89 1441.12 0
2012/2013 021 23 -77.66177 166.03875 25.0 2012-11-28T22:20:56Z 2012-11-29 10:20:56 12 -1.9019 -1.9024 34.6302 2.71647 27.164703 1028.0051 27.8832 27.8832 25.266 2.60224 3.71886 113.064 30.80637 3.895 1440.11 1440.11 1440.34 1440.9 1440.89 1441.12 0
2012/2013 021 23 -77.66177 166.03875 26.0 2012-11-28T22:20:59Z 2012-11-29 10:20:59 12 -1.8997 -1.9002 34.6315 2.716796 27.167965 1028.0109 27.8842 27.8842 26.277 2.61509 3.73722 113.622 30.96058 3.895 1440.14 1440.14 1440.37 1440.9 1440.89 1441.12 0
2012/2013 021 23 -77.66177 166.03875 27.0 2012-11-28T22:21:01Z 2012-11-29 10:21:01 12 -1.897 -1.8975 34.6304 2.716989 27.169883 1028.0149 27.8832 27.8832 27.288 2.70395 3.86421 117.482 32.01469 3.896 1440.17 1440.16 1440.4 1440.9 1440.89 1441.12 0
2012/2013 021 23 -77.66177 166.03875 28.0 2012-11-28T22:21:03Z 2012-11-29 10:21:03 12 -1.8965 -1.897 34.6309 2.717111 27.171109 1028.0201 27.8836 27.8836 28.298 2.62392 3.74984 114.005 31.06766 3.895 1440.19 1440.18 1440.42 1440.9 1440.89 1441.12 0
2012/2013 021 23 -77.66177 166.03875 29.0 2012-11-28T22:21:05Z 2012-11-29 10:21:05 12 -1.8956 -1.8962 34.6307 2.717222 27.17222 1028.0248 27.8835 27.8835 29.309 2.60493 3.72271 113.181 30.84358 3.895 1440.21 1440.2 1440.44 1440.9 1440.89 1441.12 0
2012/2013 021 23 -77.66177 166.03875 30.0 2012-11-28T22:21:07Z 2012-11-29 10:21:07 12 -1.8963 -1.8969 34.6311 2.717238 27.172378 1028.03 27.8838 27.8838 30.32 2.63512 3.76584 114.492 31.20047 3.896 1440.23 1440.22 1440.45 1440.9 1440.89 1441.12 0
2012/2013 021 23 -77.66177 166.03875 31.0 2012-11-28T22:21:09Z 2012-11-29 10:21:09 12 -1.8956 -1.8962 34.63 2.717266 27.172656 1028.034 27.8829 27.8829 31.33 2.64415 3.77875 114.884 31.30776 3.896 1440.24 1440.23 1440.47 1440.9 1440.89 1441.12 0
2012/2013 021 23 -77.66177 166.03875 32.0 2012-11-28T22:21:11Z 2012-11-29 10:21:11 12 -1.8976 -1.8982 34.6305 2.717179 27.171788 1028.0393 27.8833 27.8833 32.341 2.64979 3.78681 115.129 31.37296 3.896 1440.25 1440.24 1440.48 1440.9 1440.89 1441.12 0
2012/2013 021 23 -77.66177 166.03875 33.0 2012-11-28T22:21:13Z 2012-11-29 10:21:13 12 -1.8959 -1.8965 34.6324 2.717506 27.175062 1028.0457 27.8848 27.8848 33.352 2.67285 3.81976 116.131 31.6479 3.896 1440.28 1440.27 1440.5 1440.9 1440.89 1441.12 0
2012/2013 021 23 -77.66177 166.03875 34.0 2012-11-28T22:21:15Z 2012-11-29 10:21:15 12 -1.891 -1.8917 34.6328 2.717987 27.179866 1028.0508 27.8851 27.885 34.363 2.63269 3.76238 114.386 31.1766 3.896 1440.32 1440.31 1440.54 1440.9 1440.89 1441.12 0
2012/2013 021 23 -77.66177 166.03875 35.0 2012-11-28T22:21:17Z 2012-11-29 10:21:17 12 -1.887 -1.8877 34.6327 2.718361 27.183608 1028.0554 27.8849 27.8849 35.373 2.71829 3.88471 118.106 32.19377 3.896 1440.35 1440.34 1440.58 1440.9 1440.89 1441.12 0
2012/2013 021 23 -77.66177 166.03875 36.0 2012-11-28T22:21:19Z 2012-11-29 10:21:19 12 -1.8824 -1.8831 34.5311 2.711549 27.115494 1027.9776 27.8021 27.8021 36.384 2.69753 3.85503 117.213 31.92855 3.897 1440.25 1440.24 1440.47 1440.9 1440.89 1441.12 0
2012/2013 021 23 -77.66177 166.03875 37.0 2012-11-28T22:21:21Z 2012-11-29 10:21:21 12 -1.8843 -1.885 34.2753 2.693197 26.931972 1027.7744 27.594 27.594 37.395 2.66525 3.8089 115.834 31.48741 3.896 1439.91 1439.9 1440.12 1440.9 1440.89 1441.12 0
2012/2013 021 23 -77.66177 166.03875 38.0 2012-11-28T22:21:23Z 2012-11-29 10:21:23 12 -1.8883 -1.889 34.2716 2.692645 26.92645 1027.7764 27.5911 27.5911 38.406 2.69858 3.85654 117.282 31.87692 3.896 1439.9 1439.89 1440.11 1440.9 1440.89 1441.12 0
2012/2013 021 23 -77.66177 166.03875 39.0 2012-11-28T22:21:25Z 2012-11-29 10:21:25 12 -1.8885 -1.8892 34.2477 2.690968 26.909681 1027.7618 27.5716 27.5716 39.417 2.69629 3.85327 117.185 31.84425 3.896 1439.88 1439.87 1440.09 1440.9 1440.89 1441.12 0
2012/2013 021 23 -77.66177 166.03875 40.0 2012-11-28T22:21:28Z 2012-11-29 10:21:28 12 -1.8875 -1.8882 34.2069 2.688191 26.881916 1027.7336 27.5385 27.5385 40.427 2.74023 3.91606 119.099 32.35467 3.897 1439.85 1439.84 1440.06 1440.9 1440.89 1441.12 0
2012/2013 021 23 -77.66177 166.03875 41.0 2012-11-28T22:21:30Z 2012-11-29 10:21:30 12 -1.8891 -1.8898 34.214 2.688613 26.886127 1027.7442 27.5443 27.5442 41.438 2.66841 3.81342 115.977 31.50691 3.897 1439.87 1439.86 1440.08 1440.9 1440.89 1441.12 0
2012/2013 021 23 -77.66177 166.03875 42.0 2012-11-28T22:21:32Z 2012-11-29 10:21:32 12 -1.8896 -1.8904 34.216 2.688758 26.887577 1027.7508 27.5459 27.5459 42.449 2.70397 3.86424 117.522 31.92678 3.897 1439.89 1439.88 1440.1 1440.9 1440.89 1441.12 0
2012/2013 021 23 -77.66177 166.03875 43.0 2012-11-28T22:21:35Z 2012-11-29 10:21:35 12 -1.8889 -1.8897 34.2518 2.691409 26.914091 1027.7847 27.575 27.575 43.46 2.71781 3.88403 118.12 32.09912 3.897 1439.96 1439.94 1440.16 1440.9 1440.89 1441.12 0
2012/2013 021 23 -77.66177 166.03875 44.0 2012-11-28T22:21:37Z 2012-11-29 10:21:37 12 -1.8909 -1.8918 34.6313 2.718361 27.18361 1028.0983 27.8839 27.8839 44.47 2.66851 3.81358 115.943 31.60058 3.897 1440.48 1440.47 1440.71 1440.9 1440.89 1441.12 0
2012/2013 021 23 -77.66177 166.03875 45.0 2012-11-28T22:21:39Z 2012-11-29 10:21:39 12 -1.8907 -1.8916 34.6339 2.718608 27.186082 1028.1052 27.8859 27.8859 45.481 2.83367 4.04959 123.118 33.55712 3.897 1440.5 1440.49 1440.73 1440.9 1440.89 1441.12 0
2012/2013 021 23 -77.66177 166.03875 46.0 2012-11-28T22:21:41Z 2012-11-29 10:21:41 12 -1.8906 -1.8915 34.6329 2.718595 27.18595 1028.1093 27.8851 27.8851 46.492 2.75577 3.93827 119.734 32.63447 3.897 1440.52 1440.5 1440.75 1440.9 1440.89 1441.12 0
2012/2013 021 23 -77.66177 166.03875 47.0 2012-11-28T22:21:43Z 2012-11-29 10:21:43 12 -1.8929 -1.8938 34.6342 2.718539 27.185393 1028.1153 27.8863 27.8863 47.503 2.7543 3.93618 119.67 32.61539 3.898 1440.52 1440.51 1440.75 1440.9 1440.89 1441.12 0
2012/2013 021 23 -77.66177 166.03875 48.0 2012-11-28T22:21:46Z 2012-11-29 10:21:46 12 -1.8952 -1.8962 34.6345 2.718412 27.184122 1028.1205 27.8866 27.8865 48.514 2.75531 3.93761 119.714 32.62527 3.898 1440.53 1440.51 1440.76 1440.57 1440.56 1440.8 0
2012/2013 021 23 -77.66177 166.03875 49.0 2012-11-28T22:21:48Z 2012-11-29 10:21:48 12 -1.8964 -1.8973 34.6354 2.71843 27.184295 1028.1261 27.8873 27.8873 49.525 2.78627 3.98186 121.059 32.99109 3.899 1440.54 1440.53 1440.77 1440.53 1440.52 1440.76 0
2012/2013 021 23 -77.66177 166.03875 50.0 2012-11-28T22:21:50Z 2012-11-29 10:21:50 12 -1.8963 -1.8973 34.6354 2.718481 27.184809 1028.131 27.8873 27.8873 50.535 2.77172 3.96107 120.427 32.8189 3.899 1440.56 1440.54 1440.79 1440.53 1440.52 1440.76 0
2012/2013 021 23 -77.66177 166.03875 51.0 2012-11-28T22:21:52Z 2012-11-29 10:21:52 12 -1.8971 -1.8981 34.6361 2.718512 27.185119 1028.1364 27.8879 27.8879 51.546 2.77388 3.96416 120.521 32.84395 3.9 1440.57 1440.55 1440.8 1440.53 1440.52 1440.76 0
2012/2013 021 23 -77.66177 166.03875 52.0 2012-11-28T22:21:55Z 2012-11-29 10:21:55 12 -1.8975 -1.8986 34.6374 2.718614 27.186134 1028.1423 27.889 27.8889 52.557 2.78868 3.9853 121.163 33.01908 3.9 1440.59 1440.57 1440.82 1440.53 1440.52 1440.76 0
2012/2013 021 23 -77.66177 166.03875 53.0 2012-11-28T22:21:57Z 2012-11-29 10:21:57 12 -1.8974 -1.8984 34.6376 2.718694 27.18694 1028.1474 27.8892 27.8892 53.568 2.79188 3.98987 121.302 33.05716 3.9 1440.61 1440.59 1440.84 1440.53 1440.52 1440.76 0
2012/2013 021 23 -77.66177 166.03875 54.0 2012-11-28T22:22:00Z 2012-11-29 10:22:00 12 -1.8978 -1.8989 34.6368 2.718644 27.186438 1028.1517 27.8885 27.8885 54.579 2.80293 4.00567 121.783 33.18744 3.901 1440.62 1440.6 1440.85 1440.53 1440.52 1440.76 0
2012/2013 021 23 -77.66177 166.03875 55.0 2012-11-28T22:22:02Z 2012-11-29 10:22:02 12 -1.9006 -1.9017 34.6372 2.718487 27.184876 1028.1569 27.8889 27.8889 55.59 2.80414 4.0074 121.835 33.19934 3.901 1440.62 1440.6 1440.85 1440.53 1440.52 1440.76 0
2012/2013 021 23 -77.66177 166.03875 56.0 2012-11-28T22:22:04Z 2012-11-29 10:22:04 12 -1.9016 -1.9026 34.6377 2.71849 27.184898 1028.1622 27.8893 27.8893 56.601 2.81045 4.01641 122.109 33.27332 3.901 1440.63 1440.62 1440.87 1440.53 1440.52 1440.76 0
2012/2013 021 23 -77.66177 166.03875 57.0 2012-11-28T22:22:05Z 2012-11-29 10:22:05 12 -1.9029 -1.904 34.6391 2.718521 27.185213 1028.1682 27.8905 27.8905 57.611 2.79392 3.99279 121.391 33.07674 3.902 1440.65 1440.63 1440.88 1440.53 1440.52 1440.76 0
2012/2013 021 23 -77.66177 166.03875 58.0 2012-11-28T22:22:07Z 2012-11-29 10:22:07 12 -1.9022 -1.9033 34.6399 2.718685 27.186849 1028.1738 27.8912 27.8911 58.622 2.82717 4.0403 122.835 33.47114 3.902 1440.67 1440.65 1440.9 1440.53 1440.52 1440.76 0
2012/2013 021 23 -77.66177 166.03875 59.0 2012-11-28T22:22:09Z 2012-11-29 10:22:09 12 -1.9021 -1.9032 34.6397 2.718729 27.187285 1028.1785 27.891 27.891 59.633 2.81363 4.02095 122.247 33.31091 3.902 1440.68 1440.66 1440.92 1440.53 1440.52 1440.76 0
2012/2013 021 23 -77.66177 166.03875 60.0 2012-11-28T22:22:11Z 2012-11-29 10:22:11 12 -1.9018 -1.9029 34.6408 2.718882 27.188819 1028.1842 27.8919 27.8919 60.644 2.84181 4.06123 123.471 33.64516 3.902 1440.7 1440.68 1440.94 1440.53 1440.52 1440.76 0
2012/2013 021 23 -77.66177 166.03875 61.0 2012-11-28T22:22:14Z 2012-11-29 10:22:14 12 -1.8989 -1.9001 34.6462 2.719552 27.195517 1028.1934 27.8962 27.8961 61.655 2.84012 4.05882 123.397 33.62906 3.902 1440.74 1440.72 1440.97 1440.53 1440.52 1440.76 0
2012/2013 021 23 -77.66177 166.03875 62.0 2012-11-28T22:22:16Z 2012-11-29 10:22:16 12 -1.897 -1.8982 34.651 2.720094 27.200943 1028.2021 27.9 27.9 62.666 2.83123 4.04611 123.011 33.52663 3.902 1440.77 1440.75 1441.01 1440.53 1440.52 1440.76 0
2012/2013 021 23 -77.66177 166.03875 63.0 2012-11-28T22:22:18Z 2012-11-29 10:22:18 12 -1.8963 -1.8975 34.6534 2.720377 27.203774 1028.2089 27.902 27.902 63.677 2.86654 4.09657 124.545 33.94602 3.902 1440.8 1440.78 1441.03 1440.53 1440.52 1440.76 0
2012/2013 021 23 -77.66177 166.03875 64.0 2012-11-28T22:22:20Z 2012-11-29 10:22:20 12 -1.8956 -1.8969 34.654 2.720518 27.20518 1028.2142 27.9024 27.9024 64.687 2.86363 4.0924 124.418 33.91224 3.903 1440.82 1440.8 1441.05 1440.53 1440.52 1440.76 0
2012/2013 021 23 -77.66177 166.03875 65.0 2012-11-28T22:22:22Z 2012-11-29 10:22:22 12 -1.8955 -1.8968 34.6544 2.720607 27.206074 1028.2195 27.9028 27.9028 65.698 2.48682 3.55392 108.047 29.45014 3.902 1440.83 1440.81 1441.07 1440.53 1440.52 1440.76 0
2012/2013 021 23 -77.66177 166.03875 66.0 2012-11-28T22:22:23Z 2012-11-29 10:22:23 12 -1.895 -1.8963 34.6549 2.720728 27.20728 1028.2247 27.9031 27.9031 66.709 3.10509 4.43749 134.909 36.77265 3.902 1440.85 1440.83 1441.09 1440.53 1440.52 1440.76 0
2012/2013 021 23 -77.66177 166.03875 67.0 2012-11-28T22:22:25Z 2012-11-29 10:22:25 12 -1.8946 -1.8959 34.6553 2.720837 27.208371 1028.2298 27.9034 27.9034 67.72 2.65528 3.79466 115.365 31.44603 3.903 1440.87 1440.85 1441.11 1440.53 1440.52 1440.76 0
2012/2013 021 23 -77.66177 166.03875 68.0 2012-11-28T22:22:27Z 2012-11-29 10:22:27 12 -1.8931 -1.8944 34.6583 2.721224 27.212236 1028.2371 27.9059 27.9058 68.731 3.02667 4.32541 131.501 35.84681 3.903 1440.9 1440.88 1441.14 1440.53 1440.52 1440.76 0
2012/2013 021 23 -77.66177 166.03875 69.0 2012-11-28T22:22:30Z 2012-11-29 10:22:30 12 -1.886 -1.8874 34.6597 2.721961 27.219607 1028.2429 27.9068 27.9068 69.742 2.82547 4.03787 122.76 33.47037 3.903 1440.95 1440.93 1441.19 1440.53 1440.52 1440.76 0
2012/2013 021 23 -77.66177 166.03875 70.0 2012-11-28T22:22:32Z 2012-11-29 10:22:32 12 -1.8848 -1.8861 34.6586 2.722036 27.220361 1028.2469 27.9059 27.9058 70.753 2.94805 4.21306 128.086 34.92344 3.903 1440.97 1440.95 1441.21 1440.53 1440.52 1440.76 0
2012/2013 021 23 -77.66177 166.03875 71.0 2012-11-28T22:22:35Z 2012-11-29 10:22:35 12 -1.8853 -1.8867 34.6584 2.722024 27.220242 1028.2517 27.9058 27.9058 71.764 2.48363 3.54936 107.908 29.42129 3.903 1440.99 1440.96 1441.22 1440.53 1440.52 1440.76 0
2012/2013 021 23 -77.66177 166.03875 72.0 2012-11-28T22:22:37Z 2012-11-29 10:22:37 12 -1.8874 -1.8888 34.6592 2.72195 27.219495 1028.2572 27.9064 27.9064 72.775 3.24734 4.64078 141.089 38.46638 3.903 1440.99 1440.97 1441.23 1440.53 1440.52 1440.76 0
2012/2013 021 23 -77.66177 166.03875 73.0 2012-11-28T22:22:39Z 2012-11-29 10:22:39 12 -1.8884 -1.8899 34.6608 2.72203 27.220304 1028.2634 27.9078 27.9078 73.786 2.7596 3.94375 119.898 32.68832 3.904 1441.01 1440.98 1441.25 1440.53 1440.52 1440.76 0
2012/2013 021 23 -77.66177 166.03875 74.0 2012-11-28T22:22:41Z 2012-11-29 10:22:41 12 -1.887 -1.8885 34.6628 2.722335 27.223347 1028.2698 27.9094 27.9093 74.797 3.06226 4.37627 133.047 36.2752 3.903 1441.03 1441.01 1441.27 1440.53 1440.52 1440.76 0
2012/2013 021 23 -77.66177 166.03875 75.0 2012-11-28T22:22:43Z 2012-11-29 10:22:43 12 -1.8863 -1.8877 34.6629 2.722456 27.224556 1028.2748 27.9095 27.9094 75.808 2.8705 4.10224 124.716 34.00447 3.904 1441.05 1441.03 1441.29 1440.53 1440.52 1440.76 0
2012/2013 021 23 -77.66177 166.03875 76.0 2012-11-28T22:22:46Z 2012-11-29 10:22:46 12 -1.8856 -1.8871 34.6632 2.722582 27.225823 1028.2799 27.9097 27.9097 76.819 2.99063 4.27391 129.935 35.42825 3.903 1441.07 1441.05 1441.31 1440.6 1440.59 1440.83 0
2012/2013 021 23 -77.66177 166.03875 77.0 2012-11-28T22:22:48Z 2012-11-29 10:22:48 12 -1.8858 -1.8874 34.6644 2.72269 27.226902 1028.2857 27.9107 27.9106 77.83 2.70938 3.87197 117.715 32.09645 3.903 1441.09 1441.06 1441.33 1440.63 1440.62 1440.86 0
2012/2013 021 23 -77.66177 166.03875 78.0 2012-11-28T22:22:50Z 2012-11-29 10:22:50 12 -1.8845 -1.8861 34.6667 2.723008 27.230082 1028.2924 27.9125 27.9125 78.841 3.12566 4.46687 135.801 37.0298 3.903 1441.11 1441.09 1441.35 1440.63 1440.62 1440.86 0
2012/2013 021 23 -77.66177 166.03875 79.0 2012-11-28T22:22:52Z 2012-11-29 10:22:52 12 -1.884 -1.8856 34.6666 2.723091 27.230908 1028.2972 27.9124 27.9123 79.852 3.00691 4.29717 130.642 35.62344 3.903 1441.13 1441.11 1441.37 1440.63 1440.62 1440.86 0
2012/2013 021 23 -77.66177 166.03875 80.0 2012-11-28T22:22:54Z 2012-11-29 10:22:54 12 -1.8821 -1.8836 34.6697 2.723519 27.235187 1028.3045 27.9148 27.9148 80.863 3.01799 4.31301 131.123 35.75736 3.902 1441.16 1441.14 1441.4 1440.63 1440.62 1440.86 0
2012/2013 021 23 -77.66177 166.03875 81.0 2012-11-28T22:22:56Z 2012-11-29 10:22:56 12 -1.8792 -1.8808 34.6703 2.723852 27.238518 1028.3098 27.9153 27.9153 81.874 2.76435 3.95054 120.103 32.75498 3.903 1441.19 1441.17 1441.44 1440.63 1440.62 1440.86 0
2012/2013 021 23 -77.66177 166.03875 82.0 2012-11-28T22:22:59Z 2012-11-29 10:22:58 12 -1.8782 -1.8799 34.6703 2.723978 27.239781 1028.3146 27.9152 27.9152 82.885 3.15136 4.5036 136.917 37.34153 3.903 1441.22 1441.19 1441.46 1440.63 1440.62 1440.86 0
2012/2013 021 23 -77.66177 166.03875 83.0 2012-11-28T22:23:01Z 2012-11-29 10:23:01 12 -1.8778 -1.8794 34.6713 2.724135 27.241349 1028.3203 27.916 27.916 83.895 2.96712 4.24031 128.913 35.15919 3.902 1441.23 1441.21 1441.48 1440.63 1440.62 1440.86 0
2012/2013 021 23 -77.66177 166.03875 84.0 2012-11-28T22:23:03Z 2012-11-29 10:23:03 12 -1.8689 -1.8706 34.6772 2.725345 27.253451 1028.3297 27.9207 27.9206 84.907 2.94733 4.21203 128.052 34.93382 3.902 1441.3 1441.28 1441.54 1440.63 1440.62 1440.86 0
2012/2013 021 23 -77.66177 166.03875 85.0 2012-11-28T22:23:05Z 2012-11-29 10:23:05 12 -1.862 -1.8637 34.676 2.725886 27.258863 1028.3334 27.9194 27.9194 85.918 3.24267 4.63411 140.884 38.4421 3.902 1441.35 1441.32 1441.59 1440.63 1440.62 1440.86 0
2012/2013 021 23 -77.66177 166.03875 86.0 2012-11-28T22:23:07Z 2012-11-29 10:23:07 12 -1.8624 -1.8641 34.6752 2.725842 27.258418 1028.3377 27.9188 27.9188 86.929 3.04207 4.34742 132.169 36.06317 3.902 1441.36 1441.34 1441.61 1440.63 1440.62 1440.86 0
2012/2013 021 23 -77.66177 166.03875 87.0 2012-11-28T22:23:09Z 2012-11-29 10:23:09 12 -1.8673 -1.8691 34.6789 2.725737 27.257371 1028.3456 27.922 27.9219 87.94 2.86049 4.08793 124.279 33.9071 3.902 1441.36 1441.33 1441.6 1440.63 1440.62 1440.86 0
2012/2013 021 23 -77.66177 166.03875 88.0 2012-11-28T22:23:11Z 2012-11-29 10:23:11 12 -1.8679 -1.8696 34.6802 2.725836 27.258365 1028.3516 27.9231 27.923 88.951 3.0216 4.31817 131.279 35.81665 3.902 1441.38 1441.35 1441.62 1440.63 1440.62 1440.86 0
2012/2013 021 23 -77.66177 166.03875 89.0 2012-11-28T22:23:13Z 2012-11-29 10:23:13 12 -1.868 -1.8698 34.6808 2.72591 27.259101 1028.3569 27.9235 27.9235 89.961 3.11284 4.44855 135.243 36.89808 3.902 1441.39 1441.37 1441.64 1440.63 1440.62 1440.86 0
2012/2013 021 23 -77.66177 166.03875 90.0 2012-11-28T22:23:16Z 2012-11-29 10:23:16 12 -1.8685 -1.8703 34.6822 2.726022 27.260217 1028.363 27.9247 27.9247 90.973 2.93351 4.19228 127.451 34.77233 3.902 1441.41 1441.38 1441.65 1440.63 1440.62 1440.86 0
2012/2013 021 23 -77.66177 166.03875 91.0 2012-11-28T22:23:18Z 2012-11-29 10:23:18 12 -1.87 -1.8718 34.6831 2.726003 27.260025 1028.3686 27.9254 27.9254 91.983 3.22164 4.60405 139.97 38.18641 3.902 1441.42 1441.39 1441.66 1440.63 1440.62 1440.86 0
2012/2013 021 23 -77.66177 166.03875 92.0 2012-11-28T22:23:20Z 2012-11-29 10:23:20 12 -1.8715 -1.8734 34.6838 2.725972 27.259722 1028.3741 27.9261 27.926 92.995 2.95633 4.22489 128.443 35.04034 3.902 1441.43 1441.4 1441.67 1440.63 1440.62 1440.86 0
2012/2013 021 23 -77.66177 166.03875 93.0 2012-11-28T22:23:23Z 2012-11-29 10:23:23 12 -1.8735 -1.8754 34.6835 2.725828 27.258278 1028.3788 27.9258 27.9258 94.006 3.46144 4.94674 150.388 41.02475 3.902 1441.44 1441.41 1441.68 1440.63 1440.62 1440.86 0
2012/2013 021 23 -77.66177 166.03875 94.0 2012-11-28T22:23:25Z 2012-11-29 10:23:25 12 -1.8749 -1.8768 34.6844 2.725825 27.258254 1028.3844 27.9267 27.9266 95.017 3.07253 4.39096 133.491 36.41449 3.902 1441.45 1441.42 1441.69 1440.63 1440.62 1440.86 0
2012/2013 021 23 -77.66177 166.03875 95.0 2012-11-28T22:23:28Z 2012-11-29 10:23:28 12 -1.8742 -1.8761 34.6841 2.72591 27.259105 1028.389 27.9264 27.9263 96.028 3.10625 4.43914 134.956 36.81472 3.902 1441.47 1441.44 1441.71 1440.63 1440.62 1440.86 0
2012/2013 021 23 -77.66177 166.03875 96.0 2012-11-28T22:23:31Z 2012-11-29 10:23:31 12 -1.8745 -1.8764 34.6842 2.725937 27.259376 1028.3939 27.9264 27.9264 97.039 3.30154 4.71823 143.441 39.12898 3.902 1441.48 1441.45 1441.73 1440.63 1440.62 1440.86 0
2012/2013 021 23 -77.66177 166.03875 97.0 2012-11-28T22:23:39Z 2012-11-29 10:23:39 12 -1.8745 -1.8765 34.6841 2.725973 27.259731 1028.3987 27.9264 27.9263 98.05 3.00218 4.29041 130.435 35.58089 3.901 1441.5 1441.47 1441.74 1440.63 1440.62 1440.86 0
2012/2013 022 24 -77.66415 166.02057 1.0 2012-11-29T03:49:17Z 2012-11-29 15:49:17 12 -1.7897 -1.7897 34.6801 2.728283 27.282825 1027.9256 27.9208 27.9208 1.011 3.16737 4.52649 137.613 37.62384 3.891 1440.33 1440.32 1440.54 1434.66 1434.67 1434.71 0
2012/2013 022 24 -77.66415 166.02057 2.0 2012-11-29T03:49:17Z 2012-11-29 15:49:17 12 -1.7906 -1.7906 34.6801 2.72825 27.282501 1027.9305 27.9208 27.9208 2.022 3.67935 5.25816 159.857 43.70435 3.892 1440.34 1440.34 1440.56 1434.66 1434.67 1434.71 0
2012/2013 022 24 -77.66415 166.02057 4.0 2012-11-29T03:49:17Z 2012-11-29 15:49:18 12 -1.7912 -1.7913 34.6791 2.728213 27.282129 1027.9385 27.92 27.92 3.835 4.0506 5.78871 175.986 48.11296 3.891 1440.37 1440.36 1440.58 1434.66 1434.67 1434.71 0
2012/2013 022 24 -77.66415 166.02057 7.0 2012-11-29T03:49:18Z 2012-11-29 15:49:18 12 -1.7918 -1.7919 34.6773 2.728186 27.281859 1027.953 27.9185 27.9185 7.15 4.37182 6.24776 189.942 51.9269 3.891 1440.41 1440.41 1440.63 1434.66 1434.67 1434.71 0
2012/2013 022 24 -77.66415 166.02057 14.0 2012-11-29T03:49:18Z 2012-11-29 15:49:18 12 -1.7923 -1.7926 34.6718 2.728093 27.280932 1027.9841 27.9141 27.9141 14.514 4.68832 6.70008 203.694 55.68325 3.891 1440.52 1440.52 1440.74 1434.66 1434.67 1434.71 0
2012/2013 022 24 -77.66415 166.02057 31.0 2012-11-29T03:49:18Z 2012-11-29 15:49:18 12 -1.7933 -1.794 34.6616 2.728059 27.280587 1028.0565 27.9058 27.9058 31.269 5.00617 7.15432 217.506 59.45241 3.892 1440.78 1440.76 1441.0 1437.72 1437.71 1437.86 0
2012/2013 022 24 -77.66415 166.02057 46.0 2012-11-29T03:49:19Z 2012-11-29 15:49:19 12 -1.7941 -1.795 34.6531 2.72809 27.280904 1028.122 27.8989 27.8989 46.311 3.69918 5.2865 160.721 43.92732 3.89 1441.0 1440.99 1441.23 1437.72 1437.71 1437.86 0
2012/2013 022 24 -77.66415 166.02057 49.0 2012-11-29T03:49:19Z 2012-11-29 15:49:19 12 -1.7952 -1.7962 34.6519 2.728065 27.280657 1028.1368 27.898 27.898 49.571 3.76376 5.37879 163.528 44.69252 3.891 1441.05 1441.03 1441.28 1437.72 1437.71 1437.86 0
2012/2013 022 24 -77.66415 166.02057 50.0 2012-11-29T03:49:21Z 2012-11-29 15:49:21 12 -1.7915 -1.7925 34.6661 2.729432 27.294315 1028.1529 27.9094 27.9094 50.535 3.77794 5.39906 164.142 44.86986 3.892 1441.1 1441.08 1441.33 1437.72 1437.71 1437.86 0
2012/2013 022 24 -77.66415 166.02057 51.0 2012-11-29T03:49:22Z 2012-11-29 15:49:22 12 -1.7705 -1.7715 34.6582 2.730677 27.306774 1028.1508 27.9025 27.9025 51.546 3.75804 5.37061 163.278 44.65631 3.891 1441.21 1441.19 1441.43 1437.72 1437.71 1437.86 0
2012/2013 022 24 -77.66415 166.02057 52.0 2012-11-29T03:49:24Z 2012-11-29 15:49:24 12 -1.7677 -1.7688 34.6563 2.730811 27.308105 1028.1539 27.9008 27.9008 52.557 3.81508 5.45213 165.757 45.3368 3.892 1441.24 1441.22 1441.46 1437.72 1437.71 1437.86 0
2012/2013 022 24 -77.66415 166.02057 53.0 2012-11-29T03:49:25Z 2012-11-29 15:49:25 12 -1.7691 -1.7702 34.6618 2.731142 27.311425 1028.1633 27.9053 27.9053 53.568 3.79526 5.42381 164.895 45.10151 3.891 1441.25 1441.23 1441.48 1437.72 1437.71 1437.86 0
2012/2013 022 24 -77.66415 166.02057 54.0 2012-11-29T03:49:26Z 2012-11-29 15:49:26 12 -1.7617 -1.7628 34.6606 2.731718 27.317176 1028.167 27.9041 27.9041 54.579 3.78157 5.40424 164.3 44.94729 3.892 1441.3 1441.28 1441.53 1437.72 1437.71 1437.86 0
2012/2013 022 24 -77.66415 166.02057 55.0 2012-11-29T03:49:28Z 2012-11-29 15:49:28 12 -1.7606 -1.7618 34.6585 2.731708 27.317078 1028.1702 27.9024 27.9024 55.59 3.80489 5.43757 165.314 45.22512 3.892 1441.32 1441.3 1441.55 1437.72 1437.71 1437.86 0
2012/2013 022 24 -77.66415 166.02057 56.0 2012-11-29T03:49:29Z 2012-11-29 15:49:29 12 -1.7622 -1.7634 34.6568 2.731499 27.314996 1028.1737 27.9011 27.9011 56.6 3.81013 5.44506 165.542 45.28497 3.891 1441.33 1441.31 1441.55 1437.72 1437.71 1437.86 0
2012/2013 022 24 -77.66415 166.02057 57.0 2012-11-29T03:49:31Z 2012-11-29 15:49:31 12 -1.7626 -1.7637 34.6593 2.731695 27.316952 1028.1806 27.9031 27.9031 57.612 3.80405 5.43637 165.277 45.21304 3.892 1441.35 1441.32 1441.57 1437.72 1437.71 1437.86 0
2012/2013 022 24 -77.66415 166.02057 58.0 2012-11-29T03:49:33Z 2012-11-29 15:49:32 12 -1.7583 -1.7595 34.66 2.732153 27.321528 1028.1859 27.9036 27.9036 58.622 3.81484 5.45179 165.746 45.34674 3.892 1441.39 1441.36 1441.61 1437.72 1437.71 1437.86 0
2012/2013 022 24 -77.66415 166.02057 59.0 2012-11-29T03:49:34Z 2012-11-29 15:49:34 12 -1.7571 -1.7583 34.6676 2.732835 27.328347 1028.1969 27.9097 27.9097 59.633 3.80259 5.43428 165.212 45.20495 3.891 1441.42 1441.39 1441.64 1437.72 1437.71 1437.86 0
2012/2013 022 24 -77.66415 166.02057 60.0 2012-11-29T03:49:36Z 2012-11-29 15:49:36 12 -1.7461 -1.7473 34.6663 2.733712 27.337123 1028.2004 27.9083 27.9083 60.644 3.81773 5.45592 165.871 45.39808 3.892 1441.48 1441.46 1441.71 1437.72 1437.71 1437.86 0
2012/2013 022 24 -77.66415 166.02057 61.0 2012-11-29T03:49:38Z 2012-11-29 15:49:38 12 -1.7464 -1.7477 34.669 2.733928 27.339281 1028.2074 27.9105 27.9105 61.655 3.81226 5.44809 165.632 45.33345 3.892 1441.5 1441.48 1441.73 1437.72 1437.71 1437.86 0
2012/2013 022 24 -77.66415 166.02057 62.0 2012-11-29T03:49:39Z 2012-11-29 15:49:39 12 -1.7462 -1.7475 34.6708 2.73412 27.341205 1028.2138 27.912 27.9119 62.665 3.78828 5.41384 164.591 45.04922 3.892 1441.52 1441.5 1441.75 1437.72 1437.71 1437.86 0
2012/2013 022 24 -77.66415 166.02057 63.0 2012-11-29T03:49:41Z 2012-11-29 15:49:41 12 -1.7471 -1.7484 34.6708 2.734093 27.340928 1028.2186 27.912 27.912 63.677 3.82001 5.45918 165.969 45.42541 3.892 1441.53 1441.51 1441.76 1437.72 1437.71 1437.86 0
2012/2013 022 24 -77.66415 166.02057 64.0 2012-11-29T03:49:42Z 2012-11-29 15:49:42 12 -1.7476 -1.749 34.6721 2.734188 27.341878 1028.2246 27.9131 27.9131 64.688 3.85803 5.51351 167.621 45.87725 3.892 1441.55 1441.52 1441.78 1437.72 1437.71 1437.86 0
2012/2013 022 24 -77.66415 166.02057 65.0 2012-11-29T03:49:44Z 2012-11-29 15:49:44 12 -1.7475 -1.7488 34.6727 2.734294 27.34294 1028.23 27.9136 27.9136 65.698 3.8559 5.51047 167.528 45.85236 3.892 1441.57 1441.54 1441.8 1437.72 1437.71 1437.86 0
2012/2013 022 24 -77.66415 166.02057 66.0 2012-11-29T03:49:45Z 2012-11-29 15:49:45 12 -1.7465 -1.7479 34.6755 2.73462 27.3462 1028.2371 27.9158 27.9158 66.709 3.86014 5.51652 167.712 45.90484 3.892 1441.59 1441.57 1441.82 1437.72 1437.71 1437.86 0
2012/2013 022 24 -77.66415 166.02057 67.0 2012-11-29T03:49:47Z 2012-11-29 15:49:47 12 -1.7449 -1.7463 34.6743 2.734722 27.347219 1028.2409 27.9148 27.9148 67.72 3.85819 5.51375 167.628 45.8834 3.892 1441.62 1441.59 1441.84 1437.72 1437.71 1437.86 0
2012/2013 022 24 -77.66415 166.02057 68.0 2012-11-29T03:49:48Z 2012-11-29 15:49:48 12 -1.7446 -1.746 34.6743 2.734785 27.347845 1028.2457 27.9148 27.9147 68.731 3.85699 5.51202 167.575 45.86932 3.891 1441.63 1441.61 1441.86 1437.72 1437.71 1437.86 0
2012/2013 022 24 -77.66415 166.02057 69.0 2012-11-29T03:49:50Z 2012-11-29 15:49:50 12 -1.7451 -1.7466 34.674 2.734768 27.347683 1028.2504 27.9146 27.9145 69.742 3.86812 5.52793 168.059 46.001 3.892 1441.65 1441.62 1441.88 1437.72 1437.71 1437.86 0
2012/2013 022 24 -77.66415 166.02057 70.0 2012-11-29T03:49:52Z 2012-11-29 15:49:52 12 -1.746 -1.7474 34.6758 2.734873 27.348729 1028.2567 27.916 27.916 70.753 3.87498 5.53774 168.357 46.08212 3.891 1441.66 1441.64 1441.89 1437.72 1437.71 1437.86 0
2012/2013 022 24 -77.66415 166.02057 71.0 2012-11-29T03:49:54Z 2012-11-29 15:49:54 12 -1.749 -1.7505 34.6726 2.734432 27.344323 1028.2591 27.9135 27.9135 71.764 3.88253 5.54853 168.685 46.16705 3.892 1441.66 1441.63 1441.89 1437.72 1437.71 1437.86 0
2012/2013 022 24 -77.66415 166.02057 72.0 2012-11-29T03:49:55Z 2012-11-29 15:49:55 12 -1.7545 -1.756 34.6747 2.734176 27.341757 1028.2658 27.9154 27.9153 72.775 3.8567 5.51161 167.563 45.85383 3.892 1441.65 1441.63 1441.88 1437.72 1437.71 1437.86 0
2012/2013 022 24 -77.66415 166.02057 73.0 2012-11-29T03:49:57Z 2012-11-29 15:49:57 12 -1.7601 -1.7616 34.6754 2.733804 27.338038 1028.2714 27.9161 27.9161 73.786 3.86686 5.52613 168.004 45.96791 3.892 1441.64 1441.61 1441.87 1437.72 1437.71 1437.86 0
2012/2013 022 24 -77.66415 166.02057 74.0 2012-11-29T03:49:58Z 2012-11-29 15:49:58 12 -1.7601 -1.7616 34.6763 2.73391 27.339101 1028.277 27.9168 27.9168 74.797 3.85742 5.51264 167.593 45.85593 3.892 1441.66 1441.63 1441.89 1437.72 1437.71 1437.86 0
2012/2013 022 24 -77.66415 166.02057 75.0 2012-11-29T03:50:00Z 2012-11-29 15:50:00 12 -1.7617 -1.7633 34.675 2.733729 27.337286 1028.2809 27.9159 27.9158 75.807 3.87339 5.53546 168.288 46.04337 3.892 1441.67 1441.64 1441.9 1437.72 1437.71 1437.86 0
2012/2013 022 24 -77.66415 166.02057 76.0 2012-11-29T03:50:01Z 2012-11-29 15:50:01 12 -1.7656 -1.7672 34.6757 2.733505 27.335048 1028.2865 27.9166 27.9165 76.819 3.8594 5.51547 167.68 45.87251 3.892 1441.67 1441.64 1441.9 1437.72 1437.71 1437.86 0
2012/2013 022 24 -77.66415 166.02057 77.0 2012-11-29T03:50:03Z 2012-11-29 15:50:03 12 -1.7671 -1.7687 34.6771 2.733529 27.335289 1028.2925 27.9178 27.9177 77.83 3.85777 5.51314 167.609 45.85175 3.891 1441.68 1441.65 1441.91 1437.72 1437.71 1437.86 0
2012/2013 022 24 -77.66415 166.02057 78.0 2012-11-29T03:50:05Z 2012-11-29 15:50:05 12 -1.7651 -1.7667 34.6783 2.733825 27.33825 1028.2982 27.9186 27.9186 78.841 3.88603 5.55353 168.837 46.19053 3.892 1441.7 1441.68 1441.94 1437.72 1437.71 1437.86 0
2012/2013 022 24 -77.66415 166.02057 79.0 2012-11-29T03:50:06Z 2012-11-29 15:50:06 12 -1.7624 -1.764 34.6743 2.733819 27.338194 1028.2998 27.9154 27.9153 79.852 3.89752 5.56994 169.336 46.32919 3.892 1441.73 1441.7 1441.96 1437.72 1437.71 1437.86 0
2012/2013 022 24 -77.66415 166.02057 80.0 2012-11-29T03:50:08Z 2012-11-29 15:50:08 12 -1.7654 -1.767 34.6758 2.733715 27.337154 1028.3059 27.9166 27.9165 80.863 3.8878 5.55605 168.914 46.21037 3.892 1441.73 1441.7 1441.96 1437.72 1437.71 1437.86 0
2012/2013 022 24 -77.66415 166.02057 81.0 2012-11-29T03:50:10Z 2012-11-29 15:50:10 12 -1.7678 -1.7695 34.6764 2.733608 27.336084 1028.3114 27.9172 27.9172 81.874 3.89189 5.5619 169.091 46.25625 3.892 1441.74 1441.71 1441.97 1437.72 1437.71 1437.86 0
2012/2013 022 24 -77.66415 166.02057 82.0 2012-11-29T03:50:11Z 2012-11-29 15:50:11 12 -1.7691 -1.7709 34.6773 2.733606 27.336057 1028.3171 27.918 27.9179 82.885 3.88744 5.55555 168.898 46.20196 3.892 1441.75 1441.72 1441.98 1437.72 1437.71 1437.86 0
2012/2013 022 24 -77.66415 166.02057 83.0 2012-11-29T03:50:13Z 2012-11-29 15:50:13 12 -1.7692 -1.7709 34.6745 2.733445 27.334449 1028.3196 27.9157 27.9156 83.895 3.90813 5.58512 169.797 46.44686 3.892 1441.76 1441.73 1441.99 1437.72 1437.71 1437.86 0
2012/2013 022 24 -77.66415 166.02057 84.0 2012-11-29T03:50:14Z 2012-11-29 15:50:14 12 -1.7709 -1.7727 34.677 2.73353 27.335298 1028.3266 27.9178 27.9178 84.907 3.9069 5.58335 169.743 46.43085 3.892 1441.77 1441.74 1442.01 1437.72 1437.71 1437.86 0
2012/2013 022 24 -77.66415 166.02057 85.0 2012-11-29T03:50:16Z 2012-11-29 15:50:16 12 -1.7692 -1.771 34.6748 2.73356 27.335601 1028.3296 27.9159 27.9159 85.917 3.88903 5.55782 168.967 46.21995 3.892 1441.79 1441.76 1442.03 1437.72 1437.71 1437.86 0
2012/2013 022 24 -77.66415 166.02057 86.0 2012-11-29T03:50:17Z 2012-11-29 15:50:17 12 -1.7738 -1.7756 34.6738 2.733149 27.331488 1028.3338 27.9153 27.9152 86.928 3.91315 5.59229 170.015 46.50044 3.892 1441.79 1441.75 1442.02 1437.72 1437.71 1437.86 0
2012/2013 022 24 -77.66415 166.02057 87.0 2012-11-29T03:50:19Z 2012-11-29 15:50:19 12 -1.7767 -1.7785 34.6761 2.73312 27.331201 1028.3406 27.9172 27.9171 87.94 3.89918 5.57232 169.408 46.33165 3.892 1441.79 1441.76 1442.03 1439.92 1439.9 1440.11 0
2012/2013 022 24 -77.66415 166.02057 88.0 2012-11-29T03:50:20Z 2012-11-29 15:50:20 12 -1.7772 -1.7791 34.6757 2.733095 27.330948 1028.3452 27.9169 27.9168 88.95 3.89808 5.57075 169.36 46.31775 3.892 1441.81 1441.77 1442.04 1440.01 1439.99 1440.2 0
2012/2013 022 24 -77.66415 166.02057 89.0 2012-11-29T03:50:22Z 2012-11-29 15:50:22 12 -1.7786 -1.7805 34.6763 2.73307 27.330703 1028.3506 27.9174 27.9173 89.962 3.92137 5.60403 170.372 46.59299 3.892 1441.82 1441.78 1442.05 1440.01 1439.99 1440.2 0
2012/2013 022 24 -77.66415 166.02057 90.0 2012-11-29T03:50:25Z 2012-11-29 15:50:25 12 -1.7797 -1.7816 34.6764 2.733032 27.330314 1028.3555 27.9175 27.9175 90.973 3.92081 5.60323 170.348 46.58496 3.892 1441.83 1441.8 1442.06 1440.01 1439.99 1440.2 0
2012/2013 022 24 -77.66415 166.02057 91.0 2012-11-29T03:50:31Z 2012-11-29 15:50:31 12 -1.7789 -1.7808 34.6763 2.733143 27.331428 1028.3603 27.9175 27.9174 91.984 3.93841 5.62838 171.112 46.79504 3.892 1441.85 1441.82 1442.09 1440.01 1439.99 1440.2 0
2012/2013 022 24 -77.66415 166.02057 92.0 2012-11-29T03:50:32Z 2012-11-29 15:50:32 12 -1.7792 -1.7812 34.6753 2.733085 27.330849 1028.3644 27.9166 27.9166 92.995 3.92941 5.61552 170.721 46.68731 3.892 1441.86 1441.83 1442.1 1440.01 1439.99 1440.2 0
2012/2013 022 24 -77.66415 166.02057 93.0 2012-11-29T03:50:33Z 2012-11-29 15:50:33 12 -1.7809 -1.7829 34.6753 2.732994 27.329935 1028.3693 27.9167 27.9167 94.006 3.96596 5.66776 172.31 47.11953 3.892 1441.87 1441.84 1442.11 1440.01 1439.99 1440.2 0
2012/2013 022 24 -77.66415 166.02057 94.0 2012-11-29T03:50:35Z 2012-11-29 15:50:35 12 -1.7827 -1.7847 34.675 2.732866 27.328661 1028.374 27.9164 27.9164 95.017 3.94663 5.64013 171.47 46.88748 3.892 1441.88 1441.84 1442.11 1440.01 1439.99 1440.2 0
2012/2013 022 24 -77.66415 166.02057 95.0 2012-11-29T03:50:36Z 2012-11-29 15:50:36 12 -1.7873 -1.7893 34.6758 2.732586 27.325859 1028.3796 27.9172 27.9172 96.028 3.96219 5.66237 172.146 47.06681 3.892 1441.87 1441.84 1442.11 1440.01 1439.99 1440.2 0
2012/2013 022 24 -77.66415 166.02057 96.0 2012-11-29T03:50:37Z 2012-11-29 15:50:37 12 -1.7901 -1.7921 34.6758 2.732392 27.323917 1028.3845 27.9173 27.9172 97.039 3.94839 5.64265 171.546 46.89926 3.891 1441.88 1441.84 1442.12 1440.01 1439.99 1440.2 0
2012/2013 022 24 -77.66415 166.02057 97.0 2012-11-29T03:50:39Z 2012-11-29 15:50:39 12 -1.792 -1.794 34.6765 2.732339 27.323386 1028.3901 27.918 27.9179 98.05 3.95518 5.65234 171.841 46.97772 3.891 1441.89 1441.85 1442.12 1440.01 1439.99 1440.2 0
2012/2013 022 24 -77.66415 166.02057 98.0 2012-11-29T03:50:40Z 2012-11-29 15:50:40 12 -1.7931 -1.7951 34.6769 2.73232 27.323205 1028.3953 27.9183 27.9182 99.061 3.98159 5.69009 172.988 47.29012 3.891 1441.9 1441.86 1442.14 1440.01 1439.99 1440.2 0
2012/2013 022 24 -77.66415 166.02057 99.0 2012-11-29T03:50:41Z 2012-11-29 15:50:41 12 -1.7933 -1.7954 34.6778 2.732412 27.324116 1028.4009 27.9191 27.919 100.073 3.96659 5.66865 172.337 47.11201 3.891 1441.91 1441.88 1442.15 1440.01 1439.99 1440.2 0
2012/2013 022 24 -77.66415 166.02057 100.0 2012-11-29T03:50:42Z 2012-11-29 15:50:43 12 -1.7937 -1.7958 34.6763 2.732316 27.323159 1028.4045 27.9178 27.9178 101.083 3.96983 5.67329 172.478 47.14949 3.891 1441.92 1441.89 1442.16 1440.01 1439.99 1440.2 0
2012/2013 022 24 -77.66415 166.02057 101.0 2012-11-29T03:50:44Z 2012-11-29 15:50:44 12 -1.796 -1.7981 34.6782 2.73231 27.323097 1028.411 27.9194 27.9193 102.094 3.96989 5.67337 172.48 47.14799 3.892 1441.93 1441.9 1442.17 1440.01 1439.99 1440.2 0
2012/2013 022 24 -77.66415 166.02057 102.0 2012-11-29T03:50:45Z 2012-11-29 15:50:45 12 -1.795 -1.7972 34.6763 2.732302 27.323018 1028.4143 27.9179 27.9179 103.105 3.98061 5.68869 172.946 47.27584 3.892 1441.95 1441.92 1442.19 1440.01 1439.99 1440.2 0
2012/2013 022 24 -77.66415 166.02057 103.0 2012-11-29T03:50:47Z 2012-11-29 15:50:47 12 -1.7894 -1.7915 34.6797 2.733065 27.330654 1028.4218 27.9205 27.9204 104.117 3.98657 5.6972 173.204 47.35493 3.891 1442.0 1441.96 1442.24 1440.01 1439.99 1440.2 0
2012/2013 022 24 -77.66415 166.02057 104.0 2012-11-29T03:50:49Z 2012-11-29 15:50:49 12 -1.7885 -1.7907 34.6768 2.732981 27.329807 1028.4243 27.9181 27.9181 105.128 4.00709 5.72653 174.096 47.59889 3.891 1442.02 1441.98 1442.26 1440.01 1439.99 1440.2 0
2012/2013 022 24 -77.66415 166.02057 105.0 2012-11-29T03:50:51Z 2012-11-29 15:50:51 12 -1.7846 -1.7868 34.6789 2.733503 27.335028 1028.4307 27.9197 27.9196 106.139 3.99181 5.7047 173.432 47.42312 3.892 1442.05 1442.02 1442.29 1440.01 1439.99 1440.2 0
2012/2013 022 24 -77.66415 166.02057 106.0 2012-11-29T03:50:53Z 2012-11-29 15:50:53 12 -1.7862 -1.7885 34.6761 2.73321 27.332105 1028.4333 27.9175 27.9174 107.15 4.01106 5.73221 174.269 47.64878 3.891 1442.06 1442.02 1442.3 1440.01 1439.99 1440.2 0
2012/2013 022 24 -77.66415 166.02057 107.0 2012-11-29T03:50:54Z 2012-11-29 15:50:54 12 -1.7898 -1.792 34.6752 2.732891 27.328914 1028.4375 27.9168 27.9168 108.161 4.02506 5.75222 174.877 47.81013 3.891 1442.06 1442.02 1442.3 1440.01 1439.99 1440.2 0
2012/2013 022 24 -77.66415 166.02057 108.0 2012-11-29T03:51:03Z 2012-11-29 15:51:03 12 -1.8033 -1.8056 34.6811 2.732232 27.322316 1028.4476 27.922 27.922 109.172 4.00144 5.71846 173.851 47.51423 3.891 1442.02 1441.98 1442.26 1440.01 1439.99 1440.2 0
2012/2013 022 24 -77.66415 166.02057 107.0 2012-11-29T03:51:07Z 2012-11-29 15:51:07 12 -1.7969 -1.7991 34.679 2.732574 27.325743 1028.4409 27.9201 27.9201 108.161 4.04073 5.77461 175.558 47.98838 3.891 1442.03 1441.99 1442.27 1440.01 1439.99 1440.2 0
2012/2013 022 24 -77.66415 166.02057 106.0 2012-11-29T03:51:09Z 2012-11-29 15:51:09 12 -1.7946 -1.7968 34.6795 2.732748 27.327483 1028.4363 27.9204 27.9204 107.15 4.04821 5.78529 175.882 48.08027 3.891 1442.02 1441.99 1442.26 1440.01 1439.99 1440.2 0
2012/2013 022 24 -77.66415 166.02057 105.0 2012-11-29T03:51:12Z 2012-11-29 15:51:12 12 -1.7902 -1.7924 34.6794 2.733066 27.330661 1028.4313 27.9202 27.9202 106.139 4.05102 5.78931 176.004 48.11938 3.891 1442.03 1441.99 1442.27 1440.01 1439.99 1440.2 0
2012/2013 022 24 -77.66415 166.02057 104.0 2012-11-29T03:51:14Z 2012-11-29 15:51:14 12 -1.7854 -1.7876 34.6787 2.733368 27.333682 1028.4257 27.9195 27.9195 105.128 4.06106 5.80366 176.441 48.24466 3.891 1442.03 1442.0 1442.27 1440.01 1439.99 1440.2 0
2012/2013 022 24 -77.66415 166.02057 103.0 2012-11-29T03:51:17Z 2012-11-29 15:51:17 12 -1.7826 -1.7848 34.6772 2.733448 27.334477 1028.4195 27.9182 27.9182 104.116 4.06142 5.80417 176.457 48.25198 3.891 1442.03 1441.99 1442.27 1440.01 1439.99 1440.2 0
2012/2013 022 24 -77.66415 166.02057 102.0 2012-11-29T03:51:19Z 2012-11-29 15:51:19 12 -1.7874 -1.7895 34.6766 2.732964 27.329641 1028.4143 27.9179 27.9178 103.105 4.0679 5.81344 176.738 48.32267 3.891 1441.99 1441.95 1442.23 1440.01 1439.99 1440.2 0
2012/2013 022 24 -77.66415 166.02057 101.0 2012-11-29T03:51:22Z 2012-11-29 15:51:22 12 -1.7895 -1.7916 34.6769 2.732761 27.327605 1028.4098 27.9182 27.9182 102.094 4.08223 5.83392 177.361 48.4902 3.891 1441.96 1441.93 1442.2 1440.01 1439.99 1440.2 0
2012/2013 022 24 -77.66415 166.02057 100.0 2012-11-29T03:51:24Z 2012-11-29 15:51:24 12 -1.7909 -1.793 34.6774 2.73263 27.326305 1028.4054 27.9187 27.9186 101.083 4.07038 5.81699 176.846 48.34777 3.891 1441.94 1441.9 1442.18 1440.01 1439.99 1440.2 0
2012/2013 022 24 -77.66415 166.02057 99.0 2012-11-29T03:51:27Z 2012-11-29 15:51:27 12 -1.7902 -1.7922 34.6778 2.732679 27.326784 1028.4008 27.919 27.9189 100.072 4.08961 5.84446 177.681 48.57728 3.891 1441.93 1441.89 1442.17 1440.01 1439.99 1440.2 0
2012/2013 022 24 -77.66415 166.02057 98.0 2012-11-29T03:51:29Z 2012-11-29 15:51:29 12 -1.789 -1.7911 34.6778 2.732724 27.327245 1028.3958 27.9189 27.9189 99.061 4.08581 5.83903 177.516 48.53366 3.892 1441.92 1441.88 1442.16 1440.01 1439.99 1440.2 0
2012/2013 022 24 -77.66415 166.02057 97.0 2012-11-29T03:51:32Z 2012-11-29 15:51:32 12 -1.7864 -1.7884 34.6781 2.732921 27.329204 1028.3912 27.9191 27.9191 98.05 4.10175 5.86182 178.209 48.7266 3.891 1441.91 1441.88 1442.15 1440.01 1439.99 1440.2 0
2012/2013 022 24 -77.66415 166.02057 96.0 2012-11-29T03:51:34Z 2012-11-29 15:51:34 12 -1.7865 -1.7885 34.6764 2.732739 27.327388 1028.3849 27.9177 27.9177 97.039 4.09366 5.85025 177.857 48.62972 3.891 1441.89 1441.86 1442.13 1440.01 1439.99 1440.2 0
2012/2013 022 24 -77.66415 166.02057 95.0 2012-11-29T03:51:37Z 2012-11-29 15:51:37 12 -1.7888 -1.7908 34.6769 2.732539 27.325393 1028.3805 27.9182 27.9181 96.028 4.11633 5.88265 178.842 48.89623 3.891 1441.87 1441.83 1442.11 1440.01 1439.99 1440.2 0
2012/2013 022 24 -77.66415 166.02057 94.0 2012-11-29T03:51:39Z 2012-11-29 15:51:39 12 -1.7897 -1.7917 34.6772 2.732432 27.324318 1028.3759 27.9184 27.9184 95.017 4.10041 5.8599 178.151 48.70595 3.891 1441.85 1441.81 1442.08 1440.01 1439.99 1440.2 0
2012/2013 022 24 -77.66415 166.02057 93.0 2012-11-29T03:51:42Z 2012-11-29 15:51:42 12 -1.7891 -1.791 34.6772 2.732443 27.324433 1028.3711 27.9184 27.9184 94.006 4.11471 5.88032 178.772 48.8766 3.891 1441.83 1441.8 1442.07 1440.01 1439.99 1440.2 0
2012/2013 022 24 -77.66415 166.02057 92.0 2012-11-29T03:51:44Z 2012-11-29 15:51:44 12 -1.7873 -1.7893 34.6777 2.732573 27.325732 1028.3665 27.9188 27.9187 92.995 4.12731 5.89834 179.319 49.02879 3.891 1441.83 1441.79 1442.06 1440.01 1439.99 1440.2 0
2012/2013 022 24 -77.66415 166.02057 91.0 2012-11-29T03:51:47Z 2012-11-29 15:51:47 12 -1.7841 -1.786 34.6774 2.732777 27.327769 1028.3613 27.9184 27.9184 91.984 4.1362 5.91105 179.706 49.13859 3.891 1441.83 1441.79 1442.06 1440.01 1439.99 1440.2 0
2012/2013 022 24 -77.66415 166.02057 90.0 2012-11-29T03:51:49Z 2012-11-29 15:51:49 12 -1.7825 -1.7844 34.6769 2.732831 27.328313 1028.356 27.918 27.918 90.973 4.14828 5.92831 180.23 49.28409 3.891 1441.82 1441.78 1442.05 1440.01 1439.99 1440.2 0
2012/2013 022 24 -77.66415 166.02057 89.0 2012-11-29T03:51:52Z 2012-11-29 15:51:52 12 -1.7821 -1.7839 34.6773 2.732847 27.328472 1028.3515 27.9183 27.9182 89.961 4.1366 5.91161 179.723 49.14598 3.891 1441.8 1441.77 1442.04 1440.01 1439.99 1440.2 0
2012/2013 022 24 -77.66415 166.02057 88.0 2012-11-29T03:51:54Z 2012-11-29 15:51:54 12 -1.7782 -1.78 34.6776 2.733154 27.331537 1028.3468 27.9185 27.9184 88.951 4.15545 5.93855 180.542 49.37524 3.891 1441.81 1441.77 1442.04 1440.01 1439.99 1440.2 0
2012/2013 022 24 -77.66415 166.02057 87.0 2012-11-29T03:51:57Z 2012-11-29 15:51:57 12 -1.7801 -1.7819 34.6759 2.732823 27.328228 1028.3406 27.9171 27.9171 87.94 4.17831 5.97123 181.535 49.64377 3.891 1441.78 1441.75 1442.01 1440.01 1439.99 1440.2 0
2012/2013 022 24 -77.66415 166.02057 86.0 2012-11-29T03:52:01Z 2012-11-29 15:52:01 12 -1.7827 -1.7845 34.6771 2.732644 27.326436 1028.3368 27.9182 27.9181 86.929 4.16782 5.95624 181.08 49.51608 3.891 1441.75 1441.72 1441.98 1440.01 1439.99 1440.2 0
2012/2013 022 24 -77.66415 166.02057 85.0 2012-11-29T03:52:04Z 2012-11-29 15:52:04 12 -1.7816 -1.7834 34.6771 2.732686 27.326859 1028.3319 27.9182 27.9181 85.918 4.18498 5.98076 181.825 49.72136 3.891 1441.74 1441.71 1441.97 1440.01 1439.99 1440.2 0
2012/2013 022 24 -77.66415 166.02057 84.0 2012-11-29T03:52:07Z 2012-11-29 15:52:07 12 -1.7805 -1.7823 34.6772 2.732733 27.327334 1028.327 27.9182 27.9181 84.906 4.18764 5.98456 181.941 49.75441 3.892 1441.73 1441.7 1441.96 1440.01 1439.99 1440.2 0
2012/2013 022 24 -77.66415 166.02057 83.0 2012-11-29T03:52:09Z 2012-11-29 15:52:09 12 -1.7781 -1.7798 34.6776 2.732923 27.329229 1028.3224 27.9184 27.9184 83.895 4.19724 5.99828 182.358 49.87198 3.891 1441.72 1441.69 1441.96 1440.01 1439.99 1440.2 0
2012/2013 022 24 -77.66415 166.02057 82.0 2012-11-29T03:52:12Z 2012-11-29 15:52:12 12 -1.7761 -1.7778 34.6779 2.73307 27.330699 1028.3178 27.9186 27.9186 82.885 4.20939 6.01564 182.885 50.01915 3.891 1441.72 1441.69 1441.95 1440.01 1439.99 1440.2 0
2012/2013 022 24 -77.66415 166.02057 81.0 2012-11-29T03:52:15Z 2012-11-29 15:52:15 12 -1.7722 -1.7739 34.6785 2.733387 27.333871 1028.3132 27.919 27.9189 81.874 4.21786 6.02774 183.253 50.12524 3.891 1441.72 1441.69 1441.95 1440.01 1439.99 1440.2 0
2012/2013 022 24 -77.66415 166.02057 80.0 2012-11-29T03:52:18Z 2012-11-29 15:52:18 12 -1.7683 -1.77 34.6776 2.733605 27.336047 1028.3075 27.9182 27.9181 80.863 4.23342 6.04998 183.929 50.3151 3.891 1441.72 1441.69 1441.95 1440.01 1439.99 1440.2 0
2012/2013 022 24 -77.66415 166.02057 79.0 2012-11-29T03:52:20Z 2012-11-29 15:52:20 12 -1.7631 -1.7647 34.6786 2.734064 27.340639 1028.3033 27.9188 27.9188 79.852 4.25118 6.07536 184.701 50.53363 3.892 1441.73 1441.7 1441.96 1440.01 1439.99 1440.2 0
2012/2013 022 24 -77.66415 166.02057 78.0 2012-11-29T03:53:19Z 2012-11-29 15:53:19 12 -1.7446 -1.7462 34.6777 2.735499 27.354994 1028.2971 27.9176 27.9175 78.841 4.39922 6.28692 191.133 52.31912 3.891 1441.8 1441.77 1442.03 1440.01 1439.99 1440.2 0
2012/2013 022 24 -77.66415 166.02057 77.0 2012-11-29T03:54:00Z 2012-11-29 15:54:00 12 -1.741 -1.7426 34.6777 2.735755 27.357547 1028.2921 27.9175 27.9174 77.83 4.49799 6.42808 195.425 53.49905 3.891 1441.8 1441.77 1442.03 1440.01 1439.99 1440.2 0
2012/2013 022 24 -77.66415 166.02057 76.0 2012-11-29T03:54:05Z 2012-11-29 15:54:05 12 -1.7389 -1.7405 34.677 2.735831 27.358305 1028.2866 27.9168 27.9168 76.819 4.52611 6.46827 196.646 53.83626 3.891 1441.8 1441.77 1442.02 1440.01 1439.99 1440.2 0
2012/2013 022 24 -77.66415 166.02057 75.0 2012-11-29T03:54:08Z 2012-11-29 15:54:08 12 -1.7389 -1.7405 34.6771 2.73579 27.357902 1028.2819 27.9169 27.9169 75.808 4.5429 6.49225 197.376 54.0359 3.891 1441.78 1441.75 1442.01 1440.01 1439.99 1440.2 0
2012/2013 022 24 -77.66415 166.02057 74.0 2012-11-29T03:54:10Z 2012-11-29 15:54:10 12 -1.7386 -1.7402 34.6763 2.73571 27.357101 1028.2763 27.9162 27.9162 74.797 4.5186 6.45753 196.32 53.74696 3.891 1441.76 1441.73 1441.99 1440.01 1439.99 1440.2 0
2012/2013 022 24 -77.66415 166.02057 73.0 2012-11-29T03:54:12Z 2012-11-29 15:54:12 12 -1.739 -1.7406 34.6756 2.735582 27.355823 1028.271 27.9158 27.9157 73.786 4.53245 6.47733 196.922 53.91091 3.891 1441.74 1441.71 1441.97 1440.01 1439.99 1440.2 0
2012/2013 022 24 -77.66415 166.02057 72.0 2012-11-29T03:54:15Z 2012-11-29 15:54:15 12 -1.7413 -1.7428 34.6752 2.73532 27.353202 1028.2659 27.9155 27.9154 72.775 4.55467 6.50907 197.887 54.17176 3.891 1441.72 1441.69 1441.95 1440.01 1439.99 1440.2 0
2012/2013 022 24 -77.66415 166.02057 71.0 2012-11-29T03:54:17Z 2012-11-29 15:54:17 12 -1.7423 -1.7438 34.6747 2.73515 27.351495 1028.2606 27.9151 27.9151 71.764 4.54665 6.49761 197.539 54.07462 3.891 1441.69 1441.67 1441.92 1440.01 1439.99 1440.2 0
2012/2013 022 24 -77.66415 166.02057 70.0 2012-11-29T03:54:20Z 2012-11-29 15:54:20 12 -1.7446 -1.7461 34.6746 2.734899 27.348993 1028.2557 27.915 27.915 70.753 4.58286 6.54936 199.112 54.50186 3.891 1441.67 1441.64 1441.89 1440.01 1439.99 1440.2 0
2012/2013 022 24 -77.66415 166.02057 69.0 2012-11-29T03:54:23Z 2012-11-29 15:54:23 12 -1.7463 -1.7477 34.6741 2.734677 27.346767 1028.2505 27.9147 27.9146 69.742 4.56439 6.52296 198.31 54.27954 3.891 1441.64 1441.61 1441.87 1440.01 1439.99 1440.2 0
2012/2013 022 24 -77.66415 166.02057 68.0 2012-11-29T03:54:25Z 2012-11-29 15:54:25 12 -1.748 -1.7494 34.6735 2.734441 27.344411 1028.2452 27.9142 27.9142 68.731 4.5712 6.5327 198.606 54.35782 3.891 1441.62 1441.59 1441.84 1440.01 1439.99 1440.2 0
2012/2013 022 24 -77.66415 166.02057 67.0 2012-11-29T03:54:28Z 2012-11-29 15:54:28 12 -1.7487 -1.7501 34.6732 2.734319 27.343187 1028.2401 27.914 27.914 67.72 4.58058 6.5461 199.013 54.46823 3.891 1441.6 1441.57 1441.82 1440.01 1439.99 1440.2 0
2012/2013 022 24 -77.66415 166.02057 66.0 2012-11-29T03:54:30Z 2012-11-29 15:54:30 12 -1.749 -1.7503 34.6728 2.734221 27.342206 1028.2349 27.9137 27.9137 66.709 4.58072 6.5463 199.02 54.4693 3.891 1441.58 1441.55 1441.8 1440.01 1439.99 1440.2 0
2012/2013 022 24 -77.66415 166.02057 65.0 2012-11-29T03:54:32Z 2012-11-29 15:54:32 12 -1.7476 -1.7489 34.672 2.734233 27.342331 1028.2294 27.9131 27.913 65.699 4.58764 6.5562 199.32 54.55335 3.891 1441.57 1441.54 1441.8 1440.01 1439.99 1440.2 0
2012/2013 022 24 -77.66415 166.02057 64.0 2012-11-29T03:54:35Z 2012-11-29 15:54:35 12 -1.747 -1.7483 34.6719 2.734231 27.34231 1028.2245 27.913 27.9129 64.688 4.58094 6.54662 199.029 54.47451 3.891 1441.55 1441.53 1441.78 1440.01 1439.99 1440.2 0
2012/2013 022 24 -77.66415 166.02057 63.0 2012-11-29T03:54:37Z 2012-11-29 15:54:37 12 -1.7462 -1.7475 34.6716 2.734226 27.342258 1028.2193 27.9127 27.9127 63.677 4.60036 6.57438 199.873 54.70652 3.891 1441.54 1441.51 1441.77 1440.01 1439.99 1440.2 0
2012/2013 022 24 -77.66415 166.02057 62.0 2012-11-29T03:54:39Z 2012-11-29 15:54:39 12 -1.7456 -1.7469 34.6714 2.734212 27.342125 1028.2142 27.9124 27.9124 62.666 4.59344 6.56448 199.573 54.62501 3.891 1441.53 1441.5 1441.75 1440.01 1439.99 1440.2 0
2012/2013 022 24 -77.66415 166.02057 61.0 2012-11-29T03:54:42Z 2012-11-29 15:54:42 12 -1.7458 -1.7471 34.6691 2.733986 27.339857 1028.2075 27.9106 27.9106 61.655 4.61421 6.59417 200.475 54.87079 3.891 1441.51 1441.48 1441.73 1440.01 1439.99 1440.2 0
2012/2013 022 24 -77.66415 166.02057 60.0 2012-11-29T03:54:44Z 2012-11-29 15:54:44 12 -1.7454 -1.7466 34.6664 2.733781 27.337813 1028.2004 27.9084 27.9084 60.644 4.60242 6.57732 199.963 54.73021 3.891 1441.49 1441.46 1441.71 1440.01 1439.99 1440.2 0
2012/2013 022 24 -77.66415 166.02057 59.0 2012-11-29T03:54:46Z 2012-11-29 15:54:46 12 -1.7487 -1.7499 34.6598 2.732987 27.329865 1028.1903 27.9031 27.9031 59.633 4.60597 6.58238 200.119 54.76492 3.891 1441.45 1441.42 1441.67 1440.01 1439.99 1440.2 0
2012/2013 022 24 -77.66415 166.02057 58.0 2012-11-29T03:54:49Z 2012-11-29 15:54:49 12 -1.761 -1.7622 34.6601 2.731925 27.319248 1028.186 27.9037 27.9037 58.622 4.63027 6.61713 201.175 55.03573 3.891 1441.37 1441.35 1441.6 1440.01 1439.99 1440.2 0
2012/2013 022 24 -77.66415 166.02057 57.0 2012-11-29T03:54:51Z 2012-11-29 15:54:51 12 -1.768 -1.7692 34.6591 2.731229 27.312286 1028.1806 27.9031 27.9031 57.611 4.6348 6.62359 201.371 55.07881 3.891 1441.32 1441.3 1441.55 1440.01 1439.99 1440.2 0
2012/2013 022 24 -77.66415 166.02057 56.0 2012-11-29T03:54:53Z 2012-11-29 15:54:53 12 -1.7686 -1.7697 34.6607 2.731245 27.312451 1028.1771 27.9044 27.9044 56.601 4.63199 6.61958 201.249 55.04513 3.891 1441.3 1441.28 1441.53 1440.01 1439.99 1440.2 0
2012/2013 022 24 -77.66415 166.02057 55.0 2012-11-29T03:54:56Z 2012-11-29 15:54:56 12 -1.7677 -1.7688 34.661 2.731296 27.312962 1028.1724 27.9047 27.9046 55.59 4.68412 6.69407 203.514 55.66609 3.891 1441.29 1441.27 1441.52 1440.01 1439.99 1440.2 0
2012/2013 022 24 -77.66415 166.02057 54.0 2012-11-29T03:54:58Z 2012-11-29 15:54:58 12 -1.7669 -1.7681 34.6611 2.731317 27.313164 1028.1676 27.9047 27.9046 54.579 4.65086 6.64655 202.069 55.27207 3.891 1441.28 1441.26 1441.51 1440.01 1439.99 1440.2 0
2012/2013 022 24 -77.66415 166.02057 53.0 2012-11-29T03:55:00Z 2012-11-29 15:55:00 12 -1.7665 -1.7676 34.6609 2.731297 27.312968 1028.1625 27.9045 27.9045 53.568 4.66143 6.66165 202.528 55.39831 3.891 1441.27 1441.24 1441.49 1440.01 1439.99 1440.2 0
2012/2013 022 24 -77.66415 166.02057 52.0 2012-11-29T03:55:03Z 2012-11-29 15:55:03 12 -1.7657 -1.7668 34.6614 2.731352 27.31352 1028.1581 27.9049 27.9049 52.557 4.70338 6.7216 204.35 55.89817 3.891 1441.25 1441.23 1441.48 1440.01 1439.99 1440.2 0
2012/2013 022 24 -77.66415 166.02057 51.0 2012-11-29T03:55:05Z 2012-11-29 15:55:05 12 -1.7659 -1.767 34.6601 2.731191 27.311909 1028.1522 27.9039 27.9038 51.546 4.67249 6.67746 203.009 55.53023 3.891 1441.23 1441.21 1441.46 1440.01 1439.99 1440.2 0
2012/2013 022 24 -77.66415 166.02057 50.0 2012-11-29T03:55:08Z 2012-11-29 15:55:08 12 -1.7715 -1.7725 34.6554 2.730343 27.303429 1028.1436 27.9002 27.9002 50.535 4.64874 6.64351 201.978 55.23786 3.891 1441.18 1441.16 1441.41 1440.01 1439.99 1440.2 0
2012/2013 022 24 -77.66415 166.02057 49.0 2012-11-29T03:55:10Z 2012-11-29 15:55:10 12 -1.7893 -1.7903 34.6526 2.72861 27.286097 1028.137 27.8984 27.8984 49.524 4.6731 6.67833 203.036 55.49955 3.891 1441.08 1441.06 1441.3 1440.01 1439.99 1440.2 0
2012/2013 022 24 -77.66415 166.02057 48.0 2012-11-29T03:55:13Z 2012-11-29 15:55:13 12 -1.7981 -1.7991 34.6538 2.727906 27.279061 1028.1334 27.8996 27.8996 48.514 4.68 6.68819 203.336 55.56867 3.891 1441.02 1441.0 1441.25 1440.01 1439.99 1440.2 0
2012/2013 022 24 -77.66415 166.02057 47.0 2012-11-29T03:55:15Z 2012-11-29 15:55:15 12 -1.801 -1.802 34.6543 2.72765 27.276505 1028.129 27.9001 27.9001 47.503 4.69183 6.70509 203.85 55.70491 3.891 1440.99 1440.97 1441.22 1440.01 1439.99 1440.2 0
2012/2013 022 24 -77.66415 166.02057 46.0 2012-11-29T03:55:18Z 2012-11-29 15:55:18 12 -1.7981 -1.7991 34.6537 2.727802 27.278023 1028.1235 27.8996 27.8995 46.492 4.65941 6.65876 202.441 55.32408 3.891 1440.99 1440.97 1441.21 1440.01 1439.99 1440.2 0
2012/2013 022 24 -77.66415 166.02057 45.0 2012-11-29T03:55:20Z 2012-11-29 15:55:20 12 -1.795 -1.7959 34.652 2.727898 27.278987 1028.1172 27.8981 27.8981 45.482 4.7039 6.72234 204.375 55.85638 3.891 1440.98 1440.97 1441.21 1440.01 1439.99 1440.2 0
2012/2013 022 24 -77.66415 166.02057 44.0 2012-11-29T03:55:23Z 2012-11-29 15:55:23 12 -1.7933 -1.7942 34.6511 2.727924 27.279242 1028.1116 27.8973 27.8972 44.47 4.68558 6.69617 203.579 55.64106 3.891 1440.97 1440.96 1441.2 1440.01 1439.99 1440.2 0
2012/2013 022 24 -77.66415 166.02057 43.0 2012-11-29T03:55:25Z 2012-11-29 15:55:25 12 -1.7921 -1.793 34.6501 2.727909 27.279084 1028.1059 27.8965 27.8965 43.46 4.69734 6.71297 204.09 55.78209 3.891 1440.96 1440.95 1441.19 1440.01 1439.99 1440.2 0
2012/2013 022 24 -77.66415 166.02057 42.0 2012-11-29T03:55:27Z 2012-11-29 15:55:27 12 -1.7905 -1.7914 34.6499 2.727984 27.27984 1028.1008 27.8963 27.8963 42.449 4.6968 6.71219 204.066 55.77798 3.891 1440.95 1440.94 1441.18 1440.01 1439.99 1440.2 0
2012/2013 022 24 -77.66415 166.02057 41.0 2012-11-29T03:55:30Z 2012-11-29 15:55:29 12 -1.7857 -1.7866 34.6492 2.728281 27.282809 1028.0952 27.8955 27.8955 41.438 4.70468 6.72346 204.409 55.87844 3.891 1440.96 1440.94 1441.18 1440.01 1439.99 1440.2 0
2012/2013 022 24 -77.66415 166.02057 40.0 2012-11-29T03:55:32Z 2012-11-29 15:55:32 12 -1.7802 -1.781 34.6471 2.728551 27.285515 1028.0884 27.8937 27.8936 40.427 4.73136 6.76159 205.568 56.20298 3.891 1440.97 1440.95 1441.19 1440.01 1439.99 1440.2 0
2012/2013 022 24 -77.66415 166.02057 39.0 2012-11-29T03:55:34Z 2012-11-29 15:55:34 12 -1.7755 -1.7763 34.6481 2.728965 27.289647 1028.0843 27.8943 27.8943 39.416 4.70401 6.7225 204.38 55.88556 3.891 1440.97 1440.96 1441.2 1440.01 1439.99 1440.2 0
2012/2013 022 24 -77.66415 166.02057 38.0 2012-11-29T03:55:36Z 2012-11-29 15:55:36 12 -1.7704 -1.7712 34.6461 2.7292 27.291998 1028.0776 27.8926 27.8925 38.406 4.7191 6.74406 205.036 56.07169 3.892 1440.98 1440.96 1441.2 1440.01 1439.99 1440.2 0
2012/2013 022 24 -77.66415 166.02057 37.0 2012-11-29T03:55:38Z 2012-11-29 15:55:38 12 -1.7625 -1.7632 34.6474 2.729911 27.299112 1028.0736 27.8934 27.8934 37.395 4.78142 6.83313 207.744 56.82492 3.892 1441.0 1440.99 1441.22 1440.01 1439.99 1440.2 0
2012/2013 022 24 -77.66415 166.02057 36.0 2012-11-29T03:55:41Z 2012-11-29 15:55:41 12 -1.7529 -1.7536 34.644 2.730425 27.304249 1028.0657 27.8904 27.8904 36.384 4.76529 6.81008 207.043 56.6464 3.892 1441.03 1441.01 1441.25 1440.01 1439.99 1440.2 0
2012/2013 022 24 -77.66415 166.02057 35.0 2012-11-29T03:55:43Z 2012-11-29 15:55:43 12 -1.7493 -1.75 34.6428 2.730591 27.305906 1028.0597 27.8893 27.8893 35.374 4.71664 6.74055 204.93 56.07308 3.892 1441.03 1441.01 1441.25 1440.01 1439.99 1440.2 0
2012/2013 022 24 -77.66415 166.02057 34.0 2012-11-29T03:55:45Z 2012-11-29 15:55:45 12 -1.7469 -1.7476 34.6433 2.730779 27.307789 1028.0551 27.8896 27.8896 34.363 4.73189 6.76235 205.592 56.25825 3.892 1441.02 1441.01 1441.24 1440.01 1439.99 1440.2 0
2012/2013 022 24 -77.66415 166.02057 33.0 2012-11-29T03:55:47Z 2012-11-29 15:55:47 12 -1.7396 -1.7403 34.6416 2.731219 27.312186 1028.0487 27.888 27.888 33.352 4.74106 6.77545 205.991 56.37759 3.892 1441.04 1441.02 1441.26 1440.01 1439.99 1440.2 0
2012/2013 022 24 -77.66415 166.02057 32.0 2012-11-29T03:55:51Z 2012-11-29 15:55:51 12 -1.7351 -1.7357 34.6394 2.7314 27.314006 1028.042 27.8862 27.8862 32.341 4.72894 6.75813 205.465 56.23955 3.892 1441.04 1441.03 1441.26 1440.01 1439.99 1440.2 0
2012/2013 022 24 -77.66415 166.02057 31.0 2012-11-29T03:55:53Z 2012-11-29 15:55:53 12 -1.7346 -1.7352 34.6396 2.731404 27.314036 1028.0372 27.8862 27.8862 31.331 4.74143 6.77597 206.007 56.38884 3.892 1441.03 1441.01 1441.24 1440.01 1439.99 1440.2 0
2012/2013 022 24 -77.66415 166.02057 30.0 2012-11-29T03:55:56Z 2012-11-29 15:55:56 12 -1.7334 -1.734 34.639 2.731413 27.314124 1028.0318 27.8857 27.8857 30.32 4.74552 6.78182 206.185 56.43907 3.892 1441.02 1441.0 1441.23 1440.01 1439.99 1440.2 0
2012/2013 022 24 -77.66415 166.02057 29.0 2012-11-29T03:55:58Z 2012-11-29 15:55:58 12 -1.7321 -1.7327 34.6384 2.731429 27.314284 1028.0264 27.8852 27.8852 29.309 4.73982 6.77368 205.938 56.37302 3.892 1441.01 1440.99 1441.22 1440.01 1439.99 1440.2 0
2012/2013 022 24 -77.66415 166.02057 28.0 2012-11-29T03:56:01Z 2012-11-29 15:56:01 12 -1.73 -1.7306 34.6378 2.731515 27.31515 1028.021 27.8847 27.8846 28.298 4.74988 6.78806 206.375 56.49562 3.892 1441.0 1440.98 1441.21 1440.01 1439.99 1440.2 0
2012/2013 022 24 -77.66415 166.02057 27.0 2012-11-29T03:56:03Z 2012-11-29 15:56:03 12 -1.7286 -1.7292 34.6374 2.73156 27.315599 1028.0158 27.8844 27.8843 27.288 4.78058 6.83192 207.709 56.86268 3.892 1440.99 1440.97 1441.2 1440.01 1439.99 1440.2 0
2012/2013 022 24 -77.66415 166.02057 26.0 2012-11-29T03:56:06Z 2012-11-29 15:56:06 12 -1.7271 -1.7276 34.6371 2.731618 27.316183 1028.0106 27.8841 27.884 26.277 4.76192 6.80526 206.898 56.64298 3.892 1440.98 1440.97 1441.19 1440.01 1439.99 1440.2 0
2012/2013 022 24 -77.66415 166.02057 25.0 2012-11-29T03:56:08Z 2012-11-29 15:56:08 12 -1.7265 -1.727 34.637 2.731614 27.31614 1028.0057 27.8839 27.8839 25.266 4.77166 6.81918 207.321 56.75968 3.891 1440.96 1440.95 1441.18 1440.01 1439.99 1440.2 0
2012/2013 022 24 -77.66415 166.02057 24.0 2012-11-29T03:56:10Z 2012-11-29 15:56:10 12 -1.7237 -1.7242 34.6368 2.731783 27.317828 1028.0005 27.8836 27.8836 24.256 4.7678 6.81366 207.153 56.71793 3.892 1440.96 1440.95 1441.18 1440.01 1439.99 1440.2 0
2012/2013 022 24 -77.66415 166.02057 23.0 2012-11-29T03:56:12Z 2012-11-29 15:56:12 12 -1.7181 -1.7185 34.6331 2.731952 27.319521 1027.9925 27.8806 27.8806 23.245 4.77466 6.82347 207.452 56.80682 3.892 1440.97 1440.95 1441.18 1440.01 1439.99 1440.2 0
2012/2013 022 24 -77.66415 166.02057 22.0 2012-11-29T03:56:14Z 2012-11-29 15:56:14 12 -1.7148 -1.7153 34.6306 2.731993 27.319928 1027.9855 27.8784 27.8784 22.234 4.79931 6.85869 208.524 57.10396 3.891 1440.96 1440.95 1441.18 1440.01 1439.99 1440.2 0
2012/2013 022 24 -77.66415 166.02057 21.0 2012-11-29T03:56:17Z 2012-11-29 15:56:17 12 -1.7144 -1.7148 34.6298 2.731922 27.319221 1027.98 27.8777 27.8777 21.223 4.76981 6.81653 207.242 56.75328 3.892 1440.95 1440.94 1441.16 1440.01 1439.99 1440.2 0
2012/2013 022 24 -77.66415 166.02057 20.0 2012-11-29T03:56:19Z 2012-11-29 15:56:19 12 -1.7144 -1.7148 34.6295 2.731854 27.31854 1027.9749 27.8775 27.8775 20.213 4.79539 6.85309 208.354 57.05755 3.891 1440.93 1440.92 1441.14 1440.01 1439.99 1440.2 0
2012/2013 022 24 -77.66415 166.02057 19.0 2012-11-29T03:56:22Z 2012-11-29 15:56:21 12 -1.7147 -1.7151 34.6292 2.731766 27.317658 1027.9698 27.8773 27.8773 19.202 4.81653 6.8833 209.272 57.30858 3.892 1440.91 1440.9 1441.13 1440.01 1439.99 1440.2 0
2012/2013 022 24 -77.66415 166.02057 18.0 2012-11-29T03:56:24Z 2012-11-29 15:56:24 12 -1.7151 -1.7155 34.6289 2.731662 27.316623 1027.9647 27.877 27.877 18.191 4.81961 6.88771 209.406 57.34448 3.892 1440.89 1440.88 1441.11 1440.01 1439.99 1440.2 0
2012/2013 022 24 -77.66415 166.02057 17.0 2012-11-29T03:56:26Z 2012-11-29 15:56:26 12 -1.7151 -1.7155 34.6289 2.731609 27.316091 1027.9598 27.877 27.877 17.181 4.79989 6.85952 208.549 57.10974 3.891 1440.88 1440.87 1441.09 1440.01 1439.99 1440.2 0
2012/2013 022 24 -77.66415 166.02057 16.0 2012-11-29T03:56:28Z 2012-11-29 15:56:28 12 -1.7152 -1.7156 34.6285 2.731527 27.31527 1027.9546 27.8767 27.8767 16.17 4.82457 6.8948 209.622 57.40311 3.891 1440.86 1440.85 1441.07 1440.01 1439.99 1440.2 0
2012/2013 022 24 -77.66415 166.02057 15.0 2012-11-29T03:56:30Z 2012-11-29 15:56:30 12 -1.7154 -1.7157 34.6285 2.731463 27.314632 1027.9497 27.8767 27.8767 15.159 4.83384 6.90804 210.025 57.51312 3.892 1440.84 1440.83 1441.05 1440.01 1439.99 1440.2 0
2012/2013 022 24 -77.66415 166.02057 14.0 2012-11-29T03:56:33Z 2012-11-29 15:56:33 12 -1.7155 -1.7158 34.6284 2.731396 27.313961 1027.9447 27.8766 27.8766 14.149 4.82922 6.90144 209.824 57.4579 3.892 1440.83 1440.81 1441.04 1440.01 1439.99 1440.2 0
2012/2013 022 24 -77.66415 166.02057 13.0 2012-11-29T03:56:35Z 2012-11-29 15:56:35 12 -1.7158 -1.716 34.6281 2.73131 27.313107 1027.9397 27.8764 27.8764 13.138 4.84637 6.92595 210.569 57.66147 3.892 1440.81 1440.8 1441.02 1440.01 1439.99 1440.2 0
2012/2013 022 24 -77.66415 166.02057 12.0 2012-11-29T03:56:37Z 2012-11-29 15:56:37 12 -1.7186 -1.7188 34.626 2.730877 27.30877 1027.9332 27.8747 27.8747 12.127 4.85407 6.93695 210.904 57.74783 3.892 1440.78 1440.77 1440.99 1440.01 1439.99 1440.2 0
2012/2013 022 24 -77.66415 166.02057 11.0 2012-11-29T03:56:39Z 2012-11-29 15:56:39 12 -1.7224 -1.7227 34.6264 2.730537 27.305376 1027.9288 27.8752 27.8752 11.117 4.83088 6.90382 209.896 57.46615 3.892 1440.74 1440.73 1440.95 1440.01 1439.99 1440.2 0
2012/2013 022 24 -77.66415 166.02057 10.0 2012-11-29T03:56:41Z 2012-11-29 15:56:41 12 -1.7232 -1.7234 34.6275 2.730507 27.305072 1027.9248 27.8761 27.8761 10.106 4.86031 6.94587 211.175 57.81549 3.891 1440.72 1440.71 1440.93 1440.01 1439.99 1440.2 0
2012/2013 022 24 -77.66415 166.02057 9.0 2012-11-29T03:56:43Z 2012-11-29 15:56:43 12 -1.7241 -1.7243 34.6256 2.730249 27.302486 1027.9184 27.8746 27.8746 9.095 4.89176 6.99081 212.541 58.18742 3.892 1440.7 1440.69 1440.91 1440.01 1439.99 1440.2 0
2012/2013 022 24 -77.66415 166.02057 8.0 2012-11-29T03:56:45Z 2012-11-29 15:56:45 12 -1.728 -1.7281 34.6256 2.729877 27.298767 1027.9137 27.8747 27.8747 8.085 4.89701 6.99832 212.77 58.24378 3.892 1440.66 1440.66 1440.87 1440.01 1439.99 1440.2 0
2012/2013 022 24 -77.66415 166.02057 7.0 2012-11-29T03:56:47Z 2012-11-29 15:56:47 12 -1.7299 -1.73 34.6252 2.729638 27.296379 1027.9085 27.8744 27.8744 7.074 4.88544 6.98178 212.267 58.10296 3.892 1440.64 1440.63 1440.85 1440.01 1439.99 1440.2 0
2012/2013 022 24 -77.66415 166.02057 6.0 2012-11-29T03:56:50Z 2012-11-29 15:56:50 12 -1.7337 -1.7338 34.6232 2.729132 27.291322 1027.9022 27.873 27.873 6.064 4.89119 6.99 212.517 58.16448 3.892 1440.6 1440.59 1440.81 1440.01 1439.99 1440.2 0
2012/2013 022 24 -77.66415 166.02057 5.0 2012-11-29T03:56:52Z 2012-11-29 15:56:52 12 -1.7387 -1.7388 34.6211 2.728515 27.28515 1027.8957 27.8713 27.8713 5.053 4.92021 7.03148 213.778 58.50089 3.892 1440.56 1440.55 1440.77 1440.01 1439.99 1440.2 0
2012/2013 022 24 -77.66415 166.02057 4.0 2012-11-29T03:56:54Z 2012-11-29 15:56:54 12 -1.7451 -1.7452 34.6182 2.727728 27.277282 1027.8887 27.8692 27.8692 4.042 5.05645 7.22617 219.698 60.10915 3.892 1440.51 1440.5 1440.72 1440.01 1439.99 1440.2 0
2012/2013 022 24 -77.66415 166.02057 3.0 2012-11-29T03:56:56Z 2012-11-29 15:56:56 12 -1.75 -1.75 34.6173 2.727205 27.272045 1027.8832 27.8686 27.8686 3.032 5.22398 7.46559 226.978 62.0921 3.891 1440.47 1440.46 1440.68 1440.01 1439.99 1440.2 0
2012/2013 022 24 -77.66415 166.02057 2.0 2012-11-29T03:56:57Z 2012-11-29 15:56:57 12 -1.7578 -1.7579 34.6112 2.726071 27.260713 1027.8736 27.8638 27.8638 2.021 6.14961 8.78841 267.197 73.07552 3.891 1440.41 1440.4 1440.62 1440.01 1439.99 1440.2 0
2012/2013 022 24 -77.66415 166.02057 1.0 2012-11-29T03:56:59Z 2012-11-29 15:56:59 12 -1.7833 -1.7833 34.5608 2.720289 27.202885 1027.8284 27.8236 27.8236 1.011 4.6341 6.62259 201.357 55.00797 3.891 1440.2 1440.19 1440.41 1440.01 1439.99 1440.2 0
2012/2013 023 25 -77.67217 166.04262 2.0 2012-12-01T00:20:09Z 2012-12-01 12:20:09 12 -1.7665 -1.7665 34.6054 2.72493 27.249302 1027.8691 27.8594 27.8594 2.022 4.87675 6.96937 211.893 57.93431 3.918 1440.35 1440.35 1440.56 1432.35 1432.35 1432.31 0
2012/2013 023 25 -77.67217 166.04262 3.0 2012-12-01T00:21:50Z 2012-12-01 12:21:50 12 -1.7675 -1.7676 34.6066 2.724978 27.249784 1027.875 27.8604 27.8604 3.032 5.46519 7.81031 237.46 64.92353 3.915 1440.37 1440.36 1440.58 1432.35 1432.35 1432.31 0
2012/2013 023 25 -77.67217 166.04262 4.0 2012-12-01T00:21:52Z 2012-12-01 12:21:52 12 -1.7655 -1.7655 34.6048 2.725065 27.250646 1027.8783 27.8588 27.8588 4.042 5.23909 7.48718 227.636 62.24015 3.915 1440.39 1440.39 1440.6 1432.35 1432.35 1432.31 0
2012/2013 023 25 -77.67217 166.04262 5.0 2012-12-01T00:21:59Z 2012-12-01 12:21:59 12 -1.7576 -1.7577 34.6099 2.726138 27.261379 1027.8871 27.8628 27.8628 5.053 5.27223 7.53455 229.075 62.64948 3.915 1440.45 1440.45 1440.66 1432.35 1432.35 1432.31 0
2012/2013 023 25 -77.67217 166.04262 6.0 2012-12-01T00:22:02Z 2012-12-01 12:22:02 12 -1.7515 -1.7516 34.6124 2.726875 27.268746 1027.8939 27.8647 27.8647 6.064 5.27909 7.54435 229.373 62.74246 3.915 1440.5 1440.49 1440.71 1432.35 1432.35 1432.31 0
2012/2013 023 25 -77.67217 166.04262 7.0 2012-12-01T00:22:05Z 2012-12-01 12:22:05 12 -1.7427 -1.7429 34.6168 2.727961 27.279607 1027.902 27.8679 27.8679 7.074 5.30663 7.58371 230.569 63.08663 3.915 1440.56 1440.56 1440.78 1432.35 1432.35 1432.31 0
2012/2013 023 25 -77.67217 166.04262 8.0 2012-12-01T00:22:07Z 2012-12-01 12:22:07 12 -1.7326 -1.7328 34.6161 2.728802 27.288017 1027.906 27.8671 27.8671 8.085 5.30285 7.5783 230.404 63.05843 3.915 1440.63 1440.62 1440.84 1432.35 1432.35 1432.31 0
2012/2013 023 25 -77.67217 166.04262 9.0 2012-12-01T00:22:14Z 2012-12-01 12:22:14 12 -1.7273 -1.7275 34.617 2.729358 27.293584 1027.9115 27.8677 27.8677 9.096 5.31236 7.59189 230.817 63.18095 3.915 1440.67 1440.66 1440.88 1432.35 1432.35 1432.31 0
2012/2013 023 25 -77.67217 166.04262 10.0 2012-12-01T00:22:24Z 2012-12-01 12:22:24 12 -1.7169 -1.7171 34.6205 2.730533 27.305327 1027.9189 27.8703 27.8702 10.106 5.32853 7.61501 231.52 63.3928 3.914 1440.74 1440.73 1440.95 1432.35 1432.35 1432.31 0
2012/2013 023 25 -77.67217 166.04262 11.0 2012-12-01T00:22:35Z 2012-12-01 12:22:35 12 -1.7101 -1.7104 34.6189 2.731028 27.310278 1027.9223 27.8687 27.8687 11.117 5.36047 7.66065 232.908 63.78361 3.914 1440.79 1440.78 1441.0 1432.35 1432.35 1432.31 0
2012/2013 023 25 -77.67217 166.04262 12.0 2012-12-01T00:22:37Z 2012-12-01 12:22:37 12 -1.7113 -1.7115 34.6201 2.731067 27.31067 1027.9281 27.8697 27.8697 12.127 5.36553 7.66788 233.128 63.84248 3.914 1440.8 1440.79 1441.01 1432.35 1432.35 1432.31 0
2012/2013 023 25 -77.67217 166.04262 13.0 2012-12-01T00:22:39Z 2012-12-01 12:22:39 12 -1.7081 -1.7083 34.6237 2.73164 27.316398 1027.9359 27.8726 27.8726 13.138 5.37527 7.6818 233.55 63.96553 3.915 1440.84 1440.83 1441.05 1432.35 1432.35 1432.31 0
2012/2013 023 25 -77.67217 166.04262 14.0 2012-12-01T00:22:41Z 2012-12-01 12:22:41 12 -1.7008 -1.7011 34.6214 2.732131 27.321308 1027.9387 27.8705 27.8705 14.149 5.39891 7.71558 234.578 64.25833 3.914 1440.89 1440.88 1441.1 1432.35 1432.35 1432.31 0
2012/2013 023 25 -77.67217 166.04262 15.0 2012-12-01T00:22:43Z 2012-12-01 12:22:43 12 -1.7025 -1.7029 34.6206 2.731974 27.319742 1027.9429 27.8699 27.8699 15.159 5.41262 7.73518 235.173 64.41815 3.914 1440.89 1440.88 1441.1 1432.35 1432.35 1432.31 0
2012/2013 023 25 -77.67217 166.04262 16.0 2012-12-01T00:22:45Z 2012-12-01 12:22:45 12 -1.6997 -1.7 34.6226 2.732406 27.324063 1027.9493 27.8715 27.8715 16.17 5.37267 7.67808 233.437 63.94852 3.914 1440.93 1440.92 1441.14 1432.35 1432.35 1432.31 0
2012/2013 023 25 -77.67217 166.04262 17.0 2012-12-01T00:22:47Z 2012-12-01 12:22:47 12 -1.6977 -1.698 34.6235 2.73268 27.326794 1027.9548 27.8721 27.8721 17.181 5.41464 7.73806 235.261 64.45193 3.914 1440.95 1440.94 1441.16 1432.35 1432.35 1432.31 0
2012/2013 023 25 -77.67217 166.04262 18.0 2012-12-01T00:22:49Z 2012-12-01 12:22:49 12 -1.6929 -1.6934 34.6282 2.733463 27.334626 1027.9635 27.8758 27.8758 18.191 5.41547 7.73925 235.296 64.47218 3.914 1441.0 1440.99 1441.21 1432.35 1432.35 1432.31 0
2012/2013 023 25 -77.67217 166.04262 19.0 2012-12-01T00:22:51Z 2012-12-01 12:22:51 12 -1.6809 -1.6813 34.6292 2.734591 27.345909 1027.9688 27.8763 27.8763 19.202 5.43998 7.77427 236.361 64.78548 3.914 1441.07 1441.06 1441.29 1432.35 1432.35 1432.31 0
2012/2013 023 25 -77.67217 166.04262 20.0 2012-12-01T00:22:53Z 2012-12-01 12:22:53 12 -1.6721 -1.6725 34.6325 2.735611 27.356107 1027.976 27.8787 27.8787 20.213 5.44135 7.77624 236.42 64.81872 3.914 1441.14 1441.12 1441.35 1435.16 1435.15 1435.2 0
2012/2013 023 25 -77.67217 166.04262 21.0 2012-12-01T00:22:55Z 2012-12-01 12:22:55 12 -1.6519 -1.6524 34.639 2.737814 27.37814 1027.9856 27.8834 27.8834 21.224 5.43306 7.76439 236.059 64.75816 3.914 1441.26 1441.24 1441.47 1436.8 1436.79 1436.89 0
2012/2013 023 25 -77.67217 166.04262 22.0 2012-12-01T00:22:57Z 2012-12-01 12:22:57 12 -1.6429 -1.6434 34.6345 2.738289 27.382892 1027.9865 27.8794 27.8794 22.234 5.44806 7.78581 236.711 64.95048 3.914 1441.31 1441.3 1441.52 1436.74 1436.73 1436.83 0
2012/2013 023 25 -77.67217 166.04262 23.0 2012-12-01T00:22:59Z 2012-12-01 12:22:59 12 -1.6437 -1.6442 34.6339 2.738223 27.382233 1027.9909 27.879 27.879 23.245 5.46248 7.80642 237.338 65.12068 3.914 1441.32 1441.31 1441.53 1436.74 1436.73 1436.83 0
2012/2013 023 25 -77.67217 166.04262 24.0 2012-12-01T00:23:01Z 2012-12-01 12:23:01 12 -1.6498 -1.6504 34.6335 2.737729 27.377293 1027.9956 27.8788 27.8788 24.255 5.43292 7.76419 236.053 64.75756 3.914 1441.31 1441.3 1441.52 1436.74 1436.73 1436.83 0
2012/2013 023 25 -77.67217 166.04262 25.0 2012-12-01T00:23:03Z 2012-12-01 12:23:03 12 -1.6607 -1.6612 34.6371 2.73713 27.371305 1028.0038 27.8821 27.8821 25.266 5.46465 7.80953 237.431 65.11834 3.914 1441.28 1441.26 1441.49 1436.74 1436.73 1436.83 0
2012/2013 023 25 -77.67217 166.04262 26.0 2012-12-01T00:23:05Z 2012-12-01 12:23:05 12 -1.6618 -1.6623 34.6409 2.737358 27.373579 1028.0117 27.8852 27.8852 26.277 5.43914 7.77308 236.322 64.81426 3.913 1441.3 1441.28 1441.51 1436.74 1436.73 1436.83 0
2012/2013 023 25 -77.67217 166.04262 27.0 2012-12-01T00:23:07Z 2012-12-01 12:23:07 12 -1.6613 -1.6619 34.6406 2.737416 27.374158 1028.0163 27.8849 27.8849 27.287 5.45034 7.78908 236.809 64.94832 3.914 1441.31 1441.3 1441.53 1436.74 1436.73 1436.83 0
2012/2013 023 25 -77.67217 166.04262 28.0 2012-12-01T00:23:09Z 2012-12-01 12:23:09 12 -1.6616 -1.6622 34.6408 2.737459 27.374589 1028.0214 27.8851 27.8851 28.299 5.4542 7.7946 236.977 64.99395 3.913 1441.33 1441.31 1441.54 1436.74 1436.73 1436.83 0
2012/2013 023 25 -77.67217 166.04262 29.0 2012-12-01T00:23:12Z 2012-12-01 12:23:12 12 -1.6626 -1.6632 34.6405 2.737407 27.374075 1028.0261 27.8849 27.8849 29.309 5.45306 7.79297 236.927 64.9786 3.913 1441.34 1441.33 1441.55 1436.74 1436.73 1436.83 0
2012/2013 023 25 -77.67217 166.04262 30.0 2012-12-01T00:23:14Z 2012-12-01 12:23:14 12 -1.6705 -1.6711 34.636 2.736464 27.364639 1028.0274 27.8814 27.8814 30.319 5.46206 7.80582 237.319 65.0698 3.913 1441.31 1441.3 1441.53 1436.74 1436.73 1436.83 0
2012/2013 023 25 -77.67217 166.04262 31.0 2012-12-01T00:23:16Z 2012-12-01 12:23:16 12 -1.6923 -1.6929 34.6387 2.734884 27.348842 1028.0352 27.8844 27.8843 31.331 5.41411 7.73731 235.235 64.46209 3.912 1441.23 1441.21 1441.45 1436.74 1436.73 1436.83 0
2012/2013 023 25 -77.67217 166.04262 32.0 2012-12-01T00:23:19Z 2012-12-01 12:23:19 12 -1.6969 -1.6975 34.6408 2.734698 27.34698 1028.042 27.8862 27.8862 32.341 5.41531 7.73901 235.286 64.46926 3.912 1441.23 1441.21 1441.44 1436.74 1436.73 1436.83 0
2012/2013 023 25 -77.67217 166.04262 33.0 2012-12-01T00:23:21Z 2012-12-01 12:23:21 12 -1.7121 -1.7127 34.6449 2.733765 27.337648 1028.0506 27.8899 27.8899 33.352 5.42262 7.74947 235.603 64.53178 3.912 1441.18 1441.16 1441.39 1436.74 1436.73 1436.83 0
2012/2013 023 25 -77.67217 166.04262 34.0 2012-12-01T00:23:23Z 2012-12-01 12:23:23 12 -1.6953 -1.696 34.6477 2.735411 27.354114 1028.0572 27.8917 27.8917 34.363 5.42746 7.75638 235.813 64.61983 3.912 1441.28 1441.26 1441.49 1436.74 1436.73 1436.83 0
2012/2013 023 25 -77.67217 166.04262 35.0 2012-12-01T00:23:26Z 2012-12-01 12:23:26 12 -1.6851 -1.6858 34.6493 2.73643 27.364301 1028.0631 27.8927 27.8927 35.373 5.48331 7.83619 238.239 65.30343 3.912 1441.34 1441.33 1441.56 1436.74 1436.73 1436.83 0
2012/2013 023 25 -77.67217 166.04262 36.0 2012-12-01T00:23:28Z 2012-12-01 12:23:28 12 -1.6882 -1.689 34.643 2.735766 27.357656 1028.0629 27.8877 27.8877 36.385 5.50115 7.8617 239.016 65.50754 3.912 1441.34 1441.32 1441.55 1436.74 1436.73 1436.83 0
2012/2013 023 25 -77.67217 166.04262 37.0 2012-12-01T00:23:30Z 2012-12-01 12:23:30 12 -1.7145 -1.7152 34.6409 2.733465 27.334654 1028.0669 27.8868 27.8868 37.395 5.4534 7.79345 236.941 64.89199 3.911 1441.23 1441.21 1441.44 1436.74 1436.73 1436.83 0
2012/2013 023 25 -77.67217 166.04262 38.0 2012-12-01T00:23:32Z 2012-12-01 12:23:32 12 -1.7363 -1.737 34.6514 2.732439 27.32439 1028.0809 27.896 27.8959 38.406 5.07303 7.24987 220.413 60.33506 3.911 1441.15 1441.13 1441.37 1436.74 1436.73 1436.83 0
2012/2013 023 25 -77.67217 166.04262 39.0 2012-12-01T00:23:34Z 2012-12-01 12:23:34 12 -1.7391 -1.7399 34.6574 2.732675 27.326749 1028.0907 27.9009 27.9008 39.417 4.50335 6.43574 195.661 53.55764 3.911 1441.16 1441.14 1441.38 1436.74 1436.73 1436.83 0
2012/2013 023 25 -77.67217 166.04262 40.0 2012-12-01T00:23:36Z 2012-12-01 12:23:36 12 -1.7354 -1.7362 34.6572 2.733021 27.330209 1028.0953 27.9006 27.9006 40.427 4.55588 6.51081 197.943 54.18784 3.911 1441.2 1441.18 1441.42 1436.74 1436.73 1436.83 0
2012/2013 023 25 -77.67217 166.04262 41.0 2012-12-01T00:23:39Z 2012-12-01 12:23:39 12 -1.7386 -1.7394 34.6577 2.732833 27.328333 1028.1007 27.9011 27.9011 41.438 4.59692 6.56946 199.726 54.67143 3.91 1441.2 1441.18 1441.42 1436.74 1436.73 1436.83 0
2012/2013 023 25 -77.67217 166.04262 42.0 2012-12-01T00:23:41Z 2012-12-01 12:23:41 12 -1.7586 -1.7595 34.6608 2.731433 27.314327 1028.1087 27.9042 27.9042 42.449 4.50961 6.44469 195.932 53.60536 3.91 1441.12 1441.1 1441.34 1436.74 1436.73 1436.83 0
2012/2013 023 25 -77.67217 166.04262 43.0 2012-12-01T00:23:43Z 2012-12-01 12:23:43 12 -1.766 -1.7669 34.6631 2.73102 27.310197 1028.1156 27.9063 27.9062 43.46 4.44276 6.34916 193.027 52.80102 3.91 1441.11 1441.09 1441.33 1436.74 1436.73 1436.83 0
2012/2013 023 25 -77.67217 166.04262 44.0 2012-12-01T00:23:46Z 2012-12-01 12:23:46 12 -1.7719 -1.7728 34.6585 2.730252 27.302522 1028.117 27.9027 27.9027 44.47 4.43674 6.34055 192.766 52.71885 3.91 1441.09 1441.07 1441.31 1436.74 1436.73 1436.83 0
2012/2013 023 25 -77.67217 166.04262 45.0 2012-12-01T00:23:48Z 2012-12-01 12:23:48 12 -1.7811 -1.782 34.6541 2.72921 27.2921 1028.1185 27.8994 27.8993 45.482 6.4484 9.2154 280.169 76.60165 3.91 1441.06 1441.04 1441.28 1436.74 1436.73 1436.83 0
2012/2013 023 25 -77.67217 166.04262 46.0 2012-12-01T00:23:51Z 2012-12-01 12:23:51 12 -1.8036 -1.8045 34.6517 2.727201 27.27201 1028.1221 27.8981 27.8981 46.493 5.36778 7.67109 233.219 63.72474 3.909 1440.96 1440.94 1441.18 1436.74 1436.73 1436.83 0
2012/2013 023 25 -77.67217 166.04262 47.0 2012-12-01T00:23:53Z 2012-12-01 12:23:53 12 -1.8148 -1.8157 34.6552 2.726565 27.265647 1028.1301 27.9012 27.9012 47.503 5.1944 7.42331 225.685 61.64918 3.909 1440.93 1440.91 1441.15 1438.17 1438.16 1438.3 0
2012/2013 023 25 -77.67217 166.04262 48.0 2012-12-01T00:23:55Z 2012-12-01 12:23:55 12 -1.818 -1.8189 34.6571 2.726482 27.264819 1028.1367 27.9029 27.9029 48.514 5.35307 7.65007 232.579 63.52791 3.909 1440.93 1440.91 1441.16 1439.28 1439.26 1439.44 0
2012/2013 023 25 -77.67217 166.04262 49.0 2012-12-01T00:23:57Z 2012-12-01 12:23:57 12 -1.8213 -1.8222 34.6566 2.726212 27.262123 1028.1411 27.9025 27.9025 49.525 5.31618 7.59735 230.976 63.08416 3.909 1440.93 1440.91 1441.16 1439.21 1439.19 1439.37 0
2012/2013 023 25 -77.67217 166.04262 50.0 2012-12-01T00:23:59Z 2012-12-01 12:23:59 12 -1.831 -1.832 34.6541 2.725269 27.252688 1028.1443 27.9008 27.9008 50.535 5.32835 7.61474 231.505 63.21086 3.909 1440.9 1440.88 1441.13 1439.21 1439.19 1439.37 0
2012/2013 023 25 -77.67217 166.04262 51.0 2012-12-01T00:24:01Z 2012-12-01 12:24:01 12 -1.8396 -1.8406 34.6602 2.725035 27.250356 1028.1544 27.906 27.9059 51.546 5.18039 7.4033 225.075 61.4441 3.909 1440.88 1440.86 1441.11 1439.21 1439.19 1439.37 0
2012/2013 023 25 -77.67217 166.04262 52.0 2012-12-01T00:24:04Z 2012-12-01 12:24:04 12 -1.84 -1.841 34.661 2.725101 27.25101 1028.1599 27.9066 27.9066 52.557 5.33806 7.62862 231.926 63.31377 3.909 1440.9 1440.88 1441.13 1439.21 1439.19 1439.37 0
2012/2013 023 25 -77.67217 166.04262 53.0 2012-12-01T00:24:06Z 2012-12-01 12:24:06 12 -1.8399 -1.841 34.6608 2.725143 27.251428 1028.1646 27.9065 27.9065 53.568 5.30656 7.58361 230.557 62.94021 3.908 1440.91 1440.89 1441.14 1439.21 1439.19 1439.37 0
2012/2013 023 25 -77.67217 166.04262 54.0 2012-12-01T00:24:09Z 2012-12-01 12:24:09 12 -1.8401 -1.8411 34.6607 2.725172 27.251722 1028.1694 27.9064 27.9064 54.579 5.29357 7.56503 229.992 62.78585 3.908 1440.93 1440.91 1441.16 1439.21 1439.19 1439.37 0
2012/2013 023 25 -77.67217 166.04262 55.0 2012-12-01T00:24:11Z 2012-12-01 12:24:11 12 -1.8408 -1.8419 34.6608 2.725167 27.251669 1028.1744 27.9065 27.9065 55.59 5.32843 7.61486 231.507 63.19815 3.908 1440.94 1440.92 1441.17 1439.21 1439.19 1439.37 0
2012/2013 023 25 -77.67217 166.04262 56.0 2012-12-01T00:24:14Z 2012-12-01 12:24:14 12 -1.8447 -1.8458 34.6624 2.725003 27.250028 1028.1807 27.9079 27.9079 56.6 5.30214 7.57729 230.365 62.88044 3.908 1440.94 1440.92 1441.17 1439.21 1439.19 1439.37 0
2012/2013 023 25 -77.67217 166.04262 57.0 2012-12-01T00:24:16Z 2012-12-01 12:24:16 12 -1.8482 -1.8493 34.6642 2.724879 27.248786 1028.1871 27.9094 27.9094 57.611 5.19372 7.42234 225.654 61.58952 3.909 1440.94 1440.92 1441.17 1439.21 1439.19 1439.37 0
2012/2013 023 25 -77.67217 166.04262 58.0 2012-12-01T00:24:19Z 2012-12-01 12:24:19 12 -1.8496 -1.8508 34.6643 2.72482 27.248203 1028.1921 27.9096 27.9096 58.622 5.39064 7.70376 234.209 63.92234 3.908 1440.95 1440.93 1441.18 1439.21 1439.19 1439.37 0
2012/2013 023 25 -77.67217 166.04262 59.0 2012-12-01T00:24:21Z 2012-12-01 12:24:21 12 -1.8503 -1.8515 34.6648 2.724845 27.248451 1028.1974 27.91 27.91 59.633 5.33113 7.61872 231.624 63.21578 3.909 1440.97 1440.95 1441.2 1439.21 1439.19 1439.37 0
2012/2013 023 25 -77.67217 166.04262 60.0 2012-12-01T00:24:24Z 2012-12-01 12:24:24 12 -1.8503 -1.8515 34.6648 2.724886 27.248858 1028.2022 27.91 27.91 60.644 5.31388 7.59407 230.874 63.01112 3.908 1440.98 1440.96 1441.22 1439.21 1439.19 1439.37 0
2012/2013 023 25 -77.67217 166.04262 61.0 2012-12-01T00:24:26Z 2012-12-01 12:24:26 12 -1.8503 -1.8515 34.6654 2.724978 27.249781 1028.2076 27.9105 27.9104 61.655 5.31807 7.60005 231.056 63.06111 3.908 1441.0 1440.98 1441.23 1439.21 1439.19 1439.37 0
2012/2013 023 25 -77.67217 166.04262 62.0 2012-12-01T00:24:29Z 2012-12-01 12:24:29 12 -1.8492 -1.8504 34.6663 2.725182 27.251819 1028.2132 27.9112 27.9112 62.666 5.36446 7.66634 233.071 63.61345 3.908 1441.02 1441.0 1441.26 1439.21 1439.19 1439.37 0
2012/2013 023 25 -77.67217 166.04262 63.0 2012-12-01T00:24:31Z 2012-12-01 12:24:31 12 -1.8485 -1.8498 34.6667 2.72532 27.2532 1028.2184 27.9115 27.9115 63.676 5.32198 7.60564 231.226 63.11118 3.908 1441.04 1441.02 1441.28 1439.21 1439.19 1439.37 0
2012/2013 023 25 -77.67217 166.04262 64.0 2012-12-01T00:24:34Z 2012-12-01 12:24:34 12 -1.848 -1.8493 34.6665 2.725393 27.253927 1028.223 27.9113 27.9113 64.688 5.36185 7.66262 232.958 63.58471 3.908 1441.06 1441.04 1441.3 1439.21 1439.19 1439.37 0
2012/2013 023 25 -77.67217 166.04262 65.0 2012-12-01T00:24:36Z 2012-12-01 12:24:36 12 -1.8484 -1.8497 34.6664 2.725399 27.253992 1028.2278 27.9112 27.9112 65.699 5.38922 7.70174 234.147 63.90864 3.908 1441.08 1441.05 1441.31 1439.21 1439.19 1439.37 0
2012/2013 023 25 -77.67217 166.04262 66.0 2012-12-01T00:24:38Z 2012-12-01 12:24:38 12 -1.8484 -1.8497 34.6664 2.725447 27.254475 1028.2327 27.9113 27.9112 66.709 5.33807 7.62864 231.925 63.30206 3.908 1441.09 1441.07 1441.33 1439.21 1439.19 1439.37 0
2012/2013 023 25 -77.67217 166.04262 67.0 2012-12-01T00:24:41Z 2012-12-01 12:24:41 12 -1.8483 -1.8497 34.6664 2.725499 27.254993 1028.2376 27.9113 27.9113 67.72 5.34053 7.63216 232.032 63.33134 3.907 1441.11 1441.08 1441.34 1439.21 1439.19 1439.37 0
2012/2013 023 25 -77.67217 166.04262 68.0 2012-12-01T00:24:43Z 2012-12-01 12:24:43 12 -1.848 -1.8494 34.6663 2.725569 27.255693 1028.2424 27.9112 27.9112 68.731 5.3841 7.69442 233.925 63.84859 3.908 1441.13 1441.1 1441.36 1439.21 1439.19 1439.37 0
2012/2013 023 25 -77.67217 166.04262 69.0 2012-12-01T00:24:46Z 2012-12-01 12:24:46 12 -1.848 -1.8494 34.6664 2.725621 27.256211 1028.2473 27.9113 27.9112 69.742 5.35482 7.65257 232.652 63.50132 3.907 1441.14 1441.12 1441.38 1439.21 1439.19 1439.37 0
2012/2013 023 25 -77.67217 166.04262 70.0 2012-12-01T00:24:48Z 2012-12-01 12:24:48 12 -1.8478 -1.8492 34.6663 2.725677 27.256774 1028.2521 27.9112 27.9112 70.753 5.37513 7.6816 233.535 63.7425 3.907 1441.16 1441.14 1441.4 1439.21 1439.19 1439.37 0
2012/2013 023 25 -77.67217 166.04262 71.0 2012-12-01T00:24:51Z 2012-12-01 12:24:51 12 -1.8486 -1.85 34.666 2.725636 27.256362 1028.2568 27.911 27.911 71.764 5.37145 7.67634 233.375 63.69734 3.907 1441.17 1441.15 1441.41 1439.21 1439.19 1439.37 0
2012/2013 023 25 -77.67217 166.04262 72.0 2012-12-01T00:24:53Z 2012-12-01 12:24:53 12 -1.8487 -1.8501 34.6663 2.725701 27.257012 1028.2619 27.9113 27.9112 72.775 5.31354 7.59358 230.859 63.0106 3.907 1441.19 1441.16 1441.42 1439.67 1439.65 1439.84 0
2012/2013 023 25 -77.67217 166.04262 73.0 2012-12-01T00:24:56Z 2012-12-01 12:24:56 12 -1.8478 -1.8492 34.6665 2.725832 27.258321 1028.2668 27.9113 27.9113 73.786 5.43989 7.77415 236.349 64.51062 3.907 1441.21 1441.18 1441.44 1439.85 1439.83 1440.03 0
2012/2013 023 25 -77.67217 166.04262 74.0 2012-12-01T00:24:59Z 2012-12-01 12:24:59 12 -1.846 -1.8475 34.6669 2.726059 27.26059 1028.272 27.9117 27.9116 74.797 5.35505 7.65291 232.663 63.50777 3.907 1441.23 1441.21 1441.47 1439.85 1439.83 1440.03 0
2012/2013 023 25 -77.67217 166.04262 75.0 2012-12-01T00:25:01Z 2012-12-01 12:25:01 12 -1.8452 -1.8467 34.6667 2.726153 27.261534 1028.2766 27.9114 27.9114 75.808 5.42724 7.75607 235.799 64.36515 3.907 1441.26 1441.23 1441.49 1439.85 1439.83 1440.03 0
2012/2013 023 25 -77.67217 166.04262 76.0 2012-12-01T00:25:04Z 2012-12-01 12:25:04 12 -1.844 -1.8456 34.6671 2.726331 27.263308 1028.2819 27.9118 27.9117 76.819 5.46495 7.80997 237.438 64.81467 3.907 1441.28 1441.25 1441.51 1439.85 1439.83 1440.03 0
2012/2013 023 25 -77.67217 166.04262 77.0 2012-12-01T00:25:07Z 2012-12-01 12:25:07 12 -1.8432 -1.8447 34.6671 2.726447 27.264473 1028.2867 27.9117 27.9116 77.83 5.37485 7.6812 233.523 63.74752 3.907 1441.3 1441.27 1441.54 1439.85 1439.83 1440.03 0
2012/2013 023 25 -77.67217 166.04262 78.0 2012-12-01T00:25:10Z 2012-12-01 12:25:10 12 -1.8425 -1.8441 34.6668 2.726532 27.265315 1028.2913 27.9115 27.9114 78.841 5.42586 7.7541 235.739 64.35353 3.907 1441.32 1441.29 1441.55 1439.85 1439.83 1440.03 0
2012/2013 023 25 -77.67217 166.04262 79.0 2012-12-01T00:25:12Z 2012-12-01 12:25:12 12 -1.8422 -1.8438 34.6672 2.726629 27.266285 1028.2964 27.9117 27.9117 79.852 5.41393 7.73704 235.22 64.21265 3.907 1441.33 1441.31 1441.57 1439.85 1439.83 1440.03 0
2012/2013 023 25 -77.67217 166.04262 80.0 2012-12-01T00:25:15Z 2012-12-01 12:25:15 12 -1.8422 -1.8438 34.6672 2.726676 27.266762 1028.3013 27.9118 27.9117 80.862 5.44298 7.77857 236.483 64.55727 3.906 1441.35 1441.33 1441.59 1439.85 1439.83 1440.03 0
2012/2013 023 25 -77.67217 166.04262 81.0 2012-12-01T00:25:17Z 2012-12-01 12:25:17 12 -1.8422 -1.8439 34.6672 2.726726 27.267264 1028.3062 27.9118 27.9118 81.874 5.43912 7.77304 236.315 64.51145 3.906 1441.37 1441.34 1441.61 1439.85 1439.83 1440.03 0
2012/2013 023 25 -77.67217 166.04262 82.0 2012-12-01T00:25:20Z 2012-12-01 12:25:20 12 -1.8421 -1.8438 34.6676 2.726807 27.268068 1028.3114 27.9121 27.9121 82.885 5.44368 7.77956 236.513 64.56591 3.906 1441.39 1441.36 1441.62 1439.85 1439.83 1440.03 0
2012/2013 023 25 -77.67217 166.04262 83.0 2012-12-01T00:25:22Z 2012-12-01 12:25:22 12 -1.8424 -1.8441 34.6674 2.72681 27.268103 1028.3161 27.9119 27.9119 83.895 5.52014 7.88883 239.835 65.4721 3.906 1441.4 1441.37 1441.64 1439.85 1439.83 1440.03 0
2012/2013 023 25 -77.67217 166.04262 84.0 2012-12-01T00:25:25Z 2012-12-01 12:25:25 12 -1.8428 -1.8445 34.6679 2.726864 27.268643 1028.3214 27.9123 27.9123 84.907 5.39793 7.71418 234.525 64.02222 3.906 1441.42 1441.39 1441.65 1439.85 1439.83 1440.03 0
2012/2013 023 25 -77.67217 166.04262 85.0 2012-12-01T00:25:27Z 2012-12-01 12:25:27 12 -1.8428 -1.8445 34.6675 2.726888 27.26888 1028.326 27.9121 27.912 85.918 5.45919 7.80174 237.187 64.74875 3.906 1441.43 1441.4 1441.67 1439.85 1439.83 1440.03 0
2012/2013 023 25 -77.67217 166.04262 86.0 2012-12-01T00:25:29Z 2012-12-01 12:25:29 12 -1.8429 -1.8447 34.6676 2.72693 27.269305 1028.3309 27.9122 27.9121 86.929 5.49046 7.84642 238.546 65.11938 3.906 1441.45 1441.42 1441.68 1439.85 1439.83 1440.03 0
2012/2013 023 25 -77.67217 166.04262 87.0 2012-12-01T00:25:31Z 2012-12-01 12:25:31 12 -1.8429 -1.8447 34.668 2.727006 27.270062 1028.3361 27.9125 27.9124 87.94 5.44696 7.78425 236.656 64.60362 3.906 1441.46 1441.43 1441.7 1439.85 1439.83 1440.03 0
2012/2013 023 25 -77.67217 166.04262 88.0 2012-12-01T00:25:33Z 2012-12-01 12:25:33 12 -1.8427 -1.8445 34.6678 2.727052 27.270524 1028.3408 27.9123 27.9122 88.951 5.46758 7.81372 237.552 64.84846 3.905 1441.48 1441.45 1441.72 1439.85 1439.83 1440.03 0
2012/2013 023 25 -77.67217 166.04262 89.0 2012-12-01T00:25:36Z 2012-12-01 12:25:36 12 -1.8426 -1.8444 34.668 2.727123 27.271232 1028.3458 27.9124 27.9124 89.961 5.45572 7.79677 237.036 64.70806 3.905 1441.5 1441.47 1441.74 1439.85 1439.83 1440.03 0
2012/2013 023 25 -77.67217 166.04262 90.0 2012-12-01T00:25:38Z 2012-12-01 12:25:38 12 -1.8424 -1.8442 34.668 2.727182 27.271825 1028.3506 27.9124 27.9124 90.973 5.48631 7.84048 238.365 65.07114 3.905 1441.52 1441.49 1441.76 1439.85 1439.83 1440.03 0
2012/2013 023 25 -77.67217 166.04262 91.0 2012-12-01T00:25:41Z 2012-12-01 12:25:41 12 -1.8426 -1.8445 34.6679 2.72721 27.272104 1028.3554 27.9124 27.9123 91.983 5.46399 7.80859 237.396 64.80612 3.905 1441.53 1441.5 1441.77 1439.85 1439.83 1440.03 0
2012/2013 023 25 -77.67217 166.04262 92.0 2012-12-01T00:25:43Z 2012-12-01 12:25:43 12 -1.8431 -1.845 34.6684 2.727246 27.272463 1028.3607 27.9127 27.9127 92.994 5.50325 7.8647 239.101 65.27108 3.905 1441.55 1441.52 1441.79 1439.85 1439.83 1440.03 0
2012/2013 023 25 -77.67217 166.04262 93.0 2012-12-01T00:25:45Z 2012-12-01 12:25:45 12 -1.8428 -1.8447 34.6681 2.727302 27.273023 1028.3653 27.9125 27.9125 94.005 5.51222 7.87751 239.491 65.37787 3.905 1441.56 1441.53 1441.8 1439.85 1439.83 1440.03 0
2012/2013 023 25 -77.67217 166.04262 94.0 2012-12-01T00:25:48Z 2012-12-01 12:25:47 12 -1.8424 -1.8443 34.668 2.727371 27.273714 1028.3701 27.9124 27.9124 95.017 5.49159 7.84803 238.595 65.13379 3.905 1441.58 1441.55 1441.82 1439.85 1439.83 1440.03 0
2012/2013 023 25 -77.67217 166.04262 95.0 2012-12-01T00:25:50Z 2012-12-01 12:25:50 12 -1.8428 -1.8447 34.6682 2.727406 27.27406 1028.3751 27.9126 27.9126 96.028 5.49657 7.85515 238.811 65.19237 3.905 1441.6 1441.56 1441.84 1439.85 1439.83 1440.03 0
2012/2013 023 25 -77.67217 166.04262 96.0 2012-12-01T00:25:52Z 2012-12-01 12:25:52 12 -1.8433 -1.8453 34.6693 2.727482 27.274818 1028.3809 27.9135 27.9135 97.039 5.4996 7.85948 238.943 65.22784 3.905 1441.61 1441.58 1441.85 1439.99 1439.97 1440.18 0
2012/2013 023 25 -77.67217 166.04262 97.0 2012-12-01T00:25:55Z 2012-12-01 12:25:55 12 -1.8432 -1.8451 34.6693 2.727537 27.275368 1028.3857 27.9135 27.9134 98.05 5.51417 7.8803 239.576 65.40088 3.905 1441.63 1441.6 1441.87 1440.23 1440.21 1440.43 0
2012/2013 023 25 -77.67217 166.04262 98.0 2012-12-01T00:25:57Z 2012-12-01 12:25:57 12 -1.8434 -1.8454 34.6694 2.727576 27.275762 1028.3907 27.9136 27.9135 99.061 5.4968 7.85548 238.821 65.19456 3.905 1441.64 1441.61 1441.89 1440.24 1440.22 1440.44 0
2012/2013 023 25 -77.67217 166.04262 99.0 2012-12-01T00:26:00Z 2012-12-01 12:26:00 12 -1.8436 -1.8456 34.6698 2.727634 27.276341 1028.3959 27.9139 27.9138 100.072 5.51215 7.87742 239.488 65.37646 3.905 1441.66 1441.63 1441.9 1440.24 1440.22 1440.44 0
2012/2013 023 25 -77.67217 166.04262 100.0 2012-12-01T00:26:02Z 2012-12-01 12:26:02 12 -1.8436 -1.8456 34.6698 2.727681 27.276811 1028.4008 27.9139 27.9139 101.083 5.53833 7.91483 240.625 65.68694 3.905 1441.68 1441.64 1441.92 1440.24 1440.22 1440.44 0
2012/2013 023 25 -77.67217 166.04262 101.0 2012-12-01T00:26:05Z 2012-12-01 12:26:05 12 -1.8435 -1.8456 34.6697 2.727724 27.27724 1028.4055 27.9138 27.9138 102.094 5.52708 7.89874 240.136 65.55345 3.905 1441.69 1441.66 1441.93 1440.24 1440.22 1440.44 0
2012/2013 023 25 -77.67217 166.04262 102.0 2012-12-01T00:26:07Z 2012-12-01 12:26:07 12 -1.8436 -1.8457 34.6698 2.727776 27.277763 1028.4106 27.914 27.9139 103.105 5.54172 7.91967 240.772 65.72705 3.905 1441.71 1441.68 1441.95 1440.24 1440.22 1440.44 0
2012/2013 023 25 -77.67217 166.04262 103.0 2012-12-01T00:26:10Z 2012-12-01 12:26:10 12 -1.8437 -1.8458 34.6697 2.727807 27.278068 1028.4153 27.9139 27.9138 104.117 5.52125 7.89042 239.883 65.48412 3.904 1441.73 1441.69 1441.97 1440.24 1440.22 1440.44 0
2012/2013 023 25 -77.67217 166.04262 104.0 2012-12-01T00:26:12Z 2012-12-01 12:26:12 12 -1.8437 -1.8458 34.6699 2.72787 27.2787 1028.4203 27.914 27.914 105.127 5.53857 7.91517 240.635 65.68963 3.904 1441.74 1441.71 1441.99 1440.24 1440.22 1440.44 0
2012/2013 023 25 -77.67217 166.04262 105.0 2012-12-01T00:26:15Z 2012-12-01 12:26:15 12 -1.8437 -1.8458 34.6698 2.727908 27.279077 1028.4251 27.9139 27.9139 106.139 5.53704 7.91298 240.569 65.67147 3.904 1441.76 1441.72 1442.0 1440.24 1440.22 1440.44 0
2012/2013 023 25 -77.67217 166.04262 106.0 2012-12-01T00:26:18Z 2012-12-01 12:26:18 12 -1.8438 -1.846 34.67 2.727956 27.279557 1028.4302 27.9141 27.914 107.15 5.55011 7.93167 241.137 65.82634 3.904 1441.78 1441.74 1442.02 1440.24 1440.22 1440.44 0
2012/2013 023 25 -77.67217 166.04262 107.0 2012-12-01T00:26:21Z 2012-12-01 12:26:21 12 -1.8439 -1.8461 34.6701 2.728006 27.280054 1028.4351 27.9142 27.9142 108.161 5.54545 7.925 240.934 65.77093 3.904 1441.79 1441.75 1442.03 1440.24 1440.22 1440.44 0
2012/2013 023 25 -77.67217 166.04262 108.0 2012-12-01T00:26:35Z 2012-12-01 12:26:35 12 -1.8439 -1.8461 34.6701 2.728051 27.280505 1028.4399 27.9142 27.9141 109.172 5.56665 7.9553 241.855 66.02236 3.904 1441.8 1441.77 1442.05 1440.24 1440.22 1440.44 0
2012/2013 024 26 -77.6698 166.06025 3.0 2012-11-30T23:41:42Z 2012-12-01 11:41:42 12 -1.609 -1.6091 33.3856 2.65035 26.503498 1026.8782 26.8636 26.8636 3.032 3.70234 5.29101 161.022 43.78424 3.872 1439.47 1439.46 1439.6 1442.44 1442.37 1442.3 0
2012/2013 024 26 -77.6698 166.06025 4.0 2012-11-30T23:42:37Z 2012-12-01 11:42:37 12 -1.7349 -1.7349 32.8674 2.602834 26.02834 1026.4651 26.4456 26.4456 4.043 3.87553 5.53852 168.623 45.51093 3.876 1438.17 1438.17 1438.29 1442.44 1442.37 1442.3 0
2012/2013 024 26 -77.6698 166.06025 5.0 2012-11-30T23:42:37Z 2012-12-01 11:42:37 12 -1.7306 -1.7306 32.8363 2.601045 26.01045 1026.4446 26.4202 26.4202 5.053 3.92298 5.60632 170.69 46.06465 3.876 1438.17 1438.16 1438.28 1442.44 1442.37 1442.3 0
2012/2013 024 26 -77.6698 166.06025 6.0 2012-11-30T23:42:40Z 2012-12-01 11:42:40 12 -1.715 -1.7151 32.8882 2.606071 26.060716 1026.4913 26.462 26.462 6.064 3.75454 5.36561 163.355 44.12133 3.876 1438.33 1438.32 1438.45 1442.44 1442.37 1442.3 0
2012/2013 024 26 -77.6698 166.06025 7.0 2012-11-30T23:42:43Z 2012-12-01 11:42:43 12 -1.7036 -1.7038 32.902 2.608024 26.080236 1026.5072 26.473 26.473 7.074 3.73045 5.33119 162.305 43.85645 3.877 1438.42 1438.41 1438.54 1442.44 1442.37 1442.3 0
2012/2013 024 26 -77.6698 166.06025 8.0 2012-11-30T23:42:46Z 2012-12-01 11:42:46 12 -1.7046 -1.7048 32.9441 2.611025 26.110246 1026.5463 26.5072 26.5072 8.085 3.77201 5.39057 164.108 44.35692 3.877 1438.49 1438.48 1438.61 1442.44 1442.37 1442.3 0
2012/2013 024 26 -77.6698 166.06025 9.0 2012-11-30T23:42:48Z 2012-12-01 11:42:48 12 -1.6999 -1.7001 32.9568 2.612361 26.123615 1026.5614 26.5174 26.5174 9.095 3.79102 5.41775 164.933 44.59046 3.878 1438.54 1438.54 1438.67 1442.44 1442.37 1442.3 0
2012/2013 024 26 -77.6698 166.06025 10.0 2012-11-30T23:42:51Z 2012-12-01 11:42:51 12 -1.7048 -1.705 32.623 2.587906 25.879055 1026.2951 26.2462 26.2462 10.106 3.79202 5.41917 165.02 44.4905 3.878 1438.08 1438.08 1438.19 1442.44 1442.37 1442.3 0
2012/2013 024 26 -77.6698 166.06025 11.0 2012-11-30T23:42:53Z 2012-12-01 11:42:53 12 -1.6873 -1.6875 33.2005 2.631023 26.310231 1026.7689 26.7152 26.7152 11.117 3.79295 5.42051 164.986 44.70575 3.879 1438.97 1438.96 1439.1 1442.44 1442.37 1442.3 0
2012/2013 024 26 -77.6698 166.06025 12.0 2012-11-30T23:42:56Z 2012-12-01 11:42:56 12 -1.6902 -1.6904 33.4398 2.648063 26.480637 1026.9682 26.9097 26.9097 12.127 3.79691 5.42616 165.127 44.82521 3.88 1439.3 1439.29 1439.44 1442.44 1442.37 1442.3 0
2012/2013 024 26 -77.6698 166.06025 13.0 2012-11-30T23:42:59Z 2012-12-01 11:42:59 12 -1.6859 -1.6862 33.7001 2.667189 26.671893 1027.1845 27.1211 27.1211 13.138 3.79415 5.42223 164.973 44.881 3.881 1439.69 1439.68 1439.85 1442.44 1442.37 1442.3 0
2012/2013 024 26 -77.6698 166.06025 14.0 2012-11-30T23:43:01Z 2012-12-01 11:43:01 12 -1.681 -1.6812 33.5718 2.658415 26.584155 1027.085 27.0168 27.0167 14.149 3.78969 5.41584 164.795 44.79327 3.878 1439.55 1439.54 1439.71 1442.44 1442.37 1442.3 0
2012/2013 024 26 -77.6698 166.06025 15.0 2012-11-30T23:43:02Z 2012-12-01 11:43:02 12 -1.683 -1.6833 33.5714 2.65826 26.582601 1027.0896 27.0165 27.0165 15.16 3.81506 5.45209 165.898 45.09044 3.879 1439.56 1439.55 1439.71 1442.44 1442.37 1442.3 0
2012/2013 024 26 -77.6698 166.06025 16.0 2012-11-30T23:43:03Z 2012-12-01 11:43:03 12 -1.683 -1.6833 33.5839 2.659215 26.592148 1027.1047 27.0267 27.0267 16.17 3.89068 5.56017 169.185 45.9884 3.881 1439.6 1439.58 1439.75 1442.44 1442.37 1442.3 0
2012/2013 024 26 -77.6698 166.06025 17.0 2012-11-30T23:43:05Z 2012-12-01 11:43:05 12 -1.6814 -1.6817 33.6577 2.664699 26.646987 1027.1695 27.0866 27.0866 17.181 3.75338 5.36395 163.205 44.39081 3.881 1439.72 1439.71 1439.88 1442.44 1442.37 1442.3 0
2012/2013 024 26 -77.6698 166.06025 18.0 2012-11-30T23:43:07Z 2012-12-01 11:43:07 12 -1.6794 -1.6798 33.7619 2.672402 26.724021 1027.259 27.1713 27.1713 18.191 3.8027 5.43444 165.336 45.00985 3.881 1439.88 1439.87 1440.05 1442.44 1442.37 1442.3 0
2012/2013 024 26 -77.6698 166.06025 19.0 2012-11-30T23:43:09Z 2012-12-01 11:43:09 12 -1.677 -1.6773 34.0443 2.69293 26.929294 1027.4933 27.4007 27.4007 19.202 3.84593 5.49622 167.179 45.61546 3.882 1440.3 1440.29 1440.48 1442.44 1442.37 1442.3 0
2012/2013 024 26 -77.6698 166.06025 20.0 2012-11-30T23:43:12Z 2012-12-01 11:43:12 12 -1.6685 -1.6689 34.6757 2.73901 27.390103 1028.011 27.9137 27.9137 20.213 3.81212 5.4479 165.626 45.42939 3.882 1441.21 1441.2 1441.43 1442.0 1441.95 1441.98 0
2012/2013 024 26 -77.6698 166.06025 21.0 2012-11-30T23:43:14Z 2012-12-01 11:43:14 12 -1.6703 -1.6707 34.6333 2.735869 27.358686 1027.9815 27.8793 27.8793 21.223 3.82558 5.46713 166.216 45.57369 3.883 1441.16 1441.15 1441.37 1441.79 1441.75 1441.83 0
2012/2013 024 26 -77.6698 166.06025 22.0 2012-11-30T23:43:16Z 2012-12-01 11:43:16 12 -1.6705 -1.6709 34.6403 2.7364 27.363997 1027.9921 27.885 27.885 22.234 3.82767 5.47012 166.306 45.60069 3.883 1441.19 1441.17 1441.4 1441.79 1441.75 1441.83 0
2012/2013 024 26 -77.6698 166.06025 23.0 2012-11-30T23:43:18Z 2012-12-01 11:43:18 12 -1.6679 -1.6684 34.6385 2.736538 27.365377 1027.9954 27.8835 27.8834 23.245 3.83912 5.48649 166.804 45.73977 3.883 1441.22 1441.2 1441.43 1441.79 1441.75 1441.83 0
2012/2013 024 26 -77.6698 166.06025 24.0 2012-11-30T23:43:20Z 2012-12-01 11:43:20 12 -1.6657 -1.6662 34.6363 2.736608 27.36608 1027.9984 27.8816 27.8816 24.256 3.85675 5.51169 167.57 45.95175 3.883 1441.24 1441.22 1441.45 1441.79 1441.75 1441.83 0
2012/2013 024 26 -77.6698 166.06025 25.0 2012-11-30T23:43:21Z 2012-12-01 11:43:22 12 -1.6658 -1.6664 34.6301 2.736195 27.361948 1027.9982 27.8765 27.8765 25.266 3.83578 5.48172 166.66 45.69972 3.884 1441.25 1441.23 1441.46 1441.79 1441.75 1441.83 0
2012/2013 024 26 -77.6698 166.06025 26.0 2012-11-30T23:43:23Z 2012-12-01 11:43:23 12 -1.6679 -1.6684 34.6401 2.736791 27.367913 1028.0113 27.8848 27.8848 26.277 3.85019 5.50231 167.285 45.87213 3.884 1441.27 1441.25 1441.48 1441.79 1441.75 1441.83 0
2012/2013 024 26 -77.6698 166.06025 27.0 2012-11-30T23:43:26Z 2012-12-01 11:43:26 12 -1.673 -1.6736 34.6507 2.737169 27.371686 1028.0249 27.8935 27.8935 27.288 3.86733 5.52681 168.028 46.07347 3.884 1441.27 1441.26 1441.49 1441.79 1441.75 1441.83 0
2012/2013 024 26 -77.6698 166.06025 28.0 2012-11-30T23:43:28Z 2012-12-01 11:43:28 12 -1.6626 -1.6632 34.6459 2.737747 27.377469 1028.0256 27.8893 27.8893 28.298 3.87434 5.53682 168.333 46.16831 3.885 1441.33 1441.32 1441.54 1441.79 1441.75 1441.83 0
2012/2013 024 26 -77.6698 166.06025 29.0 2012-11-30T23:43:30Z 2012-12-01 11:43:30 12 -1.6576 -1.6582 34.1337 2.701419 27.014186 1027.6141 27.4728 27.4728 29.309 3.84613 5.4965 167.175 45.67189 3.885 1440.68 1440.66 1440.86 1441.79 1441.75 1441.83 0
2012/2013 024 26 -77.6698 166.06025 30.0 2012-11-30T23:43:32Z 2012-12-01 11:43:32 12 -1.6485 -1.6491 33.977 2.690962 26.909622 1027.4914 27.3452 27.3452 30.32 3.88309 5.54932 168.803 46.07015 3.885 1440.52 1440.5 1440.7 1441.79 1441.75 1441.83 0
2012/2013 024 26 -77.6698 166.06025 31.0 2012-11-30T23:43:34Z 2012-12-01 11:43:34 12 -1.6457 -1.6463 34.3421 2.717472 27.174717 1027.7928 27.6419 27.6419 31.331 3.88709 5.55504 168.928 46.24137 3.885 1441.05 1441.03 1441.25 1441.79 1441.75 1441.83 0
2012/2013 024 26 -77.6698 166.06025 32.0 2012-11-30T23:43:38Z 2012-12-01 11:43:38 12 -1.646 -1.6467 34.6577 2.740168 27.401685 1028.0541 27.8984 27.8984 32.341 3.90908 5.58647 169.841 46.60705 3.886 1441.49 1441.47 1441.71 1441.79 1441.75 1441.83 0
2012/2013 024 26 -77.6698 166.06025 33.0 2012-11-30T23:43:41Z 2012-12-01 11:43:41 12 -1.6485 -1.6493 34.6452 2.739102 27.391016 1028.0489 27.8883 27.8883 33.352 3.91904 5.6007 170.275 46.71836 3.886 1441.48 1441.46 1441.69 1441.79 1441.75 1441.83 0
2012/2013 024 26 -77.6698 166.06025 34.0 2012-11-30T23:43:43Z 2012-12-01 11:43:43 12 -1.6671 -1.6678 34.6452 2.737602 27.376017 1028.0543 27.8889 27.8889 34.362 3.9022 5.57663 169.544 46.49446 3.886 1441.41 1441.39 1441.62 1441.79 1441.75 1441.83 0
2012/2013 024 26 -77.6698 166.06025 35.0 2012-11-30T23:43:45Z 2012-12-01 11:43:45 12 -1.6816 -1.6824 34.6449 2.736409 27.364086 1028.0594 27.8891 27.8891 35.374 3.92521 5.60951 170.543 46.75016 3.885 1441.35 1441.34 1441.57 1441.79 1441.75 1441.83 0
2012/2013 024 26 -77.6698 166.06025 36.0 2012-11-30T23:43:46Z 2012-12-01 11:43:46 12 -1.701 -1.7017 34.6389 2.734402 27.344023 1028.0599 27.8847 27.8847 36.384 3.88599 5.55347 168.84 46.25701 3.886 1441.27 1441.25 1441.49 1441.79 1441.75 1441.83 0
2012/2013 024 26 -77.6698 166.06025 37.0 2012-11-30T23:43:47Z 2012-12-01 11:43:47 12 -1.7228 -1.7236 34.6541 2.733703 27.337034 1028.0778 27.8977 27.8977 37.395 3.87492 5.53765 168.357 46.10299 3.885 1441.2 1441.18 1441.42 1441.79 1441.75 1441.83 0
2012/2013 024 26 -77.6698 166.06025 38.0 2012-11-30T23:43:48Z 2012-12-01 11:43:48 12 -1.7235 -1.7243 34.6531 2.733629 27.336289 1028.082 27.897 27.897 38.406 3.87294 5.53482 168.271 46.07829 3.886 1441.21 1441.2 1441.43 1441.79 1441.75 1441.83 0
2012/2013 024 26 -77.6698 166.06025 39.0 2012-11-30T23:43:50Z 2012-12-01 11:43:50 12 -1.727 -1.7278 34.6517 2.733274 27.332744 1028.0857 27.8959 27.8959 39.417 3.96626 5.66818 172.326 47.18358 3.886 1441.21 1441.19 1441.43 1441.79 1441.75 1441.83 0
2012/2013 024 26 -77.6698 166.06025 40.0 2012-11-30T23:43:51Z 2012-12-01 11:43:51 12 -1.7331 -1.7339 34.6531 2.73292 27.329198 1028.092 27.8973 27.8972 40.427 3.86781 5.52749 168.048 46.00536 3.885 1441.2 1441.18 1441.42 1441.79 1441.75 1441.83 0
2012/2013 024 26 -77.6698 166.06025 41.0 2012-11-30T23:43:52Z 2012-12-01 11:43:52 12 -1.7398 -1.7406 34.649 2.732116 27.321157 1028.0937 27.8941 27.8941 41.438 3.83949 5.48701 166.818 45.65896 3.885 1441.18 1441.16 1441.4 1441.79 1441.75 1441.83 0
2012/2013 024 26 -77.6698 166.06025 42.0 2012-11-30T23:43:53Z 2012-12-01 11:43:53 12 -1.7465 -1.7474 34.6549 2.732014 27.320144 1028.1035 27.8991 27.899 42.449 3.9244 5.60836 170.507 46.66212 3.886 1441.17 1441.15 1441.39 1441.79 1441.75 1441.83 0
2012/2013 024 26 -77.6698 166.06025 43.0 2012-11-30T23:43:55Z 2012-12-01 11:43:55 12 -1.7472 -1.7481 34.6542 2.73196 27.319598 1028.1079 27.8986 27.8985 43.46 3.86119 5.51802 167.761 45.90951 3.887 1441.18 1441.17 1441.41 1441.79 1441.75 1441.83 0
2012/2013 024 26 -77.6698 166.06025 44.0 2012-11-30T23:43:56Z 2012-12-01 11:43:56 12 -1.7488 -1.7497 34.6537 2.731838 27.318381 1028.1124 27.8982 27.8982 44.471 3.852 5.50489 167.361 45.79809 3.886 1441.19 1441.17 1441.41 1441.79 1441.75 1441.83 0
2012/2013 024 26 -77.6698 166.06025 45.0 2012-11-30T23:43:58Z 2012-12-01 11:43:58 12 -1.754 -1.7549 34.6484 2.731074 27.310737 1028.1131 27.894 27.894 45.481 3.9492 5.64381 171.585 46.94554 3.886 1441.18 1441.16 1441.4 1441.79 1441.75 1441.83 0
2012/2013 024 26 -77.6698 166.06025 46.0 2012-11-30T23:43:59Z 2012-12-01 11:43:59 12 -1.7692 -1.7702 34.6511 2.730035 27.300352 1028.1206 27.8966 27.8966 46.492 3.88643 5.5541 168.857 46.18118 3.887 1441.13 1441.11 1441.35 1441.79 1441.75 1441.83 0
2012/2013 024 26 -77.6698 166.06025 47.0 2012-11-30T23:44:01Z 2012-12-01 11:44:01 12 -1.7802 -1.7811 34.6526 2.729274 27.292738 1028.127 27.8982 27.8982 47.503 3.79341 5.42116 164.816 45.06285 3.886 1441.09 1441.07 1441.31 1441.79 1441.75 1441.83 0
2012/2013 024 26 -77.6698 166.06025 48.0 2012-11-30T23:44:02Z 2012-12-01 11:44:02 12 -1.791 -1.792 34.6561 2.728666 27.286658 1028.135 27.9013 27.9013 48.514 3.89169 5.56161 169.085 46.21809 3.887 1441.06 1441.04 1441.29 1441.79 1441.75 1441.83 0
2012/2013 024 26 -77.6698 166.06025 49.0 2012-11-30T23:44:04Z 2012-12-01 11:44:04 12 -1.8005 -1.8015 34.6564 2.727936 27.279365 1028.1404 27.9018 27.9018 49.525 3.84853 5.49993 167.21 45.69399 3.887 1441.03 1441.01 1441.25 1441.79 1441.75 1441.83 0
2012/2013 024 26 -77.6698 166.06025 50.0 2012-11-30T23:44:06Z 2012-12-01 11:44:06 12 -1.8038 -1.8048 34.6587 2.727873 27.278735 1028.1473 27.9038 27.9038 50.535 3.84324 5.49237 166.98 45.62783 3.888 1441.03 1441.01 1441.26 1441.79 1441.75 1441.83 0
2012/2013 024 26 -77.6698 166.06025 51.0 2012-11-30T23:44:07Z 2012-12-01 11:44:07 12 -1.805 -1.806 34.659 2.727839 27.278388 1028.1524 27.904 27.904 51.546 3.84263 5.49151 166.953 45.61922 3.889 1441.04 1441.02 1441.27 1441.79 1441.75 1441.83 0
2012/2013 024 26 -77.6698 166.06025 52.0 2012-11-30T23:44:09Z 2012-12-01 11:44:09 12 -1.805 -1.8061 34.6591 2.72789 27.278898 1028.1573 27.9041 27.9041 52.557 4.10273 5.86321 178.254 48.70707 3.889 1441.06 1441.04 1441.29 1441.79 1441.75 1441.83 0
2012/2013 024 26 -77.6698 166.06025 53.0 2012-11-30T23:44:10Z 2012-12-01 11:44:10 12 -1.8038 -1.8049 34.6618 2.728234 27.282341 1028.1644 27.9063 27.9063 53.568 3.80316 5.4351 165.238 45.15293 3.891 1441.09 1441.07 1441.32 1441.79 1441.75 1441.83 0
2012/2013 024 26 -77.6698 166.06025 54.0 2012-11-30T23:44:12Z 2012-12-01 11:44:12 12 -1.8029 -1.8039 34.662 2.728379 27.283794 1028.1694 27.9065 27.9064 54.579 3.84181 5.49033 166.917 45.61311 3.891 1441.11 1441.09 1441.34 1441.43 1441.41 1441.57 0
2012/2013 024 26 -77.6698 166.06025 55.0 2012-11-30T23:44:13Z 2012-12-01 11:44:13 12 -1.8051 -1.8062 34.6596 2.728065 27.280646 1028.1724 27.9046 27.9045 55.59 3.86556 5.52427 167.949 45.8915 3.892 1441.11 1441.09 1441.34 1441.37 1441.35 1441.53 0
2012/2013 024 26 -77.6698 166.06025 56.0 2012-11-30T23:44:15Z 2012-12-01 11:44:15 12 -1.8107 -1.8118 34.6623 2.727836 27.278361 1028.1796 27.9069 27.9069 56.601 3.87424 5.53668 168.326 45.98848 3.893 1441.1 1441.08 1441.33 1441.37 1441.35 1441.53 0
2012/2013 024 26 -77.6698 166.06025 57.0 2012-11-30T23:44:17Z 2012-12-01 11:44:17 12 -1.8136 -1.8148 34.6634 2.72772 27.277198 1028.1855 27.9079 27.9079 57.612 3.72061 5.31713 161.651 44.16179 3.895 1441.11 1441.09 1441.34 1441.37 1441.35 1441.53 0
2012/2013 024 26 -77.6698 166.06025 58.0 2012-11-30T23:44:18Z 2012-12-01 11:44:18 12 -1.8154 -1.8166 34.6642 2.727671 27.276713 1028.191 27.9086 27.9085 58.622 3.86368 5.52159 167.867 45.85801 3.894 1441.12 1441.09 1441.35 1441.37 1441.35 1441.53 0
2012/2013 024 26 -77.6698 166.06025 59.0 2012-11-30T23:44:19Z 2012-12-01 11:44:19 12 -1.8166 -1.8178 34.6645 2.727638 27.276385 1028.1961 27.9088 27.9088 59.633 3.95345 5.64988 171.767 46.92204 3.895 1441.13 1441.11 1441.36 1441.37 1441.35 1441.53 0
2012/2013 024 26 -77.6698 166.06025 60.0 2012-11-30T23:44:20Z 2012-12-01 11:44:20 12 -1.8192 -1.8204 34.6654 2.727529 27.275288 1028.2018 27.9096 27.9096 60.644 3.94291 5.63482 171.31 46.7939 3.896 1441.13 1441.11 1441.36 1441.37 1441.35 1441.53 0
2012/2013 024 26 -77.6698 166.06025 61.0 2012-11-30T23:44:22Z 2012-12-01 11:44:22 12 -1.8219 -1.8231 34.6619 2.727107 27.271073 1028.2039 27.9069 27.9069 61.655 3.90654 5.58284 169.729 46.35781 3.896 1441.13 1441.11 1441.36 1441.37 1441.35 1441.53 0
2012/2013 024 26 -77.6698 166.06025 62.0 2012-11-30T23:44:23Z 2012-12-01 11:44:23 12 -1.8316 -1.8328 34.6646 2.726533 27.265326 1028.2112 27.9093 27.9093 62.666 3.84193 5.4905 166.922 45.57998 3.896 1441.1 1441.08 1441.34 1441.37 1441.35 1441.53 0
2012/2013 024 26 -77.6698 166.06025 63.0 2012-11-30T23:44:24Z 2012-12-01 11:44:24 12 -1.8355 -1.8368 34.6658 2.726336 27.263358 1028.2172 27.9104 27.9103 63.676 3.87061 5.53149 168.168 45.91576 3.897 1441.1 1441.08 1441.34 1441.37 1441.35 1441.53 0
2012/2013 024 26 -77.6698 166.06025 64.0 2012-11-30T23:44:26Z 2012-12-01 11:44:26 12 -1.8412 -1.8424 34.6656 2.725898 27.258979 1028.2221 27.9104 27.9104 64.687 3.84989 5.50188 167.268 45.66295 3.897 1441.09 1441.07 1441.33 1441.37 1441.35 1441.53 0
2012/2013 024 26 -77.6698 166.06025 65.0 2012-11-30T23:44:27Z 2012-12-01 11:44:27 12 -1.8428 -1.8441 34.6689 2.726048 27.260481 1028.2297 27.9132 27.9131 65.699 3.77621 5.39658 164.066 44.78813 3.897 1441.1 1441.08 1441.34 1441.37 1441.35 1441.53 0
2012/2013 024 26 -77.6698 166.06025 66.0 2012-11-30T23:44:28Z 2012-12-01 11:44:28 12 -1.8427 -1.8441 34.6671 2.725966 27.259657 1028.2331 27.9117 27.9116 66.709 3.90898 5.58632 169.835 46.36233 3.897 1441.12 1441.1 1441.35 1441.37 1441.35 1441.53 0
2012/2013 024 26 -77.6698 166.06025 67.0 2012-11-30T23:44:30Z 2012-12-01 11:44:30 12 -1.8454 -1.8467 34.6677 2.725837 27.258369 1028.2385 27.9122 27.9122 67.72 3.87983 5.54466 168.568 46.01351 3.898 1441.12 1441.1 1441.36 1441.37 1441.35 1441.53 0
2012/2013 024 26 -77.6698 166.06025 68.0 2012-11-30T23:44:31Z 2012-12-01 11:44:31 12 -1.8454 -1.8467 34.6687 2.725951 27.25951 1028.2442 27.913 27.913 68.731 3.84962 5.50149 167.255 45.65552 3.898 1441.14 1441.12 1441.38 1441.37 1441.35 1441.53 0
2012/2013 024 26 -77.6698 166.06025 69.0 2012-11-30T23:44:33Z 2012-12-01 11:44:33 12 -1.8444 -1.8458 34.668 2.726039 27.260395 1028.2485 27.9125 27.9125 69.742 3.95555 5.65287 171.858 46.91289 3.898 1441.16 1441.14 1441.4 1441.37 1441.35 1441.53 0
2012/2013 024 26 -77.6698 166.06025 70.0 2012-11-30T23:44:34Z 2012-12-01 11:44:34 12 -1.844 -1.8454 34.6679 2.726105 27.26105 1028.2533 27.9124 27.9123 70.753 3.80443 5.43691 165.292 45.12097 3.899 1441.18 1441.16 1441.42 1441.37 1441.35 1441.53 0
2012/2013 024 26 -77.6698 166.06025 71.0 2012-11-30T23:44:35Z 2012-12-01 11:44:35 12 -1.8449 -1.8463 34.667 2.72602 27.260202 1028.2574 27.9117 27.9117 71.764 3.90556 5.58144 169.686 46.31911 3.899 1441.19 1441.17 1441.43 1441.37 1441.35 1441.53 0
2012/2013 024 26 -77.6698 166.06025 72.0 2012-11-30T23:44:38Z 2012-12-01 11:44:38 12 -1.8445 -1.8459 34.6695 2.726274 27.262738 1028.2643 27.9137 27.9136 72.775 3.91173 5.59026 169.954 46.39359 3.9 1441.21 1441.19 1441.45 1441.37 1441.35 1441.53 0
2012/2013 024 26 -77.6698 166.06025 73.0 2012-11-30T23:44:40Z 2012-12-01 11:44:40 12 -1.8439 -1.8454 34.6651 2.726058 27.260581 1028.2656 27.9101 27.9101 73.786 3.90277 5.57745 169.565 46.28661 3.901 1441.23 1441.2 1441.46 1441.37 1441.35 1441.53 0
2012/2013 024 26 -77.6698 166.06025 74.0 2012-11-30T23:44:42Z 2012-12-01 11:44:42 12 -1.8536 -1.8551 34.6677 2.725475 27.254752 1028.2728 27.9125 27.9124 74.797 3.88721 5.55522 168.889 46.09079 3.901 1441.2 1441.17 1441.44 1441.37 1441.35 1441.53 0
2012/2013 024 26 -77.6698 166.06025 75.0 2012-11-30T23:44:44Z 2012-12-01 11:44:44 12 -1.8549 -1.8564 34.6692 2.725526 27.255265 1028.279 27.9137 27.9137 75.808 3.88591 5.55335 168.832 46.07424 3.901 1441.21 1441.19 1441.45 1441.37 1441.35 1441.53 0
2012/2013 024 26 -77.6698 166.06025 76.0 2012-11-30T23:44:47Z 2012-12-01 11:44:47 12 -1.8573 -1.8588 34.6673 2.725233 27.252327 1028.2824 27.9123 27.9122 76.818 3.93356 5.62146 170.903 46.63562 3.901 1441.21 1441.19 1441.45 1441.37 1441.35 1441.53 0
2012/2013 024 26 -77.6698 166.06025 77.0 2012-11-30T23:44:48Z 2012-12-01 11:44:49 12 -1.8603 -1.8619 34.6696 2.725195 27.251948 1028.2892 27.9142 27.9142 77.83 3.89297 5.56344 169.139 46.1513 3.902 1441.22 1441.19 1441.46 1441.37 1441.35 1441.53 0
2012/2013 024 26 -77.6698 166.06025 78.0 2012-11-30T23:44:50Z 2012-12-01 11:44:50 12 -1.8606 -1.8622 34.6701 2.725255 27.252548 1028.2945 27.9147 27.9146 78.84 3.89731 5.56965 169.327 46.20263 3.902 1441.23 1441.21 1441.47 1441.37 1441.35 1441.53 0
2012/2013 024 26 -77.6698 166.06025 79.0 2012-11-30T23:44:52Z 2012-12-01 11:44:51 12 -1.8603 -1.8619 34.6699 2.725308 27.253076 1028.2992 27.9145 27.9144 79.852 3.94373 5.63598 171.344 46.75318 3.902 1441.25 1441.23 1441.49 1441.37 1441.35 1441.53 0
2012/2013 024 26 -77.6698 166.06025 80.0 2012-11-30T23:44:53Z 2012-12-01 11:44:53 12 -1.8603 -1.862 34.6697 2.725337 27.253371 1028.3039 27.9143 27.9142 80.863 3.91444 5.59412 170.071 46.40582 3.902 1441.27 1441.24 1441.51 1441.37 1441.35 1441.53 0
2012/2013 024 26 -77.6698 166.06025 81.0 2012-11-30T23:44:54Z 2012-12-01 11:44:54 12 -1.8612 -1.8629 34.67 2.72533 27.253296 1028.309 27.9145 27.9145 81.873 3.79874 5.42878 165.045 45.03323 3.902 1441.28 1441.25 1441.52 1441.37 1441.35 1441.53 0
2012/2013 024 26 -77.6698 166.06025 82.0 2012-11-30T23:44:55Z 2012-12-01 11:44:55 12 -1.8623 -1.8639 34.6708 2.725348 27.25348 1028.3146 27.9152 27.9152 82.884 3.94749 5.64137 171.507 46.79565 3.902 1441.29 1441.26 1441.53 1441.37 1441.35 1441.53 0
2012/2013 024 26 -77.6698 166.06025 83.0 2012-11-30T23:44:57Z 2012-12-01 11:44:57 12 -1.8628 -1.8645 34.671 2.725366 27.253659 1028.3196 27.9155 27.9154 83.896 3.93741 5.62696 171.069 46.6755 3.902 1441.31 1441.28 1441.55 1441.37 1441.35 1441.53 0
2012/2013 024 26 -77.6698 166.06025 84.0 2012-11-30T23:44:58Z 2012-12-01 11:44:58 12 -1.8636 -1.8653 34.6714 2.725376 27.253758 1028.3248 27.9157 27.9157 84.906 3.92573 5.61026 170.562 46.53624 3.902 1441.32 1441.29 1441.56 1441.37 1441.35 1441.53 0
2012/2013 024 26 -77.6698 166.06025 85.0 2012-11-30T23:45:00Z 2012-12-01 11:44:59 12 -1.8649 -1.8666 34.6722 2.725368 27.253685 1028.3304 27.9164 27.9164 85.917 3.90719 5.58376 169.756 46.31501 3.902 1441.33 1441.3 1441.57 1441.37 1441.35 1441.53 0
2012/2013 024 26 -77.6698 166.06025 86.0 2012-11-30T23:45:01Z 2012-12-01 11:45:01 12 -1.8657 -1.8674 34.673 2.725409 27.254096 1028.3359 27.9171 27.9171 86.928 3.93425 5.62243 170.932 46.63507 3.902 1441.34 1441.32 1441.58 1441.37 1441.35 1441.53 0
2012/2013 024 26 -77.6698 166.06025 87.0 2012-11-30T23:45:03Z 2012-12-01 11:45:03 12 -1.8658 -1.8675 34.6728 2.725438 27.254378 1028.3406 27.917 27.9169 87.94 3.95722 5.65526 171.93 46.9072 3.902 1441.36 1441.33 1441.6 1441.37 1441.35 1441.53 0
2012/2013 024 26 -77.6698 166.06025 88.0 2012-11-30T23:45:05Z 2012-12-01 11:45:05 12 -1.8664 -1.8681 34.673 2.725448 27.254479 1028.3457 27.9172 27.9171 88.95 3.92534 5.60971 170.545 46.52863 3.902 1441.37 1441.34 1441.61 1441.37 1441.35 1441.53 0
2012/2013 024 26 -77.6698 166.06025 89.0 2012-11-30T23:45:06Z 2012-12-01 11:45:06 12 -1.8663 -1.868 34.6731 2.725504 27.25504 1028.3506 27.9172 27.9171 89.962 3.92868 5.61447 170.69 46.56829 3.901 1441.39 1441.36 1441.63 1441.37 1441.35 1441.53 0
2012/2013 024 26 -77.6698 166.06025 90.0 2012-11-30T23:45:08Z 2012-12-01 11:45:08 12 -1.8661 -1.8679 34.6732 2.72558 27.255802 1028.3556 27.9173 27.9173 90.973 3.94626 5.63961 171.454 46.77708 3.901 1441.41 1441.38 1441.65 1441.37 1441.35 1441.53 0
2012/2013 024 26 -77.6698 166.06025 91.0 2012-11-30T23:45:09Z 2012-12-01 11:45:09 12 -1.866 -1.8679 34.6731 2.725621 27.256209 1028.3604 27.9172 27.9172 91.984 3.89438 5.56546 169.2 46.16211 3.901 1441.43 1441.4 1441.67 1441.37 1441.35 1441.53 0
2012/2013 024 26 -77.6698 166.06025 92.0 2012-11-30T23:45:11Z 2012-12-01 11:45:11 12 -1.8658 -1.8676 34.6734 2.725712 27.25712 1028.3655 27.9175 27.9174 92.995 3.9264 5.61122 170.591 46.5421 3.901 1441.44 1441.41 1441.69 1441.36 1441.34 1441.53 0
2012/2013 024 26 -77.6698 166.06025 93.0 2012-11-30T23:45:12Z 2012-12-01 11:45:12 12 -1.8652 -1.8671 34.673 2.725771 27.257705 1028.37 27.9171 27.9171 94.006 3.99413 5.70801 173.533 47.34541 3.902 1441.46 1441.43 1441.7 1441.33 1441.31 1441.52 0
2012/2013 024 26 -77.6698 166.06025 94.0 2012-11-30T23:45:14Z 2012-12-01 11:45:14 12 -1.8657 -1.8676 34.673 2.725783 27.257831 1028.3749 27.9172 27.9171 95.017 3.94693 5.64055 171.483 46.78533 3.902 1441.47 1441.44 1441.72 1441.33 1441.31 1441.52 0
2012/2013 024 26 -77.6698 166.06025 95.0 2012-11-30T23:45:15Z 2012-12-01 11:45:15 12 -1.8653 -1.8673 34.6731 2.725867 27.258671 1028.3798 27.9172 27.9171 96.028 3.97903 5.68644 172.877 47.16644 3.902 1441.49 1441.46 1441.74 1441.33 1441.31 1441.52 0
2012/2013 024 26 -77.6698 166.06025 96.0 2012-11-30T23:45:16Z 2012-12-01 11:45:16 12 -1.8652 -1.8672 34.6731 2.725921 27.259209 1028.3846 27.9172 27.9171 97.039 3.94059 5.6315 171.207 46.71086 3.902 1441.51 1441.48 1441.75 1441.33 1441.31 1441.52 0
2012/2013 024 26 -77.6698 166.06025 97.0 2012-11-30T23:45:17Z 2012-12-01 11:45:17 12 -1.8651 -1.867 34.6729 2.725964 27.25964 1028.3893 27.917 27.917 98.05 3.94308 5.63505 171.315 46.74043 3.902 1441.53 1441.49 1441.77 1441.33 1441.31 1441.52 0
2012/2013 024 26 -77.6698 166.06025 98.0 2012-11-30T23:45:19Z 2012-12-01 11:45:19 12 -1.8652 -1.8672 34.6731 2.726019 27.26019 1028.3944 27.9172 27.9172 99.061 3.93653 5.62569 171.031 46.66272 3.901 1441.55 1441.51 1441.79 1441.33 1441.31 1441.52 0
2012/2013 024 26 -77.6698 166.06025 99.0 2012-11-30T23:45:20Z 2012-12-01 11:45:20 12 -1.865 -1.867 34.6727 2.726049 27.260493 1028.3989 27.9168 27.9168 100.072 3.97649 5.68281 172.767 47.13654 3.902 1441.56 1441.53 1441.81 1441.33 1441.31 1441.52 0
2012/2013 024 26 -77.6698 166.06025 100.0 2012-11-30T23:45:21Z 2012-12-01 11:45:21 12 -1.8652 -1.8672 34.6729 2.726095 27.260951 1028.4039 27.917 27.917 101.083 3.98858 5.70008 173.292 47.27965 3.902 1441.58 1441.54 1441.82 1441.33 1441.31 1441.52 0
2012/2013 024 26 -77.6698 166.06025 101.0 2012-11-30T23:45:22Z 2012-12-01 11:45:22 12 -1.8654 -1.8674 34.6731 2.726138 27.261379 1028.4089 27.9171 27.9171 102.094 3.93058 5.6172 170.773 46.59201 3.902 1441.59 1441.56 1441.84 1441.33 1441.31 1441.52 0
2012/2013 024 26 -77.6698 166.06025 102.0 2012-11-30T23:45:23Z 2012-12-01 11:45:23 12 -1.8651 -1.8672 34.673 2.726207 27.262065 1028.4138 27.9171 27.9171 103.105 3.98816 5.69948 173.274 47.27488 3.902 1441.61 1441.58 1441.85 1441.33 1441.31 1441.52 0
2012/2013 024 26 -77.6698 166.06025 103.0 2012-11-30T23:45:25Z 2012-12-01 11:45:25 12 -1.8639 -1.866 34.6747 2.726474 27.264736 1028.42 27.9184 27.9184 104.116 3.95506 5.65218 171.836 46.88462 3.902 1441.64 1441.6 1441.88 1441.33 1441.31 1441.52 0
2012/2013 024 26 -77.6698 166.06025 104.0 2012-11-30T23:45:26Z 2012-12-01 11:45:26 12 -1.8609 -1.863 34.6731 2.72666 27.266592 1028.4235 27.9171 27.917 105.128 3.97683 5.68329 172.782 47.14593 3.902 1441.66 1441.63 1441.91 1441.33 1441.31 1441.52 0
2012/2013 024 26 -77.6698 166.06025 105.0 2012-11-30T23:45:28Z 2012-12-01 11:45:28 12 -1.8605 -1.8626 34.6729 2.726724 27.267241 1028.4281 27.9169 27.9168 106.139 4.01025 5.73104 174.234 47.54257 3.901 1441.68 1441.65 1441.93 1441.33 1441.31 1441.52 0
2012/2013 024 26 -77.6698 166.06025 106.0 2012-11-30T23:45:30Z 2012-12-01 11:45:30 12 -1.8603 -1.8625 34.6728 2.726775 27.267748 1028.4329 27.9168 27.9167 107.15 3.99145 5.70418 173.417 47.31985 3.901 1441.7 1441.66 1441.94 1441.33 1441.31 1441.52 0
2012/2013 024 26 -77.6698 166.06025 107.0 2012-11-30T23:45:35Z 2012-12-01 11:45:35 12 -1.8603 -1.8624 34.6728 2.726832 27.268319 1028.4378 27.9168 27.9168 108.161 3.99335 5.7069 173.499 47.34251 3.902 1441.71 1441.68 1441.96 1441.33 1441.31 1441.52 0
2012/2013 101 27 -77.5889 165.83153 3.0 2012-12-02T22:41:33Z 2012-12-03 10:41:33 12 -1.6799 -1.68 34.5725 2.729855 27.298555 1027.8447 27.8301 27.8301 3.032 4.87896 6.97253 211.995 58.08208 3.855 1440.74 1440.73 1440.94 1447.16 1447.12 1447.37 0
2012/2013 101 27 -77.5889 165.83153 4.0 2012-12-02T22:41:44Z 2012-12-03 10:41:44 12 -1.6987 -1.6988 34.5695 2.728116 27.281163 1027.8477 27.8282 27.8282 4.042 4.97972 7.11652 216.373 59.25054 3.859 1440.66 1440.66 1440.87 1447.16 1447.12 1447.37 0
2012/2013 101 27 -77.5889 165.83153 5.0 2012-12-02T22:41:46Z 2012-12-03 10:41:46 12 -1.6984 -1.6985 34.569 2.728157 27.281564 1027.8522 27.8278 27.8278 5.053 4.97159 7.1049 216.02 59.15418 3.86 1440.68 1440.67 1440.89 1447.16 1447.12 1447.37 0
2012/2013 101 27 -77.5889 165.83153 6.0 2012-12-02T22:41:48Z 2012-12-03 10:41:48 12 -1.7071 -1.7072 34.5754 2.727938 27.279383 1027.8625 27.8333 27.8333 6.063 4.94289 7.06388 214.771 58.80152 3.86 1440.66 1440.66 1440.87 1447.16 1447.12 1447.37 0
2012/2013 101 27 -77.5889 165.83153 7.0 2012-12-02T22:41:50Z 2012-12-03 10:41:50 12 -1.7194 -1.7195 34.5858 2.727699 27.276986 1027.8762 27.8421 27.8421 7.074 4.84072 6.91788 210.331 57.57132 3.86 1440.64 1440.63 1440.84 1447.16 1447.12 1447.37 0
2012/2013 101 27 -77.5889 165.83153 8.0 2012-12-02T22:41:52Z 2012-12-03 10:41:51 12 -1.7169 -1.7171 34.5837 2.727804 27.278034 1027.8793 27.8404 27.8404 8.085 4.84303 6.92117 210.431 57.60168 3.861 1440.66 1440.65 1440.87 1447.16 1447.12 1447.37 0
2012/2013 101 27 -77.5889 165.83153 9.0 2012-12-02T22:41:53Z 2012-12-03 10:41:53 12 -1.7286 -1.7288 34.5892 2.727268 27.272682 1027.8889 27.8451 27.8451 9.095 4.89188 6.99099 212.553 58.16675 3.861 1440.63 1440.62 1440.84 1447.16 1447.12 1447.37 0
2012/2013 101 27 -77.5889 165.83153 10.0 2012-12-02T22:41:55Z 2012-12-03 10:41:55 12 -1.7366 -1.7368 34.5972 2.727217 27.272165 1027.9005 27.8518 27.8518 10.106 4.75883 6.80085 206.771 56.57571 3.861 1440.62 1440.61 1440.83 1447.16 1447.12 1447.37 0
2012/2013 101 27 -77.5889 165.83153 11.0 2012-12-02T22:41:57Z 2012-12-03 10:41:57 12 -1.7361 -1.7363 34.5961 2.72723 27.272297 1027.9045 27.851 27.851 11.117 4.81954 6.8876 209.408 57.29777 3.861 1440.63 1440.63 1440.84 1447.16 1447.12 1447.37 0
2012/2013 101 27 -77.5889 165.83153 12.0 2012-12-02T22:41:59Z 2012-12-03 10:41:59 12 -1.7354 -1.7356 34.5956 2.727297 27.272972 1027.909 27.8505 27.8505 12.127 4.83276 6.90649 209.983 57.45575 3.862 1440.65 1440.64 1440.86 1447.16 1447.12 1447.37 0
2012/2013 101 27 -77.5889 165.83153 13.0 2012-12-02T22:42:01Z 2012-12-03 10:42:01 12 -1.7343 -1.7345 34.5938 2.727313 27.273126 1027.9123 27.8491 27.8491 13.138 4.85912 6.94416 211.129 57.7702 3.862 1440.67 1440.66 1440.88 1447.16 1447.12 1447.37 0
2012/2013 101 27 -77.5889 165.83153 14.0 2012-12-02T22:42:04Z 2012-12-03 10:42:04 12 -1.735 -1.7352 34.5917 2.72715 27.2715 1027.9155 27.8474 27.8474 14.149 4.86821 6.95715 211.524 57.87627 3.863 1440.68 1440.67 1440.89 1447.16 1447.12 1447.37 0
2012/2013 101 27 -77.5889 165.83153 15.0 2012-12-02T22:42:06Z 2012-12-03 10:42:06 12 -1.7364 -1.7367 34.5931 2.727181 27.271809 1027.9216 27.8485 27.8485 15.159 4.83882 6.91515 210.246 57.52527 3.863 1440.7 1440.69 1440.91 1447.16 1447.12 1447.37 0
2012/2013 101 27 -77.5889 165.83153 16.0 2012-12-02T22:42:08Z 2012-12-03 10:42:08 12 -1.7356 -1.7359 34.5924 2.72724 27.272398 1027.9258 27.8479 27.8479 16.17 4.84802 6.9283 210.646 57.63556 3.864 1440.72 1440.71 1440.93 1447.16 1447.12 1447.37 0
2012/2013 101 27 -77.5889 165.83153 17.0 2012-12-02T22:42:10Z 2012-12-03 10:42:10 12 -1.7356 -1.7359 34.5929 2.727321 27.273212 1027.9311 27.8483 27.8483 17.181 4.85192 6.93388 210.816 57.68221 3.864 1440.73 1440.72 1440.94 1447.16 1447.12 1447.37 0
2012/2013 101 27 -77.5889 165.83153 18.0 2012-12-02T22:42:12Z 2012-12-03 10:42:12 12 -1.7351 -1.7354 34.5923 2.72737 27.273701 1027.9355 27.8478 27.8478 18.191 4.88538 6.9817 212.27 58.08054 3.865 1440.75 1440.74 1440.96 1447.16 1447.12 1447.37 0
2012/2013 101 27 -77.5889 165.83153 19.0 2012-12-02T22:42:14Z 2012-12-03 10:42:14 12 -1.7355 -1.7359 34.5911 2.727294 27.272937 1027.9393 27.8468 27.8468 19.202 4.84006 6.91693 210.301 57.54059 3.865 1440.76 1440.75 1440.97 1447.16 1447.12 1447.37 0
2012/2013 101 27 -77.5889 165.83153 20.0 2012-12-02T22:42:16Z 2012-12-03 10:42:16 12 -1.7369 -1.7373 34.5931 2.727364 27.273642 1027.9459 27.8485 27.8485 20.213 4.89881 7.00089 212.853 58.23766 3.866 1440.77 1440.76 1440.99 1444.99 1444.95 1445.2 0
2012/2013 101 27 -77.5889 165.83153 21.0 2012-12-02T22:42:18Z 2012-12-03 10:42:18 12 -1.7385 -1.7389 34.5947 2.727398 27.273979 1027.9522 27.8499 27.8499 21.223 4.88532 6.98161 212.267 58.07546 3.866 1440.78 1440.77 1441.0 1443.94 1443.91 1444.15 0
2012/2013 101 27 -77.5889 165.83153 22.0 2012-12-02T22:42:21Z 2012-12-03 10:42:21 12 -1.7391 -1.7395 34.5939 2.727334 27.273337 1027.9563 27.8492 27.8492 22.234 4.891 6.98973 212.514 58.14174 3.867 1440.8 1440.79 1441.01 1443.97 1443.94 1444.18 0
2012/2013 101 27 -77.5889 165.83153 23.0 2012-12-02T22:42:23Z 2012-12-03 10:42:23 12 -1.7413 -1.7418 34.5944 2.727233 27.27233 1027.9617 27.8497 27.8497 23.245 4.90744 7.01322 213.228 58.33377 3.867 1440.8 1440.79 1441.02 1443.97 1443.94 1444.18 0
2012/2013 101 27 -77.5889 165.83153 24.0 2012-12-02T22:42:25Z 2012-12-03 10:42:25 12 -1.7478 -1.7483 34.5946 2.726755 27.267543 1027.9669 27.8501 27.85 24.255 4.89154 6.9905 212.537 58.13477 3.868 1440.79 1440.78 1441.0 1443.97 1443.94 1444.18 0
2012/2013 101 27 -77.5889 165.83153 25.0 2012-12-02T22:42:28Z 2012-12-03 10:42:28 12 -1.7524 -1.7529 34.5886 2.725981 27.259813 1027.967 27.8453 27.8453 25.266 4.86259 6.94912 211.28 57.78097 3.868 1440.78 1440.76 1440.99 1443.97 1443.94 1444.18 0
2012/2013 101 27 -77.5889 165.83153 26.0 2012-12-02T22:42:30Z 2012-12-03 10:42:30 12 -1.7507 -1.7512 34.6004 2.727024 27.270238 1027.9815 27.8549 27.8549 26.277 4.87629 6.96871 211.873 57.95143 3.868 1440.81 1440.8 1441.03 1443.97 1443.94 1444.18 0
2012/2013 101 27 -77.5889 165.83153 27.0 2012-12-02T22:42:32Z 2012-12-03 10:42:32 12 -1.7505 -1.7511 34.601 2.727121 27.271208 1027.9868 27.8553 27.8553 27.288 4.89388 6.99384 212.637 58.1609 3.868 1440.83 1440.82 1441.05 1443.97 1443.94 1444.18 0
2012/2013 101 27 -77.5889 165.83153 28.0 2012-12-02T22:42:34Z 2012-12-03 10:42:34 12 -1.7494 -1.75 34.6019 2.727325 27.273247 1027.9924 27.856 27.856 28.298 4.89325 6.99294 212.61 58.15552 3.869 1440.86 1440.84 1441.07 1443.97 1443.94 1444.18 0
2012/2013 101 27 -77.5889 165.83153 29.0 2012-12-02T22:42:36Z 2012-12-03 10:42:36 12 -1.7486 -1.7492 34.6031 2.727526 27.275258 1027.9982 27.857 27.8569 29.309 4.86445 6.95179 211.359 57.81508 3.869 1440.88 1440.86 1441.09 1443.97 1443.94 1444.18 0
2012/2013 101 27 -77.5889 165.83153 30.0 2012-12-02T22:42:39Z 2012-12-03 10:42:39 12 -1.7478 -1.7484 34.6036 2.727675 27.276748 1028.0034 27.8574 27.8573 30.32 4.8874 6.98459 212.356 58.08932 3.869 1440.9 1440.89 1441.12 1443.97 1443.94 1444.18 0
2012/2013 101 27 -77.5889 165.83153 31.0 2012-12-02T22:42:41Z 2012-12-03 10:42:41 12 -1.7493 -1.7499 34.6046 2.727672 27.276725 1028.0092 27.8583 27.8583 31.33 4.88875 6.98651 212.414 58.10338 3.869 1440.91 1440.9 1441.13 1443.97 1443.94 1444.18 0
2012/2013 101 27 -77.5889 165.83153 32.0 2012-12-02T22:42:43Z 2012-12-03 10:42:43 12 -1.7506 -1.7512 34.6062 2.727729 27.277295 1028.0154 27.8596 27.8596 32.341 4.87358 6.96483 211.755 57.92176 3.87 1440.92 1440.91 1441.14 1443.97 1443.94 1444.18 0
2012/2013 101 27 -77.5889 165.83153 33.0 2012-12-02T22:42:46Z 2012-12-03 10:42:46 12 -1.7505 -1.7512 34.6062 2.727779 27.277792 1028.0203 27.8596 27.8596 33.352 4.90807 7.01412 213.253 58.33177 3.87 1440.94 1440.92 1441.16 1443.97 1443.94 1444.18 0
2012/2013 101 27 -77.5889 165.83153 34.0 2012-12-02T22:42:48Z 2012-12-03 10:42:48 12 -1.7512 -1.7519 34.6064 2.727786 27.277868 1028.0253 27.8598 27.8598 34.363 4.87266 6.96352 211.715 57.90998 3.87 1440.95 1440.94 1441.17 1443.97 1443.94 1444.18 0
2012/2013 101 27 -77.5889 165.83153 35.0 2012-12-02T22:42:51Z 2012-12-03 10:42:51 12 -1.7523 -1.753 34.6067 2.72776 27.277597 1028.0304 27.86 27.86 35.374 4.90185 7.00523 212.983 58.25526 3.871 1440.97 1440.95 1441.18 1443.97 1443.94 1444.18 0
2012/2013 101 27 -77.5889 165.83153 36.0 2012-12-02T22:42:53Z 2012-12-03 10:42:53 12 -1.7568 -1.7575 34.6103 2.727687 27.276874 1028.0383 27.8631 27.863 36.384 4.88538 6.98169 212.267 58.054 3.871 1440.96 1440.95 1441.18 1443.97 1443.94 1444.18 0
2012/2013 101 27 -77.5889 165.83153 37.0 2012-12-02T22:42:55Z 2012-12-03 10:42:55 12 -1.7586 -1.7593 34.6116 2.727682 27.276824 1028.0444 27.8642 27.8642 37.395 4.86349 6.95042 211.315 57.79164 3.871 1440.97 1440.96 1441.19 1443.97 1443.94 1444.18 0
2012/2013 101 27 -77.5889 165.83153 38.0 2012-12-02T22:42:58Z 2012-12-03 10:42:58 12 -1.7613 -1.762 34.6137 2.727651 27.27651 1028.051 27.866 27.866 38.406 4.8792 6.97286 211.997 57.97487 3.872 1440.98 1440.96 1441.2 1443.97 1443.94 1444.18 0
2012/2013 101 27 -77.5889 165.83153 39.0 2012-12-02T22:43:00Z 2012-12-03 10:43:00 12 -1.7703 -1.7711 34.6183 2.727273 27.27273 1028.0599 27.87 27.87 39.417 4.72038 6.74589 205.096 56.076 3.871 1440.96 1440.94 1441.18 1443.97 1443.94 1444.18 0
2012/2013 101 27 -77.5889 165.83153 40.0 2012-12-02T22:43:02Z 2012-12-03 10:43:02 12 -1.7752 -1.7761 34.6241 2.727322 27.273215 1028.0696 27.8748 27.8748 40.427 4.88466 6.98066 212.233 58.02219 3.871 1440.96 1440.94 1441.18 1443.97 1443.94 1444.18 0
2012/2013 101 27 -77.5889 165.83153 41.0 2012-12-02T22:43:05Z 2012-12-03 10:43:04 12 -1.7783 -1.7791 34.6287 2.727442 27.274419 1028.0783 27.8787 27.8787 41.438 4.80026 6.86005 208.565 57.01682 3.872 1440.97 1440.95 1441.19 1443.97 1443.94 1444.18 0
2012/2013 101 27 -77.5889 165.83153 42.0 2012-12-02T22:43:07Z 2012-12-03 10:43:07 12 -1.7759 -1.7768 34.6333 2.728015 27.280152 1028.0869 27.8823 27.8823 42.449 4.82528 6.8958 209.651 57.31955 3.873 1441.0 1440.99 1441.22 1443.97 1443.94 1444.18 0
2012/2013 101 27 -77.5889 165.83153 43.0 2012-12-02T22:43:09Z 2012-12-03 10:43:09 12 -1.7725 -1.7734 34.6318 2.728235 27.282352 1028.0904 27.881 27.881 43.46 4.82268 6.8921 209.539 57.29332 3.873 1441.03 1441.02 1441.26 1443.97 1443.94 1444.18 0
2012/2013 101 27 -77.5889 165.83153 44.0 2012-12-02T22:43:12Z 2012-12-03 10:43:12 12 -1.7712 -1.7721 34.6336 2.728523 27.285232 1028.0967 27.8824 27.8824 44.47 4.84899 6.92969 210.682 57.60873 3.873 1441.06 1441.04 1441.28 1443.97 1443.94 1444.18 0
2012/2013 101 27 -77.5889 165.83153 45.0 2012-12-02T22:43:14Z 2012-12-03 10:43:14 12 -1.771 -1.7719 34.6309 2.728399 27.283987 1028.0994 27.8803 27.8803 45.482 4.85778 6.94226 211.064 57.7124 3.874 1441.07 1441.05 1441.29 1443.97 1443.94 1444.18 0
2012/2013 101 27 -77.5889 165.83153 46.0 2012-12-02T22:43:17Z 2012-12-03 10:43:17 12 -1.7722 -1.7731 34.6338 2.728553 27.285527 1028.1066 27.8826 27.8826 46.492 4.85346 6.93609 210.876 57.66046 3.874 1441.08 1441.07 1441.31 1442.61 1442.59 1442.83 0
2012/2013 101 27 -77.5889 165.83153 47.0 2012-12-02T22:43:19Z 2012-12-03 10:43:19 12 -1.7615 -1.7625 34.6363 2.72967 27.296699 1028.1132 27.8844 27.8843 47.503 4.85727 6.94153 211.041 57.72334 3.875 1441.16 1441.14 1441.38 1442.23 1442.21 1442.45 0
2012/2013 101 27 -77.5889 165.83153 48.0 2012-12-02T22:43:21Z 2012-12-03 10:43:21 12 -1.7564 -1.7573 34.6354 2.730081 27.300808 1028.1172 27.8835 27.8835 48.514 4.88988 6.98813 212.458 58.11851 3.877 1441.2 1441.18 1441.42 1442.24 1442.22 1442.46 0
2012/2013 101 27 -77.5889 165.83153 49.0 2012-12-02T22:43:23Z 2012-12-03 10:43:23 12 -1.7524 -1.7534 34.6363 2.730525 27.305246 1028.1227 27.8842 27.8841 49.525 4.76513 6.80985 207.038 56.64215 3.877 1441.23 1441.21 1441.45 1442.24 1442.22 1442.46 0
2012/2013 101 27 -77.5889 165.83153 50.0 2012-12-02T22:43:26Z 2012-12-03 10:43:26 12 -1.7519 -1.753 34.6378 2.730722 27.307223 1028.1288 27.8854 27.8853 50.535 4.9688 7.10091 215.887 59.06463 3.877 1441.25 1441.23 1441.48 1442.24 1442.22 1442.46 0
2012/2013 101 27 -77.5889 165.83153 51.0 2012-12-02T22:43:28Z 2012-12-03 10:43:28 12 -1.7487 -1.7498 34.6397 2.731167 27.311677 1028.1351 27.8868 27.8868 51.546 4.89334 6.99307 212.608 58.17336 3.879 1441.29 1441.27 1441.51 1442.24 1442.22 1442.46 0
2012/2013 101 27 -77.5889 165.83153 52.0 2012-12-02T22:43:30Z 2012-12-03 10:43:30 12 -1.7482 -1.7492 34.6398 2.731267 27.312669 1028.14 27.8868 27.8868 52.557 4.88686 6.9838 212.326 58.09719 3.879 1441.31 1441.29 1441.53 1442.24 1442.22 1442.46 0
2012/2013 101 27 -77.5889 165.83153 53.0 2012-12-02T22:43:33Z 2012-12-03 10:43:33 12 -1.7488 -1.7499 34.6403 2.731295 27.312955 1028.1453 27.8873 27.8872 53.568 4.88452 6.98047 212.224 58.06866 3.88 1441.32 1441.3 1441.54 1442.24 1442.22 1442.46 0
2012/2013 101 27 -77.5889 165.83153 54.0 2012-12-02T22:43:35Z 2012-12-03 10:43:35 12 -1.7485 -1.7496 34.64 2.731352 27.313516 1028.1499 27.887 27.887 54.579 4.90145 7.00466 212.96 58.27028 3.881 1441.34 1441.32 1441.56 1442.24 1442.22 1442.46 0
2012/2013 101 27 -77.5889 165.83153 55.0 2012-12-02T22:43:37Z 2012-12-03 10:43:37 12 -1.7486 -1.7497 34.6414 2.731497 27.314967 1028.1559 27.8882 27.8882 55.589 4.90224 7.00579 212.994 58.28022 3.881 1441.36 1441.33 1441.58 1442.24 1442.22 1442.46 0
2012/2013 101 27 -77.5889 165.83153 56.0 2012-12-02T22:43:40Z 2012-12-03 10:43:40 12 -1.7483 -1.7495 34.642 2.731604 27.316043 1028.1613 27.8887 27.8886 56.601 4.89934 7.00165 212.868 58.24631 3.881 1441.37 1441.35 1441.6 1442.24 1442.22 1442.46 0
2012/2013 101 27 -77.5889 165.83153 57.0 2012-12-02T22:43:42Z 2012-12-03 10:43:42 12 -1.7492 -1.7503 34.6428 2.731634 27.316342 1028.1667 27.8893 27.8893 57.612 4.89448 6.9947 212.657 58.1875 3.882 1441.39 1441.37 1441.61 1442.24 1442.22 1442.46 0
2012/2013 101 27 -77.5889 165.83153 58.0 2012-12-02T22:43:45Z 2012-12-03 10:43:45 12 -1.7511 -1.7523 34.6428 2.731522 27.31522 1028.1717 27.8894 27.8894 58.622 4.90211 7.00561 212.988 58.27522 3.882 1441.4 1441.37 1441.62 1442.24 1442.22 1442.46 0
2012/2013 101 27 -77.5889 165.83153 59.0 2012-12-02T22:43:47Z 2012-12-03 10:43:47 12 -1.7529 -1.7541 34.6437 2.731477 27.314767 1028.1773 27.8901 27.8901 59.633 4.89065 6.98923 212.49 58.13647 3.883 1441.41 1441.38 1441.63 1442.24 1442.22 1442.46 0
2012/2013 101 27 -77.5889 165.83153 60.0 2012-12-02T22:43:50Z 2012-12-03 10:43:50 12 -1.7531 -1.7543 34.6435 2.731497 27.314966 1028.1821 27.89 27.8899 60.644 4.91459 7.02344 213.53 58.42068 3.883 1441.42 1441.4 1441.65 1442.24 1442.22 1442.46 0
2012/2013 101 27 -77.5889 165.83153 61.0 2012-12-02T22:43:52Z 2012-12-03 10:43:52 12 -1.7542 -1.7554 34.6439 2.731487 27.31487 1028.1873 27.8904 27.8904 61.655 4.90931 7.0159 213.301 58.35648 3.883 1441.43 1441.41 1441.66 1442.24 1442.22 1442.46 0
2012/2013 101 27 -77.5889 165.83153 62.0 2012-12-02T22:43:55Z 2012-12-03 10:43:55 12 -1.7536 -1.7549 34.6434 2.731538 27.315379 1028.1917 27.8899 27.8899 62.666 4.91271 7.02076 213.449 58.39752 3.883 1441.45 1441.42 1441.68 1442.24 1442.22 1442.46 0
2012/2013 101 27 -77.5889 165.83153 63.0 2012-12-02T22:43:57Z 2012-12-03 10:43:57 12 -1.7533 -1.7546 34.6437 2.731635 27.316349 1028.1968 27.8902 27.8901 63.676 4.92846 7.04326 214.133 58.58537 3.883 1441.47 1441.44 1441.69 1442.24 1442.22 1442.46 0
2012/2013 101 27 -77.5889 165.83153 64.0 2012-12-02T22:44:00Z 2012-12-03 10:44:00 12 -1.7533 -1.7546 34.643 2.731635 27.316345 1028.2011 27.8896 27.8896 64.687 4.9334 7.05032 214.347 58.6438 3.883 1441.48 1441.46 1441.71 1442.24 1442.22 1442.46 0
2012/2013 101 27 -77.5889 165.83153 65.0 2012-12-02T22:44:02Z 2012-12-03 10:44:02 12 -1.7547 -1.7561 34.6437 2.731606 27.316058 1028.2065 27.8902 27.8901 65.698 4.929 7.04403 214.156 58.58946 3.883 1441.49 1441.47 1441.72 1442.24 1442.22 1442.46 0
2012/2013 101 27 -77.5889 165.83153 66.0 2012-12-02T22:44:05Z 2012-12-03 10:44:05 12 -1.7551 -1.7565 34.6441 2.731655 27.316549 1028.2118 27.8906 27.8905 66.709 4.91374 7.02222 213.493 58.40772 3.883 1441.51 1441.48 1441.74 1442.24 1442.22 1442.46 0
2012/2013 101 27 -77.5889 165.83153 67.0 2012-12-02T22:44:07Z 2012-12-03 10:44:07 12 -1.7546 -1.756 34.6441 2.731742 27.317417 1028.2166 27.8905 27.8905 67.721 4.91923 7.03007 213.732 58.47371 3.883 1441.53 1441.5 1441.76 1442.24 1442.22 1442.46 0
2012/2013 101 27 -77.5889 165.83153 68.0 2012-12-02T22:44:09Z 2012-12-03 10:44:09 12 -1.7546 -1.756 34.6442 2.731796 27.317957 1028.2216 27.8906 27.8906 68.731 4.95181 7.07663 215.147 58.86102 3.883 1441.55 1441.52 1441.77 1442.24 1442.22 1442.46 0
2012/2013 101 27 -77.5889 165.83153 69.0 2012-12-02T22:44:12Z 2012-12-03 10:44:12 12 -1.7523 -1.7537 34.6439 2.732017 27.320167 1028.2261 27.8903 27.8903 69.742 4.94574 7.06795 214.884 58.79241 3.882 1441.57 1441.54 1441.8 1442.24 1442.22 1442.46 0
2012/2013 101 27 -77.5889 165.83153 70.0 2012-12-02T22:44:15Z 2012-12-03 10:44:15 12 -1.7521 -1.7535 34.6438 2.73207 27.320696 1028.2309 27.8902 27.8901 70.753 4.96639 7.09747 215.781 59.03822 3.882 1441.59 1441.56 1441.82 1442.21 1442.19 1442.43 0
2012/2013 101 27 -77.5889 165.83153 71.0 2012-12-02T22:44:18Z 2012-12-03 10:44:18 12 -1.7535 -1.755 34.6427 2.731916 27.31916 1028.2349 27.8893 27.8893 71.764 4.94687 7.06957 214.933 58.80334 3.882 1441.6 1441.57 1441.82 1441.94 1441.91 1442.15 0
2012/2013 101 27 -77.5889 165.83153 72.0 2012-12-02T22:44:21Z 2012-12-03 10:44:21 12 -1.7548 -1.7563 34.6436 2.731917 27.319176 1028.2405 27.8901 27.8901 72.775 4.95449 7.08046 215.264 58.89222 3.882 1441.61 1441.58 1441.84 1441.93 1441.9 1442.14 0
2012/2013 101 27 -77.5889 165.83153 73.0 2012-12-02T22:44:23Z 2012-12-03 10:44:23 12 -1.7524 -1.7539 34.6429 2.732119 27.321192 1028.2448 27.8895 27.8894 73.786 4.97915 7.1157 216.335 59.18899 3.882 1441.64 1441.61 1441.87 1441.93 1441.9 1442.14 0
2012/2013 101 27 -77.5889 165.83153 74.0 2012-12-02T22:44:25Z 2012-12-03 10:44:25 12 -1.7532 -1.7548 34.6432 2.732119 27.321187 1028.2499 27.8898 27.8897 74.797 4.99099 7.13263 216.85 59.32857 3.882 1441.65 1441.62 1441.88 1441.93 1441.9 1442.14 0
2012/2013 101 27 -77.5889 165.83153 75.0 2012-12-02T22:44:28Z 2012-12-03 10:44:28 12 -1.7526 -1.7541 34.6424 2.732162 27.321622 1028.2541 27.8891 27.889 75.807 4.98272 7.1208 216.491 59.23089 3.881 1441.67 1441.64 1441.9 1441.93 1441.9 1442.14 0
2012/2013 101 27 -77.5889 165.83153 76.0 2012-12-02T22:44:30Z 2012-12-03 10:44:30 12 -1.7516 -1.7532 34.6436 2.732383 27.323828 1028.2599 27.8901 27.89 76.818 4.97905 7.11556 216.331 59.18938 3.881 1441.69 1441.66 1441.92 1441.93 1441.9 1442.14 0
2012/2013 101 27 -77.5889 165.83153 77.0 2012-12-02T22:44:32Z 2012-12-03 10:44:32 12 -1.7496 -1.7513 34.6425 2.732513 27.325134 1028.2639 27.8891 27.8891 77.83 5.01726 7.17017 217.991 59.64633 3.881 1441.71 1441.68 1441.94 1441.93 1441.9 1442.14 0
2012/2013 101 27 -77.5889 165.83153 78.0 2012-12-02T22:44:35Z 2012-12-03 10:44:35 12 -1.7496 -1.7513 34.6421 2.732532 27.325322 1028.2684 27.8888 27.8887 78.841 4.98287 7.12103 216.497 59.23738 3.881 1441.73 1441.7 1441.96 1441.93 1441.9 1442.14 0
2012/2013 101 27 -77.5889 165.83153 79.0 2012-12-02T22:44:37Z 2012-12-03 10:44:37 12 -1.7499 -1.7515 34.6423 2.732572 27.325722 1028.2734 27.889 27.8889 79.852 5.02201 7.17695 218.198 59.70232 3.881 1441.75 1441.72 1441.97 1441.93 1441.9 1442.14 0
2012/2013 101 27 -77.5889 165.83153 80.0 2012-12-02T22:44:40Z 2012-12-03 10:44:40 12 -1.7491 -1.7508 34.6422 2.73268 27.326803 1028.2782 27.8889 27.8888 80.863 4.99339 7.13606 216.954 59.36335 3.881 1441.76 1441.73 1441.99 1441.93 1441.9 1442.14 0
2012/2013 101 27 -77.5889 165.83153 81.0 2012-12-02T22:44:42Z 2012-12-03 10:44:42 12 -1.754 -1.7557 34.6397 2.732131 27.321304 1028.2812 27.887 27.8869 81.873 5.02683 7.18384 218.407 59.75175 3.88 1441.75 1441.72 1441.98 1441.93 1441.9 1442.14 0
2012/2013 101 27 -77.5889 165.83153 82.0 2012-12-02T22:44:45Z 2012-12-03 10:44:45 12 -1.7578 -1.7595 34.6412 2.73197 27.319701 1028.2873 27.8882 27.8882 82.885 4.9903 7.13164 216.82 59.31227 3.88 1441.75 1441.72 1441.98 1441.93 1441.9 1442.14 0
2012/2013 101 27 -77.5889 165.83153 83.0 2012-12-02T22:44:48Z 2012-12-03 10:44:48 12 -1.7995 -1.8012 34.6379 2.728294 27.282936 1028.2908 27.8868 27.8867 83.896 4.91122 7.01862 213.384 58.30543 3.879 1441.57 1441.54 1441.8 1441.93 1441.9 1442.14 0
2012/2013 101 27 -77.5889 165.83153 84.0 2012-12-02T22:44:51Z 2012-12-03 10:44:51 12 -1.8115 -1.8132 34.6473 2.728009 27.280089 1028.3037 27.8947 27.8947 84.907 4.86128 6.94726 211.213 57.69762 3.879 1441.54 1441.51 1441.77 1441.93 1441.9 1442.14 0
2012/2013 101 27 -77.5889 165.83153 85.0 2012-12-02T22:44:53Z 2012-12-03 10:44:53 12 -1.8134 -1.8151 34.6463 2.727828 27.278277 1028.3078 27.894 27.8939 85.918 4.89012 6.98846 212.466 58.03644 3.879 1441.55 1441.52 1441.78 1441.93 1441.9 1442.14 0
2012/2013 101 27 -77.5889 165.83153 86.0 2012-12-02T22:44:56Z 2012-12-03 10:44:56 12 -1.8166 -1.8183 34.6469 2.727647 27.276471 1028.3132 27.8945 27.8945 86.929 4.90889 7.01529 213.281 58.25438 3.879 1441.55 1441.52 1441.78 1441.93 1441.9 1442.14 0
2012/2013 101 27 -77.5889 165.83153 87.0 2012-12-02T22:44:59Z 2012-12-03 10:44:59 12 -1.8223 -1.8241 34.6482 2.727313 27.273132 1028.3193 27.8958 27.8957 87.94 4.89987 7.0024 212.889 58.13897 3.878 1441.54 1441.51 1441.77 1441.93 1441.9 1442.14 0
2012/2013 101 27 -77.5889 165.83153 88.0 2012-12-02T22:45:02Z 2012-12-03 10:45:02 12 -1.8241 -1.8259 34.6488 2.727256 27.272557 1028.3248 27.8963 27.8963 88.951 4.89284 6.99236 212.584 58.05311 3.878 1441.54 1441.51 1441.78 1441.93 1441.9 1442.14 0
2012/2013 101 27 -77.5889 165.83153 89.0 2012-12-02T22:45:04Z 2012-12-03 10:45:04 12 -1.8246 -1.8264 34.6487 2.72725 27.272506 1028.3296 27.8963 27.8962 89.962 4.90989 7.01673 213.325 58.25449 3.878 1441.56 1441.53 1441.8 1441.93 1441.9 1442.14 0
2012/2013 101 27 -77.5889 165.83153 90.0 2012-12-02T22:45:07Z 2012-12-03 10:45:07 12 -1.8244 -1.8263 34.6489 2.727327 27.273269 1028.3346 27.8964 27.8964 90.973 4.91644 7.02608 213.609 58.33253 3.878 1441.58 1441.54 1441.81 1441.93 1441.9 1442.14 0
2012/2013 101 27 -77.5889 165.83153 91.0 2012-12-02T22:45:16Z 2012-12-03 10:45:16 12 -1.8247 -1.8265 34.6488 2.727345 27.273454 1028.3394 27.8964 27.8963 91.984 4.91043 7.0175 213.348 58.26082 3.878 1441.59 1441.56 1441.83 1441.93 1441.9 1442.14 0
2012/2013 102 28 -77.59155 165.81462 3.0 2012-12-03T00:38:59Z 2012-12-03 12:38:59 12 -1.6763 -1.6764 34.5341 2.727402 27.274018 1027.8134 27.7988 27.7988 3.032 5.07906 7.25848 220.696 60.45357 3.862 1440.71 1440.7 1440.91 1447.82 1447.75 1447.81 0
2012/2013 102 28 -77.59155 165.81462 4.0 2012-12-03T00:39:53Z 2012-12-03 12:39:53 12 -1.6796 -1.6797 34.5359 2.7273 27.272996 1027.8198 27.8003 27.8003 4.042 5.20667 7.44085 226.24 61.96779 3.868 1440.71 1440.7 1440.91 1447.82 1447.75 1447.81 0
2012/2013 102 28 -77.59155 165.81462 5.0 2012-12-03T00:40:09Z 2012-12-03 12:40:09 12 -1.6836 -1.6837 34.5458 2.72773 27.277299 1027.8329 27.8085 27.8085 5.053 5.24119 7.49018 227.739 62.37647 3.869 1440.72 1440.71 1440.92 1447.82 1447.75 1447.81 0
2012/2013 102 28 -77.59155 165.81462 6.0 2012-12-03T00:40:19Z 2012-12-03 12:40:19 12 -1.7033 -1.7034 34.5779 2.728429 27.284287 1027.8644 27.8352 27.8352 6.064 5.04144 7.20472 219.053 59.98123 3.87 1440.69 1440.68 1440.89 1447.82 1447.75 1447.81 0
2012/2013 102 28 -77.59155 165.81462 7.0 2012-12-03T00:40:36Z 2012-12-03 12:40:36 12 -1.7148 -1.7149 34.587 2.72817 27.2817 1027.877 27.8429 27.8429 7.074 5.04418 7.20864 219.171 59.99903 3.871 1440.66 1440.65 1440.87 1447.82 1447.75 1447.81 0
2012/2013 102 28 -77.59155 165.81462 8.0 2012-12-03T00:40:38Z 2012-12-03 12:40:38 12 -1.7206 -1.7208 34.5884 2.727825 27.278247 1027.8832 27.8442 27.8442 8.085 5.05408 7.22278 219.601 60.10781 3.871 1440.65 1440.64 1440.86 1447.82 1447.75 1447.81 0
2012/2013 102 28 -77.59155 165.81462 9.0 2012-12-03T00:40:42Z 2012-12-03 12:40:42 12 -1.7245 -1.7247 34.5902 2.727682 27.276815 1027.8896 27.8458 27.8458 9.095 5.05125 7.21875 219.477 60.06876 3.871 1440.65 1440.64 1440.86 1447.82 1447.75 1447.81 0
2012/2013 102 28 -77.59155 165.81462 10.0 2012-12-03T00:40:47Z 2012-12-03 12:40:47 12 -1.7289 -1.7291 34.593 2.727558 27.275581 1027.8969 27.8482 27.8482 10.106 5.03984 7.20243 218.981 59.92709 3.872 1440.65 1440.64 1440.86 1447.82 1447.75 1447.81 0
2012/2013 102 28 -77.59155 165.81462 11.0 2012-12-03T00:40:50Z 2012-12-03 12:40:50 12 -1.7327 -1.7329 34.5951 2.727435 27.274346 1027.9035 27.85 27.85 11.117 5.02804 7.18557 218.468 59.78154 3.872 1440.65 1440.64 1440.86 1447.82 1447.75 1447.81 0
2012/2013 102 28 -77.59155 165.81462 12.0 2012-12-03T00:40:54Z 2012-12-03 12:40:53 12 -1.733 -1.7333 34.5953 2.727475 27.274753 1027.9087 27.8502 27.8502 12.127 5.05231 7.22025 219.522 60.06968 3.872 1440.66 1440.65 1440.87 1447.82 1447.75 1447.81 0
2012/2013 102 28 -77.59155 165.81462 13.0 2012-12-03T00:40:57Z 2012-12-03 12:40:57 12 -1.7366 -1.7369 34.597 2.727342 27.273415 1027.915 27.8517 27.8517 13.138 5.06033 7.23171 219.871 60.15991 3.872 1440.67 1440.66 1440.88 1447.82 1447.75 1447.81 0
2012/2013 102 28 -77.59155 165.81462 14.0 2012-12-03T00:41:00Z 2012-12-03 12:41:00 12 -1.7355 -1.7358 34.5958 2.727392 27.273916 1027.9188 27.8507 27.8507 14.149 5.06185 7.2339 219.937 60.1793 3.873 1440.69 1440.68 1440.9 1447.82 1447.75 1447.81 0
2012/2013 102 28 -77.59155 165.81462 15.0 2012-12-03T00:41:04Z 2012-12-03 12:41:03 12 -1.7448 -1.7451 34.6001 2.726978 27.269784 1027.9275 27.8545 27.8545 15.159 5.05402 7.2227 219.596 60.07309 3.873 1440.66 1440.65 1440.87 1447.82 1447.75 1447.81 0
2012/2013 102 28 -77.59155 165.81462 16.0 2012-12-03T00:41:06Z 2012-12-03 12:41:06 12 -1.7455 -1.7458 34.6002 2.726971 27.269712 1027.9325 27.8546 27.8546 16.17 5.0676 7.24212 220.186 60.23338 3.872 1440.68 1440.67 1440.89 1447.82 1447.75 1447.81 0
2012/2013 102 28 -77.59155 165.81462 17.0 2012-12-03T00:41:09Z 2012-12-03 12:41:09 12 -1.7458 -1.7461 34.6003 2.727001 27.270012 1027.9374 27.8547 27.8547 17.181 5.04083 7.20385 219.023 59.91471 3.873 1440.69 1440.68 1440.9 1447.82 1447.75 1447.81 0
2012/2013 102 28 -77.59155 165.81462 18.0 2012-12-03T00:41:12Z 2012-12-03 12:41:12 12 -1.7444 -1.7447 34.6004 2.727168 27.271678 1027.9423 27.8546 27.8546 18.191 5.07086 7.24676 220.327 60.2739 3.873 1440.71 1440.7 1440.93 1447.82 1447.75 1447.81 0
2012/2013 102 28 -77.59155 165.81462 19.0 2012-12-03T00:41:15Z 2012-12-03 12:41:15 12 -1.7474 -1.7477 34.6004 2.726973 27.26973 1027.9473 27.8548 27.8548 19.202 5.07294 7.24974 220.418 60.29391 3.873 1440.72 1440.71 1440.93 1447.82 1447.75 1447.81 0
2012/2013 102 28 -77.59155 165.81462 20.0 2012-12-03T00:41:17Z 2012-12-03 12:41:17 12 -1.7513 -1.7517 34.6038 2.726934 27.269341 1027.9551 27.8577 27.8577 20.213 5.07838 7.25752 220.654 60.35363 3.873 1440.72 1440.71 1440.93 1445.33 1445.28 1445.39 0
2012/2013 102 28 -77.59155 165.81462 21.0 2012-12-03T00:41:20Z 2012-12-03 12:41:20 12 -1.752 -1.7525 34.605 2.726996 27.269962 1027.9608 27.8586 27.8586 21.223 5.08517 7.26721 220.948 60.43348 3.873 1440.73 1440.72 1440.95 1444.32 1444.28 1444.42 0
2012/2013 102 28 -77.59155 165.81462 22.0 2012-12-03T00:41:23Z 2012-12-03 12:41:23 12 -1.7525 -1.7529 34.6048 2.726999 27.269987 1027.9656 27.8585 27.8585 22.234 5.0424 7.2061 219.09 59.9245 3.874 1440.75 1440.74 1440.96 1444.27 1444.23 1444.37 0
2012/2013 102 28 -77.59155 165.81462 23.0 2012-12-03T00:41:26Z 2012-12-03 12:41:26 12 -1.7542 -1.7546 34.6083 2.727149 27.271489 1027.9733 27.8614 27.8613 23.245 5.08312 7.26429 220.859 60.40713 3.874 1440.76 1440.75 1440.98 1444.27 1444.23 1444.37 0
2012/2013 102 28 -77.59155 165.81462 24.0 2012-12-03T00:41:29Z 2012-12-03 12:41:29 12 -1.7507 -1.7512 34.6089 2.727536 27.275361 1027.9787 27.8618 27.8618 24.255 5.05702 7.22699 219.725 60.10291 3.874 1440.8 1440.78 1441.01 1444.27 1444.23 1444.37 0
2012/2013 102 28 -77.59155 165.81462 25.0 2012-12-03T00:41:32Z 2012-12-03 12:41:32 12 -1.7501 -1.7506 34.6091 2.727647 27.276471 1027.9837 27.862 27.8619 25.266 5.0691 7.24426 220.25 60.24756 3.875 1440.81 1440.8 1441.03 1444.27 1444.23 1444.37 0
2012/2013 102 28 -77.59155 165.81462 26.0 2012-12-03T00:41:35Z 2012-12-03 12:41:35 12 -1.7501 -1.7506 34.6092 2.7277 27.277002 1027.9886 27.862 27.862 26.277 5.08709 7.26996 221.031 60.46136 3.874 1440.83 1440.82 1441.04 1444.27 1444.23 1444.37 0
2012/2013 102 28 -77.59155 165.81462 27.0 2012-12-03T00:41:37Z 2012-12-03 12:41:37 12 -1.7505 -1.751 34.6097 2.727746 27.277461 1027.9939 27.8624 27.8624 27.287 5.06085 7.23246 219.891 60.14901 3.875 1440.85 1440.83 1441.06 1444.27 1444.23 1444.37 0
2012/2013 102 28 -77.59155 165.81462 28.0 2012-12-03T00:41:40Z 2012-12-03 12:41:40 12 -1.751 -1.7516 34.6092 2.727715 27.277148 1027.9983 27.862 27.862 28.298 5.11177 7.30523 222.104 60.75323 3.875 1440.86 1440.85 1441.07 1444.27 1444.23 1444.37 0
2012/2013 102 28 -77.59155 165.81462 29.0 2012-12-03T00:41:43Z 2012-12-03 12:41:43 12 -1.7532 -1.7538 34.6099 2.727635 27.276349 1028.0039 27.8627 27.8627 29.309 5.09253 7.27773 221.267 60.52128 3.875 1440.87 1440.85 1441.08 1444.27 1444.23 1444.37 0
2012/2013 102 28 -77.59155 165.81462 30.0 2012-12-03T00:41:46Z 2012-12-03 12:41:46 12 -1.7549 -1.7555 34.6112 2.727631 27.276315 1028.0098 27.8638 27.8638 30.32 5.08134 7.26174 220.781 60.38607 3.875 1440.88 1440.86 1441.09 1444.27 1444.23 1444.37 0
2012/2013 102 28 -77.59155 165.81462 31.0 2012-12-03T00:41:48Z 2012-12-03 12:41:48 12 -1.7565 -1.7572 34.6121 2.727605 27.276052 1028.0155 27.8646 27.8646 31.331 5.11346 7.30764 222.176 60.76545 3.875 1440.88 1440.87 1441.1 1444.27 1444.23 1444.37 0
2012/2013 102 28 -77.59155 165.81462 32.0 2012-12-03T00:41:51Z 2012-12-03 12:41:51 12 -1.7586 -1.7592 34.6144 2.727646 27.276454 1028.0223 27.8665 27.8665 32.341 5.06983 7.2453 220.28 60.24473 3.875 1440.9 1440.88 1441.11 1444.27 1444.23 1444.37 0
2012/2013 102 28 -77.59155 165.81462 33.0 2012-12-03T00:41:54Z 2012-12-03 12:41:54 12 -1.7568 -1.7575 34.6192 2.72818 27.281804 1028.031 27.8703 27.8703 33.352 5.04315 7.20716 219.12 59.9325 3.876 1440.93 1440.91 1441.14 1444.27 1444.23 1444.37 0
2012/2013 102 28 -77.59155 165.81462 34.0 2012-12-03T00:41:57Z 2012-12-03 12:41:57 12 -1.751 -1.7517 34.6201 2.728783 27.28783 1028.0364 27.8709 27.8709 34.363 5.06996 7.24549 220.285 60.2611 3.876 1440.97 1440.96 1441.19 1444.27 1444.23 1444.37 0
2012/2013 102 28 -77.59155 165.81462 35.0 2012-12-03T00:42:00Z 2012-12-03 12:42:00 12 -1.7443 -1.745 34.6204 2.729411 27.294106 1028.0414 27.871 27.871 35.374 5.10326 7.29307 221.732 60.66794 3.876 1441.02 1441.01 1441.24 1444.27 1444.23 1444.37 0
2012/2013 102 28 -77.59155 165.81462 36.0 2012-12-03T00:42:03Z 2012-12-03 12:42:03 12 -1.7392 -1.7399 34.6226 2.730041 27.300411 1028.0479 27.8726 27.8726 36.384 5.1143 7.30884 222.211 60.80841 3.877 1441.06 1441.05 1441.28 1444.27 1444.23 1444.37 0
2012/2013 102 28 -77.59155 165.81462 37.0 2012-12-03T00:42:06Z 2012-12-03 12:42:06 12 -1.734 -1.7348 34.6189 2.730251 27.302513 1028.0495 27.8694 27.8694 37.395 5.11105 7.3042 222.07 60.77665 3.877 1441.1 1441.08 1441.32 1444.27 1444.23 1444.37 0
2012/2013 102 28 -77.59155 165.81462 38.0 2012-12-03T00:42:09Z 2012-12-03 12:42:09 12 -1.7482 -1.749 34.6212 2.729279 27.292794 1028.0567 27.8717 27.8717 38.406 5.0784 7.25755 220.652 60.36641 3.877 1441.05 1441.03 1441.27 1444.27 1444.23 1444.37 0
2012/2013 102 28 -77.59155 165.81462 39.0 2012-12-03T00:42:12Z 2012-12-03 12:42:12 12 -1.7557 -1.7565 34.6232 2.728841 27.288412 1028.0634 27.8736 27.8735 39.417 5.07165 7.2479 220.358 60.27476 3.877 1441.04 1441.02 1441.25 1444.27 1444.23 1444.37 0
2012/2013 102 28 -77.59155 165.81462 40.0 2012-12-03T00:42:15Z 2012-12-03 12:42:15 12 -1.7553 -1.7561 34.6267 2.729174 27.291744 1028.0711 27.8764 27.8764 40.427 5.08507 7.26707 220.94 60.43645 3.877 1441.06 1441.04 1441.28 1444.27 1444.23 1444.37 0
2012/2013 102 28 -77.59155 165.81462 41.0 2012-12-03T00:42:18Z 2012-12-03 12:42:18 12 -1.7499 -1.7507 34.6264 2.729651 27.296508 1028.0756 27.876 27.8759 41.438 5.09355 7.27919 221.309 60.54589 3.877 1441.1 1441.08 1441.32 1442.7 1442.67 1442.86 0
2012/2013 102 28 -77.59155 165.81462 42.0 2012-12-03T00:42:21Z 2012-12-03 12:42:21 12 -1.748 -1.7488 34.6271 2.729908 27.299077 1028.081 27.8765 27.8765 42.449 5.11162 7.30501 222.094 60.76411 3.877 1441.13 1441.11 1441.35 1442.53 1442.5 1442.69 0
2012/2013 102 28 -77.59155 165.81462 43.0 2012-12-03T00:42:24Z 2012-12-03 12:42:24 12 -1.7451 -1.746 34.6286 2.730302 27.303023 1028.087 27.8776 27.8776 43.46 5.08812 7.27143 221.072 60.49008 3.878 1441.16 1441.14 1441.38 1442.54 1442.51 1442.7 0
2012/2013 102 28 -77.59155 165.81462 44.0 2012-12-03T00:42:27Z 2012-12-03 12:42:27 12 -1.7432 -1.7441 34.6297 2.730586 27.305862 1028.0926 27.8784 27.8784 44.471 5.11565 7.31077 222.268 60.82098 3.878 1441.19 1441.17 1441.41 1442.54 1442.51 1442.7 0
2012/2013 102 28 -77.59155 165.81462 45.0 2012-12-03T00:42:30Z 2012-12-03 12:42:30 12 -1.7386 -1.7395 34.6285 2.730937 27.30937 1028.0964 27.8774 27.8774 45.481 5.12528 7.32454 222.687 60.94259 3.878 1441.22 1441.21 1441.44 1442.54 1442.51 1442.7 0
2012/2013 102 28 -77.59155 165.81462 46.0 2012-12-03T00:42:33Z 2012-12-03 12:42:33 12 -1.7346 -1.7356 34.6307 2.73147 27.314701 1028.103 27.8791 27.879 46.492 5.12934 7.33034 222.863 60.99827 3.878 1441.26 1441.24 1441.48 1442.54 1442.51 1442.7 0
2012/2013 102 28 -77.59155 165.81462 47.0 2012-12-03T00:42:37Z 2012-12-03 12:42:37 12 -1.7345 -1.7354 34.6305 2.731511 27.315111 1028.1076 27.8789 27.8788 47.503 5.13186 7.33394 222.973 61.02839 3.878 1441.28 1441.26 1441.5 1442.54 1442.51 1442.7 0
2012/2013 102 28 -77.59155 165.81462 48.0 2012-12-03T00:42:40Z 2012-12-03 12:42:40 12 -1.7381 -1.7391 34.6327 2.731413 27.314132 1028.1145 27.8808 27.8808 48.514 5.12027 7.31737 222.469 60.88547 3.878 1441.28 1441.26 1441.5 1442.54 1442.51 1442.7 0
2012/2013 102 28 -77.59155 165.81462 49.0 2012-12-03T00:42:43Z 2012-12-03 12:42:43 12 -1.736 -1.737 34.6343 2.73175 27.317499 1028.1205 27.882 27.8819 49.525 5.12472 7.32373 222.662 60.94262 3.878 1441.31 1441.29 1441.53 1442.54 1442.51 1442.7 0
2012/2013 102 28 -77.59155 165.81462 50.0 2012-12-03T00:42:46Z 2012-12-03 12:42:46 12 -1.7405 -1.7416 34.6334 2.731356 27.313556 1028.1248 27.8814 27.8814 50.535 5.13055 7.33207 222.915 61.00416 3.879 1441.3 1441.28 1441.52 1442.54 1442.51 1442.7 0
2012/2013 102 28 -77.59155 165.81462 51.0 2012-12-03T00:42:49Z 2012-12-03 12:42:49 12 -1.7442 -1.7453 34.6353 2.731226 27.312256 1028.1313 27.883 27.883 51.546 5.13697 7.34125 223.194 61.07523 3.878 1441.3 1441.28 1441.53 1442.54 1442.51 1442.7 0
2012/2013 102 28 -77.59155 165.81462 52.0 2012-12-03T00:42:52Z 2012-12-03 12:42:52 12 -1.7476 -1.7487 34.637 2.731117 27.311167 1028.1377 27.8846 27.8846 52.557 5.13448 7.33768 223.085 61.04075 3.879 1441.31 1441.29 1441.53 1442.54 1442.51 1442.7 0
2012/2013 102 28 -77.59155 165.81462 53.0 2012-12-03T00:42:55Z 2012-12-03 12:42:55 12 -1.7554 -1.7565 34.6396 2.730695 27.306953 1028.1449 27.8869 27.8869 53.568 5.11054 7.30348 222.045 60.74453 3.879 1441.29 1441.27 1441.51 1442.54 1442.51 1442.7 0
2012/2013 102 28 -77.59155 165.81462 54.0 2012-12-03T00:42:59Z 2012-12-03 12:42:59 12 -1.7561 -1.7572 34.6401 2.730722 27.307222 1028.1502 27.8873 27.8873 54.579 5.10853 7.3006 221.957 60.7197 3.879 1441.3 1441.28 1441.53 1442.54 1442.51 1442.7 0
2012/2013 102 28 -77.59155 165.81462 55.0 2012-12-03T00:43:02Z 2012-12-03 12:43:02 12 -1.7575 -1.7587 34.6408 2.730702 27.30702 1028.1557 27.888 27.8879 55.59 5.12566 7.32509 222.702 60.92133 3.879 1441.31 1441.29 1441.54 1442.54 1442.51 1442.7 0
2012/2013 102 28 -77.59155 165.81462 56.0 2012-12-03T00:43:06Z 2012-12-03 12:43:06 12 -1.758 -1.7591 34.6417 2.730773 27.307735 1028.1613 27.8887 27.8886 56.6 5.13114 7.33291 222.939 60.98612 3.879 1441.33 1441.31 1441.55 1442.54 1442.51 1442.7 0
2012/2013 102 28 -77.59155 165.81462 57.0 2012-12-03T00:43:09Z 2012-12-03 12:43:09 12 -1.7581 -1.7593 34.6418 2.730819 27.308195 1028.1662 27.8888 27.8887 57.611 5.13723 7.34161 223.204 61.05831 3.879 1441.34 1441.32 1441.57 1442.54 1442.51 1442.7 0
2012/2013 102 28 -77.59155 165.81462 58.0 2012-12-03T00:43:12Z 2012-12-03 12:43:12 12 -1.758 -1.7592 34.6419 2.730882 27.308817 1028.1712 27.8889 27.8889 58.622 5.12069 7.31797 222.485 60.86186 3.879 1441.36 1441.34 1441.59 1442.54 1442.51 1442.7 0
2012/2013 102 28 -77.59155 165.81462 59.0 2012-12-03T00:43:14Z 2012-12-03 12:43:14 12 -1.7573 -1.7585 34.6423 2.731018 27.310179 1028.1764 27.8892 27.8891 59.633 5.15923 7.37306 224.16 61.32139 3.88 1441.38 1441.36 1441.61 1442.54 1442.51 1442.7 0
2012/2013 102 28 -77.59155 165.81462 60.0 2012-12-03T00:43:17Z 2012-12-03 12:43:17 12 -1.7571 -1.7583 34.6425 2.731092 27.310922 1028.1814 27.8893 27.8893 60.644 5.14918 7.35869 223.723 61.20232 3.88 1441.4 1441.38 1441.62 1442.51 1442.48 1442.67 0
2012/2013 102 28 -77.59155 165.81462 61.0 2012-12-03T00:43:20Z 2012-12-03 12:43:20 12 -1.7565 -1.7578 34.6426 2.731193 27.311927 1028.1863 27.8894 27.8893 61.655 5.17014 7.38864 224.633 61.45238 3.88 1441.42 1441.39 1441.64 1442.13 1442.1 1442.31 0
2012/2013 102 28 -77.59155 165.81462 62.0 2012-12-03T00:43:23Z 2012-12-03 12:43:23 12 -1.7571 -1.7584 34.6423 2.73117 27.3117 1028.1909 27.8891 27.8891 62.666 5.15829 7.37172 224.119 61.31055 3.88 1441.43 1441.41 1441.66 1442.12 1442.09 1442.3 0
2012/2013 102 28 -77.59155 165.81462 63.0 2012-12-03T00:43:26Z 2012-12-03 12:43:26 12 -1.7588 -1.7601 34.6415 2.731014 27.310138 1028.1952 27.8885 27.8885 63.677 5.16418 7.38013 224.375 61.37725 3.88 1441.44 1441.41 1441.66 1442.12 1442.09 1442.3 0
2012/2013 102 28 -77.59155 165.81462 64.0 2012-12-03T00:43:29Z 2012-12-03 12:43:29 12 -1.7699 -1.7712 34.6433 2.730266 27.302657 1028.2019 27.8903 27.8903 64.688 5.13334 7.33605 223.034 60.99328 3.88 1441.4 1441.38 1441.63 1442.12 1442.09 1442.3 0
2012/2013 102 28 -77.59155 165.81462 65.0 2012-12-03T00:43:32Z 2012-12-03 12:43:32 12 -1.7708 -1.7722 34.6439 2.730276 27.302766 1028.2073 27.8908 27.8908 65.699 5.14024 7.34591 223.334 61.07396 3.879 1441.42 1441.39 1441.64 1442.12 1442.09 1442.3 0
2012/2013 102 28 -77.59155 165.81462 66.0 2012-12-03T00:43:35Z 2012-12-03 12:43:35 12 -1.7707 -1.7721 34.6437 2.730314 27.303139 1028.2119 27.8907 27.8906 66.709 5.15368 7.36512 223.918 61.23372 3.88 1441.43 1441.41 1441.66 1442.12 1442.09 1442.3 0
2012/2013 102 28 -77.59155 165.81462 67.0 2012-12-03T00:43:39Z 2012-12-03 12:43:39 12 -1.7708 -1.7722 34.6439 2.730376 27.303761 1028.217 27.8908 27.8908 67.72 5.16828 7.38599 224.553 61.4073 3.88 1441.45 1441.42 1441.68 1442.12 1442.09 1442.3 0
2012/2013 102 28 -77.59155 165.81462 68.0 2012-12-03T00:43:42Z 2012-12-03 12:43:42 12 -1.7717 -1.7731 34.6437 2.730327 27.303267 1028.2217 27.8907 27.8906 68.731 5.16554 7.38207 224.433 61.373 3.88 1441.46 1441.43 1441.69 1442.12 1442.09 1442.3 0
2012/2013 102 28 -77.59155 165.81462 69.0 2012-12-03T00:43:45Z 2012-12-03 12:43:45 12 -1.7742 -1.7756 34.6432 2.730128 27.301284 1028.2262 27.8903 27.8903 69.742 5.16719 7.38443 224.505 61.38829 3.88 1441.47 1441.44 1441.69 1442.12 1442.09 1442.3 0
2012/2013 102 28 -77.59155 165.81462 70.0 2012-12-03T00:43:48Z 2012-12-03 12:43:48 12 -1.7752 -1.7767 34.6439 2.730142 27.301424 1028.2317 27.8909 27.8909 70.753 5.1563 7.36886 224.032 61.25747 3.88 1441.48 1441.45 1441.71 1442.12 1442.09 1442.3 0
2012/2013 102 28 -77.59155 165.81462 71.0 2012-12-03T00:43:51Z 2012-12-03 12:43:51 12 -1.7788 -1.7802 34.6448 2.729959 27.29959 1028.2374 27.8918 27.8917 71.764 5.18289 7.40687 225.187 61.56798 3.88 1441.48 1441.45 1441.71 1442.12 1442.09 1442.3 0
2012/2013 102 28 -77.59155 165.81462 72.0 2012-12-03T00:43:54Z 2012-12-03 12:43:54 12 -1.7829 -1.7844 34.6445 2.729634 27.296336 1028.2421 27.8916 27.8916 72.775 5.16649 7.38343 224.474 61.36612 3.88 1441.47 1441.45 1441.7 1442.12 1442.09 1442.3 0
2012/2013 102 28 -77.59155 165.81462 73.0 2012-12-03T00:43:58Z 2012-12-03 12:43:58 12 -1.7833 -1.7848 34.6454 2.729718 27.297177 1028.2478 27.8925 27.8924 73.786 5.15395 7.36551 223.929 61.21691 3.88 1441.49 1441.46 1441.72 1442.12 1442.09 1442.3 0
2012/2013 102 28 -77.59155 165.81462 74.0 2012-12-03T00:44:01Z 2012-12-03 12:44:01 12 -1.783 -1.7845 34.6454 2.72979 27.297894 1028.2527 27.8924 27.8924 74.797 5.17307 7.39284 224.76 61.44459 3.88 1441.51 1441.48 1441.74 1442.12 1442.09 1442.3 0
2012/2013 102 28 -77.59155 165.81462 75.0 2012-12-03T00:44:04Z 2012-12-03 12:44:04 12 -1.7831 -1.7847 34.6449 2.729791 27.297909 1028.2571 27.892 27.892 75.808 5.20146 7.4334 225.994 61.7813 3.88 1441.52 1441.5 1441.75 1442.12 1442.09 1442.3 0
2012/2013 102 28 -77.59155 165.81462 76.0 2012-12-03T00:44:07Z 2012-12-03 12:44:07 12 -1.7848 -1.7863 34.6456 2.729746 27.297462 1028.2625 27.8926 27.8925 76.819 5.17927 7.4017 225.03 61.51535 3.88 1441.53 1441.5 1441.76 1442.12 1442.09 1442.3 0
2012/2013 102 28 -77.59155 165.81462 77.0 2012-12-03T00:44:09Z 2012-12-03 12:44:09 12 -1.7856 -1.7872 34.6454 2.729706 27.297061 1028.2673 27.8925 27.8924 77.83 5.19343 7.42193 225.645 61.68198 3.881 1441.54 1441.52 1441.78 1442.12 1442.09 1442.3 0
2012/2013 102 28 -77.59155 165.81462 78.0 2012-12-03T00:44:12Z 2012-12-03 12:44:12 12 -1.788 -1.7896 34.6455 2.729563 27.29563 1028.2723 27.8926 27.8925 78.841 5.18158 7.40499 225.13 61.53735 3.881 1441.55 1441.52 1441.78 1442.12 1442.09 1442.3 0
2012/2013 102 28 -77.59155 165.81462 79.0 2012-12-03T00:44:15Z 2012-12-03 12:44:15 12 -1.7902 -1.7918 34.647 2.729538 27.295376 1028.2785 27.8939 27.8939 79.852 5.17773 7.3995 224.963 61.48876 3.88 1441.56 1441.53 1441.79 1442.12 1442.09 1442.3 0
2012/2013 102 28 -77.59155 165.81462 80.0 2012-12-03T00:44:18Z 2012-12-03 12:44:18 12 -1.7895 -1.7912 34.6475 2.729668 27.296685 1028.2837 27.8943 27.8942 80.863 5.20765 7.44225 226.262 61.84526 3.881 1441.58 1441.55 1441.81 1442.09 1442.06 1442.27 0
2012/2013 102 28 -77.59155 165.81462 81.0 2012-12-03T00:44:21Z 2012-12-03 12:44:20 12 -1.7886 -1.7903 34.6478 2.729815 27.298152 1028.2888 27.8945 27.8944 81.874 5.17289 7.39258 224.752 61.43415 3.881 1441.6 1441.57 1441.83 1441.96 1441.94 1442.16 0
2012/2013 102 28 -77.59155 165.81462 82.0 2012-12-03T00:44:23Z 2012-12-03 12:44:23 12 -1.7879 -1.7896 34.648 2.729937 27.299376 1028.2938 27.8946 27.8946 82.885 5.21518 7.45301 226.589 61.93762 3.881 1441.62 1441.59 1441.85 1441.96 1441.94 1442.16 0
2012/2013 102 28 -77.59155 165.81462 83.0 2012-12-03T00:44:26Z 2012-12-03 12:44:26 12 -1.7887 -1.7904 34.6479 2.729909 27.299095 1028.2986 27.8946 27.8945 83.896 5.22342 7.46479 226.947 62.03416 3.881 1441.63 1441.6 1441.87 1441.96 1441.94 1442.16 0
2012/2013 102 28 -77.59155 165.81462 84.0 2012-12-03T00:44:29Z 2012-12-03 12:44:29 12 -1.7941 -1.7959 34.6481 2.729517 27.29517 1028.3038 27.8949 27.8948 84.907 5.21621 7.45449 226.634 61.93958 3.881 1441.62 1441.59 1441.85 1441.96 1441.94 1442.16 0
2012/2013 102 28 -77.59155 165.81462 85.0 2012-12-03T00:44:32Z 2012-12-03 12:44:32 12 -1.8035 -1.8052 34.6505 2.72896 27.2896 1028.3109 27.8971 27.8971 85.918 5.19692 7.42691 225.795 61.69601 3.881 1441.6 1441.57 1441.83 1441.96 1441.94 1442.16 0
2012/2013 102 28 -77.59155 165.81462 86.0 2012-12-03T00:44:35Z 2012-12-03 12:44:35 12 -1.8075 -1.8092 34.6517 2.728757 27.28757 1028.3169 27.8982 27.8982 86.929 5.17417 7.39441 224.807 61.41988 3.881 1441.6 1441.56 1441.83 1441.96 1441.94 1442.16 0
2012/2013 102 28 -77.59155 165.81462 87.0 2012-12-03T00:44:38Z 2012-12-03 12:44:38 12 -1.8086 -1.8104 34.6519 2.728723 27.287227 1028.3219 27.8984 27.8983 87.94 5.20266 7.43512 226.044 61.75622 3.881 1441.61 1441.58 1441.84 1441.96 1441.94 1442.16 0
2012/2013 102 28 -77.59155 165.81462 88.0 2012-12-03T00:44:41Z 2012-12-03 12:44:41 12 -1.8111 -1.813 34.651 2.728493 27.284927 1028.3262 27.8978 27.8977 88.951 5.19636 7.42612 225.771 61.67681 3.881 1441.61 1441.58 1441.85 1441.96 1441.94 1442.16 0
2012/2013 102 28 -77.59155 165.81462 89.0 2012-12-03T00:44:44Z 2012-12-03 12:44:44 12 -1.8176 -1.8194 34.6529 2.728133 27.281328 1028.3327 27.8995 27.8994 89.962 5.19126 7.41883 225.549 61.60629 3.881 1441.6 1441.57 1441.83 1441.96 1441.94 1442.16 0
2012/2013 102 28 -77.59155 165.81462 90.0 2012-12-03T00:44:48Z 2012-12-03 12:44:48 12 -1.8192 -1.8211 34.6527 2.728029 27.280288 1028.3375 27.8993 27.8993 90.973 5.20768 7.4423 226.262 61.79842 3.881 1441.61 1441.58 1441.84 1441.96 1441.94 1442.16 0
2012/2013 102 28 -77.59155 165.81462 91.0 2012-12-03T00:45:05Z 2012-12-03 12:45:05 12 -1.8205 -1.8224 34.6534 2.72802 27.280195 1028.343 27.9 27.8999 91.984 5.20471 7.43805 226.133 61.76129 3.882 1441.62 1441.59 1441.86 1441.96 1441.94 1442.16 0
2012/2013 103 29 -77.59358 165.82318 2.0 2012-12-04T22:42:03Z 2012-12-05 10:42:03 12 -1.7192 -1.7192 34.595 2.728134 27.281345 1027.8593 27.8495 27.8495 2.021 2.48282 3.5482 107.879 29.53111 3.885 1440.57 1440.56 1440.77 1434.24 1434.14 1433.85 0
2012/2013 103 29 -77.59358 165.82318 3.0 2012-12-04T22:43:25Z 2012-12-05 10:43:25 12 -1.759 -1.7591 34.5966 2.724969 27.249691 1027.8666 27.852 27.852 3.032 2.65756 3.79792 115.471 31.57548 3.892 1440.4 1440.39 1440.6 1434.24 1434.14 1433.85 0
2012/2013 103 29 -77.59358 165.82318 4.0 2012-12-04T22:43:20Z 2012-12-05 10:43:21 12 -1.7579 -1.758 34.5985 2.725244 27.25244 1027.873 27.8535 27.8535 4.042 2.65384 3.79261 115.309 31.53255 3.892 1440.42 1440.41 1440.63 1434.24 1434.14 1433.85 0
2012/2013 103 29 -77.59358 165.82318 5.0 2012-12-04T22:43:24Z 2012-12-05 10:43:24 12 -1.7576 -1.7577 34.5985 2.725319 27.253186 1027.8779 27.8535 27.8535 5.053 2.66015 3.80161 115.583 31.60767 3.892 1440.44 1440.43 1440.65 1434.24 1434.14 1433.85 0
2012/2013 103 29 -77.59358 165.82318 6.0 2012-12-04T22:43:27Z 2012-12-05 10:43:27 12 -1.7576 -1.7578 34.5985 2.725359 27.253595 1027.8827 27.8535 27.8535 6.063 2.66875 3.81391 115.957 31.70986 3.892 1440.45 1440.45 1440.66 1434.24 1434.14 1433.85 0
2012/2013 103 29 -77.59358 165.82318 7.0 2012-12-04T22:43:30Z 2012-12-05 10:43:30 12 -1.7571 -1.7572 34.5984 2.725448 27.254479 1027.8875 27.8534 27.8534 7.074 2.67763 3.82661 116.343 31.81593 3.893 1440.47 1440.47 1440.68 1434.24 1434.14 1433.85 0
2012/2013 103 29 -77.59358 165.82318 8.0 2012-12-04T22:43:33Z 2012-12-05 10:43:33 12 -1.757 -1.7571 34.5983 2.725502 27.255018 1027.8923 27.8533 27.8533 8.085 2.68443 3.83632 116.638 31.89682 3.893 1440.49 1440.48 1440.7 1434.24 1434.14 1433.85 0
2012/2013 103 29 -77.59358 165.82318 9.0 2012-12-04T22:43:36Z 2012-12-05 10:43:36 12 -1.757 -1.7571 34.5982 2.725542 27.25542 1027.8971 27.8533 27.8533 9.096 2.68972 3.84388 116.868 31.95962 3.893 1440.5 1440.5 1440.72 1434.24 1434.14 1433.85 0
2012/2013 103 29 -77.59358 165.82318 10.0 2012-12-04T22:43:39Z 2012-12-05 10:43:39 12 -1.757 -1.7572 34.598 2.725574 27.255743 1027.9018 27.8531 27.8531 10.106 2.69462 3.85089 117.081 32.0178 3.894 1440.52 1440.51 1440.73 1434.24 1434.14 1433.85 0
2012/2013 103 29 -77.59358 165.82318 11.0 2012-12-04T22:43:42Z 2012-12-05 10:43:42 12 -1.7578 -1.758 34.5983 2.725574 27.255744 1027.9069 27.8534 27.8534 11.117 2.66431 3.80756 115.764 31.65697 3.895 1440.53 1440.53 1440.74 1434.24 1434.14 1433.85 0
2012/2013 103 29 -77.59358 165.82318 12.0 2012-12-04T22:43:44Z 2012-12-05 10:43:44 12 -1.7581 -1.7584 34.5985 2.725603 27.256032 1027.9119 27.8535 27.8535 12.128 2.73929 3.91472 119.022 32.54765 3.894 1440.55 1440.54 1440.76 1434.24 1434.14 1433.85 0
2012/2013 103 29 -77.59358 165.82318 13.0 2012-12-04T22:43:47Z 2012-12-05 10:43:47 12 -1.7585 -1.7587 34.5986 2.725627 27.256266 1027.9169 27.8536 27.8536 13.138 2.70677 3.86824 117.608 32.16089 3.895 1440.56 1440.55 1440.77 1434.24 1434.14 1433.85 0
2012/2013 103 29 -77.59358 165.82318 14.0 2012-12-04T22:43:50Z 2012-12-05 10:43:50 12 -1.7585 -1.7588 34.5986 2.725672 27.256723 1027.9217 27.8536 27.8536 14.149 2.73186 3.9041 118.698 32.459 3.895 1440.58 1440.57 1440.79 1434.24 1434.14 1433.85 0
2012/2013 103 29 -77.59358 165.82318 15.0 2012-12-04T22:43:52Z 2012-12-05 10:43:52 12 -1.7585 -1.7588 34.5986 2.725726 27.25726 1027.9267 27.8536 27.8536 15.159 2.77145 3.96068 120.419 32.92946 3.894 1440.6 1440.59 1440.81 1434.24 1434.14 1433.85 0
2012/2013 103 29 -77.59358 165.82318 16.0 2012-12-04T22:43:55Z 2012-12-05 10:43:55 12 -1.7584 -1.7587 34.5986 2.725777 27.257771 1027.9315 27.8536 27.8536 16.17 2.70047 3.85924 117.335 32.08612 3.895 1440.61 1440.6 1440.83 1434.24 1434.14 1433.85 0
2012/2013 103 29 -77.59358 165.82318 17.0 2012-12-04T22:43:58Z 2012-12-05 10:43:58 12 -1.7584 -1.7588 34.5986 2.725821 27.258208 1027.9364 27.8536 27.8536 17.181 2.73786 3.91267 118.959 32.53038 3.896 1440.63 1440.62 1440.84 1434.24 1434.14 1433.85 0
2012/2013 103 29 -77.59358 165.82318 18.0 2012-12-04T22:44:00Z 2012-12-05 10:44:00 12 -1.7584 -1.7588 34.5986 2.725871 27.258706 1027.9412 27.8536 27.8536 18.191 2.77546 3.96641 120.593 32.9772 3.896 1440.64 1440.63 1440.86 1434.24 1434.14 1433.85 0
2012/2013 103 29 -77.59358 165.82318 19.0 2012-12-04T22:44:03Z 2012-12-05 10:44:03 12 -1.7582 -1.7586 34.5986 2.725932 27.259322 1027.9462 27.8536 27.8536 19.202 2.7618 3.9469 120.0 32.81508 3.896 1440.66 1440.65 1440.88 1434.24 1434.14 1433.85 0
2012/2013 103 29 -77.59358 165.82318 20.0 2012-12-04T22:44:05Z 2012-12-05 10:44:05 12 -1.7582 -1.7586 34.5985 2.725969 27.259687 1027.9509 27.8535 27.8535 20.213 2.76539 3.95202 120.155 32.85761 3.896 1440.68 1440.67 1440.89 1436.3 1436.23 1436.1 0
2012/2013 103 29 -77.59358 165.82318 21.0 2012-12-04T22:44:08Z 2012-12-05 10:44:08 12 -1.7583 -1.7588 34.5985 2.726014 27.260136 1027.9558 27.8536 27.8535 21.223 2.72788 3.89841 118.526 32.41187 3.896 1440.69 1440.68 1440.91 1437.46 1437.4 1437.37 0
2012/2013 103 29 -77.59358 165.82318 22.0 2012-12-04T22:44:10Z 2012-12-05 10:44:10 12 -1.7583 -1.7588 34.5989 2.726082 27.260817 1027.961 27.8538 27.8538 22.234 2.80751 4.01221 121.985 33.35806 3.897 1440.71 1440.7 1440.93 1437.46 1437.4 1437.37 0
2012/2013 103 29 -77.59358 165.82318 23.0 2012-12-04T22:44:13Z 2012-12-05 10:44:13 12 -1.7585 -1.759 34.5986 2.726096 27.260959 1027.9657 27.8536 27.8536 23.245 2.78284 3.97696 120.914 33.06474 3.897 1440.73 1440.72 1440.94 1437.46 1437.4 1437.37 0
2012/2013 103 29 -77.59358 165.82318 24.0 2012-12-04T22:44:16Z 2012-12-05 10:44:16 12 -1.7585 -1.759 34.5989 2.72616 27.261605 1027.9707 27.8538 27.8538 24.255 2.78643 3.98209 121.07 33.1075 3.897 1440.74 1440.73 1440.96 1437.46 1437.4 1437.37 0
2012/2013 103 29 -77.59358 165.82318 25.0 2012-12-04T22:44:19Z 2012-12-05 10:44:19 12 -1.7586 -1.7591 34.5988 2.726197 27.261969 1027.9755 27.8538 27.8538 25.266 2.79625 3.99612 121.497 33.22406 3.897 1440.76 1440.75 1440.97 1437.46 1437.4 1437.37 0
2012/2013 103 29 -77.59358 165.82318 26.0 2012-12-04T22:44:21Z 2012-12-05 10:44:22 12 -1.7585 -1.7591 34.599 2.726262 27.262622 1027.9805 27.8539 27.8539 26.277 2.80392 4.00708 121.829 33.31529 3.897 1440.78 1440.76 1440.99 1437.46 1437.4 1437.37 0
2012/2013 103 29 -77.59358 165.82318 27.0 2012-12-04T22:44:24Z 2012-12-05 10:44:24 12 -1.7584 -1.759 34.5989 2.726309 27.263092 1027.9853 27.8538 27.8538 27.288 2.80541 4.00921 121.894 33.333 3.898 1440.79 1440.78 1441.01 1437.46 1437.4 1437.37 0
2012/2013 103 29 -77.59358 165.82318 28.0 2012-12-04T22:44:27Z 2012-12-05 10:44:27 12 -1.7583 -1.7589 34.5988 2.726363 27.263631 1027.9901 27.8538 27.8538 28.298 2.82033 4.03054 122.543 33.51045 3.897 1440.81 1440.8 1441.03 1437.46 1437.4 1437.37 0
2012/2013 103 29 -77.59358 165.82318 29.0 2012-12-04T22:44:29Z 2012-12-05 10:44:29 12 -1.7586 -1.7592 34.5988 2.726383 27.263835 1027.995 27.8538 27.8537 29.309 2.81605 4.02442 122.357 33.45936 3.898 1440.82 1440.81 1441.04 1437.46 1437.4 1437.37 0
2012/2013 103 29 -77.59358 165.82318 30.0 2012-12-04T22:44:32Z 2012-12-05 10:44:32 12 -1.7587 -1.7593 34.5988 2.726427 27.264269 1027.9999 27.8538 27.8538 30.32 2.82768 4.04104 122.862 33.59745 3.898 1440.84 1440.83 1441.06 1437.46 1437.4 1437.37 0
2012/2013 103 29 -77.59358 165.82318 31.0 2012-12-04T22:44:35Z 2012-12-05 10:44:35 12 -1.7588 -1.7594 34.5989 2.726479 27.264786 1028.0049 27.8539 27.8539 31.331 2.82662 4.03953 122.816 33.58484 3.898 1440.86 1440.84 1441.07 1437.46 1437.4 1437.37 0
2012/2013 103 29 -77.59358 165.82318 32.0 2012-12-04T22:44:37Z 2012-12-05 10:44:37 12 -1.7589 -1.7595 34.599 2.72652 27.265198 1028.0098 27.854 27.854 32.341 2.83989 4.05848 123.392 33.74232 3.898 1440.87 1440.86 1441.09 1437.46 1437.4 1437.37 0
2012/2013 103 29 -77.59358 165.82318 33.0 2012-12-04T22:44:40Z 2012-12-05 10:44:40 12 -1.7587 -1.7594 34.5989 2.726571 27.265709 1028.0146 27.8538 27.8538 33.352 2.84085 4.05985 123.434 33.75389 3.899 1440.89 1440.87 1441.11 1437.46 1437.4 1437.37 0
2012/2013 103 29 -77.59358 165.82318 34.0 2012-12-04T22:44:43Z 2012-12-05 10:44:43 12 -1.7583 -1.759 34.5992 2.726671 27.266706 1028.0197 27.8541 27.8541 34.363 2.84705 4.06871 123.703 33.82793 3.899 1440.91 1440.89 1441.13 1437.46 1437.4 1437.37 0
2012/2013 103 29 -77.59358 165.82318 35.0 2012-12-04T22:44:45Z 2012-12-05 10:44:45 12 -1.758 -1.7587 34.5992 2.726742 27.267421 1028.0245 27.8541 27.8541 35.373 2.85682 4.08268 124.128 33.94437 3.899 1440.93 1440.91 1441.14 1437.46 1437.4 1437.37 0
2012/2013 103 29 -77.59358 165.82318 36.0 2012-12-04T22:44:48Z 2012-12-05 10:44:48 12 -1.7582 -1.7589 34.5986 2.726732 27.267318 1028.0289 27.8536 27.8536 36.384 2.85315 4.07744 123.969 33.90043 3.899 1440.94 1440.93 1441.16 1437.46 1437.4 1437.37 0
2012/2013 103 29 -77.59358 165.82318 37.0 2012-12-04T22:44:51Z 2012-12-05 10:44:51 12 -1.7593 -1.7601 34.599 2.726716 27.267164 1028.0342 27.854 27.854 37.395 2.86893 4.09999 124.654 34.08701 3.9 1440.95 1440.94 1441.17 1437.46 1437.4 1437.37 0
2012/2013 103 29 -77.59358 165.82318 38.0 2012-12-04T22:44:53Z 2012-12-05 10:44:53 12 -1.759 -1.7598 34.5992 2.726796 27.267962 1028.0391 27.8541 27.8541 38.406 2.86926 4.10046 124.669 34.09123 3.899 1440.97 1440.95 1441.19 1437.46 1437.4 1437.37 0
2012/2013 103 29 -77.59358 165.82318 39.0 2012-12-04T22:44:56Z 2012-12-05 10:44:56 12 -1.7593 -1.7601 34.599 2.726809 27.268086 1028.0438 27.8539 27.8539 39.416 2.88431 4.12197 125.323 34.26976 3.9 1440.98 1440.97 1441.2 1437.46 1437.4 1437.37 0
2012/2013 103 29 -77.59358 165.82318 40.0 2012-12-04T22:44:58Z 2012-12-05 10:44:58 12 -1.7594 -1.7603 34.5991 2.72685 27.268495 1028.0488 27.854 27.854 40.427 2.87524 4.109 124.928 34.16182 3.9 1441.0 1440.98 1441.22 1437.46 1437.4 1437.37 0
2012/2013 103 29 -77.59358 165.82318 41.0 2012-12-04T22:45:01Z 2012-12-05 10:45:01 12 -1.7593 -1.7601 34.5992 2.726919 27.269186 1028.0537 27.8541 27.8541 41.438 2.87812 4.11312 125.053 34.19627 3.9 1441.02 1441.0 1441.24 1437.46 1437.4 1437.37 0
2012/2013 103 29 -77.59358 165.82318 42.0 2012-12-04T22:45:03Z 2012-12-05 10:45:03 12 -1.7588 -1.7596 34.5995 2.727028 27.270278 1028.0588 27.8543 27.8543 42.449 2.88479 4.12266 125.344 34.27613 3.9 1441.04 1441.02 1441.26 1437.46 1437.4 1437.37 0
2012/2013 103 29 -77.59358 165.82318 43.0 2012-12-04T22:45:06Z 2012-12-05 10:45:06 12 -1.7584 -1.7593 34.5995 2.727114 27.271137 1028.0638 27.8544 27.8544 43.46 2.89398 4.13578 125.743 34.3856 3.9 1441.06 1441.04 1441.27 1439.06 1439.03 1439.12 0
2012/2013 103 29 -77.59358 165.82318 44.0 2012-12-04T22:45:08Z 2012-12-05 10:45:08 12 -1.7584 -1.7594 34.5993 2.727138 27.271378 1028.0684 27.8542 27.8542 44.471 2.89698 4.14008 125.873 34.42122 3.901 1441.07 1441.05 1441.29 1439.27 1439.24 1439.35 0
2012/2013 103 29 -77.59358 165.82318 45.0 2012-12-04T22:45:11Z 2012-12-05 10:45:11 12 -1.7585 -1.7594 34.5995 2.727195 27.271945 1028.0734 27.8543 27.8543 45.482 2.90503 4.15158 126.223 34.51689 3.901 1441.09 1441.07 1441.31 1439.27 1439.24 1439.35 0
2012/2013 103 29 -77.59358 165.82318 46.0 2012-12-04T22:45:13Z 2012-12-05 10:45:13 12 -1.7585 -1.7595 34.5993 2.727221 27.272212 1028.0781 27.8542 27.8541 46.492 2.90882 4.157 126.388 34.56181 3.901 1441.1 1441.09 1441.32 1439.27 1439.24 1439.35 0
2012/2013 103 29 -77.59358 165.82318 47.0 2012-12-04T22:45:16Z 2012-12-05 10:45:16 12 -1.7584 -1.7594 34.5994 2.727283 27.272832 1028.0831 27.8543 27.8542 47.503 2.90507 4.15163 126.224 34.51726 3.902 1441.12 1441.1 1441.34 1439.27 1439.24 1439.35 0
2012/2013 103 29 -77.59358 165.82318 48.0 2012-12-04T22:45:19Z 2012-12-05 10:45:19 12 -1.7582 -1.7592 34.5997 2.727373 27.273734 1028.0882 27.8545 27.8545 48.514 2.92174 4.17545 126.949 34.71564 3.903 1441.14 1441.12 1441.36 1439.27 1439.24 1439.35 0
2012/2013 103 29 -77.59358 165.82318 49.0 2012-12-04T22:45:21Z 2012-12-05 10:45:21 12 -1.7579 -1.7589 34.5995 2.727433 27.27433 1028.0929 27.8543 27.8543 49.525 2.91312 4.16313 126.574 34.61348 3.903 1441.16 1441.14 1441.38 1439.27 1439.24 1439.35 0
2012/2013 103 29 -77.59358 165.82318 50.0 2012-12-04T22:45:24Z 2012-12-05 10:45:24 12 -1.7583 -1.7594 34.5998 2.727463 27.274626 1028.098 27.8546 27.8546 50.535 2.92795 4.18433 127.218 34.78937 3.904 1441.17 1441.15 1441.39 1439.27 1439.24 1439.35 0
2012/2013 103 29 -77.59358 165.82318 51.0 2012-12-04T22:45:27Z 2012-12-05 10:45:27 12 -1.7584 -1.7594 34.5999 2.727517 27.275173 1028.103 27.8547 27.8547 51.546 2.91767 4.16964 126.772 34.66722 3.905 1441.19 1441.17 1441.41 1439.27 1439.24 1439.35 0
2012/2013 103 29 -77.59358 165.82318 52.0 2012-12-04T22:45:29Z 2012-12-05 10:45:29 12 -1.7584 -1.7595 34.5999 2.727557 27.27557 1028.1079 27.8547 27.8547 52.557 2.9345 4.1937 127.503 34.86717 3.906 1441.2 1441.18 1441.42 1439.27 1439.24 1439.35 0
2012/2013 103 29 -77.59358 165.82318 53.0 2012-12-04T22:45:32Z 2012-12-05 10:45:32 12 -1.7583 -1.7594 34.6002 2.727636 27.276357 1028.113 27.8549 27.8549 53.568 2.93658 4.19666 127.593 34.89199 3.907 1441.22 1441.2 1441.44 1439.27 1439.24 1439.35 0
2012/2013 103 29 -77.59358 165.82318 54.0 2012-12-04T22:45:34Z 2012-12-05 10:45:34 12 -1.7581 -1.7592 34.6004 2.727716 27.277164 1028.118 27.8551 27.8551 54.579 2.93903 4.20017 127.7 34.92141 3.908 1441.24 1441.22 1441.46 1439.27 1439.24 1439.35 0
2012/2013 103 29 -77.59358 165.82318 55.0 2012-12-04T22:45:37Z 2012-12-05 10:45:37 12 -1.7581 -1.7592 34.6004 2.72776 27.277602 1028.1229 27.8551 27.8551 55.589 2.94882 4.21416 128.125 35.03771 3.909 1441.25 1441.23 1441.48 1439.27 1439.24 1439.35 0
2012/2013 103 29 -77.59358 165.82318 56.0 2012-12-04T22:45:40Z 2012-12-05 10:45:40 12 -1.7592 -1.7603 34.6011 2.727767 27.277668 1028.1283 27.8557 27.8557 56.601 2.94721 4.21186 128.055 35.01775 3.91 1441.27 1441.24 1441.49 1439.27 1439.24 1439.35 0
2012/2013 103 29 -77.59358 165.82318 57.0 2012-12-04T22:45:43Z 2012-12-05 10:45:43 12 -1.7597 -1.7609 34.6018 2.727818 27.278185 1028.1338 27.8563 27.8563 57.611 2.94184 4.20418 127.822 34.95356 3.911 1441.28 1441.26 1441.5 1439.27 1439.24 1439.35 0
2012/2013 103 29 -77.59358 165.82318 58.0 2012-12-04T22:45:45Z 2012-12-05 10:45:45 12 -1.7602 -1.7614 34.6021 2.727849 27.278495 1028.1389 27.8565 27.8565 58.622 2.94794 4.2129 128.087 35.02574 3.911 1441.3 1441.27 1441.52 1439.27 1439.24 1439.35 0
2012/2013 103 29 -77.59358 165.82318 59.0 2012-12-04T22:45:48Z 2012-12-05 10:45:48 12 -1.7609 -1.7621 34.6024 2.727856 27.278558 1028.144 27.8568 27.8568 59.633 2.94879 4.21412 128.124 35.03519 3.911 1441.31 1441.29 1441.53 1439.27 1439.24 1439.35 0
2012/2013 103 29 -77.59358 165.82318 60.0 2012-12-04T22:45:50Z 2012-12-05 10:45:50 12 -1.7611 -1.7623 34.6025 2.727901 27.279004 1028.149 27.8569 27.8569 60.644 2.95162 4.21816 128.247 35.06877 3.912 1441.33 1441.3 1441.55 1439.27 1439.24 1439.35 0
2012/2013 103 29 -77.59358 165.82318 61.0 2012-12-04T22:45:53Z 2012-12-05 10:45:53 12 -1.7625 -1.7638 34.6028 2.727844 27.278441 1028.1541 27.8572 27.8571 61.655 2.96583 4.23847 128.864 35.23625 3.912 1441.33 1441.31 1441.56 1439.27 1439.24 1439.35 0
2012/2013 103 29 -77.59358 165.82318 62.0 2012-12-04T22:45:55Z 2012-12-05 10:45:55 12 -1.7643 -1.7655 34.604 2.727835 27.278346 1028.1601 27.8582 27.8582 62.666 2.95182 4.21844 128.255 35.06839 3.913 1441.35 1441.32 1441.57 1439.27 1439.24 1439.35 0
2012/2013 103 29 -77.59358 165.82318 63.0 2012-12-04T22:45:58Z 2012-12-05 10:45:58 12 -1.7798 -1.7811 34.6122 2.727159 27.271594 1028.172 27.8653 27.8652 63.677 2.8821 4.11881 125.225 34.22779 3.912 1441.3 1441.27 1441.52 1439.27 1439.24 1439.35 0
2012/2013 103 29 -77.59358 165.82318 64.0 2012-12-04T22:46:01Z 2012-12-05 10:46:01 12 -1.792 -1.7933 34.6201 2.726761 27.267606 1028.1837 27.8721 27.872 64.688 2.82523 4.03754 122.753 33.54329 3.912 1441.27 1441.24 1441.49 1439.27 1439.24 1439.35 0
2012/2013 103 29 -77.59358 165.82318 65.0 2012-12-04T22:46:03Z 2012-12-05 10:46:03 12 -1.7947 -1.796 34.6221 2.726719 27.267189 1028.1902 27.8738 27.8737 65.698 2.85627 4.0819 124.102 33.90976 3.913 1441.27 1441.25 1441.5 1439.27 1439.24 1439.35 0
2012/2013 103 29 -77.59358 165.82318 66.0 2012-12-04T22:46:06Z 2012-12-05 10:46:06 12 -1.7955 -1.7969 34.6224 2.726725 27.267246 1028.1954 27.874 27.874 66.709 2.86376 4.0926 124.427 33.99809 3.913 1441.29 1441.26 1441.51 1439.8 1439.77 1439.92 0
2012/2013 103 29 -77.59358 165.82318 67.0 2012-12-04T22:46:08Z 2012-12-05 10:46:08 12 -1.796 -1.7973 34.6227 2.726755 27.267551 1028.2005 27.8743 27.8743 67.72 2.86662 4.09669 124.552 34.03167 3.913 1441.3 1441.28 1441.53 1439.94 1439.91 1440.07 0
2012/2013 103 29 -77.59358 165.82318 68.0 2012-12-04T22:46:11Z 2012-12-05 10:46:11 12 -1.8008 -1.8022 34.6243 2.726508 27.26508 1028.2068 27.8757 27.8757 68.731 2.87713 4.11171 125.008 34.15234 3.912 1441.29 1441.27 1441.52 1439.94 1439.91 1440.07 0
2012/2013 103 29 -77.59358 165.82318 69.0 2012-12-04T22:46:13Z 2012-12-05 10:46:13 12 -1.811 -1.8124 34.6317 2.726235 27.262353 1028.218 27.8821 27.882 69.742 2.81253 4.01938 122.2 33.37804 3.912 1441.27 1441.25 1441.5 1439.94 1439.91 1440.07 0
2012/2013 103 29 -77.59358 165.82318 70.0 2012-12-04T22:46:16Z 2012-12-05 10:46:16 12 -1.8141 -1.8155 34.635 2.72626 27.262595 1028.2256 27.8848 27.8848 70.753 2.81178 4.01832 122.167 33.36723 3.912 1441.28 1441.25 1441.51 1439.94 1439.91 1440.07 0
2012/2013 103 29 -77.59358 165.82318 71.0 2012-12-04T22:46:19Z 2012-12-05 10:46:19 12 -1.8152 -1.8166 34.6362 2.726296 27.262962 1028.2315 27.8858 27.8857 71.764 2.83125 4.04614 123.013 33.59754 3.912 1441.29 1441.27 1441.52 1439.94 1439.91 1440.07 0
2012/2013 103 29 -77.59358 165.82318 72.0 2012-12-04T22:46:22Z 2012-12-05 10:46:22 12 -1.815 -1.8165 34.6365 2.726383 27.263835 1028.2366 27.8861 27.886 72.775 2.82946 4.04358 122.935 33.57647 3.911 1441.31 1441.28 1441.54 1439.94 1439.91 1440.07 0
2012/2013 103 29 -77.59358 165.82318 73.0 2012-12-04T22:46:25Z 2012-12-05 10:46:25 12 -1.8158 -1.8172 34.6366 2.726374 27.263746 1028.2416 27.8862 27.8861 73.786 2.83799 4.05577 123.306 33.67712 3.912 1441.32 1441.3 1441.55 1439.94 1439.91 1440.07 0
2012/2013 103 29 -77.59358 165.82318 74.0 2012-12-04T22:46:27Z 2012-12-05 10:46:27 12 -1.8207 -1.8222 34.6393 2.726193 27.261934 1028.2488 27.8884 27.8884 74.797 2.82307 4.03445 122.658 33.49617 3.912 1441.32 1441.29 1441.55 1439.94 1439.91 1440.07 0
2012/2013 103 29 -77.59358 165.82318 75.0 2012-12-04T22:46:30Z 2012-12-05 10:46:30 12 -1.8236 -1.8252 34.641 2.726118 27.261185 1028.2551 27.8899 27.8899 75.808 2.81948 4.02932 122.502 33.4514 3.912 1441.32 1441.3 1441.56 1439.94 1439.91 1440.07 0
2012/2013 103 29 -77.59358 165.82318 76.0 2012-12-04T22:46:33Z 2012-12-05 10:46:33 12 -1.8234 -1.825 34.641 2.726185 27.261848 1028.26 27.8899 27.8899 76.818 2.83081 4.0455 122.994 33.58591 3.912 1441.34 1441.31 1441.57 1439.94 1439.91 1440.07 0
2012/2013 103 29 -77.59358 165.82318 77.0 2012-12-04T22:46:35Z 2012-12-05 10:46:35 12 -1.8253 -1.8268 34.6393 2.725955 27.259557 1028.2635 27.8886 27.8885 77.83 2.82232 4.03338 122.625 33.48318 3.912 1441.35 1441.32 1441.58 1439.94 1439.91 1440.07 0
2012/2013 103 29 -77.59358 165.82318 78.0 2012-12-04T22:46:38Z 2012-12-05 10:46:38 12 -1.8319 -1.8335 34.6419 2.72564 27.256401 1028.2707 27.8909 27.8909 78.841 2.82466 4.03673 122.727 33.50564 3.912 1441.33 1441.31 1441.57 1439.94 1439.91 1440.07 0
2012/2013 103 29 -77.59358 165.82318 79.0 2012-12-04T22:46:40Z 2012-12-05 10:46:40 12 -1.8317 -1.8333 34.6421 2.725716 27.257158 1028.2757 27.891 27.891 79.852 2.83349 4.04934 123.11 33.61051 3.912 1441.35 1441.32 1441.59 1439.94 1439.91 1440.07 0
2012/2013 103 29 -77.59358 165.82318 80.0 2012-12-04T22:46:42Z 2012-12-05 10:46:42 12 -1.8314 -1.833 34.6418 2.72577 27.257701 1028.2804 27.8908 27.8908 80.863 2.84452 4.0651 123.589 33.74161 3.912 1441.37 1441.34 1441.6 1439.94 1439.91 1440.07 0
2012/2013 103 29 -77.59358 165.82318 81.0 2012-12-04T22:46:44Z 2012-12-05 10:46:44 12 -1.8328 -1.8344 34.642 2.725714 27.257136 1028.2854 27.891 27.891 81.874 2.84071 4.05966 123.424 33.69519 3.911 1441.38 1441.35 1441.62 1439.94 1439.91 1440.07 0
2012/2013 103 29 -77.59358 165.82318 82.0 2012-12-04T22:46:47Z 2012-12-05 10:46:47 12 -1.834 -1.8357 34.6427 2.725703 27.257036 1028.2909 27.8916 27.8915 82.885 2.84405 4.06443 123.569 33.73381 3.912 1441.39 1441.36 1441.63 1439.94 1439.91 1440.07 0
2012/2013 103 29 -77.59358 165.82318 83.0 2012-12-04T22:46:49Z 2012-12-05 10:46:49 12 -1.8345 -1.8362 34.643 2.725736 27.25736 1028.2961 27.8919 27.8919 83.896 2.84507 4.06588 123.613 33.74553 3.911 1441.4 1441.38 1441.64 1439.94 1439.91 1440.07 0
2012/2013 103 29 -77.59358 165.82318 84.0 2012-12-04T22:46:52Z 2012-12-05 10:46:52 12 -1.8348 -1.8364 34.6433 2.725779 27.257795 1028.3011 27.8921 27.8921 84.907 2.85928 4.0862 124.23 33.91395 3.911 1441.42 1441.39 1441.66 1439.94 1439.91 1440.07 0
2012/2013 103 29 -77.59358 165.82318 85.0 2012-12-04T22:46:54Z 2012-12-05 10:46:54 12 -1.8351 -1.8368 34.6437 2.725828 27.258286 1028.3064 27.8925 27.8924 85.917 2.85071 4.07395 123.858 33.81213 3.911 1441.44 1441.41 1441.67 1439.94 1439.91 1440.07 0
2012/2013 103 29 -77.59358 165.82318 86.0 2012-12-04T22:46:56Z 2012-12-05 10:46:57 12 -1.8352 -1.8369 34.6439 2.725882 27.258823 1028.3114 27.8926 27.8926 86.929 2.86677 4.0969 124.556 34.00252 3.911 1441.45 1441.42 1441.69 1439.94 1439.91 1440.07 0
2012/2013 103 29 -77.59358 165.82318 87.0 2012-12-04T22:46:59Z 2012-12-05 10:46:59 12 -1.8356 -1.8374 34.6442 2.725912 27.259123 1028.3165 27.8929 27.8928 87.94 2.85898 4.08577 124.217 33.90981 3.911 1441.47 1441.44 1441.7 1439.94 1439.91 1440.07 0
2012/2013 103 29 -77.59358 165.82318 88.0 2012-12-04T22:47:01Z 2012-12-05 10:47:01 12 -1.8365 -1.8383 34.6452 2.725952 27.259517 1028.3222 27.8937 27.8937 88.95 2.86242 4.09069 124.367 33.95006 3.911 1441.48 1441.45 1441.72 1439.94 1439.91 1440.07 0
2012/2013 103 29 -77.59358 165.82318 89.0 2012-12-04T22:47:04Z 2012-12-05 10:47:04 12 -1.8378 -1.8396 34.6453 2.725906 27.259057 1028.3272 27.8938 27.8938 89.962 2.87621 4.11039 124.966 34.11248 3.911 1441.49 1441.46 1441.73 1439.97 1439.94 1440.11 0
2012/2013 103 29 -77.59358 165.82318 90.0 2012-12-04T22:47:06Z 2012-12-05 10:47:06 12 -1.8385 -1.8403 34.6457 2.725918 27.259183 1028.3324 27.8942 27.8941 90.973 2.86573 4.09542 124.511 33.98764 3.91 1441.5 1441.47 1441.74 1440.32 1440.29 1440.48 0
2012/2013 103 29 -77.59358 165.82318 91.0 2012-12-04T22:47:09Z 2012-12-05 10:47:09 12 -1.8403 -1.8421 34.6459 2.725831 27.258313 1028.3375 27.8944 27.8943 91.984 2.87374 4.10687 124.859 34.08102 3.911 1441.51 1441.48 1441.75 1440.32 1440.29 1440.48 0
2012/2013 103 29 -77.59358 165.82318 92.0 2012-12-04T22:47:11Z 2012-12-05 10:47:11 12 -1.8419 -1.8438 34.6464 2.725779 27.257792 1028.3428 27.8949 27.8948 92.995 2.8793 4.11481 125.1 34.14557 3.911 1441.52 1441.49 1441.76 1440.32 1440.29 1440.48 0
2012/2013 103 29 -77.59358 165.82318 93.0 2012-12-04T22:47:14Z 2012-12-05 10:47:13 12 -1.8449 -1.8468 34.647 2.725617 27.256168 1028.3483 27.8955 27.8954 94.006 2.86754 4.09799 124.589 34.0034 3.91 1441.52 1441.49 1441.76 1440.32 1440.29 1440.48 0
2012/2013 103 29 -77.59358 165.82318 94.0 2012-12-04T22:47:16Z 2012-12-05 10:47:16 12 -1.8475 -1.8494 34.6468 2.725433 27.254328 1028.353 27.8953 27.8952 95.017 2.87632 4.11055 124.97 34.1052 3.91 1441.53 1441.5 1441.77 1440.32 1440.29 1440.48 0
2012/2013 103 29 -77.59358 165.82318 95.0 2012-12-04T22:47:18Z 2012-12-05 10:47:18 12 -1.8525 -1.8544 34.6484 2.725171 27.251713 1028.3593 27.8967 27.8967 96.028 2.85994 4.08714 124.259 33.90677 3.91 1441.52 1441.49 1441.76 1440.32 1440.29 1440.48 0
2012/2013 103 29 -77.59358 165.82318 96.0 2012-12-04T22:47:21Z 2012-12-05 10:47:21 12 -1.8551 -1.857 34.6503 2.725148 27.251478 1028.3659 27.8984 27.8983 97.039 2.86705 4.0973 124.567 33.98918 3.91 1441.53 1441.5 1441.77 1440.32 1440.29 1440.48 0
2012/2013 103 29 -77.59358 165.82318 97.0 2012-12-04T22:47:24Z 2012-12-05 10:47:24 12 -1.8541 -1.8561 34.6505 2.725284 27.252841 1028.3708 27.8985 27.8985 98.05 2.86406 4.09303 124.437 33.95463 3.91 1441.55 1441.52 1441.79 1440.32 1440.29 1440.48 0
2012/2013 103 29 -77.59358 165.82318 98.0 2012-12-04T22:47:26Z 2012-12-05 10:47:27 12 -1.8525 -1.8545 34.6503 2.725451 27.25451 1028.3755 27.8983 27.8982 99.061 2.88866 4.12819 125.506 34.24774 3.91 1441.57 1441.54 1441.82 1440.32 1440.29 1440.48 0
2012/2013 103 29 -77.59358 165.82318 99.0 2012-12-04T22:47:29Z 2012-12-05 10:47:29 12 -1.8523 -1.8543 34.6505 2.725524 27.255239 1028.3805 27.8984 27.8984 100.072 2.8859 4.12425 125.386 34.21523 3.911 1441.59 1441.56 1441.83 1440.32 1440.29 1440.48 0
2012/2013 103 29 -77.59358 165.82318 100.0 2012-12-04T22:47:31Z 2012-12-05 10:47:31 12 -1.8521 -1.8542 34.6513 2.725647 27.256473 1028.386 27.8991 27.8991 101.083 2.89724 4.14044 125.879 34.34997 3.911 1441.61 1441.58 1441.85 1440.32 1440.29 1440.48 0
2012/2013 103 29 -77.59358 165.82318 101.0 2012-12-04T22:47:34Z 2012-12-05 10:47:34 12 -1.8506 -1.8527 34.652 2.725872 27.258716 1028.3914 27.8996 27.8996 102.094 2.90248 4.14793 126.106 34.4137 3.91 1441.63 1441.6 1441.88 1440.32 1440.29 1440.48 0
2012/2013 103 29 -77.59358 165.82318 102.0 2012-12-04T22:47:36Z 2012-12-05 10:47:36 12 -1.8504 -1.8524 34.652 2.725942 27.259425 1028.3963 27.8996 27.8996 103.105 2.89624 4.13901 125.835 34.33997 3.91 1441.65 1441.62 1441.9 1440.32 1440.29 1440.48 0
2012/2013 103 29 -77.59358 165.82318 103.0 2012-12-04T22:47:38Z 2012-12-05 10:47:38 12 -1.8503 -1.8524 34.6522 2.726004 27.260045 1028.4013 27.8998 27.8997 104.117 2.91868 4.17108 126.81 34.60612 3.911 1441.67 1441.64 1441.91 1440.32 1440.29 1440.48 0
2012/2013 103 29 -77.59358 165.82318 104.0 2012-12-04T22:47:40Z 2012-12-05 10:47:40 12 -1.8505 -1.8526 34.6527 2.726069 27.260687 1028.4066 27.9002 27.9001 105.127 2.9142 4.16468 126.616 34.55294 3.91 1441.69 1441.65 1441.93 1440.32 1440.29 1440.48 0
2012/2013 103 29 -77.59358 165.82318 105.0 2012-12-04T22:47:43Z 2012-12-05 10:47:43 12 -1.8502 -1.8524 34.6529 2.726154 27.261539 1028.4116 27.9004 27.9003 106.139 2.91492 4.16572 126.647 34.56184 3.91 1441.7 1441.67 1441.95 1440.32 1440.29 1440.48 0
2012/2013 103 29 -77.59358 165.82318 106.0 2012-12-04T22:47:45Z 2012-12-05 10:47:45 12 -1.851 -1.8531 34.6536 2.726193 27.26193 1028.4171 27.901 27.9009 107.15 2.91994 4.17288 126.865 34.6208 3.911 1441.72 1441.68 1441.96 1440.32 1440.29 1440.48 0
2012/2013 103 29 -77.59358 165.82318 107.0 2012-12-04T22:47:48Z 2012-12-05 10:47:48 12 -1.852 -1.8541 34.6545 2.726218 27.262176 1028.4226 27.9017 27.9016 108.161 2.91688 4.16851 126.732 34.58381 3.911 1441.73 1441.69 1441.97 1440.32 1440.29 1440.48 0
2012/2013 103 29 -77.59358 165.82318 108.0 2012-12-04T22:47:50Z 2012-12-05 10:47:50 12 -1.853 -1.8552 34.6547 2.726193 27.261931 1028.4277 27.9019 27.9018 109.172 2.92793 4.18431 127.212 34.71395 3.91 1441.74 1441.71 1441.98 1440.32 1440.29 1440.48 0
2012/2013 103 29 -77.59358 165.82318 109.0 2012-12-04T22:47:53Z 2012-12-05 10:47:53 12 -1.8538 -1.8561 34.6551 2.726197 27.26197 1028.4329 27.9022 27.9022 110.183 2.93439 4.19354 127.493 34.78986 3.91 1441.75 1441.72 1442.0 1440.32 1440.29 1440.48 0
2012/2013 103 29 -77.59358 165.82318 110.0 2012-12-04T22:47:56Z 2012-12-05 10:47:56 12 -1.8548 -1.8571 34.6553 2.72618 27.261801 1028.438 27.9025 27.9024 111.194 2.93667 4.19679 127.592 34.81599 3.91 1441.77 1441.73 1442.01 1440.32 1440.29 1440.48 0
2012/2013 103 29 -77.59358 165.82318 111.0 2012-12-04T22:47:58Z 2012-12-05 10:47:58 12 -1.8549 -1.8572 34.6555 2.72623 27.262298 1028.443 27.9026 27.9025 112.206 2.93636 4.19634 127.578 34.81221 3.91 1441.78 1441.75 1442.03 1440.32 1440.29 1440.48 0
2012/2013 103 29 -77.59358 165.82318 112.0 2012-12-04T22:48:01Z 2012-12-05 10:48:01 12 -1.8574 -1.8597 34.656 2.726102 27.261017 1028.4484 27.9031 27.903 113.216 2.94019 4.20183 127.744 34.85542 3.91 1441.79 1441.75 1442.03 1440.32 1440.29 1440.48 0
2012/2013 103 29 -77.59358 165.82318 113.0 2012-12-04T22:48:03Z 2012-12-05 10:48:03 12 -1.86 -1.8623 34.6573 2.726025 27.260253 1028.4544 27.9043 27.9042 114.228 2.94126 4.20336 127.791 34.866 3.91 1441.79 1441.76 1442.04 1440.32 1440.29 1440.48 0
2012/2013 103 29 -77.59358 165.82318 114.0 2012-12-04T22:48:06Z 2012-12-05 10:48:06 12 -1.8639 -1.8662 34.6599 2.725938 27.259378 1028.4615 27.9064 27.9064 115.239 2.93576 4.1955 127.552 34.79785 3.91 1441.79 1441.76 1442.04 1440.56 1440.53 1440.74 0
2012/2013 103 29 -77.59358 165.82318 115.0 2012-12-04T22:49:14Z 2012-12-05 10:49:14 12 -1.8637 -1.866 34.6609 2.726072 27.260721 1028.4672 27.9072 27.9072 116.25 2.93636 4.19636 127.578 34.80544 3.911 1441.81 1441.78 1442.06 1440.61 1440.58 1440.79 0
2012/2013 104 31 -77.59123 165.84165 2.0 2012-12-05T22:58:31Z 2012-12-06 10:58:31 12 -1.7694 -1.7694 34.6245 2.726056 27.260559 1027.8848 27.875 27.875 2.021 3.67651 5.2541 159.74 43.67828 3.942 1440.37 1440.36 1440.58 1439.69 1439.68 1439.86 0
2012/2013 104 31 -77.59123 165.84165 3.0 2012-12-05T22:59:17Z 2012-12-06 10:59:17 12 -1.7702 -1.7703 34.6193 2.725656 27.256556 1027.8854 27.8708 27.8708 3.032 3.74961 5.35857 162.917 44.54411 3.946 1440.37 1440.37 1440.58 1439.69 1439.68 1439.86 0
2012/2013 104 31 -77.59123 165.84165 4.0 2012-12-05T22:59:23Z 2012-12-06 10:59:23 12 -1.7698 -1.7699 34.6186 2.725688 27.256878 1027.8896 27.8702 27.8702 4.042 3.74799 5.35625 162.846 44.52507 3.945 1440.39 1440.38 1440.6 1439.69 1439.68 1439.86 0
2012/2013 104 31 -77.59123 165.84165 5.0 2012-12-05T22:59:27Z 2012-12-06 10:59:27 12 -1.7693 -1.7694 34.6186 2.725778 27.257779 1027.8946 27.8702 27.8702 5.053 3.78497 5.4091 164.453 44.96498 3.945 1440.41 1440.4 1440.62 1439.69 1439.68 1439.86 0
2012/2013 104 31 -77.59123 165.84165 6.0 2012-12-05T22:59:31Z 2012-12-06 10:59:30 12 -1.7694 -1.7695 34.6186 2.725816 27.258158 1027.8994 27.8702 27.8702 6.063 3.76302 5.37773 163.5 44.70411 3.945 1440.42 1440.42 1440.64 1439.69 1439.68 1439.86 0
2012/2013 104 31 -77.59123 165.84165 7.0 2012-12-05T22:59:35Z 2012-12-06 10:59:35 12 -1.7698 -1.7699 34.6187 2.72584 27.258399 1027.9044 27.8703 27.8703 7.074 3.70213 5.29071 160.854 43.98036 3.945 1440.44 1440.43 1440.65 1439.69 1439.68 1439.86 0
2012/2013 104 31 -77.59123 165.84165 8.0 2012-12-05T22:59:39Z 2012-12-06 10:59:39 12 -1.7703 -1.7705 34.6181 2.725796 27.257958 1027.9087 27.8698 27.8697 8.085 3.69118 5.27506 160.378 43.84945 3.946 1440.45 1440.45 1440.66 1439.69 1439.68 1439.86 0
2012/2013 104 31 -77.59123 165.84165 9.0 2012-12-05T22:59:43Z 2012-12-06 10:59:43 12 -1.7741 -1.7743 34.6188 2.725583 27.255825 1027.9143 27.8705 27.8705 9.095 3.71637 5.31106 161.473 44.14439 3.946 1440.45 1440.44 1440.66 1439.69 1439.68 1439.86 0
2012/2013 104 31 -77.59123 165.84165 10.0 2012-12-05T22:59:47Z 2012-12-06 10:59:47 12 -1.7744 -1.7746 34.6189 2.72561 27.256102 1027.9192 27.8705 27.8705 10.106 3.69906 5.28633 160.721 43.93855 3.946 1440.47 1440.46 1440.68 1439.69 1439.68 1439.86 0
2012/2013 104 31 -77.59123 165.84165 11.0 2012-12-05T22:59:51Z 2012-12-06 10:59:51 12 -1.7744 -1.7746 34.6191 2.725677 27.256775 1027.9243 27.8708 27.8707 11.117 3.65077 5.21732 158.623 43.36504 3.946 1440.48 1440.47 1440.69 1439.69 1439.68 1439.86 0
2012/2013 104 31 -77.59123 165.84165 12.0 2012-12-05T22:59:55Z 2012-12-06 10:59:55 12 -1.7745 -1.7747 34.6193 2.725725 27.257253 1027.9294 27.8709 27.8709 12.127 3.62402 5.17908 157.46 43.04713 3.946 1440.5 1440.49 1440.71 1439.69 1439.68 1439.86 0
2012/2013 104 31 -77.59123 165.84165 13.0 2012-12-05T22:59:59Z 2012-12-06 10:59:59 12 -1.7742 -1.7744 34.6192 2.72579 27.257903 1027.9341 27.8708 27.8708 13.138 3.64291 5.20608 158.281 43.27188 3.946 1440.52 1440.51 1440.73 1439.69 1439.68 1439.86 0
2012/2013 104 31 -77.59123 165.84165 14.0 2012-12-05T23:00:03Z 2012-12-06 11:00:03 12 -1.7747 -1.775 34.6192 2.725794 27.257936 1027.939 27.8708 27.8708 14.149 3.64221 5.20509 158.251 43.263 3.947 1440.53 1440.52 1440.74 1439.69 1439.68 1439.86 0
2012/2013 104 31 -77.59123 165.84165 15.0 2012-12-05T23:00:06Z 2012-12-06 11:00:06 12 -1.7744 -1.7747 34.6191 2.725852 27.258525 1027.9437 27.8707 27.8707 15.159 3.79717 5.42654 164.983 45.10391 3.947 1440.55 1440.54 1440.76 1439.69 1439.68 1439.86 0
2012/2013 104 31 -77.59123 165.84165 16.0 2012-12-05T23:00:10Z 2012-12-06 11:00:10 12 -1.7743 -1.7746 34.6194 2.725936 27.25936 1027.9489 27.871 27.871 16.17 3.60256 5.14841 156.528 42.79247 3.946 1440.57 1440.56 1440.78 1439.69 1439.68 1439.86 0
2012/2013 104 31 -77.59123 165.84165 17.0 2012-12-05T23:00:13Z 2012-12-06 11:00:13 12 -1.7747 -1.775 34.6195 2.725962 27.259625 1027.9539 27.8711 27.8711 17.181 3.64064 5.20284 158.182 43.24446 3.947 1440.58 1440.57 1440.79 1439.69 1439.68 1439.86 0
2012/2013 104 31 -77.59123 165.84165 18.0 2012-12-05T23:00:17Z 2012-12-06 11:00:17 12 -1.7747 -1.775 34.6196 2.726013 27.260127 1027.9588 27.8711 27.8711 18.191 3.64226 5.20515 158.252 43.26364 3.947 1440.6 1440.59 1440.81 1439.69 1439.68 1439.86 0
2012/2013 104 31 -77.59123 165.84165 19.0 2012-12-05T23:00:20Z 2012-12-06 11:00:20 12 -1.7746 -1.775 34.6197 2.726074 27.260738 1027.9638 27.8712 27.8712 19.202 3.6408 5.20306 158.189 43.24649 3.948 1440.61 1440.6 1440.83 1439.69 1439.68 1439.86 0
2012/2013 104 31 -77.59123 165.84165 20.0 2012-12-05T23:00:24Z 2012-12-06 11:00:24 12 -1.7748 -1.7752 34.62 2.726119 27.261195 1027.9689 27.8714 27.8714 20.213 3.63906 5.20058 158.114 43.22562 3.948 1440.63 1440.62 1440.84 1440.01 1440.0 1440.19 0
2012/2013 104 31 -77.59123 165.84165 21.0 2012-12-05T23:00:28Z 2012-12-06 11:00:28 12 -1.7749 -1.7753 34.6199 2.726157 27.261571 1027.9736 27.8714 27.8714 21.223 3.66586 5.23887 159.278 43.54385 3.948 1440.65 1440.63 1440.86 1440.16 1440.15 1440.35 0
2012/2013 104 31 -77.59123 165.84165 22.0 2012-12-05T23:00:31Z 2012-12-06 11:00:31 12 -1.7752 -1.7756 34.6201 2.726196 27.261959 1027.9787 27.8716 27.8716 22.234 3.67168 5.2472 159.531 43.61276 3.948 1440.66 1440.65 1440.88 1440.16 1440.15 1440.35 0
2012/2013 104 31 -77.59123 165.84165 23.0 2012-12-05T23:00:35Z 2012-12-06 11:00:35 12 -1.7752 -1.7756 34.6201 2.726242 27.262418 1027.9836 27.8716 27.8716 23.245 3.6428 5.20593 158.276 43.2697 3.948 1440.68 1440.67 1440.89 1440.16 1440.15 1440.35 0
2012/2013 104 31 -77.59123 165.84165 24.0 2012-12-05T23:00:39Z 2012-12-06 11:00:39 12 -1.7759 -1.7764 34.6204 2.72625 27.262494 1027.9887 27.8718 27.8718 24.256 3.63917 5.20073 158.118 43.22581 3.949 1440.69 1440.68 1440.91 1440.16 1440.15 1440.35 0
2012/2013 104 31 -77.59123 165.84165 25.0 2012-12-05T23:00:42Z 2012-12-06 11:00:42 12 -1.7756 -1.7761 34.6204 2.726321 27.263211 1027.9936 27.8718 27.8718 25.266 3.88185 5.54755 168.662 46.1087 3.948 1440.71 1440.7 1440.92 1440.16 1440.15 1440.35 0
2012/2013 104 31 -77.59123 165.84165 26.0 2012-12-05T23:00:46Z 2012-12-06 11:00:45 12 -1.7753 -1.7758 34.6202 2.72638 27.263799 1027.9983 27.8716 27.8716 26.277 3.56696 5.09754 154.981 42.36876 3.949 1440.73 1440.71 1440.94 1440.16 1440.15 1440.35 0
2012/2013 104 31 -77.59123 165.84165 27.0 2012-12-05T23:00:49Z 2012-12-06 11:00:49 12 -1.777 -1.7776 34.6209 2.726336 27.263357 1028.0038 27.8723 27.8723 27.288 3.57449 5.1083 155.308 42.45642 3.949 1440.73 1440.72 1440.95 1440.16 1440.15 1440.35 0
2012/2013 104 31 -77.59123 165.84165 28.0 2012-12-05T23:00:52Z 2012-12-06 11:00:52 12 -1.7763 -1.7769 34.6209 2.726438 27.264377 1028.0087 27.8723 27.8723 28.298 3.76609 5.38212 163.633 44.73301 3.949 1440.75 1440.74 1440.97 1440.16 1440.15 1440.35 0
2012/2013 104 31 -77.59123 165.84165 29.0 2012-12-05T23:00:56Z 2012-12-06 11:00:56 12 -1.7751 -1.7757 34.6202 2.726531 27.265313 1028.0129 27.8717 27.8716 29.309 3.57822 5.11364 155.47 42.50267 3.949 1440.78 1440.76 1440.99 1440.16 1440.15 1440.35 0
2012/2013 104 31 -77.59123 165.84165 30.0 2012-12-05T23:00:59Z 2012-12-06 11:00:59 12 -1.7769 -1.7775 34.6207 2.726471 27.264712 1028.0182 27.8721 27.8721 30.32 3.82624 5.46808 166.246 45.44676 3.949 1440.78 1440.77 1441.0 1440.16 1440.15 1440.35 0
2012/2013 104 31 -77.59123 165.84165 31.0 2012-12-05T23:01:03Z 2012-12-06 11:01:03 12 -1.7771 -1.7777 34.6211 2.726533 27.265332 1028.0234 27.8725 27.8724 31.33 3.55777 5.08441 154.581 42.25783 3.949 1440.8 1440.79 1441.02 1440.16 1440.15 1440.35 0
2012/2013 104 31 -77.59123 165.84165 32.0 2012-12-05T23:01:06Z 2012-12-06 11:01:06 12 -1.7773 -1.778 34.6209 2.726546 27.265458 1028.0282 27.8723 27.8723 32.341 3.60127 5.14657 156.471 42.77416 3.95 1440.81 1440.8 1441.03 1440.16 1440.15 1440.35 0
2012/2013 104 31 -77.59123 165.84165 33.0 2012-12-05T23:01:09Z 2012-12-06 11:01:09 12 -1.7781 -1.7788 34.6212 2.726544 27.265446 1028.0333 27.8726 27.8725 33.352 3.59057 5.13128 156.006 42.64621 3.949 1440.83 1440.81 1441.05 1440.16 1440.15 1440.35 0
2012/2013 104 31 -77.59123 165.84165 34.0 2012-12-05T23:01:14Z 2012-12-06 11:01:14 12 -1.7788 -1.7795 34.6212 2.726535 27.265353 1028.0382 27.8726 27.8726 34.363 3.57451 5.10833 155.309 42.45473 3.95 1440.84 1440.83 1441.06 1440.16 1440.15 1440.35 0
2012/2013 104 31 -77.59123 165.84165 35.0 2012-12-05T23:01:18Z 2012-12-06 11:01:18 12 -1.7811 -1.7818 34.6218 2.726431 27.264304 1028.0435 27.8731 27.8731 35.374 3.59627 5.13943 156.254 42.71067 3.95 1440.85 1440.83 1441.07 1440.16 1440.15 1440.35 0
2012/2013 104 31 -77.59123 165.84165 36.0 2012-12-05T23:01:22Z 2012-12-06 11:01:22 12 -1.7819 -1.7826 34.6215 2.72639 27.263901 1028.0482 27.8729 27.8729 36.384 3.9949 5.70911 173.574 47.44387 3.95 1440.86 1440.84 1441.08 1440.16 1440.15 1440.35 0
2012/2013 104 31 -77.59123 165.84165 37.0 2012-12-05T23:01:25Z 2012-12-06 11:01:25 12 -1.7826 -1.7833 34.6219 2.72641 27.264097 1028.0534 27.8733 27.8732 37.395 3.89148 5.56132 169.081 46.21496 3.95 1440.87 1440.86 1441.09 1440.16 1440.15 1440.35 0
2012/2013 104 31 -77.59123 165.84165 38.0 2012-12-05T23:01:27Z 2012-12-06 11:01:27 12 -1.782 -1.7828 34.6218 2.726494 27.264942 1028.0582 27.8732 27.8731 38.406 3.80796 5.44195 165.452 45.22365 3.95 1440.89 1440.87 1441.11 1440.16 1440.15 1440.35 0
2012/2013 104 31 -77.59123 165.84165 39.0 2012-12-05T23:01:31Z 2012-12-06 11:01:31 12 -1.7822 -1.783 34.6218 2.726526 27.265265 1028.0631 27.8732 27.8732 39.417 3.90706 5.58358 169.758 46.40031 3.95 1440.91 1440.89 1441.13 1440.16 1440.15 1440.35 0
2012/2013 104 31 -77.59123 165.84165 40.0 2012-12-05T23:01:34Z 2012-12-06 11:01:34 12 -1.7819 -1.7827 34.6218 2.726599 27.265992 1028.0679 27.8731 27.8731 40.427 3.92355 5.60715 170.474 46.59665 3.95 1440.92 1440.91 1441.15 1440.41 1440.39 1440.6 0
2012/2013 104 31 -77.59123 165.84165 41.0 2012-12-05T23:01:37Z 2012-12-06 11:01:37 12 -1.7822 -1.7831 34.6218 2.726617 27.26617 1028.0728 27.8732 27.8731 41.438 3.88098 5.5463 168.624 46.09052 3.95 1440.94 1440.92 1441.16 1440.47 1440.45 1440.67 0
2012/2013 104 31 -77.59123 165.84165 42.0 2012-12-05T23:01:40Z 2012-12-06 11:01:40 12 -1.7822 -1.7831 34.6218 2.726667 27.266669 1028.0777 27.8732 27.8732 42.449 3.88306 5.54929 168.715 46.11536 3.951 1440.95 1440.94 1441.18 1440.47 1440.45 1440.67 0
2012/2013 104 31 -77.59123 165.84165 43.0 2012-12-05T23:01:44Z 2012-12-06 11:01:44 12 -1.7823 -1.7832 34.6216 2.726688 27.266884 1028.0824 27.873 27.873 43.46 3.88311 5.54935 168.717 46.11569 3.951 1440.97 1440.95 1441.19 1440.47 1440.45 1440.67 0
2012/2013 104 31 -77.59123 165.84165 44.0 2012-12-05T23:01:48Z 2012-12-06 11:01:48 12 -1.782 -1.7829 34.6217 2.726766 27.267661 1028.0873 27.873 27.873 44.471 3.90505 5.58071 169.671 46.3767 3.951 1440.99 1440.97 1441.21 1440.47 1440.45 1440.67 0
2012/2013 104 31 -77.59123 165.84165 45.0 2012-12-05T23:01:51Z 2012-12-06 11:01:51 12 -1.7816 -1.7825 34.6217 2.726848 27.268482 1028.0922 27.873 27.873 45.481 3.90797 5.58487 169.797 46.41182 3.951 1441.01 1440.99 1441.23 1440.47 1440.45 1440.67 0
2012/2013 104 31 -77.59123 165.84165 46.0 2012-12-05T23:01:54Z 2012-12-06 11:01:54 12 -1.7836 -1.7845 34.621 2.726685 27.26685 1028.0966 27.8726 27.8725 46.492 3.91701 5.5978 170.19 46.51655 3.951 1441.01 1441.0 1441.24 1440.47 1440.45 1440.67 0
2012/2013 104 31 -77.59123 165.84165 47.0 2012-12-05T23:01:57Z 2012-12-06 11:01:57 12 -1.7871 -1.7881 34.6212 2.726448 27.264484 1028.1017 27.8728 27.8728 47.503 3.88764 5.55582 168.914 46.16336 3.951 1441.01 1440.99 1441.24 1440.47 1440.45 1440.67 0
2012/2013 104 31 -77.59123 165.84165 48.0 2012-12-05T23:02:00Z 2012-12-06 11:02:00 12 -1.7876 -1.7885 34.6221 2.726527 27.265274 1028.1073 27.8736 27.8736 48.514 3.90836 5.58544 169.814 46.40925 3.951 1441.03 1441.01 1441.25 1440.47 1440.45 1440.67 0
2012/2013 104 31 -77.59123 165.84165 49.0 2012-12-05T23:02:03Z 2012-12-06 11:02:03 12 -1.7879 -1.7889 34.6222 2.726547 27.265464 1028.1122 27.8736 27.8736 49.525 3.91539 5.59548 170.119 46.49226 3.951 1441.04 1441.02 1441.27 1440.47 1440.45 1440.67 0
2012/2013 104 31 -77.59123 165.84165 50.0 2012-12-05T23:02:06Z 2012-12-06 11:02:06 12 -1.7876 -1.7886 34.6221 2.726619 27.266191 1028.117 27.8736 27.8735 50.535 3.919 5.60064 170.276 46.53553 3.952 1441.06 1441.04 1441.29 1440.47 1440.45 1440.67 0
2012/2013 104 31 -77.59123 165.84165 51.0 2012-12-05T23:02:09Z 2012-12-06 11:02:09 12 -1.7892 -1.7902 34.6218 2.72651 27.265097 1028.1217 27.8734 27.8733 51.546 3.90412 5.57938 169.63 46.35675 3.951 1441.07 1441.05 1441.29 1440.47 1440.45 1440.67 0
2012/2013 104 31 -77.59123 165.84165 52.0 2012-12-05T23:02:13Z 2012-12-06 11:02:13 12 -1.7932 -1.7942 34.6227 2.726283 27.262834 1028.1274 27.8742 27.8741 52.557 3.91002 5.58782 169.886 46.42212 3.952 1441.07 1441.05 1441.29 1440.47 1440.45 1440.67 0
2012/2013 104 31 -77.59123 165.84165 53.0 2012-12-05T23:02:16Z 2012-12-06 11:02:16 12 -1.7929 -1.7939 34.6222 2.726319 27.263186 1028.1318 27.8738 27.8737 53.568 3.91963 5.60154 170.304 46.53639 3.952 1441.08 1441.06 1441.31 1440.47 1440.45 1440.67 0
2012/2013 104 31 -77.59123 165.84165 54.0 2012-12-05T23:02:19Z 2012-12-06 11:02:19 12 -1.7935 -1.7946 34.6221 2.726311 27.263105 1028.1367 27.8738 27.8737 54.579 3.91713 5.59798 170.195 46.50597 3.952 1441.1 1441.08 1441.32 1440.47 1440.45 1440.67 0
2012/2013 104 31 -77.59123 165.84165 55.0 2012-12-05T23:02:23Z 2012-12-06 11:02:23 12 -1.7941 -1.7952 34.6227 2.726348 27.263485 1028.1421 27.8743 27.8742 55.59 3.92932 5.61539 170.724 46.65003 3.952 1441.11 1441.09 1441.34 1440.47 1440.45 1440.67 0
2012/2013 104 31 -77.59123 165.84165 56.0 2012-12-05T23:02:26Z 2012-12-06 11:02:26 12 -1.7936 -1.7948 34.6225 2.726421 27.264205 1028.1467 27.8741 27.874 56.601 3.92669 5.61164 170.61 46.61938 3.952 1441.13 1441.11 1441.36 1440.47 1440.45 1440.67 0
2012/2013 104 31 -77.59123 165.84165 57.0 2012-12-05T23:02:28Z 2012-12-06 11:02:29 12 -1.7947 -1.7958 34.6222 2.726358 27.26358 1028.1514 27.8739 27.8738 57.611 3.94294 5.63485 171.316 46.81081 3.951 1441.14 1441.12 1441.37 1440.47 1440.45 1440.67 0
2012/2013 104 31 -77.59123 165.84165 58.0 2012-12-05T23:02:31Z 2012-12-06 11:02:31 12 -1.7966 -1.7978 34.6223 2.726253 27.262532 1028.1564 27.874 27.874 58.622 3.93365 5.62158 170.913 46.69823 3.952 1441.15 1441.13 1441.38 1440.47 1440.45 1440.67 0
2012/2013 104 31 -77.59123 165.84165 59.0 2012-12-05T23:02:35Z 2012-12-06 11:02:35 12 -1.7979 -1.7991 34.6237 2.726285 27.262844 1028.1624 27.8751 27.8751 59.633 3.92564 5.61014 170.565 46.60188 3.952 1441.16 1441.14 1441.39 1440.47 1440.45 1440.67 0
2012/2013 104 31 -77.59123 165.84165 60.0 2012-12-05T23:02:38Z 2012-12-06 11:02:38 12 -1.8 -1.8012 34.6236 2.726152 27.261516 1028.1673 27.8751 27.8751 60.644 3.93386 5.62187 170.921 46.69674 3.952 1441.17 1441.15 1441.39 1440.67 1440.65 1440.88 0
2012/2013 104 31 -77.59123 165.84165 61.0 2012-12-05T23:02:41Z 2012-12-06 11:02:41 12 -1.801 -1.8022 34.6246 2.726187 27.261872 1028.173 27.876 27.8759 61.655 3.91796 5.59915 170.231 46.50714 3.952 1441.18 1441.16 1441.41 1440.66 1440.64 1440.87 0
2012/2013 104 31 -77.59123 165.84165 62.0 2012-12-05T23:02:44Z 2012-12-06 11:02:44 12 -1.8007 -1.8019 34.6252 2.726301 27.263009 1028.1783 27.8764 27.8764 62.666 3.92469 5.60878 170.523 46.58761 3.952 1441.2 1441.18 1441.43 1440.66 1440.64 1440.87 0
2012/2013 104 31 -77.59123 165.84165 63.0 2012-12-05T23:02:47Z 2012-12-06 11:02:47 12 -1.8003 -1.8016 34.625 2.726365 27.263647 1028.183 27.8763 27.8762 63.677 3.94208 5.63363 171.279 46.79447 3.952 1441.22 1441.19 1441.45 1440.66 1440.64 1440.87 0
2012/2013 104 31 -77.59123 165.84165 64.0 2012-12-05T23:02:50Z 2012-12-06 11:02:50 12 -1.8001 -1.8014 34.6249 2.726428 27.264284 1028.1878 27.8762 27.8762 64.688 3.96222 5.66241 172.154 47.03384 3.952 1441.23 1441.21 1441.46 1440.66 1440.64 1440.87 0
2012/2013 104 31 -77.59123 165.84165 65.0 2012-12-05T23:02:54Z 2012-12-06 11:02:54 12 -1.7994 -1.8007 34.6246 2.726502 27.265024 1028.1924 27.8759 27.8758 65.699 3.95362 5.65012 171.78 46.93241 3.953 1441.25 1441.23 1441.48 1440.66 1440.64 1440.87 0
2012/2013 104 31 -77.59123 165.84165 66.0 2012-12-05T23:02:57Z 2012-12-06 11:02:57 12 -1.7997 -1.8011 34.625 2.726561 27.265608 1028.1977 27.8763 27.8763 66.71 3.95479 5.65179 171.831 46.94605 3.952 1441.27 1441.24 1441.5 1440.66 1440.64 1440.87 0
2012/2013 104 31 -77.59123 165.84165 67.0 2012-12-05T23:03:00Z 2012-12-06 11:03:00 12 -1.7986 -1.7999 34.6244 2.726658 27.266583 1028.202 27.8758 27.8757 67.72 3.95612 5.65369 171.889 46.96311 3.953 1441.29 1441.27 1441.52 1440.66 1440.64 1440.87 0
2012/2013 104 31 -77.59123 165.84165 68.0 2012-12-05T23:03:03Z 2012-12-06 11:03:03 12 -1.8007 -1.8021 34.6247 2.726549 27.265485 1028.2071 27.876 27.876 68.731 3.97614 5.6823 172.758 47.19817 3.953 1441.3 1441.27 1441.53 1440.66 1440.64 1440.87 0
2012/2013 104 31 -77.59123 165.84165 69.0 2012-12-05T23:03:05Z 2012-12-06 11:03:05 12 -1.8008 -1.8022 34.6253 2.726632 27.266316 1028.2125 27.8765 27.8765 69.742 3.96541 5.66697 172.292 47.07095 3.953 1441.31 1441.29 1441.54 1440.66 1440.64 1440.87 0
2012/2013 104 31 -77.59123 165.84165 70.0 2012-12-05T23:03:09Z 2012-12-06 11:03:09 12 -1.8 -1.8014 34.6251 2.726729 27.267285 1028.2172 27.8763 27.8763 70.753 3.96895 5.67203 172.446 47.11386 3.953 1441.33 1441.31 1441.56 1440.66 1440.64 1440.87 0
2012/2013 104 31 -77.59123 165.84165 71.0 2012-12-05T23:03:12Z 2012-12-06 11:03:12 12 -1.8005 -1.8019 34.625 2.726733 27.267325 1028.222 27.8763 27.8763 71.764 3.98255 5.69147 173.037 47.27472 3.953 1441.35 1441.32 1441.58 1440.66 1440.64 1440.87 0
2012/2013 104 31 -77.59123 165.84165 72.0 2012-12-05T23:03:14Z 2012-12-06 11:03:14 12 -1.8024 -1.8039 34.6254 2.726639 27.266393 1028.2272 27.8767 27.8766 72.775 3.98564 5.69587 173.171 47.30889 3.952 1441.35 1441.33 1441.59 1440.66 1440.64 1440.87 0
2012/2013 104 31 -77.59123 165.84165 73.0 2012-12-05T23:03:17Z 2012-12-06 11:03:17 12 -1.8017 -1.8032 34.6258 2.726775 27.267753 1028.2324 27.877 27.8769 73.786 3.97383 5.67901 172.658 47.16985 3.953 1441.37 1441.35 1441.61 1440.66 1440.64 1440.87 0
2012/2013 104 31 -77.59123 165.84165 74.0 2012-12-05T23:03:20Z 2012-12-06 11:03:20 12 -1.801 -1.8025 34.6254 2.72685 27.268501 1028.2369 27.8766 27.8766 74.797 3.98765 5.69876 173.259 47.33465 3.953 1441.4 1441.37 1441.63 1440.66 1440.64 1440.87 0
2012/2013 104 31 -77.59123 165.84165 75.0 2012-12-05T23:03:23Z 2012-12-06 11:03:23 12 -1.8048 -1.8063 34.6253 2.726576 27.26576 1028.2418 27.8766 27.8766 75.808 3.98741 5.69841 173.248 47.32694 3.953 1441.39 1441.36 1441.62 1440.66 1440.64 1440.87 0
2012/2013 104 31 -77.59123 165.84165 76.0 2012-12-05T23:03:26Z 2012-12-06 11:03:26 12 -1.8074 -1.8089 34.6264 2.726486 27.264859 1028.2477 27.8776 27.8776 76.819 3.95821 5.65668 171.979 46.97747 3.953 1441.4 1441.37 1441.63 1440.66 1440.64 1440.87 0
2012/2013 104 31 -77.59123 165.84165 77.0 2012-12-05T23:03:29Z 2012-12-06 11:03:29 12 -1.8083 -1.8099 34.627 2.726502 27.265022 1028.2531 27.8782 27.8781 77.83 3.97739 5.68408 172.812 47.20406 3.953 1441.41 1441.38 1441.64 1440.66 1440.64 1440.87 0
2012/2013 104 31 -77.59123 165.84165 78.0 2012-12-05T23:03:32Z 2012-12-06 11:03:32 12 -1.8068 -1.8083 34.6261 2.726612 27.266125 1028.2572 27.8774 27.8774 78.841 3.98251 5.6914 173.035 47.26651 3.954 1441.43 1441.41 1441.67 1440.66 1440.64 1440.87 0
2012/2013 104 31 -77.59123 165.84165 79.0 2012-12-05T23:03:35Z 2012-12-06 11:03:35 12 -1.806 -1.8076 34.6261 2.726714 27.26714 1028.2619 27.8773 27.8773 79.852 4.00633 5.72545 174.07 47.55015 3.954 1441.45 1441.42 1441.68 1440.66 1440.64 1440.87 0
2012/2013 104 31 -77.59123 165.84165 80.0 2012-12-05T23:03:38Z 2012-12-06 11:03:37 12 -1.8093 -1.811 34.6256 2.726455 27.264548 1028.2666 27.877 27.877 80.863 3.97358 5.67865 172.647 47.15712 3.954 1441.45 1441.42 1441.69 1440.81 1440.79 1441.02 0
2012/2013 104 31 -77.59123 165.84165 81.0 2012-12-05T23:03:40Z 2012-12-06 11:03:40 12 -1.8088 -1.8104 34.6263 2.726595 27.265952 1028.272 27.8776 27.8776 81.874 3.98742 5.69842 173.248 47.32226 3.953 1441.47 1441.45 1441.71 1440.82 1440.81 1441.04 0
2012/2013 104 31 -77.59123 165.84165 82.0 2012-12-05T23:03:43Z 2012-12-06 11:03:43 12 -1.8086 -1.8103 34.6258 2.726621 27.266209 1028.2764 27.8771 27.8771 82.885 3.99962 5.71586 173.779 47.46718 3.954 1441.49 1441.46 1441.72 1440.82 1440.81 1441.04 0
2012/2013 104 31 -77.59123 165.84165 83.0 2012-12-05T23:03:46Z 2012-12-06 11:03:46 12 -1.8143 -1.816 34.6266 2.726246 27.262456 1028.2821 27.878 27.8779 83.895 3.97553 5.68143 172.732 47.17418 3.954 1441.48 1441.45 1441.71 1440.82 1440.81 1441.04 0
2012/2013 104 31 -77.59123 165.84165 84.0 2012-12-05T23:03:49Z 2012-12-06 11:03:49 12 -1.8166 -1.8183 34.6275 2.726166 27.261659 1028.2878 27.8788 27.8787 84.907 3.97355 5.6786 172.646 47.14809 3.953 1441.49 1441.46 1441.72 1440.82 1440.81 1441.04 0
2012/2013 104 31 -77.59123 165.84165 85.0 2012-12-05T23:03:52Z 2012-12-06 11:03:52 12 -1.8182 -1.82 34.6281 2.72612 27.261197 1028.2932 27.8793 27.8793 85.917 3.98202 5.69071 173.014 47.24676 3.954 1441.49 1441.46 1441.73 1440.82 1440.81 1441.04 0
2012/2013 104 31 -77.59123 165.84165 86.0 2012-12-05T23:03:54Z 2012-12-06 11:03:54 12 -1.8188 -1.8206 34.6286 2.726154 27.261544 1028.2984 27.8797 27.8797 86.928 3.97413 5.67943 172.671 47.15255 3.954 1441.51 1441.48 1441.74 1440.82 1440.81 1441.04 0
2012/2013 104 31 -77.59123 165.84165 87.0 2012-12-05T23:03:57Z 2012-12-06 11:03:57 12 -1.8189 -1.8206 34.6285 2.726192 27.261921 1028.3032 27.8797 27.8796 87.94 3.98826 5.69962 173.285 47.32007 3.954 1441.53 1441.5 1441.76 1440.82 1440.81 1441.04 0
2012/2013 104 31 -77.59123 165.84165 88.0 2012-12-05T23:03:59Z 2012-12-06 11:03:59 12 -1.8205 -1.8223 34.6288 2.726123 27.261232 1028.3083 27.8799 27.8799 88.951 3.99014 5.7023 173.366 47.34041 3.953 1441.54 1441.5 1441.77 1440.82 1440.81 1441.04 0
2012/2013 104 31 -77.59123 165.84165 89.0 2012-12-05T23:04:02Z 2012-12-06 11:04:02 12 -1.8235 -1.8253 34.6313 2.726101 27.261009 1028.3153 27.882 27.882 89.961 3.96909 5.67222 172.451 47.08775 3.954 1441.54 1441.51 1441.78 1440.82 1440.81 1441.04 0
2012/2013 104 31 -77.59123 165.84165 90.0 2012-12-05T23:04:04Z 2012-12-06 11:04:04 12 -1.825 -1.8269 34.6324 2.726097 27.260968 1028.3212 27.883 27.883 90.973 3.96534 5.66686 172.288 47.0416 3.954 1441.55 1441.52 1441.79 1440.82 1440.81 1441.04 0
2012/2013 104 31 -77.59123 165.84165 91.0 2012-12-05T23:04:06Z 2012-12-06 11:04:06 12 -1.8259 -1.8278 34.6331 2.726123 27.261226 1028.3267 27.8836 27.8836 91.984 3.95637 5.65406 171.898 46.93443 3.954 1441.56 1441.53 1441.8 1440.82 1440.81 1441.04 0
2012/2013 104 31 -77.59123 165.84165 92.0 2012-12-05T23:04:09Z 2012-12-06 11:04:09 12 -1.8256 -1.8275 34.6331 2.726183 27.261831 1028.3315 27.8836 27.8835 92.995 3.9904 5.70269 173.377 47.33837 3.954 1441.58 1441.55 1441.82 1440.82 1440.81 1441.04 0
2012/2013 104 31 -77.59123 165.84165 93.0 2012-12-05T23:04:12Z 2012-12-06 11:04:12 12 -1.8254 -1.8273 34.6327 2.726226 27.262259 1028.3361 27.8832 27.8832 94.006 3.98101 5.68926 172.969 47.2271 3.954 1441.6 1441.57 1441.84 1440.82 1440.81 1441.04 0
2012/2013 104 31 -77.59123 165.84165 94.0 2012-12-05T23:04:14Z 2012-12-06 11:04:14 12 -1.826 -1.8279 34.6332 2.726259 27.262591 1028.3413 27.8837 27.8836 95.017 3.98051 5.68855 172.947 47.22071 3.954 1441.61 1441.58 1441.85 1440.82 1440.81 1441.04 0
2012/2013 104 31 -77.59123 165.84165 95.0 2012-12-05T23:04:16Z 2012-12-06 11:04:16 12 -1.8257 -1.8276 34.6332 2.726334 27.263345 1028.3462 27.8837 27.8836 96.028 3.99354 5.70717 173.513 47.37566 3.954 1441.63 1441.6 1441.87 1440.82 1440.81 1441.04 0
2012/2013 104 31 -77.59123 165.84165 96.0 2012-12-05T23:04:19Z 2012-12-06 11:04:19 12 -1.8254 -1.8273 34.6331 2.726397 27.263974 1028.3509 27.8836 27.8835 97.039 3.98551 5.69569 173.164 47.28071 3.954 1441.65 1441.61 1441.89 1440.82 1440.81 1441.04 0
2012/2013 104 31 -77.59123 165.84165 97.0 2012-12-05T23:04:22Z 2012-12-06 11:04:22 12 -1.8261 -1.8281 34.6335 2.726415 27.26415 1028.3562 27.8839 27.8839 98.05 3.99807 5.71365 173.71 47.429 3.955 1441.66 1441.63 1441.9 1440.82 1440.81 1441.04 0
2012/2013 104 31 -77.59123 165.84165 98.0 2012-12-05T23:04:24Z 2012-12-06 11:04:24 12 -1.8309 -1.8329 34.6364 2.726269 27.262687 1028.3636 27.8864 27.8864 99.061 3.98419 5.6938 173.106 47.25914 3.955 1441.66 1441.63 1441.9 1440.82 1440.81 1441.04 0
2012/2013 104 31 -77.59123 165.84165 99.0 2012-12-05T23:04:26Z 2012-12-06 11:04:26 12 -1.8398 -1.8418 34.6446 2.726154 27.261542 1028.3753 27.8933 27.8932 100.072 3.91298 5.59203 170.011 46.40601 3.955 1441.64 1441.61 1441.88 1440.82 1440.81 1441.04 0
2012/2013 104 31 -77.59123 165.84165 100.0 2012-12-05T23:04:29Z 2012-12-06 11:04:29 12 -1.8416 -1.8436 34.6461 2.726159 27.261591 1028.3815 27.8946 27.8945 101.084 3.92312 5.60653 170.452 46.52453 3.955 1441.65 1441.62 1441.89 1440.82 1440.81 1441.04 0
2012/2013 104 31 -77.59123 165.84165 101.0 2012-12-05T23:04:31Z 2012-12-06 11:04:31 12 -1.8443 -1.8464 34.6487 2.726159 27.261592 1028.3885 27.8968 27.8967 102.095 3.93767 5.62732 171.083 46.69441 3.954 1441.66 1441.63 1441.9 1440.82 1440.81 1441.04 0
2012/2013 104 31 -77.59123 165.84165 102.0 2012-12-05T23:04:34Z 2012-12-06 11:04:34 12 -1.8482 -1.8502 34.6528 2.726178 27.261785 1028.3968 27.9002 27.9002 103.105 3.90927 5.58674 169.849 46.35423 3.955 1441.66 1441.63 1441.91 1440.82 1440.81 1441.04 0
2012/2013 104 31 -77.59123 165.84165 103.0 2012-12-05T23:04:36Z 2012-12-06 11:04:36 12 -1.8527 -1.8548 34.657 2.72615 27.261496 1028.4053 27.9038 27.9037 104.116 3.88821 5.55664 168.933 46.10025 3.955 1441.67 1441.63 1441.91 1440.89 1440.87 1441.11 0
2012/2013 104 31 -77.59123 165.84165 104.0 2012-12-05T23:04:39Z 2012-12-06 11:04:39 12 -1.8545 -1.8566 34.6587 2.726166 27.261659 1028.4115 27.9051 27.9051 105.128 3.88429 5.55104 168.763 46.05214 3.955 1441.68 1441.64 1441.92 1440.99 1440.97 1441.21 0
2012/2013 104 31 -77.59123 165.84165 105.0 2012-12-05T23:04:41Z 2012-12-06 11:04:41 12 -1.8553 -1.8574 34.6593 2.726189 27.261896 1028.4169 27.9057 27.9056 106.139 3.87151 5.53278 168.208 45.89988 3.955 1441.69 1441.65 1441.93 1440.99 1440.97 1441.21 0
2012/2013 104 31 -77.59123 165.84165 106.0 2012-12-05T23:04:44Z 2012-12-06 11:04:44 12 -1.8557 -1.8579 34.6594 2.726207 27.26207 1028.4219 27.9058 27.9057 107.15 3.90106 5.575 169.492 46.24962 3.955 1441.7 1441.67 1441.95 1440.99 1440.97 1441.21 0
2012/2013 104 31 -77.59123 165.84165 107.0 2012-12-05T23:04:48Z 2012-12-06 11:04:48 12 -1.8585 -1.8607 34.6604 2.726091 27.260906 1028.4276 27.9067 27.9066 108.16 3.88165 5.54727 168.648 46.01639 3.955 1441.71 1441.67 1441.95 1440.99 1440.97 1441.21 0
2012/2013 105 32 -77.59902 165.86343 3.0 2012-12-05T23:53:03Z 2012-12-06 11:53:03 12 -1.8049 -1.805 33.6313 2.651973 26.519732 1027.0829 27.0683 27.0683 3.032 5.87496 8.39591 255.464 69.23203 3.954 1438.86 1438.86 1439.02 1418.97 1418.86 1418.54 0
2012/2013 105 32 -77.59902 165.86343 4.0 2012-12-05T23:52:15Z 2012-12-06 11:52:15 12 -1.8082 -1.8083 32.6249 2.579596 25.795955 1026.2695 26.25 26.25 4.042 5.99349 8.56529 260.823 70.12328 3.953 1437.49 1437.49 1437.6 1418.97 1418.86 1418.54 0
2012/2013 105 32 -77.59902 165.86343 5.0 2012-12-05T23:52:17Z 2012-12-06 11:52:17 12 -1.803 -1.8031 32.6214 2.579798 25.797978 1026.2715 26.247 26.247 5.053 6.11086 8.73303 265.931 71.50471 3.953 1437.53 1437.52 1437.64 1418.97 1418.86 1418.54 0
2012/2013 105 32 -77.59902 165.86343 6.0 2012-12-05T23:52:20Z 2012-12-06 11:52:20 12 -1.8017 -1.8018 32.5763 2.576708 25.767079 1026.2397 26.2103 26.2103 6.064 6.11499 8.73894 266.12 71.53291 3.952 1437.49 1437.48 1437.6 1418.97 1418.86 1418.54 0
2012/2013 105 32 -77.59902 165.86343 7.0 2012-12-05T23:52:22Z 2012-12-06 11:52:22 12 -1.8022 -1.8024 33.3139 2.62957 26.295705 1026.8444 26.8102 26.8102 7.074 6.11084 8.73301 265.786 71.85968 3.953 1438.51 1438.5 1438.65 1418.97 1418.86 1418.54 0
2012/2013 105 32 -77.59902 165.86343 8.0 2012-12-05T23:52:24Z 2012-12-06 11:52:24 12 -1.7967 -1.7969 34.5241 2.716873 27.168733 1027.833 27.7941 27.7941 8.085 6.03729 8.62789 262.334 71.62103 3.952 1440.2 1440.19 1440.41 1418.97 1418.86 1418.54 0
2012/2013 105 32 -77.59902 165.86343 9.0 2012-12-05T23:52:26Z 2012-12-06 11:52:26 12 -1.7963 -1.7965 34.489 2.71445 27.144501 1027.8094 27.7655 27.7655 9.096 5.9734 8.53659 259.565 70.84621 3.952 1440.17 1440.16 1440.37 1418.97 1418.86 1418.54 0
2012/2013 105 32 -77.59902 165.86343 10.0 2012-12-05T23:52:28Z 2012-12-06 11:52:28 12 -1.797 -1.7972 34.4909 2.714576 27.14576 1027.8158 27.7671 27.7671 10.106 5.92715 8.4705 257.555 70.29733 3.952 1440.18 1440.18 1440.39 1418.97 1418.86 1418.54 0
2012/2013 105 32 -77.59902 165.86343 11.0 2012-12-05T23:52:30Z 2012-12-06 11:52:30 12 -1.7984 -1.7986 34.4637 2.712558 27.125577 1027.7986 27.745 27.745 11.117 5.9308 8.4757 257.719 70.32409 3.952 1440.16 1440.15 1440.36 1418.97 1418.86 1418.54 0
2012/2013 105 32 -77.59902 165.86343 12.0 2012-12-05T23:52:32Z 2012-12-06 11:52:32 12 -1.7989 -1.7991 34.469 2.712947 27.129471 1027.8078 27.7493 27.7493 12.128 5.9461 8.49757 258.383 70.50736 3.949 1440.17 1440.17 1440.38 1418.97 1418.86 1418.54 0
2012/2013 105 32 -77.59902 165.86343 13.0 2012-12-05T23:52:34Z 2012-12-06 11:52:34 12 -1.7983 -1.7986 34.5697 2.720233 27.202327 1027.8945 27.8312 27.8312 13.138 5.86543 8.38229 254.857 69.60183 3.951 1440.33 1440.33 1440.55 1418.97 1418.86 1418.54 0
2012/2013 105 32 -77.59902 165.86343 14.0 2012-12-05T23:52:36Z 2012-12-06 11:52:36 12 -1.8125 -1.8128 34.6403 2.724139 27.241392 1027.9572 27.889 27.889 14.149 5.53292 7.9071 240.396 65.6641 3.951 1440.38 1440.37 1440.6 1418.97 1418.86 1418.54 0
2012/2013 105 32 -77.59902 165.86343 15.0 2012-12-05T23:52:38Z 2012-12-06 11:52:38 12 -1.8188 -1.8191 34.6347 2.723262 27.232616 1027.9577 27.8846 27.8846 15.159 5.60003 8.003 243.313 66.44659 3.95 1440.35 1440.35 1440.57 1418.97 1418.86 1418.54 0
2012/2013 105 32 -77.59902 165.86343 16.0 2012-12-05T23:52:45Z 2012-12-06 11:52:45 12 -1.8154 -1.8157 34.6197 2.722523 27.225233 1027.9504 27.8724 27.8724 16.17 4.98523 7.12439 216.603 59.15129 3.949 1440.37 1440.36 1440.58 1418.97 1418.86 1418.54 0
2012/2013 105 32 -77.59902 165.86343 17.0 2012-12-05T23:52:50Z 2012-12-06 11:52:50 12 -1.8228 -1.8232 34.6437 2.723662 27.23662 1027.9749 27.8921 27.8921 17.181 6.0993 8.71651 265.003 72.36735 3.949 1440.38 1440.37 1440.6 1418.97 1418.86 1418.54 0
2012/2013 105 32 -77.59902 165.86343 18.0 2012-12-05T23:52:51Z 2012-12-06 11:52:51 12 -1.8262 -1.8266 34.6405 2.723196 27.231962 1027.9772 27.8896 27.8896 18.191 5.94444 8.49519 258.275 70.5219 3.949 1440.38 1440.37 1440.6 1418.97 1418.86 1418.54 0
2012/2013 105 32 -77.59902 165.86343 19.0 2012-12-05T23:52:53Z 2012-12-06 11:52:53 12 -1.8094 -1.8098 34.6354 2.724282 27.242821 1027.9775 27.885 27.8849 19.202 6.31178 9.02016 274.237 74.91102 3.949 1440.47 1440.46 1440.69 1418.97 1418.86 1418.54 0
2012/2013 105 32 -77.59902 165.86343 20.0 2012-12-05T23:52:56Z 2012-12-06 11:52:55 12 -1.8102 -1.8106 34.6367 2.724357 27.243573 1027.9835 27.8861 27.8861 20.213 5.98587 8.55441 260.076 71.04215 3.948 1440.48 1440.47 1440.7 1427.26 1427.19 1427.08 0
2012/2013 105 32 -77.59902 165.86343 21.0 2012-12-05T23:52:58Z 2012-12-06 11:52:58 12 -1.8039 -1.8043 34.6289 2.724376 27.243763 1027.9818 27.8795 27.8795 21.223 5.92512 8.46758 257.439 70.32924 3.948 1440.52 1440.51 1440.74 1429.66 1429.6 1429.55 0
2012/2013 105 32 -77.59902 165.86343 22.0 2012-12-05T23:53:00Z 2012-12-06 11:53:00 12 -1.8022 -1.8026 34.6263 2.724379 27.243789 1027.9845 27.8773 27.8773 22.234 5.9601 8.51758 258.959 70.74643 3.948 1440.54 1440.53 1440.76 1429.72 1429.66 1429.62 0
2012/2013 105 32 -77.59902 165.86343 23.0 2012-12-05T23:53:02Z 2012-12-06 11:53:02 12 -1.8007 -1.8011 34.6244 2.724417 27.244168 1027.9878 27.8758 27.8758 23.245 5.96063 8.51833 258.982 70.7546 3.948 1440.56 1440.55 1440.78 1429.72 1429.66 1429.62 0
2012/2013 105 32 -77.59902 165.86343 24.0 2012-12-05T23:53:04Z 2012-12-06 11:53:04 12 -1.8021 -1.8026 34.6259 2.724449 27.244494 1027.9939 27.877 27.877 24.255 5.94118 8.49055 258.137 70.52185 3.948 1440.57 1440.56 1440.79 1429.72 1429.66 1429.62 0
2012/2013 105 32 -77.59902 165.86343 25.0 2012-12-05T23:53:06Z 2012-12-06 11:53:06 12 -1.8017 -1.8022 34.6256 2.724511 27.245109 1027.9986 27.8768 27.8768 25.266 5.90902 8.44457 256.739 70.14057 3.948 1440.59 1440.58 1440.81 1429.72 1429.66 1429.62 0
2012/2013 105 32 -77.59902 165.86343 26.0 2012-12-05T23:53:08Z 2012-12-06 11:53:08 12 -1.7998 -1.8004 34.6241 2.724609 27.246091 1028.0022 27.8756 27.8755 26.277 5.95251 8.50673 258.629 70.65967 3.947 1440.61 1440.6 1440.83 1429.72 1429.66 1429.62 0
2012/2013 105 32 -77.59902 165.86343 27.0 2012-12-05T23:53:10Z 2012-12-06 11:53:10 12 -1.7982 -1.7988 34.6226 2.724685 27.246847 1028.0058 27.8743 27.8743 27.288 5.9253 8.46785 257.448 70.33911 3.947 1440.63 1440.62 1440.85 1429.72 1429.66 1429.62 0
2012/2013 105 32 -77.59902 165.86343 28.0 2012-12-05T23:53:13Z 2012-12-06 11:53:13 12 -1.799 -1.7996 34.6232 2.724707 27.247066 1028.0112 27.8748 27.8748 28.298 5.94337 8.49367 258.233 70.55235 3.947 1440.65 1440.63 1440.87 1429.72 1429.66 1429.62 0
2012/2013 105 32 -77.59902 165.86343 29.0 2012-12-05T23:53:15Z 2012-12-06 11:53:15 12 -1.7981 -1.7986 34.6227 2.7248 27.248 1028.0156 27.8744 27.8743 29.309 5.92571 8.46843 257.466 70.34428 3.947 1440.67 1440.66 1440.89 1429.72 1429.66 1429.62 0
2012/2013 105 32 -77.59902 165.86343 30.0 2012-12-05T23:53:17Z 2012-12-06 11:53:17 12 -1.7985 -1.7991 34.6227 2.724798 27.247982 1028.0204 27.8743 27.8743 30.32 5.94313 8.49332 258.222 70.55004 3.947 1440.68 1440.67 1440.9 1429.72 1429.66 1429.62 0
2012/2013 105 32 -77.59902 165.86343 31.0 2012-12-05T23:53:19Z 2012-12-06 11:53:19 12 -1.7985 -1.7991 34.6232 2.724896 27.248959 1028.0258 27.8748 27.8748 31.33 5.98485 8.55295 260.035 71.04579 3.946 1440.7 1440.69 1440.92 1429.72 1429.66 1429.62 0
2012/2013 105 32 -77.59902 165.86343 32.0 2012-12-05T23:53:21Z 2012-12-06 11:53:21 12 -1.797 -1.7976 34.6221 2.724984 27.249839 1028.0296 27.8738 27.8738 32.341 5.94582 8.49718 258.34 70.58477 3.946 1440.72 1440.71 1440.94 1429.72 1429.66 1429.62 0
2012/2013 105 32 -77.59902 165.86343 33.0 2012-12-05T23:53:23Z 2012-12-06 11:53:23 12 -1.7963 -1.797 34.6209 2.725003 27.25003 1028.0336 27.8729 27.8729 33.352 5.94502 8.49602 258.305 70.57584 3.946 1440.74 1440.73 1440.96 1429.72 1429.66 1429.62 0
2012/2013 105 32 -77.59902 165.86343 34.0 2012-12-05T23:53:25Z 2012-12-06 11:53:25 12 -1.7961 -1.7968 34.6208 2.725063 27.25063 1028.0383 27.8728 27.8728 34.363 5.96748 8.52813 259.281 70.84296 3.945 1440.76 1440.74 1440.98 1429.72 1429.66 1429.62 0
2012/2013 105 32 -77.59902 165.86343 35.0 2012-12-05T23:53:27Z 2012-12-06 11:53:27 12 -1.7975 -1.7982 34.6216 2.725046 27.250456 1028.0439 27.8735 27.8734 35.373 5.9498 8.50285 258.512 70.63067 3.945 1440.77 1440.75 1440.99 1429.72 1429.66 1429.62 0
2012/2013 105 32 -77.59902 165.86343 36.0 2012-12-05T23:53:30Z 2012-12-06 11:53:30 12 -1.8015 -1.8022 34.6226 2.724835 27.24835 1028.0497 27.8744 27.8744 36.384 5.9708 8.53286 259.424 70.87289 3.945 1440.77 1440.75 1440.99 1429.72 1429.66 1429.62 0
2012/2013 105 32 -77.59902 165.86343 37.0 2012-12-05T23:53:32Z 2012-12-06 11:53:32 12 -1.8016 -1.8023 34.6213 2.724774 27.247743 1028.0535 27.8733 27.8732 37.395 5.94053 8.48961 258.11 70.51272 3.945 1440.78 1440.77 1441.0 1429.72 1429.66 1429.62 0
2012/2013 105 32 -77.59902 165.86343 38.0 2012-12-05T23:53:36Z 2012-12-06 11:53:36 12 -1.8 -1.8008 34.621 2.724933 27.249329 1028.0581 27.873 27.873 38.406 5.98017 8.54626 259.832 70.98607 3.945 1440.8 1440.79 1441.02 1429.72 1429.66 1429.62 0
2012/2013 105 32 -77.59902 165.86343 39.0 2012-12-05T23:53:38Z 2012-12-06 11:53:38 12 -1.802 -1.8028 34.6221 2.724894 27.248939 1028.0639 27.874 27.874 39.417 6.01415 8.59483 261.308 71.38621 3.945 1440.81 1440.79 1441.03 1429.72 1429.66 1429.62 0
2012/2013 105 32 -77.59902 165.86343 40.0 2012-12-05T23:53:40Z 2012-12-06 11:53:40 12 -1.8008 -1.8016 34.6215 2.725005 27.250052 1028.0683 27.8735 27.8734 40.427 5.94736 8.49938 258.406 70.59559 3.945 1440.83 1440.82 1441.05 1429.72 1429.66 1429.62 0
2012/2013 105 32 -77.59902 165.86343 41.0 2012-12-05T23:53:42Z 2012-12-06 11:53:42 12 -1.8015 -1.8024 34.6206 2.724917 27.249172 1028.0724 27.8727 27.8727 41.438 6.00384 8.58008 260.86 71.26392 3.944 1440.85 1440.83 1441.07 1429.72 1429.66 1429.62 0
2012/2013 105 32 -77.59902 165.86343 42.0 2012-12-05T23:53:45Z 2012-12-06 11:53:45 12 -1.8023 -1.8031 34.623 2.725071 27.250714 1028.0792 27.8747 27.8746 42.449 5.98081 8.54717 259.859 70.99028 3.945 1440.86 1440.85 1441.08 1429.72 1429.66 1429.62 0
2012/2013 105 32 -77.59902 165.86343 43.0 2012-12-05T23:53:47Z 2012-12-06 11:53:47 12 -1.8027 -1.8035 34.6228 2.725079 27.250788 1028.084 27.8746 27.8745 43.46 5.99928 8.57357 260.662 71.20886 3.944 1440.88 1440.86 1441.1 1429.72 1429.66 1429.62 0
2012/2013 105 32 -77.59902 165.86343 44.0 2012-12-05T23:53:49Z 2012-12-06 11:53:49 12 -1.803 -1.8039 34.6225 2.725072 27.250721 1028.0886 27.8743 27.8743 44.471 5.99637 8.56942 260.536 71.17348 3.944 1440.89 1440.87 1441.11 1429.72 1429.66 1429.62 0
2012/2013 105 32 -77.59902 165.86343 45.0 2012-12-05T23:53:51Z 2012-12-06 11:53:51 12 -1.8033 -1.8042 34.6233 2.725149 27.251491 1028.0941 27.8749 27.8749 45.481 5.98797 8.55741 260.17 71.07356 3.944 1440.91 1440.89 1441.13 1429.72 1429.66 1429.62 0
2012/2013 105 32 -77.59902 165.86343 46.0 2012-12-05T23:53:53Z 2012-12-06 11:53:53 12 -1.8032 -1.8041 34.6129 2.724466 27.244663 1028.0905 27.8665 27.8665 46.492 5.99337 8.56512 260.407 71.13265 3.944 1440.91 1440.89 1441.13 1429.72 1429.66 1429.62 0
2012/2013 105 32 -77.59902 165.86343 47.0 2012-12-05T23:53:56Z 2012-12-06 11:53:56 12 -1.8037 -1.8047 34.6166 2.72473 27.247306 1028.0984 27.8695 27.8695 47.503 6.06222 8.66352 263.398 71.9506 3.943 1440.93 1440.91 1441.15 1435.22 1435.19 1435.28 0
2012/2013 105 32 -77.59902 165.86343 48.0 2012-12-05T23:53:58Z 2012-12-06 11:53:58 12 -1.8037 -1.8046 34.6232 2.725254 27.252539 1028.1086 27.8749 27.8749 48.514 6.06147 8.66244 263.364 71.94518 3.943 1440.95 1440.93 1441.18 1435.98 1435.95 1436.06 0
2012/2013 105 32 -77.59902 165.86343 49.0 2012-12-05T23:54:00Z 2012-12-06 11:54:00 12 -1.8042 -1.8052 34.6234 2.725272 27.252719 1028.1137 27.8751 27.875 49.524 6.03999 8.63175 262.431 71.68931 3.943 1440.97 1440.95 1441.19 1436.0 1435.97 1436.08 0
2012/2013 105 32 -77.59902 165.86343 50.0 2012-12-05T23:54:03Z 2012-12-06 11:54:03 12 -1.8044 -1.8054 34.6237 2.725326 27.253265 1028.1188 27.8753 27.8753 50.536 6.04374 8.63711 262.594 71.73376 3.943 1440.98 1440.96 1441.21 1436.0 1435.97 1436.08 0
2012/2013 105 32 -77.59902 165.86343 51.0 2012-12-05T23:54:05Z 2012-12-06 11:54:05 12 -1.8043 -1.8053 34.6236 2.725373 27.253734 1028.1236 27.8753 27.8752 51.546 6.08402 8.69468 264.344 72.21189 3.943 1441.0 1440.98 1441.23 1436.0 1435.97 1436.08 0
2012/2013 105 32 -77.59902 165.86343 52.0 2012-12-05T23:54:07Z 2012-12-06 11:54:07 12 -1.8055 -1.8066 34.6236 2.725319 27.253192 1028.1285 27.8753 27.8753 52.557 6.04156 8.634 262.499 71.70562 3.942 1441.01 1440.99 1441.24 1436.0 1435.97 1436.08 0
2012/2013 105 32 -77.59902 165.86343 53.0 2012-12-05T23:54:10Z 2012-12-06 11:54:10 12 -1.8059 -1.807 34.6238 2.72534 27.253398 1028.1335 27.8754 27.8754 53.568 6.06751 8.67108 263.626 72.01284 3.942 1441.02 1441.0 1441.25 1436.0 1435.97 1436.08 0
2012/2013 105 32 -77.59902 165.86343 5